<?xml version='1.0' encoding='UTF-8'?><gpx version="1.1" creator="JPX - https://github.com/jenetics/jpx" xmlns="http://www.topografix.com/GPX/1/1"><trk><trkseg><trkpt lat="37.6793166" lon="15.0559859"><ele>1230.0</ele><time>2026-05-03T07:03:52.002Z</time></trkpt><trkpt lat="37.6793928" lon="15.0559198"><ele>1230.0</ele><time>2026-05-03T07:03:54.002Z</time></trkpt><trkpt lat="37.6794785" lon="15.0558621"><ele>1230.0</ele><time>2026-05-03T07:03:56.002Z</time></trkpt><trkpt lat="37.6795299" lon="15.0557799"><ele>1230.0</ele><time>2026-05-03T07:03:58.002Z</time></trkpt><trkpt lat="37.6796047" lon="15.0556955"><ele>1230.0</ele><time>2026-05-03T07:04:00.002Z</time></trkpt><trkpt lat="37.6796962" lon="15.0556097"><ele>1232.0</ele><time>2026-05-03T07:04:02.001Z</time></trkpt><trkpt lat="37.6797811" lon="15.0555386"><ele>1234.0</ele><time>2026-05-03T07:04:04.001Z</time></trkpt><trkpt lat="37.6798555" lon="15.0554463"><ele>1236.0</ele><time>2026-05-03T07:04:06.001Z</time></trkpt><trkpt lat="37.6799562" lon="15.0554079"><ele>1238.0</ele><time>2026-05-03T07:04:08.001Z</time></trkpt><trkpt lat="37.6800173" lon="15.0553844"><ele>1240.0</ele><time>2026-05-03T07:04:09.002Z</time></trkpt><trkpt lat="37.6801099" lon="15.0553493"><ele>1240.0</ele><time>2026-05-03T07:04:11.002Z</time></trkpt><trkpt lat="37.6801749" lon="15.0552862"><ele>1240.0</ele><time>2026-05-03T07:04:13.002Z</time></trkpt><trkpt lat="37.6802137" lon="15.0552123"><ele>1240.0</ele><time>2026-05-03T07:04:15.001Z</time></trkpt><trkpt lat="37.6803088" lon="15.0551612"><ele>1240.0</ele><time>2026-05-03T07:04:17.001Z</time></trkpt><trkpt lat="37.6803778" lon="15.0551514"><ele>1240.0</ele><time>2026-05-03T07:04:18.002Z</time></trkpt><trkpt lat="37.6804778" lon="15.0551724"><ele>1240.0</ele><time>2026-05-03T07:04:20.001Z</time></trkpt><trkpt lat="37.6805528" lon="15.0551491"><ele>1240.6</ele><time>2026-05-03T07:04:22.002Z</time></trkpt><trkpt lat="37.6806067" lon="15.0550328"><ele>1241.2</ele><time>2026-05-03T07:04:24.002Z</time></trkpt><trkpt lat="37.6806634" lon="15.0549058"><ele>1241.8</ele><time>2026-05-03T07:04:26Z</time></trkpt><trkpt lat="37.6807508" lon="15.0548101"><ele>1242.4</ele><time>2026-05-03T07:04:28.002Z</time></trkpt><trkpt lat="37.6808328" lon="15.0548089"><ele>1243.0</ele><time>2026-05-03T07:04:30.001Z</time></trkpt><trkpt lat="37.6808995" lon="15.0548647"><ele>1242.8333333333333</ele><time>2026-05-03T07:04:32.002Z</time></trkpt><trkpt lat="37.6809698" lon="15.0548848"><ele>1242.6666666666665</ele><time>2026-05-03T07:04:34.001Z</time></trkpt><trkpt lat="37.6810349" lon="15.0548553"><ele>1242.5</ele><time>2026-05-03T07:04:36.001Z</time></trkpt><trkpt lat="37.6811051" lon="15.0548564"><ele>1242.3333333333333</ele><time>2026-05-03T07:04:38.002Z</time></trkpt><trkpt lat="37.6811724" lon="15.0548699"><ele>1242.1666666666667</ele><time>2026-05-03T07:04:52.001Z</time></trkpt><trkpt lat="37.6812298" lon="15.0549583"><ele>1242.0</ele><time>2026-05-03T07:04:54.002Z</time></trkpt><trkpt lat="37.6812521" lon="15.0551077"><ele>1242.0</ele><time>2026-05-03T07:04:56.001Z</time></trkpt><trkpt lat="37.6812826" lon="15.0552459"><ele>1242.0</ele><time>2026-05-03T07:04:58.001Z</time></trkpt><trkpt lat="37.6813256" lon="15.0553565"><ele>1242.0</ele><time>2026-05-03T07:05:00.001Z</time></trkpt><trkpt lat="37.681371" lon="15.0554763"><ele>1242.0</ele><time>2026-05-03T07:05:02.001Z</time></trkpt><trkpt lat="37.6814206" lon="15.0555746"><ele>1242.0</ele><time>2026-05-03T07:05:04.001Z</time></trkpt><trkpt lat="37.6814677" lon="15.0556958"><ele>1241.3333333333333</ele><time>2026-05-03T07:05:06.001Z</time></trkpt><trkpt lat="37.6814448" lon="15.0558015"><ele>1240.6666666666667</ele><time>2026-05-03T07:05:08.001Z</time></trkpt><trkpt lat="37.6814139" lon="15.0558741"><ele>1240.0</ele><time>2026-05-03T07:05:10.002Z</time></trkpt><trkpt lat="37.681417" lon="15.0559537"><ele>1239.3333333333335</ele><time>2026-05-03T07:05:12.003Z</time></trkpt><trkpt lat="37.6814362" lon="15.0560543"><ele>1238.6666666666667</ele><time>2026-05-03T07:05:14.002Z</time></trkpt><trkpt lat="37.681451" lon="15.0561444"><ele>1238.0</ele><time>2026-05-03T07:05:16.002Z</time></trkpt><trkpt lat="37.6814609" lon="15.0562629"><ele>1238.0</ele><time>2026-05-03T07:05:19.001Z</time></trkpt><trkpt lat="37.6814544" lon="15.0563482"><ele>1238.0</ele><time>2026-05-03T07:05:21Z</time></trkpt><trkpt lat="37.6814705" lon="15.0564301"><ele>1238.0</ele><time>2026-05-03T07:05:23.002Z</time></trkpt><trkpt lat="37.6815708" lon="15.0564839"><ele>1238.0</ele><time>2026-05-03T07:05:25.001Z</time></trkpt><trkpt lat="37.6816451" lon="15.0565984"><ele>1238.0</ele><time>2026-05-03T07:05:27.002Z</time></trkpt><trkpt lat="37.6817116" lon="15.0566591"><ele>1238.0</ele><time>2026-05-03T07:05:28.003Z</time></trkpt><trkpt lat="37.6817739" lon="15.0567071"><ele>1237.1666666666667</ele><time>2026-05-03T07:05:29.002Z</time></trkpt><trkpt lat="37.6818377" lon="15.0567513"><ele>1236.3333333333335</ele><time>2026-05-03T07:05:30.002Z</time></trkpt><trkpt lat="37.6819268" lon="15.0568116"><ele>1235.5</ele><time>2026-05-03T07:05:32.002Z</time></trkpt><trkpt lat="37.6819277" lon="15.0569361"><ele>1234.6666666666667</ele><time>2026-05-03T07:05:34.002Z</time></trkpt><trkpt lat="37.6819154" lon="15.0570353"><ele>1233.8333333333333</ele><time>2026-05-03T07:05:35.001Z</time></trkpt><trkpt lat="37.6819168" lon="15.0571263"><ele>1233.0</ele><time>2026-05-03T07:05:36.002Z</time></trkpt><trkpt lat="37.6819122" lon="15.0572813"><ele>1233.0</ele><time>2026-05-03T07:05:38.002Z</time></trkpt><trkpt lat="37.6818848" lon="15.0574176"><ele>1233.0</ele><time>2026-05-03T07:05:40.001Z</time></trkpt><trkpt lat="37.6818979" lon="15.0575787"><ele>1233.0</ele><time>2026-05-03T07:05:42.002Z</time></trkpt><trkpt lat="37.6819149" lon="15.0576826"><ele>1233.0</ele><time>2026-05-03T07:05:43.003Z</time></trkpt><trkpt lat="37.6819297" lon="15.0577731"><ele>1233.0</ele><time>2026-05-03T07:05:44.001Z</time></trkpt><trkpt lat="37.6819207" lon="15.0578719"><ele>1232.8333333333333</ele><time>2026-05-03T07:05:45.002Z</time></trkpt><trkpt lat="37.6819185" lon="15.0579577"><ele>1232.6666666666667</ele><time>2026-05-03T07:05:46.002Z</time></trkpt><trkpt lat="37.6819076" lon="15.0580719"><ele>1232.5</ele><time>2026-05-03T07:05:48.002Z</time></trkpt><trkpt lat="37.6819546" lon="15.05816"><ele>1232.3333333333335</ele><time>2026-05-03T07:05:50.002Z</time></trkpt><trkpt lat="37.6819854" lon="15.0582499"><ele>1232.1666666666667</ele><time>2026-05-03T07:05:52.002Z</time></trkpt><trkpt lat="37.6819962" lon="15.0583476"><ele>1232.0</ele><time>2026-05-03T07:05:54.001Z</time></trkpt><trkpt lat="37.6820354" lon="15.0584875"><ele>1232.0</ele><time>2026-05-03T07:05:56.003Z</time></trkpt><trkpt lat="37.6820476" lon="15.0585803"><ele>1232.0</ele><time>2026-05-03T07:05:57.002Z</time></trkpt><trkpt lat="37.682071" lon="15.0587234"><ele>1232.0</ele><time>2026-05-03T07:05:59.003Z</time></trkpt><trkpt lat="37.6820839" lon="15.0588544"><ele>1232.0</ele><time>2026-05-03T07:06:01.002Z</time></trkpt><trkpt lat="37.6820199" lon="15.058937"><ele>1232.0</ele><time>2026-05-03T07:06:03.003Z</time></trkpt><trkpt lat="37.6820071" lon="15.0590765"><ele>1231.0</ele><time>2026-05-03T07:06:05.002Z</time></trkpt><trkpt lat="37.6820325" lon="15.0591559"><ele>1230.0</ele><time>2026-05-03T07:06:06.002Z</time></trkpt><trkpt lat="37.6820751" lon="15.0592206"><ele>1229.0</ele><time>2026-05-03T07:06:07.002Z</time></trkpt><trkpt lat="37.6821097" lon="15.0593026"><ele>1228.0</ele><time>2026-05-03T07:06:08.002Z</time></trkpt><trkpt lat="37.6821126" lon="15.0594165"><ele>1227.0</ele><time>2026-05-03T07:06:09.001Z</time></trkpt><trkpt lat="37.6821365" lon="15.0595392"><ele>1226.0</ele><time>2026-05-03T07:06:10.002Z</time></trkpt><trkpt lat="37.6821463" lon="15.0596425"><ele>1226.0</ele><time>2026-05-03T07:06:11.001Z</time></trkpt><trkpt lat="37.6821439" lon="15.0597297"><ele>1226.0</ele><time>2026-05-03T07:06:12.003Z</time></trkpt><trkpt lat="37.6820656" lon="15.0598598"><ele>1226.0</ele><time>2026-05-03T07:06:14.003Z</time></trkpt><trkpt lat="37.6820235" lon="15.0599412"><ele>1226.0</ele><time>2026-05-03T07:06:15.002Z</time></trkpt><trkpt lat="37.6819823" lon="15.0600127"><ele>1226.0</ele><time>2026-05-03T07:06:16.002Z</time></trkpt><trkpt lat="37.6818999" lon="15.0600606"><ele>1226.0</ele><time>2026-05-03T07:06:18.002Z</time></trkpt><trkpt lat="37.681818" lon="15.0600579"><ele>1224.5</ele><time>2026-05-03T07:06:20.001Z</time></trkpt><trkpt lat="37.6817241" lon="15.0600859"><ele>1223.0</ele><time>2026-05-03T07:06:22.002Z</time></trkpt><trkpt lat="37.6816361" lon="15.0601106"><ele>1221.5</ele><time>2026-05-03T07:06:24.001Z</time></trkpt><trkpt lat="37.6815584" lon="15.0601478"><ele>1220.0</ele><time>2026-05-03T07:06:26.002Z</time></trkpt><trkpt lat="37.6814685" lon="15.060118"><ele>1218.5</ele><time>2026-05-03T07:06:28Z</time></trkpt><trkpt lat="37.6814039" lon="15.0601285"><ele>1217.0</ele><time>2026-05-03T07:06:30.001Z</time></trkpt><trkpt lat="37.6813382" lon="15.0601916"><ele>1217.0</ele><time>2026-05-03T07:06:32.003Z</time></trkpt><trkpt lat="37.6812945" lon="15.0602573"><ele>1217.0</ele><time>2026-05-03T07:06:34.001Z</time></trkpt><trkpt lat="37.6812293" lon="15.0603598"><ele>1217.0</ele><time>2026-05-03T07:06:37.001Z</time></trkpt><trkpt lat="37.6811934" lon="15.0604297"><ele>1217.0</ele><time>2026-05-03T07:06:38.002Z</time></trkpt><trkpt lat="37.6811484" lon="15.0605566"><ele>1217.0</ele><time>2026-05-03T07:06:40.001Z</time></trkpt><trkpt lat="37.6811598" lon="15.0606906"><ele>1217.0</ele><time>2026-05-03T07:06:42.003Z</time></trkpt><trkpt lat="37.6811596" lon="15.0607767"><ele>1217.0</ele><time>2026-05-03T07:06:43.001Z</time></trkpt><trkpt lat="37.6811532" lon="15.0608667"><ele>1217.0</ele><time>2026-05-03T07:06:44.003Z</time></trkpt><trkpt lat="37.681143" lon="15.0609485"><ele>1217.0</ele><time>2026-05-03T07:06:45.003Z</time></trkpt><trkpt lat="37.6810994" lon="15.0610718"><ele>1217.0</ele><time>2026-05-03T07:06:47.002Z</time></trkpt><trkpt lat="37.6810743" lon="15.0611727"><ele>1217.0</ele><time>2026-05-03T07:06:49.004Z</time></trkpt><trkpt lat="37.6810696" lon="15.061272"><ele>1215.3333333333335</ele><time>2026-05-03T07:06:51.001Z</time></trkpt><trkpt lat="37.681001" lon="15.0612885"><ele>1213.6666666666667</ele><time>2026-05-03T07:06:53.001Z</time></trkpt><trkpt lat="37.6809252" lon="15.061239"><ele>1212.0</ele><time>2026-05-03T07:06:55.003Z</time></trkpt><trkpt lat="37.680832" lon="15.0612305"><ele>1210.3333333333333</ele><time>2026-05-03T07:06:58.003Z</time></trkpt><trkpt lat="37.6807723" lon="15.0612746"><ele>1208.6666666666665</ele><time>2026-05-03T07:07:00.003Z</time></trkpt><trkpt lat="37.6807538" lon="15.0613826"><ele>1207.0</ele><time>2026-05-03T07:07:03.003Z</time></trkpt><trkpt lat="37.6807688" lon="15.0614862"><ele>1207.0</ele><time>2026-05-03T07:07:05.002Z</time></trkpt><trkpt lat="37.680735" lon="15.061555"><ele>1207.0</ele><time>2026-05-03T07:07:06.003Z</time></trkpt><trkpt lat="37.6806953" lon="15.061656"><ele>1207.0</ele><time>2026-05-03T07:07:08.002Z</time></trkpt><trkpt lat="37.6805941" lon="15.0616756"><ele>1207.0</ele><time>2026-05-03T07:07:10.003Z</time></trkpt><trkpt lat="37.6805144" lon="15.0617237"><ele>1207.0</ele><time>2026-05-03T07:07:12.002Z</time></trkpt><trkpt lat="37.6804621" lon="15.0617738"><ele>1207.0</ele><time>2026-05-03T07:07:14.002Z</time></trkpt><trkpt lat="37.6803992" lon="15.0617945"><ele>1206.0</ele><time>2026-05-03T07:07:16.001Z</time></trkpt><trkpt lat="37.6803419" lon="15.0618462"><ele>1205.0</ele><time>2026-05-03T07:07:19.002Z</time></trkpt><trkpt lat="37.6802696" lon="15.0618561"><ele>1204.0</ele><time>2026-05-03T07:14:03.004Z</time></trkpt><trkpt lat="37.6802246" lon="15.0617874"><ele>1203.0</ele><time>2026-05-03T07:14:06.004Z</time></trkpt><trkpt lat="37.6802077" lon="15.0616773"><ele>1202.0</ele><time>2026-05-03T07:14:09.004Z</time></trkpt><trkpt lat="37.6801798" lon="15.0615647"><ele>1201.0</ele><time>2026-05-03T07:14:12.003Z</time></trkpt><trkpt lat="37.6801311" lon="15.0614973"><ele>1201.0</ele><time>2026-05-03T07:14:14.003Z</time></trkpt><trkpt lat="37.6800692" lon="15.0614488"><ele>1201.0</ele><time>2026-05-03T07:14:16.004Z</time></trkpt><trkpt lat="37.6800005" lon="15.0614432"><ele>1201.0</ele><time>2026-05-03T07:14:18.004Z</time></trkpt><trkpt lat="37.6799099" lon="15.0614783"><ele>1201.0</ele><time>2026-05-03T07:14:21.004Z</time></trkpt><trkpt lat="37.6798468" lon="15.0615336"><ele>1201.0</ele><time>2026-05-03T07:14:24.003Z</time></trkpt><trkpt lat="37.6798329" lon="15.06165"><ele>1201.0</ele><time>2026-05-03T07:14:27.004Z</time></trkpt><trkpt lat="37.6798662" lon="15.0617376"><ele>1199.1666666666665</ele><time>2026-05-03T07:14:29.003Z</time></trkpt><trkpt lat="37.6798959" lon="15.0618119"><ele>1197.3333333333333</ele><time>2026-05-03T07:14:31.004Z</time></trkpt><trkpt lat="37.6799113" lon="15.0619231"><ele>1195.5</ele><time>2026-05-03T07:14:34.004Z</time></trkpt><trkpt lat="37.679895" lon="15.0620112"><ele>1193.6666666666667</ele><time>2026-05-03T07:14:35.989Z</time></trkpt><trkpt lat="37.6798835" lon="15.0621175"><ele>1191.8333333333335</ele><time>2026-05-03T07:14:38.004Z</time></trkpt><trkpt lat="37.6798143" lon="15.0622087"><ele>1190.0</ele><time>2026-05-03T07:14:40.003Z</time></trkpt><trkpt lat="37.6797659" lon="15.0622794"><ele>1190.0</ele><time>2026-05-03T07:14:42.004Z</time></trkpt><trkpt lat="37.6797438" lon="15.0623603"><ele>1190.0</ele><time>2026-05-03T07:14:44.003Z</time></trkpt><trkpt lat="37.6797348" lon="15.0624448"><ele>1190.0</ele><time>2026-05-03T07:14:46.004Z</time></trkpt><trkpt lat="37.6797269" lon="15.0625276"><ele>1190.0</ele><time>2026-05-03T07:14:48.004Z</time></trkpt><trkpt lat="37.6797179" lon="15.0626373"><ele>1190.0</ele><time>2026-05-03T07:14:50.003Z</time></trkpt><trkpt lat="37.6797418" lon="15.062746"><ele>1190.0</ele><time>2026-05-03T07:14:53.004Z</time></trkpt><trkpt lat="37.6798172" lon="15.0628044"><ele>1188.7142857142858</ele><time>2026-05-03T07:14:55.004Z</time></trkpt><trkpt lat="37.6798622" lon="15.0628645"><ele>1187.4285714285716</ele><time>2026-05-03T07:14:57.004Z</time></trkpt><trkpt lat="37.6798618" lon="15.0629538"><ele>1186.142857142857</ele><time>2026-05-03T07:14:59.003Z</time></trkpt><trkpt lat="37.6798454" lon="15.0630359"><ele>1184.857142857143</ele><time>2026-05-03T07:15:03.004Z</time></trkpt><trkpt lat="37.6797725" lon="15.0630332"><ele>1183.5714285714287</ele><time>2026-05-03T07:15:17.002Z</time></trkpt><trkpt lat="37.6797179" lon="15.0629777"><ele>1182.2857142857142</ele><time>2026-05-03T07:15:20.004Z</time></trkpt><trkpt lat="37.6797582" lon="15.0628807"><ele>1181.0</ele><time>2026-05-03T07:15:24.002Z</time></trkpt><trkpt lat="37.6798094" lon="15.0628308"><ele>1181.0</ele><time>2026-05-03T07:15:26.004Z</time></trkpt><trkpt lat="37.6799037" lon="15.0628674"><ele>1181.0</ele><time>2026-05-03T07:15:30.004Z</time></trkpt><trkpt lat="37.6799693" lon="15.0628801"><ele>1181.0</ele><time>2026-05-03T07:15:32.003Z</time></trkpt><trkpt lat="37.6800294" lon="15.0629052"><ele>1181.0</ele><time>2026-05-03T07:15:34.004Z</time></trkpt><trkpt lat="37.6800973" lon="15.0629188"><ele>1181.0</ele><time>2026-05-03T07:15:36.004Z</time></trkpt><trkpt lat="37.6801464" lon="15.0630079"><ele>1181.0</ele><time>2026-05-03T07:15:38.004Z</time></trkpt><trkpt lat="37.6801548" lon="15.0631152"><ele>1181.0</ele><time>2026-05-03T07:15:40.004Z</time></trkpt><trkpt lat="37.6801272" lon="15.0632323"><ele>1181.0</ele><time>2026-05-03T07:15:42.005Z</time></trkpt><trkpt lat="37.680122" lon="15.0633149"><ele>1181.0</ele><time>2026-05-03T07:15:43.004Z</time></trkpt><trkpt lat="37.6801376" lon="15.0634499"><ele>1181.0</ele><time>2026-05-03T07:15:45.003Z</time></trkpt><trkpt lat="37.6801381" lon="15.0635432"><ele>1181.0</ele><time>2026-05-03T07:15:47.004Z</time></trkpt><trkpt lat="37.6801001" lon="15.0636103"><ele>1181.0</ele><time>2026-05-03T07:15:49.003Z</time></trkpt><trkpt lat="37.6800359" lon="15.0636513"><ele>1179.3999999999999</ele><time>2026-05-03T07:15:51.004Z</time></trkpt><trkpt lat="37.6799536" lon="15.0637064"><ele>1177.8</ele><time>2026-05-03T07:15:53.003Z</time></trkpt><trkpt lat="37.6798821" lon="15.0638007"><ele>1176.1999999999998</ele><time>2026-05-03T07:15:55.004Z</time></trkpt><trkpt lat="37.6798122" lon="15.0638677"><ele>1174.6</ele><time>2026-05-03T07:15:57.003Z</time></trkpt><trkpt lat="37.67973" lon="15.0638786"><ele>1173.0</ele><time>2026-05-03T07:15:59.004Z</time></trkpt><trkpt lat="37.6796225" lon="15.0638476"><ele>1173.0</ele><time>2026-05-03T07:16:01.004Z</time></trkpt><trkpt lat="37.67953" lon="15.0638802"><ele>1173.0</ele><time>2026-05-03T07:16:03.004Z</time></trkpt><trkpt lat="37.6794616" lon="15.0639658"><ele>1173.0</ele><time>2026-05-03T07:16:05.004Z</time></trkpt><trkpt lat="37.6794417" lon="15.0640805"><ele>1173.0</ele><time>2026-05-03T07:16:07.004Z</time></trkpt><trkpt lat="37.6794632" lon="15.0642013"><ele>1173.0</ele><time>2026-05-03T07:16:09.003Z</time></trkpt><trkpt lat="37.6794781" lon="15.0643106"><ele>1172.0</ele><time>2026-05-03T07:16:11.004Z</time></trkpt><trkpt lat="37.679444" lon="15.0644053"><ele>1171.0</ele><time>2026-05-03T07:16:13.004Z</time></trkpt><trkpt lat="37.6793901" lon="15.0644998"><ele>1170.0</ele><time>2026-05-03T07:16:15.004Z</time></trkpt><trkpt lat="37.6793237" lon="15.0645757"><ele>1169.0</ele><time>2026-05-03T07:16:17.004Z</time></trkpt><trkpt lat="37.6792637" lon="15.0646427"><ele>1168.0</ele><time>2026-05-03T07:16:19.005Z</time></trkpt><trkpt lat="37.6792396" lon="15.0647453"><ele>1167.0</ele><time>2026-05-03T07:16:21.004Z</time></trkpt><trkpt lat="37.6792313" lon="15.0648407"><ele>1165.4</ele><time>2026-05-03T07:16:23.004Z</time></trkpt><trkpt lat="37.6792058" lon="15.0649301"><ele>1163.8000000000002</ele><time>2026-05-03T07:16:25.003Z</time></trkpt><trkpt lat="37.6791326" lon="15.0649868"><ele>1162.2</ele><time>2026-05-03T07:16:27.004Z</time></trkpt><trkpt lat="37.6790346" lon="15.0649959"><ele>1160.6000000000001</ele><time>2026-05-03T07:16:29.005Z</time></trkpt><trkpt lat="37.6789086" lon="15.0650137"><ele>1159.0</ele><time>2026-05-03T07:16:31.004Z</time></trkpt><trkpt lat="37.6788414" lon="15.06503"><ele>1158.3333333333333</ele><time>2026-05-03T07:16:32.003Z</time></trkpt><trkpt lat="37.6787743" lon="15.0650448"><ele>1157.6666666666665</ele><time>2026-05-03T07:16:33.004Z</time></trkpt><trkpt lat="37.6786782" lon="15.0650361"><ele>1157.0</ele><time>2026-05-03T07:16:35.005Z</time></trkpt><trkpt lat="37.6785962" lon="15.0650349"><ele>1156.3333333333333</ele><time>2026-05-03T07:16:37.004Z</time></trkpt><trkpt lat="37.6785131" lon="15.0650984"><ele>1155.6666666666667</ele><time>2026-05-03T07:16:39.004Z</time></trkpt><trkpt lat="37.6784572" lon="15.0651623"><ele>1155.0</ele><time>2026-05-03T07:16:40.005Z</time></trkpt><trkpt lat="37.6784085" lon="15.0652305"><ele>1153.6666666666667</ele><time>2026-05-03T07:16:41.003Z</time></trkpt><trkpt lat="37.6783564" lon="15.0653082"><ele>1152.3333333333333</ele><time>2026-05-03T07:16:42.004Z</time></trkpt><trkpt lat="37.6783015" lon="15.0653916"><ele>1151.0</ele><time>2026-05-03T07:16:43.004Z</time></trkpt><trkpt lat="37.6782466" lon="15.065448"><ele>1149.6666666666665</ele><time>2026-05-03T07:16:44.005Z</time></trkpt><trkpt lat="37.6781875" lon="15.0655086"><ele>1148.3333333333333</ele><time>2026-05-03T07:16:45.004Z</time></trkpt><trkpt lat="37.6781255" lon="15.0655668"><ele>1147.0</ele><time>2026-05-03T07:16:46.004Z</time></trkpt><trkpt lat="37.6780444" lon="15.0656217"><ele>1147.0</ele><time>2026-05-03T07:16:47.005Z</time></trkpt><trkpt lat="37.6779618" lon="15.0656689"><ele>1147.0</ele><time>2026-05-03T07:16:48.003Z</time></trkpt><trkpt lat="37.6778777" lon="15.0657139"><ele>1147.0</ele><time>2026-05-03T07:16:49.005Z</time></trkpt><trkpt lat="37.6777539" lon="15.065761"><ele>1147.0</ele><time>2026-05-03T07:16:51.003Z</time></trkpt><trkpt lat="37.6776725" lon="15.0658302"><ele>1147.0</ele><time>2026-05-03T07:16:53.004Z</time></trkpt><trkpt lat="37.6776604" lon="15.065914"><ele>1146.0</ele><time>2026-05-03T07:16:56.004Z</time></trkpt><trkpt lat="37.6777008" lon="15.0660071"><ele>1145.0</ele><time>2026-05-03T07:17:08.004Z</time></trkpt><trkpt lat="37.6777733" lon="15.066069"><ele>1144.0</ele><time>2026-05-03T07:17:11.005Z</time></trkpt><trkpt lat="37.677859" lon="15.0661238"><ele>1143.0</ele><time>2026-05-03T07:17:13.004Z</time></trkpt><trkpt lat="37.6779358" lon="15.0661684"><ele>1142.0</ele><time>2026-05-03T07:17:15.004Z</time></trkpt><trkpt lat="37.6780125" lon="15.0662013"><ele>1141.0</ele><time>2026-05-03T07:17:17.003Z</time></trkpt><trkpt lat="37.6781039" lon="15.0661982"><ele>1141.0</ele><time>2026-05-03T07:17:19.004Z</time></trkpt><trkpt lat="37.678183" lon="15.0661989"><ele>1141.0</ele><time>2026-05-03T07:17:21.005Z</time></trkpt><trkpt lat="37.6782815" lon="15.0661758"><ele>1141.0</ele><time>2026-05-03T07:17:24.005Z</time></trkpt><trkpt lat="37.6783597" lon="15.0661484"><ele>1141.0</ele><time>2026-05-03T07:17:26.005Z</time></trkpt><trkpt lat="37.6784493" lon="15.0661503"><ele>1141.0</ele><time>2026-05-03T07:17:29.005Z</time></trkpt><trkpt lat="37.6785241" lon="15.0661332"><ele>1141.0</ele><time>2026-05-03T07:17:31.005Z</time></trkpt><trkpt lat="37.678613" lon="15.0661737"><ele>1141.8</ele><time>2026-05-03T07:17:33.004Z</time></trkpt><trkpt lat="37.6786676" lon="15.0662452"><ele>1142.6</ele><time>2026-05-03T07:17:35.003Z</time></trkpt><trkpt lat="37.6787249" lon="15.0663275"><ele>1143.4</ele><time>2026-05-03T07:17:37.005Z</time></trkpt><trkpt lat="37.678754" lon="15.0664426"><ele>1144.2</ele><time>2026-05-03T07:17:39.005Z</time></trkpt><trkpt lat="37.6787569" lon="15.0665846"><ele>1145.0</ele><time>2026-05-03T07:17:41.005Z</time></trkpt><trkpt lat="37.6787501" lon="15.0667073"><ele>1145.0000000000002</ele><time>2026-05-03T07:17:43.005Z</time></trkpt><trkpt lat="37.6787627" lon="15.0667967"><ele>1145.0</ele><time>2026-05-03T07:17:45.004Z</time></trkpt><trkpt lat="37.6788159" lon="15.0668704"><ele>1145.0</ele><time>2026-05-03T07:17:47.003Z</time></trkpt><trkpt lat="37.6788894" lon="15.0669001"><ele>1145.0</ele><time>2026-05-03T07:17:49.005Z</time></trkpt><trkpt lat="37.6789618" lon="15.0669137"><ele>1145.0</ele><time>2026-05-03T07:17:51.005Z</time></trkpt><trkpt lat="37.6790077" lon="15.0669772"><ele>1145.0000000000002</ele><time>2026-05-03T07:17:53.005Z</time></trkpt><trkpt lat="37.6790196" lon="15.0670649"><ele>1145.0</ele><time>2026-05-03T07:17:55.004Z</time></trkpt><trkpt lat="37.6790037" lon="15.0671992"><ele>1145.0</ele><time>2026-05-03T07:17:57.005Z</time></trkpt><trkpt lat="37.6790033" lon="15.0673643"><ele>1145.0</ele><time>2026-05-03T07:17:59.004Z</time></trkpt><trkpt lat="37.6790042" lon="15.0675011"><ele>1145.0</ele><time>2026-05-03T07:18:01.003Z</time></trkpt><trkpt lat="37.6790107" lon="15.0676113"><ele>1145.0</ele><time>2026-05-03T07:18:03.004Z</time></trkpt><trkpt lat="37.6790198" lon="15.0677201"><ele>1145.0</ele><time>2026-05-03T07:18:05.005Z</time></trkpt><trkpt lat="37.6790199" lon="15.0678417"><ele>1144.0</ele><time>2026-05-03T07:18:07.005Z</time></trkpt><trkpt lat="37.6790059" lon="15.0679557"><ele>1143.0</ele><time>2026-05-03T07:18:09.005Z</time></trkpt><trkpt lat="37.6789428" lon="15.0680557"><ele>1142.0</ele><time>2026-05-03T07:18:11.005Z</time></trkpt><trkpt lat="37.678901" lon="15.0681819"><ele>1141.0</ele><time>2026-05-03T07:18:13.004Z</time></trkpt><trkpt lat="37.6788662" lon="15.0682869"><ele>1140.0</ele><time>2026-05-03T07:18:15.004Z</time></trkpt><trkpt lat="37.6788118" lon="15.0683849"><ele>1139.5</ele><time>2026-05-03T07:18:17.004Z</time></trkpt><trkpt lat="37.6787816" lon="15.0684795"><ele>1139.0</ele><time>2026-05-03T07:18:19.003Z</time></trkpt><trkpt lat="37.6787689" lon="15.0686011"><ele>1138.5</ele><time>2026-05-03T07:18:22.004Z</time></trkpt><trkpt lat="37.678824" lon="15.0686912"><ele>1138.0</ele><time>2026-05-03T07:18:24.004Z</time></trkpt><trkpt lat="37.678889" lon="15.0687476"><ele>1137.5</ele><time>2026-05-03T07:18:25.005Z</time></trkpt><trkpt lat="37.6789448" lon="15.0687917"><ele>1137.0</ele><time>2026-05-03T07:18:26.004Z</time></trkpt><trkpt lat="37.6790462" lon="15.0688646"><ele>1137.0</ele><time>2026-05-03T07:18:28.005Z</time></trkpt><trkpt lat="37.6791027" lon="15.068989"><ele>1137.0</ele><time>2026-05-03T07:18:30.004Z</time></trkpt><trkpt lat="37.6791247" lon="15.0690674"><ele>1137.0</ele><time>2026-05-03T07:18:31.003Z</time></trkpt><trkpt lat="37.6791774" lon="15.0692225"><ele>1137.0</ele><time>2026-05-03T07:18:33.004Z</time></trkpt><trkpt lat="37.6792297" lon="15.0693112"><ele>1137.0</ele><time>2026-05-03T07:18:34.004Z</time></trkpt><trkpt lat="37.6792632" lon="15.069388"><ele>1137.6</ele><time>2026-05-03T07:18:35.003Z</time></trkpt><trkpt lat="37.6792999" lon="15.0694567"><ele>1138.2</ele><time>2026-05-03T07:18:36.004Z</time></trkpt><trkpt lat="37.6793876" lon="15.0695302"><ele>1138.8</ele><time>2026-05-03T07:18:38.004Z</time></trkpt><trkpt lat="37.6794716" lon="15.0695581"><ele>1139.4</ele><time>2026-05-03T07:18:40.005Z</time></trkpt><trkpt lat="37.6795778" lon="15.069549"><ele>1140.0</ele><time>2026-05-03T07:18:42.005Z</time></trkpt><trkpt lat="37.6796596" lon="15.0696283"><ele>1140.0</ele><time>2026-05-03T07:18:44.005Z</time></trkpt><trkpt lat="37.6797355" lon="15.0697486"><ele>1140.0</ele><time>2026-05-03T07:18:46.004Z</time></trkpt><trkpt lat="37.679843" lon="15.0698106"><ele>1140.0</ele><time>2026-05-03T07:18:48.005Z</time></trkpt><trkpt lat="37.6799398" lon="15.0697675"><ele>1140.0</ele><time>2026-05-03T07:18:50.005Z</time></trkpt><trkpt lat="37.6800057" lon="15.0698015"><ele>1140.0</ele><time>2026-05-03T07:18:52.004Z</time></trkpt><trkpt lat="37.6800777" lon="15.069888"><ele>1140.8</ele><time>2026-05-03T07:18:54.004Z</time></trkpt><trkpt lat="37.6801797" lon="15.0699664"><ele>1141.6</ele><time>2026-05-03T07:18:56.004Z</time></trkpt><trkpt lat="37.6802408" lon="15.0700009"><ele>1142.4</ele><time>2026-05-03T07:18:57.005Z</time></trkpt><trkpt lat="37.6803092" lon="15.0700242"><ele>1143.2</ele><time>2026-05-03T07:18:58.004Z</time></trkpt><trkpt lat="37.6804232" lon="15.0700362"><ele>1144.0</ele><time>2026-05-03T07:19:00.005Z</time></trkpt><trkpt lat="37.6805155" lon="15.0700332"><ele>1144.0</ele><time>2026-05-03T07:19:02.004Z</time></trkpt><trkpt lat="37.680599" lon="15.0701158"><ele>1144.0</ele><time>2026-05-03T07:19:04.005Z</time></trkpt><trkpt lat="37.6806258" lon="15.0701937"><ele>1144.0</ele><time>2026-05-03T07:19:05.004Z</time></trkpt><trkpt lat="37.6806652" lon="15.0702684"><ele>1144.0</ele><time>2026-05-03T07:19:06.005Z</time></trkpt><trkpt lat="37.6807287" lon="15.0703379"><ele>1144.0</ele><time>2026-05-03T07:19:07.005Z</time></trkpt><trkpt lat="37.6807787" lon="15.070406"><ele>1144.0</ele><time>2026-05-03T07:19:08.005Z</time></trkpt><trkpt lat="37.6808257" lon="15.0704678"><ele>1144.0</ele><time>2026-05-03T07:19:09.005Z</time></trkpt><trkpt lat="37.6808863" lon="15.0705252"><ele>1144.0</ele><time>2026-05-03T07:19:10.005Z</time></trkpt><trkpt lat="37.6809539" lon="15.0705767"><ele>1144.0</ele><time>2026-05-03T07:19:11.005Z</time></trkpt><trkpt lat="37.6810175" lon="15.0706644"><ele>1144.0</ele><time>2026-05-03T07:19:12.005Z</time></trkpt><trkpt lat="37.6810961" lon="15.0707428"><ele>1144.0</ele><time>2026-05-03T07:19:13.004Z</time></trkpt><trkpt lat="37.6811757" lon="15.0708187"><ele>1144.0</ele><time>2026-05-03T07:19:14.005Z</time></trkpt><trkpt lat="37.6812522" lon="15.0708806"><ele>1143.3333333333333</ele><time>2026-05-03T07:19:15.004Z</time></trkpt><trkpt lat="37.6813176" lon="15.0709306"><ele>1142.6666666666665</ele><time>2026-05-03T07:19:16.005Z</time></trkpt><trkpt lat="37.6813981" lon="15.0709712"><ele>1142.0</ele><time>2026-05-03T07:19:17.005Z</time></trkpt><trkpt lat="37.6814735" lon="15.0710191"><ele>1141.3333333333333</ele><time>2026-05-03T07:19:18.004Z</time></trkpt><trkpt lat="37.6815442" lon="15.0710412"><ele>1140.6666666666667</ele><time>2026-05-03T07:19:19.005Z</time></trkpt><trkpt lat="37.6816275" lon="15.0710493"><ele>1140.0</ele><time>2026-05-03T07:19:20.004Z</time></trkpt><trkpt lat="37.6817097" lon="15.0710527"><ele>1140.0</ele><time>2026-05-03T07:19:21.005Z</time></trkpt><trkpt lat="37.6817831" lon="15.0710617"><ele>1140.0</ele><time>2026-05-03T07:19:22.003Z</time></trkpt><trkpt lat="37.6818443" lon="15.0710985"><ele>1140.0</ele><time>2026-05-03T07:19:23.004Z</time></trkpt><trkpt lat="37.6818995" lon="15.0711667"><ele>1140.0</ele><time>2026-05-03T07:19:24.003Z</time></trkpt><trkpt lat="37.6819483" lon="15.0712399"><ele>1140.0</ele><time>2026-05-03T07:19:25.003Z</time></trkpt><trkpt lat="37.6819734" lon="15.0713262"><ele>1140.0</ele><time>2026-05-03T07:19:26.004Z</time></trkpt><trkpt lat="37.6820138" lon="15.0714006"><ele>1140.0</ele><time>2026-05-03T07:19:27.005Z</time></trkpt><trkpt lat="37.682064" lon="15.0714618"><ele>1140.0</ele><time>2026-05-03T07:19:28.004Z</time></trkpt><trkpt lat="37.6821409" lon="15.0714969"><ele>1140.0</ele><time>2026-05-03T07:19:29.005Z</time></trkpt><trkpt lat="37.6822078" lon="15.071534"><ele>1140.0</ele><time>2026-05-03T07:19:30.005Z</time></trkpt><trkpt lat="37.6822922" lon="15.0716267"><ele>1140.0</ele><time>2026-05-03T07:19:32.005Z</time></trkpt><trkpt lat="37.6823273" lon="15.0717447"><ele>1140.0</ele><time>2026-05-03T07:19:34.004Z</time></trkpt><trkpt lat="37.6824047" lon="15.0718456"><ele>1140.0</ele><time>2026-05-03T07:19:36.005Z</time></trkpt><trkpt lat="37.6824943" lon="15.0719286"><ele>1140.0</ele><time>2026-05-03T07:19:38.004Z</time></trkpt><trkpt lat="37.6825497" lon="15.0720323"><ele>1140.0</ele><time>2026-05-03T07:19:40.005Z</time></trkpt><trkpt lat="37.6825573" lon="15.0721483"><ele>1140.0</ele><time>2026-05-03T07:19:42.005Z</time></trkpt><trkpt lat="37.6825329" lon="15.0722272"><ele>1140.0</ele><time>2026-05-03T07:19:43.005Z</time></trkpt><trkpt lat="37.682513" lon="15.0723043"><ele>1140.0</ele><time>2026-05-03T07:19:44.005Z</time></trkpt><trkpt lat="37.6824772" lon="15.0724478"><ele>1138.8</ele><time>2026-05-03T07:19:46.004Z</time></trkpt><trkpt lat="37.6824183" lon="15.0725452"><ele>1137.6</ele><time>2026-05-03T07:19:48.004Z</time></trkpt><trkpt lat="37.6823308" lon="15.0725729"><ele>1136.4</ele><time>2026-05-03T07:19:50.005Z</time></trkpt><trkpt lat="37.6822139" lon="15.0725796"><ele>1135.2</ele><time>2026-05-03T07:19:52.004Z</time></trkpt><trkpt lat="37.6820958" lon="15.0726107"><ele>1134.0</ele><time>2026-05-03T07:19:54.004Z</time></trkpt><trkpt lat="37.6820022" lon="15.0726779"><ele>1133.6000000000001</ele><time>2026-05-03T07:19:56.004Z</time></trkpt><trkpt lat="37.6818988" lon="15.0727118"><ele>1133.2</ele><time>2026-05-03T07:19:58.004Z</time></trkpt><trkpt lat="37.6818096" lon="15.0727433"><ele>1132.8000000000002</ele><time>2026-05-03T07:20:00.005Z</time></trkpt><trkpt lat="37.6817806" lon="15.0728355"><ele>1132.4</ele><time>2026-05-03T07:20:02.005Z</time></trkpt><trkpt lat="37.6818044" lon="15.0730061"><ele>1132.0</ele><time>2026-05-03T07:20:04.005Z</time></trkpt><trkpt lat="37.6818204" lon="15.0730932"><ele>1132.0</ele><time>2026-05-03T07:20:05.005Z</time></trkpt><trkpt lat="37.6818368" lon="15.073175"><ele>1132.0</ele><time>2026-05-03T07:20:06.004Z</time></trkpt><trkpt lat="37.6818525" lon="15.0732558"><ele>1132.0</ele><time>2026-05-03T07:20:07.004Z</time></trkpt><trkpt lat="37.6818655" lon="15.0733362"><ele>1132.0</ele><time>2026-05-03T07:20:08.005Z</time></trkpt><trkpt lat="37.6818929" lon="15.0734838"><ele>1132.0</ele><time>2026-05-03T07:20:10.005Z</time></trkpt><trkpt lat="37.6819168" lon="15.0735656"><ele>1132.0</ele><time>2026-05-03T07:20:11.003Z</time></trkpt><trkpt lat="37.6819633" lon="15.0736971"><ele>1131.0</ele><time>2026-05-03T07:20:13.004Z</time></trkpt><trkpt lat="37.6820455" lon="15.0737823"><ele>1130.0</ele><time>2026-05-03T07:20:15.004Z</time></trkpt><trkpt lat="37.6821805" lon="15.0738121"><ele>1129.0</ele><time>2026-05-03T07:20:17.004Z</time></trkpt><trkpt lat="37.6822543" lon="15.0738164"><ele>1128.0</ele><time>2026-05-03T07:20:18.004Z</time></trkpt><trkpt lat="37.6823319" lon="15.0738315"><ele>1127.0</ele><time>2026-05-03T07:20:19.005Z</time></trkpt><trkpt lat="37.6824152" lon="15.0738922"><ele>1127.0</ele><time>2026-05-03T07:20:20.005Z</time></trkpt><trkpt lat="37.6824899" lon="15.0739549"><ele>1127.0</ele><time>2026-05-03T07:20:21.005Z</time></trkpt><trkpt lat="37.6825515" lon="15.0740185"><ele>1127.0</ele><time>2026-05-03T07:20:22.005Z</time></trkpt><trkpt lat="37.6826076" lon="15.0740887"><ele>1127.0</ele><time>2026-05-03T07:20:23.005Z</time></trkpt><trkpt lat="37.6826577" lon="15.07415"><ele>1127.0</ele><time>2026-05-03T07:20:24.005Z</time></trkpt><trkpt lat="37.6827284" lon="15.0742"><ele>1127.0</ele><time>2026-05-03T07:20:25.005Z</time></trkpt><trkpt lat="37.6828111" lon="15.0742508"><ele>1126.1666666666667</ele><time>2026-05-03T07:20:26.006Z</time></trkpt><trkpt lat="37.6828993" lon="15.074301"><ele>1125.3333333333335</ele><time>2026-05-03T07:20:27.006Z</time></trkpt><trkpt lat="37.682985" lon="15.0743499"><ele>1124.5</ele><time>2026-05-03T07:20:28.005Z</time></trkpt><trkpt lat="37.6830651" lon="15.0744039"><ele>1123.6666666666667</ele><time>2026-05-03T07:20:29.005Z</time></trkpt><trkpt lat="37.683138" lon="15.0744379"><ele>1122.8333333333333</ele><time>2026-05-03T07:20:30.005Z</time></trkpt><trkpt lat="37.6832147" lon="15.0744549"><ele>1122.0</ele><time>2026-05-03T07:20:31.006Z</time></trkpt><trkpt lat="37.6832885" lon="15.074466"><ele>1122.0</ele><time>2026-05-03T07:20:32.005Z</time></trkpt><trkpt lat="37.683368" lon="15.074497"><ele>1122.0</ele><time>2026-05-03T07:20:33.004Z</time></trkpt><trkpt lat="37.6834651" lon="15.0745509"><ele>1122.0</ele><time>2026-05-03T07:20:34.005Z</time></trkpt><trkpt lat="37.6835624" lon="15.0746115"><ele>1122.0</ele><time>2026-05-03T07:20:35.005Z</time></trkpt><trkpt lat="37.6836635" lon="15.0746595"><ele>1122.0</ele><time>2026-05-03T07:20:36.004Z</time></trkpt><trkpt lat="37.6837514" lon="15.0747127"><ele>1121.6666666666667</ele><time>2026-05-03T07:20:37.004Z</time></trkpt><trkpt lat="37.6838397" lon="15.0747571"><ele>1121.3333333333333</ele><time>2026-05-03T07:20:38.005Z</time></trkpt><trkpt lat="37.6839247" lon="15.0748008"><ele>1121.0</ele><time>2026-05-03T07:20:39.003Z</time></trkpt><trkpt lat="37.6840027" lon="15.0748559"><ele>1120.6666666666665</ele><time>2026-05-03T07:20:40.006Z</time></trkpt><trkpt lat="37.6840654" lon="15.0749292"><ele>1120.3333333333333</ele><time>2026-05-03T07:20:41.005Z</time></trkpt><trkpt lat="37.6841276" lon="15.0749952"><ele>1120.0</ele><time>2026-05-03T07:20:42.004Z</time></trkpt><trkpt lat="37.684184" lon="15.0750418"><ele>1118.4</ele><time>2026-05-03T07:20:43.004Z</time></trkpt><trkpt lat="37.6842365" lon="15.0750916"><ele>1116.8</ele><time>2026-05-03T07:20:44.005Z</time></trkpt><trkpt lat="37.6843007" lon="15.0751201"><ele>1115.2</ele><time>2026-05-03T07:20:45.005Z</time></trkpt><trkpt lat="37.684424" lon="15.075135"><ele>1113.6</ele><time>2026-05-03T07:20:47.005Z</time></trkpt><trkpt lat="37.6845616" lon="15.0751656"><ele>1112.0</ele><time>2026-05-03T07:20:49.005Z</time></trkpt><trkpt lat="37.6846427" lon="15.0752066"><ele>1111.4</ele><time>2026-05-03T07:20:50.005Z</time></trkpt><trkpt lat="37.6847314" lon="15.0752544"><ele>1110.8000000000002</ele><time>2026-05-03T07:20:51.005Z</time></trkpt><trkpt lat="37.6848144" lon="15.0753068"><ele>1110.2</ele><time>2026-05-03T07:20:52.004Z</time></trkpt><trkpt lat="37.6849157" lon="15.0753585"><ele>1109.6000000000001</ele><time>2026-05-03T07:20:53.005Z</time></trkpt><trkpt lat="37.6849986" lon="15.0754208"><ele>1109.0</ele><time>2026-05-03T07:20:54.005Z</time></trkpt><trkpt lat="37.6850721" lon="15.0754922"><ele>1109.0</ele><time>2026-05-03T07:20:55.004Z</time></trkpt><trkpt lat="37.6851463" lon="15.0755591"><ele>1109.0</ele><time>2026-05-03T07:20:56.005Z</time></trkpt><trkpt lat="37.6852239" lon="15.0756359"><ele>1109.0</ele><time>2026-05-03T07:20:57.004Z</time></trkpt><trkpt lat="37.6852939" lon="15.0757337"><ele>1109.0</ele><time>2026-05-03T07:20:58.005Z</time></trkpt><trkpt lat="37.6853631" lon="15.0758152"><ele>1109.0</ele><time>2026-05-03T07:20:59.005Z</time></trkpt><trkpt lat="37.6854362" lon="15.0758926"><ele>1108.0</ele><time>2026-05-03T07:21:00.004Z</time></trkpt><trkpt lat="37.6854965" lon="15.0759674"><ele>1107.0</ele><time>2026-05-03T07:21:01.005Z</time></trkpt><trkpt lat="37.6855409" lon="15.0760405"><ele>1106.0</ele><time>2026-05-03T07:21:02.006Z</time></trkpt><trkpt lat="37.685595" lon="15.0760854"><ele>1105.0</ele><time>2026-05-03T07:21:03.005Z</time></trkpt><trkpt lat="37.6856591" lon="15.0761434"><ele>1104.0</ele><time>2026-05-03T07:21:04.005Z</time></trkpt><trkpt lat="37.6857107" lon="15.0761927"><ele>1103.0</ele><time>2026-05-03T07:21:05.005Z</time></trkpt><trkpt lat="37.6858041" lon="15.0762137"><ele>1103.0</ele><time>2026-05-03T07:21:07.005Z</time></trkpt><trkpt lat="37.6859172" lon="15.0762071"><ele>1103.0</ele><time>2026-05-03T07:21:09.005Z</time></trkpt><trkpt lat="37.6860281" lon="15.0761471"><ele>1103.0</ele><time>2026-05-03T07:21:11.004Z</time></trkpt><trkpt lat="37.6860858" lon="15.0760753"><ele>1103.0</ele><time>2026-05-03T07:21:13.004Z</time></trkpt><trkpt lat="37.6861451" lon="15.0759331"><ele>1103.0</ele><time>2026-05-03T07:21:15.004Z</time></trkpt><trkpt lat="37.686198" lon="15.0758511"><ele>1101.6666666666667</ele><time>2026-05-03T07:21:17.004Z</time></trkpt><trkpt lat="37.6862618" lon="15.0758227"><ele>1100.3333333333335</ele><time>2026-05-03T07:21:18.004Z</time></trkpt><trkpt lat="37.6863322" lon="15.0758004"><ele>1099.0</ele><time>2026-05-03T07:21:19.005Z</time></trkpt><trkpt lat="37.6864278" lon="15.0758022"><ele>1097.6666666666667</ele><time>2026-05-03T07:21:20.005Z</time></trkpt><trkpt lat="37.6865075" lon="15.0758072"><ele>1096.3333333333333</ele><time>2026-05-03T07:21:21.004Z</time></trkpt><trkpt lat="37.6865762" lon="15.0758121"><ele>1095.0</ele><time>2026-05-03T07:21:22.005Z</time></trkpt><trkpt lat="37.6866438" lon="15.075823"><ele>1095.0</ele><time>2026-05-03T07:21:23.004Z</time></trkpt><trkpt lat="37.6867237" lon="15.0758244"><ele>1095.0</ele><time>2026-05-03T07:21:24.006Z</time></trkpt><trkpt lat="37.6868291" lon="15.0758162"><ele>1095.0</ele><time>2026-05-03T07:21:25.005Z</time></trkpt><trkpt lat="37.6869468" lon="15.075832"><ele>1095.0</ele><time>2026-05-03T07:21:26.005Z</time></trkpt><trkpt lat="37.6870569" lon="15.0758448"><ele>1095.0</ele><time>2026-05-03T07:21:27.004Z</time></trkpt><trkpt lat="37.6871306" lon="15.075875"><ele>1094.8333333333333</ele><time>2026-05-03T07:21:28.006Z</time></trkpt><trkpt lat="37.6872017" lon="15.0758958"><ele>1094.6666666666667</ele><time>2026-05-03T07:21:29.004Z</time></trkpt><trkpt lat="37.6872851" lon="15.0758883"><ele>1094.5</ele><time>2026-05-03T07:21:30.004Z</time></trkpt><trkpt lat="37.6873604" lon="15.075897"><ele>1094.3333333333335</ele><time>2026-05-03T07:21:31.005Z</time></trkpt><trkpt lat="37.6874323" lon="15.0759247"><ele>1094.1666666666667</ele><time>2026-05-03T07:21:32.005Z</time></trkpt><trkpt lat="37.6874984" lon="15.0759711"><ele>1094.0</ele><time>2026-05-03T07:21:33.004Z</time></trkpt><trkpt lat="37.6876005" lon="15.0760538"><ele>1094.0</ele><time>2026-05-03T07:21:35.005Z</time></trkpt><trkpt lat="37.6877118" lon="15.0760519"><ele>1094.0</ele><time>2026-05-03T07:21:37.006Z</time></trkpt><trkpt lat="37.6877749" lon="15.0760656"><ele>1094.0</ele><time>2026-05-03T07:21:38.006Z</time></trkpt><trkpt lat="37.6878506" lon="15.0760709"><ele>1094.0</ele><time>2026-05-03T07:21:39.005Z</time></trkpt><trkpt lat="37.6879263" lon="15.0760643"><ele>1094.0</ele><time>2026-05-03T07:21:40.006Z</time></trkpt><trkpt lat="37.6880001" lon="15.0760414"><ele>1094.0</ele><time>2026-05-03T07:21:41.005Z</time></trkpt><trkpt lat="37.6880704" lon="15.0760136"><ele>1094.1666666666667</ele><time>2026-05-03T07:21:42.005Z</time></trkpt><trkpt lat="37.688143" lon="15.0759796"><ele>1094.3333333333335</ele><time>2026-05-03T07:21:43.004Z</time></trkpt><trkpt lat="37.6882286" lon="15.0759544"><ele>1094.5</ele><time>2026-05-03T07:21:44.006Z</time></trkpt><trkpt lat="37.688314" lon="15.0759529"><ele>1094.6666666666667</ele><time>2026-05-03T07:21:45.005Z</time></trkpt><trkpt lat="37.688408" lon="15.0759657"><ele>1094.8333333333333</ele><time>2026-05-03T07:21:46.005Z</time></trkpt><trkpt lat="37.6884964" lon="15.0759722"><ele>1095.0</ele><time>2026-05-03T07:21:47.004Z</time></trkpt><trkpt lat="37.6886057" lon="15.0759708"><ele>1096.0</ele><time>2026-05-03T07:21:49.005Z</time></trkpt><trkpt lat="37.6886869" lon="15.0759683"><ele>1097.0</ele><time>2026-05-03T07:21:50.006Z</time></trkpt><trkpt lat="37.6887988" lon="15.0759639"><ele>1098.0</ele><time>2026-05-03T07:21:51.004Z</time></trkpt><trkpt lat="37.6889125" lon="15.0759574"><ele>1099.0</ele><time>2026-05-03T07:21:52.006Z</time></trkpt><trkpt lat="37.6890263" lon="15.0759381"><ele>1100.0</ele><time>2026-05-03T07:21:53.007Z</time></trkpt><trkpt lat="37.6891484" lon="15.0759384"><ele>1100.0</ele><time>2026-05-03T07:21:54.006Z</time></trkpt><trkpt lat="37.6892625" lon="15.0759383"><ele>1100.0</ele><time>2026-05-03T07:21:55.006Z</time></trkpt><trkpt lat="37.6893486" lon="15.0759455"><ele>1100.0</ele><time>2026-05-03T07:21:56.004Z</time></trkpt><trkpt lat="37.6894105" lon="15.0759714"><ele>1100.0</ele><time>2026-05-03T07:21:57.004Z</time></trkpt><trkpt lat="37.6894823" lon="15.0760176"><ele>1100.0</ele><time>2026-05-03T07:21:58.004Z</time></trkpt><trkpt lat="37.6895704" lon="15.076075"><ele>1100.0</ele><time>2026-05-03T07:21:59.005Z</time></trkpt><trkpt lat="37.6896573" lon="15.0761338"><ele>1099.8</ele><time>2026-05-03T07:22:00.005Z</time></trkpt><trkpt lat="37.6897461" lon="15.076205"><ele>1099.6</ele><time>2026-05-03T07:22:01.005Z</time></trkpt><trkpt lat="37.6898406" lon="15.0762813"><ele>1099.4</ele><time>2026-05-03T07:22:02.005Z</time></trkpt><trkpt lat="37.6899325" lon="15.0763536"><ele>1099.2</ele><time>2026-05-03T07:22:03.005Z</time></trkpt><trkpt lat="37.6900083" lon="15.0764037"><ele>1099.0</ele><time>2026-05-03T07:22:04.004Z</time></trkpt><trkpt lat="37.6900686" lon="15.0764331"><ele>1099.0</ele><time>2026-05-03T07:22:05.006Z</time></trkpt><trkpt lat="37.6901338" lon="15.0764371"><ele>1099.0</ele><time>2026-05-03T07:22:06.006Z</time></trkpt><trkpt lat="37.6902019" lon="15.0764267"><ele>1099.0</ele><time>2026-05-03T07:22:07.005Z</time></trkpt><trkpt lat="37.6902627" lon="15.0764005"><ele>1099.0</ele><time>2026-05-03T07:22:08.005Z</time></trkpt><trkpt lat="37.6903318" lon="15.0763785"><ele>1099.0</ele><time>2026-05-03T07:22:09.006Z</time></trkpt><trkpt lat="37.6903981" lon="15.0763772"><ele>1099.0</ele><time>2026-05-03T07:22:10.005Z</time></trkpt><trkpt lat="37.6904654" lon="15.0763985"><ele>1099.0</ele><time>2026-05-03T07:22:11.006Z</time></trkpt><trkpt lat="37.6905442" lon="15.0764232"><ele>1099.4</ele><time>2026-05-03T07:22:12.006Z</time></trkpt><trkpt lat="37.690635" lon="15.0764221"><ele>1099.8000000000002</ele><time>2026-05-03T07:22:13.006Z</time></trkpt><trkpt lat="37.6907284" lon="15.0763996"><ele>1100.1999999999998</ele><time>2026-05-03T07:22:14.005Z</time></trkpt><trkpt lat="37.6908204" lon="15.076373"><ele>1100.6</ele><time>2026-05-03T07:22:15.005Z</time></trkpt><trkpt lat="37.6909117" lon="15.0763619"><ele>1101.0</ele><time>2026-05-03T07:22:16.005Z</time></trkpt><trkpt lat="37.6910044" lon="15.0763545"><ele>1101.3999999999999</ele><time>2026-05-03T07:22:17.005Z</time></trkpt><trkpt lat="37.6911017" lon="15.0763445"><ele>1101.8</ele><time>2026-05-03T07:22:18.005Z</time></trkpt><trkpt lat="37.6912053" lon="15.076345"><ele>1102.1999999999998</ele><time>2026-05-03T07:22:19.005Z</time></trkpt><trkpt lat="37.6913114" lon="15.0763465"><ele>1102.6</ele><time>2026-05-03T07:22:20.005Z</time></trkpt><trkpt lat="37.6914068" lon="15.0763365"><ele>1103.0</ele><time>2026-05-03T07:22:21.004Z</time></trkpt><trkpt lat="37.6914827" lon="15.0763408"><ele>1103.0</ele><time>2026-05-03T07:22:22.005Z</time></trkpt><trkpt lat="37.6915533" lon="15.0763571"><ele>1103.0</ele><time>2026-05-03T07:22:23.004Z</time></trkpt><trkpt lat="37.6916232" lon="15.0763711"><ele>1103.0</ele><time>2026-05-03T07:22:24.006Z</time></trkpt><trkpt lat="37.691703" lon="15.076374"><ele>1103.0</ele><time>2026-05-03T07:22:25.005Z</time></trkpt><trkpt lat="37.6917895" lon="15.076353"><ele>1103.0</ele><time>2026-05-03T07:22:26.004Z</time></trkpt><trkpt lat="37.6918886" lon="15.0763096"><ele>1103.0</ele><time>2026-05-03T07:22:27.005Z</time></trkpt><trkpt lat="37.6919938" lon="15.076268"><ele>1102.8</ele><time>2026-05-03T07:22:28.004Z</time></trkpt><trkpt lat="37.6920986" lon="15.0762274"><ele>1102.6</ele><time>2026-05-03T07:22:29.006Z</time></trkpt><trkpt lat="37.6921981" lon="15.0761909"><ele>1102.4</ele><time>2026-05-03T07:22:30.005Z</time></trkpt><trkpt lat="37.6922839" lon="15.07616"><ele>1102.2</ele><time>2026-05-03T07:22:31.004Z</time></trkpt><trkpt lat="37.6923592" lon="15.0761256"><ele>1102.0</ele><time>2026-05-03T07:22:32.004Z</time></trkpt><trkpt lat="37.6924367" lon="15.0760917"><ele>1102.0</ele><time>2026-05-03T07:22:33.005Z</time></trkpt><trkpt lat="37.6925258" lon="15.0760712"><ele>1102.0</ele><time>2026-05-03T07:22:34.006Z</time></trkpt><trkpt lat="37.6926088" lon="15.0760611"><ele>1102.0</ele><time>2026-05-03T07:22:35.005Z</time></trkpt><trkpt lat="37.6926812" lon="15.0760493"><ele>1102.0</ele><time>2026-05-03T07:22:36.003Z</time></trkpt><trkpt lat="37.6927493" lon="15.0760155"><ele>1102.0</ele><time>2026-05-03T07:22:37.005Z</time></trkpt><trkpt lat="37.6928045" lon="15.0759771"><ele>1102.0</ele><time>2026-05-03T07:22:38.005Z</time></trkpt><trkpt lat="37.6929107" lon="15.0759386"><ele>1101.0</ele><time>2026-05-03T07:22:40.004Z</time></trkpt><trkpt lat="37.6929749" lon="15.0759247"><ele>1100.0</ele><time>2026-05-03T07:22:41.005Z</time></trkpt><trkpt lat="37.6930357" lon="15.0758987"><ele>1099.0</ele><time>2026-05-03T07:22:42.003Z</time></trkpt><trkpt lat="37.6931313" lon="15.0758326"><ele>1098.0</ele><time>2026-05-03T07:22:44.004Z</time></trkpt><trkpt lat="37.6932078" lon="15.0757733"><ele>1097.0</ele><time>2026-05-03T07:22:46.004Z</time></trkpt><trkpt lat="37.6932886" lon="15.075783"><ele>1096.0</ele><time>2026-05-03T07:22:48.006Z</time></trkpt><trkpt lat="37.6934021" lon="15.0758431"><ele>1096.0</ele><time>2026-05-03T07:22:50.005Z</time></trkpt><trkpt lat="37.6934868" lon="15.0758541"><ele>1096.0</ele><time>2026-05-03T07:22:51.005Z</time></trkpt><trkpt lat="37.6935829" lon="15.0758547"><ele>1096.0</ele><time>2026-05-03T07:22:52.005Z</time></trkpt><trkpt lat="37.693666" lon="15.0758389"><ele>1096.0</ele><time>2026-05-03T07:22:53.006Z</time></trkpt><trkpt lat="37.6937387" lon="15.0758224"><ele>1096.0</ele><time>2026-05-03T07:22:54.006Z</time></trkpt><trkpt lat="37.6938338" lon="15.0757546"><ele>1096.0</ele><time>2026-05-03T07:22:56.006Z</time></trkpt><trkpt lat="37.6939265" lon="15.0757113"><ele>1096.25</ele><time>2026-05-03T07:22:58.005Z</time></trkpt><trkpt lat="37.694034" lon="15.0757569"><ele>1096.5</ele><time>2026-05-03T07:23:00.005Z</time></trkpt><trkpt lat="37.6941503" lon="15.0757711"><ele>1096.75</ele><time>2026-05-03T07:23:02.004Z</time></trkpt><trkpt lat="37.6942561" lon="15.0757268"><ele>1097.0</ele><time>2026-05-03T07:23:04.004Z</time></trkpt><trkpt lat="37.694389" lon="15.0757266"><ele>1097.2</ele><time>2026-05-03T07:23:06.005Z</time></trkpt><trkpt lat="37.6944954" lon="15.0757268"><ele>1097.4</ele><time>2026-05-03T07:23:07.004Z</time></trkpt><trkpt lat="37.6945921" lon="15.0757275"><ele>1097.6</ele><time>2026-05-03T07:23:08.006Z</time></trkpt><trkpt lat="37.6946769" lon="15.0757371"><ele>1097.8</ele><time>2026-05-03T07:23:09.003Z</time></trkpt><trkpt lat="37.6947925" lon="15.0757665"><ele>1098.0</ele><time>2026-05-03T07:23:11.005Z</time></trkpt><trkpt lat="37.694858" lon="15.0757619"><ele>1098.0</ele><time>2026-05-03T07:23:12.005Z</time></trkpt><trkpt lat="37.6949256" lon="15.0757515"><ele>1098.0</ele><time>2026-05-03T07:23:13.006Z</time></trkpt><trkpt lat="37.694994" lon="15.0756965"><ele>1098.0</ele><time>2026-05-03T07:23:14.006Z</time></trkpt><trkpt lat="37.6950577" lon="15.0756299"><ele>1098.0</ele><time>2026-05-03T07:23:15.005Z</time></trkpt><trkpt lat="37.6951307" lon="15.075564"><ele>1098.0</ele><time>2026-05-03T07:23:16.006Z</time></trkpt><trkpt lat="37.6951965" lon="15.0755089"><ele>1098.0</ele><time>2026-05-03T07:23:17.006Z</time></trkpt><trkpt lat="37.6952605" lon="15.0754799"><ele>1098.8333333333333</ele><time>2026-05-03T07:23:18.005Z</time></trkpt><trkpt lat="37.6953358" lon="15.0754611"><ele>1099.6666666666667</ele><time>2026-05-03T07:23:19.006Z</time></trkpt><trkpt lat="37.6954148" lon="15.0754496"><ele>1100.5</ele><time>2026-05-03T07:23:20.005Z</time></trkpt><trkpt lat="37.6954796" lon="15.0754474"><ele>1101.3333333333335</ele><time>2026-05-03T07:23:21.005Z</time></trkpt><trkpt lat="37.6955591" lon="15.0754814"><ele>1102.1666666666667</ele><time>2026-05-03T07:23:23.006Z</time></trkpt><trkpt lat="37.6956284" lon="15.07551"><ele>1103.0</ele><time>2026-05-03T07:23:26.005Z</time></trkpt><trkpt lat="37.6957006" lon="15.0754701"><ele>1103.0</ele><time>2026-05-03T07:25:36.006Z</time></trkpt><trkpt lat="37.6957906" lon="15.0754659"><ele>1103.0</ele><time>2026-05-03T07:25:39.005Z</time></trkpt><trkpt lat="37.6958533" lon="15.0754373"><ele>1103.0</ele><time>2026-05-03T07:25:41.005Z</time></trkpt><trkpt lat="37.6959152" lon="15.0753873"><ele>1103.0</ele><time>2026-05-03T07:25:43.006Z</time></trkpt><trkpt lat="37.6959896" lon="15.0753069"><ele>1103.0</ele><time>2026-05-03T07:25:45.006Z</time></trkpt><trkpt lat="37.6960658" lon="15.0751963"><ele>1103.0</ele><time>2026-05-03T07:25:47.006Z</time></trkpt><trkpt lat="37.6961338" lon="15.0750811"><ele>1104.2</ele><time>2026-05-03T07:25:49.006Z</time></trkpt><trkpt lat="37.6961958" lon="15.0749881"><ele>1105.4</ele><time>2026-05-03T07:25:51.005Z</time></trkpt><trkpt lat="37.6962611" lon="15.0748881"><ele>1106.6000000000001</ele><time>2026-05-03T07:25:53.004Z</time></trkpt><trkpt lat="37.6963413" lon="15.0747808"><ele>1107.8</ele><time>2026-05-03T07:25:55.006Z</time></trkpt><trkpt lat="37.6964149" lon="15.074648"><ele>1109.0</ele><time>2026-05-03T07:25:57.005Z</time></trkpt><trkpt lat="37.6964398" lon="15.0745739"><ele>1109.1666666666667</ele><time>2026-05-03T07:25:58.006Z</time></trkpt><trkpt lat="37.6964751" lon="15.0744214"><ele>1109.3333333333335</ele><time>2026-05-03T07:26:00.005Z</time></trkpt><trkpt lat="37.6964768" lon="15.0742699"><ele>1109.5</ele><time>2026-05-03T07:26:02.006Z</time></trkpt><trkpt lat="37.6964607" lon="15.0741891"><ele>1109.6666666666667</ele><time>2026-05-03T07:26:03.006Z</time></trkpt><trkpt lat="37.696432" lon="15.0741111"><ele>1109.8333333333333</ele><time>2026-05-03T07:26:04.005Z</time></trkpt><trkpt lat="37.6963884" lon="15.0740444"><ele>1110.0</ele><time>2026-05-03T07:26:05.006Z</time></trkpt><trkpt lat="37.6963377" lon="15.0739805"><ele>1111.0000000000002</ele><time>2026-05-03T07:26:06.006Z</time></trkpt><trkpt lat="37.6962809" lon="15.0739253"><ele>1112.0</ele><time>2026-05-03T07:26:07.006Z</time></trkpt><trkpt lat="37.6962211" lon="15.073882"><ele>1113.0</ele><time>2026-05-03T07:26:08.006Z</time></trkpt><trkpt lat="37.6961567" lon="15.0738515"><ele>1114.0</ele><time>2026-05-03T07:26:09.006Z</time></trkpt><trkpt lat="37.6960929" lon="15.0738287"><ele>1115.0</ele><time>2026-05-03T07:26:10.006Z</time></trkpt><trkpt lat="37.69603" lon="15.0738042"><ele>1116.0000000000002</ele><time>2026-05-03T07:26:11.006Z</time></trkpt><trkpt lat="37.6959702" lon="15.0737793"><ele>1117.0</ele><time>2026-05-03T07:26:12.006Z</time></trkpt><trkpt lat="37.6959087" lon="15.0737508"><ele>1117.0000000000002</ele><time>2026-05-03T07:26:13.006Z</time></trkpt><trkpt lat="37.6958397" lon="15.0737221"><ele>1117.0</ele><time>2026-05-03T07:26:14.006Z</time></trkpt><trkpt lat="37.6957687" lon="15.0736966"><ele>1117.0</ele><time>2026-05-03T07:26:15.006Z</time></trkpt><trkpt lat="37.6957015" lon="15.0736722"><ele>1117.0</ele><time>2026-05-03T07:26:16.005Z</time></trkpt><trkpt lat="37.6956311" lon="15.0736431"><ele>1117.0</ele><time>2026-05-03T07:26:17.005Z</time></trkpt><trkpt lat="37.6955566" lon="15.0736166"><ele>1117.0000000000002</ele><time>2026-05-03T07:26:18.006Z</time></trkpt><trkpt lat="37.6954792" lon="15.0735893"><ele>1117.0</ele><time>2026-05-03T07:26:19.006Z</time></trkpt><trkpt lat="37.6954061" lon="15.0735589"><ele>1117.0000000000002</ele><time>2026-05-03T07:26:20.006Z</time></trkpt><trkpt lat="37.6953316" lon="15.0735294"><ele>1117.0</ele><time>2026-05-03T07:26:21.006Z</time></trkpt><trkpt lat="37.6952612" lon="15.0734982"><ele>1117.0</ele><time>2026-05-03T07:26:22.006Z</time></trkpt><trkpt lat="37.6951956" lon="15.0734655"><ele>1117.0</ele><time>2026-05-03T07:26:23.007Z</time></trkpt><trkpt lat="37.6951269" lon="15.073434"><ele>1117.0</ele><time>2026-05-03T07:26:24.006Z</time></trkpt><trkpt lat="37.6950579" lon="15.0734062"><ele>1117.0000000000002</ele><time>2026-05-03T07:26:25.006Z</time></trkpt><trkpt lat="37.694986" lon="15.0733845"><ele>1117.0</ele><time>2026-05-03T07:26:26.006Z</time></trkpt><trkpt lat="37.6949152" lon="15.0733724"><ele>1116.6</ele><time>2026-05-03T07:26:27.005Z</time></trkpt><trkpt lat="37.6948387" lon="15.0733686"><ele>1116.2</ele><time>2026-05-03T07:26:28.007Z</time></trkpt><trkpt lat="37.6947517" lon="15.0733835"><ele>1115.8</ele><time>2026-05-03T07:26:29.007Z</time></trkpt><trkpt lat="37.6946591" lon="15.0734258"><ele>1115.4</ele><time>2026-05-03T07:26:30.005Z</time></trkpt><trkpt lat="37.6945664" lon="15.073494"><ele>1115.0</ele><time>2026-05-03T07:26:31.005Z</time></trkpt><trkpt lat="37.6944912" lon="15.0735666"><ele>1115.0</ele><time>2026-05-03T07:26:32.005Z</time></trkpt><trkpt lat="37.6944233" lon="15.0736287"><ele>1115.0</ele><time>2026-05-03T07:26:33.006Z</time></trkpt><trkpt lat="37.6943599" lon="15.0736877"><ele>1115.0</ele><time>2026-05-03T07:26:34.006Z</time></trkpt><trkpt lat="37.6942974" lon="15.0737448"><ele>1115.0</ele><time>2026-05-03T07:26:35.005Z</time></trkpt><trkpt lat="37.6942308" lon="15.0737938"><ele>1115.0</ele><time>2026-05-03T07:26:36.006Z</time></trkpt><trkpt lat="37.6941606" lon="15.0738231"><ele>1115.0</ele><time>2026-05-03T07:26:37.005Z</time></trkpt><trkpt lat="37.6940871" lon="15.0738423"><ele>1115.142857142857</ele><time>2026-05-03T07:26:38.006Z</time></trkpt><trkpt lat="37.6940129" lon="15.0738455"><ele>1115.2857142857142</ele><time>2026-05-03T07:26:39.005Z</time></trkpt><trkpt lat="37.6939428" lon="15.0738293"><ele>1115.4285714285713</ele><time>2026-05-03T07:26:40.006Z</time></trkpt><trkpt lat="37.6938841" lon="15.0737999"><ele>1115.5714285714284</ele><time>2026-05-03T07:26:41.006Z</time></trkpt><trkpt lat="37.6938284" lon="15.0737481"><ele>1115.7142857142858</ele><time>2026-05-03T07:26:42.005Z</time></trkpt><trkpt lat="37.6937845" lon="15.0736863"><ele>1115.8571428571427</ele><time>2026-05-03T07:26:43.006Z</time></trkpt><trkpt lat="37.6937504" lon="15.0736107"><ele>1116.0</ele><time>2026-05-03T07:26:44.006Z</time></trkpt><trkpt lat="37.6937306" lon="15.0735289"><ele>1116.0</ele><time>2026-05-03T07:26:45.006Z</time></trkpt><trkpt lat="37.693713" lon="15.0734482"><ele>1116.0</ele><time>2026-05-03T07:26:46.006Z</time></trkpt><trkpt lat="37.693712" lon="15.0733641"><ele>1116.0</ele><time>2026-05-03T07:26:47.006Z</time></trkpt><trkpt lat="37.6937342" lon="15.0732218"><ele>1116.0</ele><time>2026-05-03T07:26:49.006Z</time></trkpt><trkpt lat="37.6937527" lon="15.073107"><ele>1116.0</ele><time>2026-05-03T07:26:51.006Z</time></trkpt><trkpt lat="37.6937191" lon="15.0730029"><ele>1116.0</ele><time>2026-05-03T07:26:53.005Z</time></trkpt><trkpt lat="37.6936624" lon="15.0728944"><ele>1117.6666666666667</ele><time>2026-05-03T07:26:55.005Z</time></trkpt><trkpt lat="37.6935816" lon="15.0727651"><ele>1119.3333333333333</ele><time>2026-05-03T07:26:57.005Z</time></trkpt><trkpt lat="37.6935326" lon="15.0726891"><ele>1121.0</ele><time>2026-05-03T07:26:58.006Z</time></trkpt><trkpt lat="37.6934804" lon="15.0726077"><ele>1122.6666666666665</ele><time>2026-05-03T07:26:59.007Z</time></trkpt><trkpt lat="37.6934279" lon="15.0725302"><ele>1124.3333333333333</ele><time>2026-05-03T07:27:00.006Z</time></trkpt><trkpt lat="37.6933811" lon="15.0724531"><ele>1126.0</ele><time>2026-05-03T07:27:01.005Z</time></trkpt><trkpt lat="37.6933483" lon="15.0723718"><ele>1127.0</ele><time>2026-05-03T07:27:02.005Z</time></trkpt><trkpt lat="37.6933044" lon="15.0722961"><ele>1128.0</ele><time>2026-05-03T07:27:03.005Z</time></trkpt><trkpt lat="37.6932452" lon="15.0722338"><ele>1129.0</ele><time>2026-05-03T07:27:04.006Z</time></trkpt><trkpt lat="37.6931694" lon="15.0721677"><ele>1130.0</ele><time>2026-05-03T07:27:05.005Z</time></trkpt><trkpt lat="37.6930932" lon="15.0721032"><ele>1131.0</ele><time>2026-05-03T07:27:06.006Z</time></trkpt><trkpt lat="37.6930315" lon="15.0720413"><ele>1132.0</ele><time>2026-05-03T07:27:07.006Z</time></trkpt><trkpt lat="37.6929777" lon="15.0719851"><ele>1132.0</ele><time>2026-05-03T07:27:08.006Z</time></trkpt><trkpt lat="37.6928683" lon="15.0719206"><ele>1132.0</ele><time>2026-05-03T07:27:10.007Z</time></trkpt><trkpt lat="37.692784" lon="15.071919"><ele>1132.0</ele><time>2026-05-03T07:27:11.006Z</time></trkpt><trkpt lat="37.6926958" lon="15.0719152"><ele>1132.0</ele><time>2026-05-03T07:27:12.006Z</time></trkpt><trkpt lat="37.6926058" lon="15.0719077"><ele>1132.0</ele><time>2026-05-03T07:27:13.005Z</time></trkpt><trkpt lat="37.6925185" lon="15.0718913"><ele>1132.142857142857</ele><time>2026-05-03T07:27:14.007Z</time></trkpt><trkpt lat="37.6924418" lon="15.0718691"><ele>1132.2857142857144</ele><time>2026-05-03T07:27:15.005Z</time></trkpt><trkpt lat="37.6923786" lon="15.0718425"><ele>1132.4285714285716</ele><time>2026-05-03T07:27:16.005Z</time></trkpt><trkpt lat="37.6923162" lon="15.0718131"><ele>1132.5714285714287</ele><time>2026-05-03T07:27:17.004Z</time></trkpt><trkpt lat="37.6922531" lon="15.07182"><ele>1132.7142857142858</ele><time>2026-05-03T07:27:18.005Z</time></trkpt><trkpt lat="37.6921835" lon="15.0718292"><ele>1132.857142857143</ele><time>2026-05-03T07:27:19.006Z</time></trkpt><trkpt lat="37.6921195" lon="15.0718205"><ele>1133.0</ele><time>2026-05-03T07:27:20.007Z</time></trkpt><trkpt lat="37.6919988" lon="15.0718022"><ele>1132.8</ele><time>2026-05-03T07:27:22.006Z</time></trkpt><trkpt lat="37.6918741" lon="15.071753"><ele>1132.6</ele><time>2026-05-03T07:27:24.006Z</time></trkpt><trkpt lat="37.6918093" lon="15.0717181"><ele>1132.4</ele><time>2026-05-03T07:27:25.006Z</time></trkpt><trkpt lat="37.6917077" lon="15.0716628"><ele>1132.2</ele><time>2026-05-03T07:27:27.006Z</time></trkpt><trkpt lat="37.6916315" lon="15.071602"><ele>1132.0</ele><time>2026-05-03T07:27:29.005Z</time></trkpt><trkpt lat="37.6915817" lon="15.0715005"><ele>1133.1666666666665</ele><time>2026-05-03T07:27:31.006Z</time></trkpt><trkpt lat="37.6915661" lon="15.0714199"><ele>1134.3333333333333</ele><time>2026-05-03T07:27:32.005Z</time></trkpt><trkpt lat="37.6915623" lon="15.0713185"><ele>1135.5</ele><time>2026-05-03T07:27:33.006Z</time></trkpt><trkpt lat="37.6915549" lon="15.0712353"><ele>1136.6666666666667</ele><time>2026-05-03T07:27:34.006Z</time></trkpt><trkpt lat="37.6915212" lon="15.0711198"><ele>1137.8333333333335</ele><time>2026-05-03T07:27:36.006Z</time></trkpt><trkpt lat="37.6914502" lon="15.0710717"><ele>1139.0</ele><time>2026-05-03T07:27:38.007Z</time></trkpt><trkpt lat="37.6913751" lon="15.0710001"><ele>1139.0</ele><time>2026-05-03T07:27:40.006Z</time></trkpt><trkpt lat="37.6913333" lon="15.0709381"><ele>1139.0</ele><time>2026-05-03T07:27:41.006Z</time></trkpt><trkpt lat="37.6912768" lon="15.0708831"><ele>1139.0</ele><time>2026-05-03T07:27:42.006Z</time></trkpt><trkpt lat="37.6912264" lon="15.0708294"><ele>1139.0</ele><time>2026-05-03T07:27:43.006Z</time></trkpt><trkpt lat="37.6911623" lon="15.0707"><ele>1139.0</ele><time>2026-05-03T07:27:45.007Z</time></trkpt><trkpt lat="37.6911168" lon="15.0705762"><ele>1139.0</ele><time>2026-05-03T07:27:47.007Z</time></trkpt><trkpt lat="37.6910513" lon="15.0704783"><ele>1138.8</ele><time>2026-05-03T07:27:49.006Z</time></trkpt><trkpt lat="37.6910147" lon="15.0703267"><ele>1138.6000000000001</ele><time>2026-05-03T07:27:51.006Z</time></trkpt><trkpt lat="37.6909966" lon="15.0702244"><ele>1138.4</ele><time>2026-05-03T07:27:52.006Z</time></trkpt><trkpt lat="37.6909673" lon="15.0701253"><ele>1138.2</ele><time>2026-05-03T07:27:53.005Z</time></trkpt><trkpt lat="37.6909326" lon="15.0700215"><ele>1138.0</ele><time>2026-05-03T07:27:54.006Z</time></trkpt><trkpt lat="37.690897" lon="15.0699208"><ele>1139.0</ele><time>2026-05-03T07:27:55.006Z</time></trkpt><trkpt lat="37.6908626" lon="15.0698169"><ele>1140.0</ele><time>2026-05-03T07:27:56.006Z</time></trkpt><trkpt lat="37.6908178" lon="15.0697057"><ele>1141.0</ele><time>2026-05-03T07:27:57.007Z</time></trkpt><trkpt lat="37.690775" lon="15.0695767"><ele>1142.0</ele><time>2026-05-03T07:27:58.006Z</time></trkpt><trkpt lat="37.6907383" lon="15.0694604"><ele>1143.0</ele><time>2026-05-03T07:27:59.005Z</time></trkpt><trkpt lat="37.6907046" lon="15.0693586"><ele>1143.0</ele><time>2026-05-03T07:28:00.005Z</time></trkpt><trkpt lat="37.6906799" lon="15.0692718"><ele>1143.0</ele><time>2026-05-03T07:28:01.005Z</time></trkpt><trkpt lat="37.6906535" lon="15.0691875"><ele>1143.0</ele><time>2026-05-03T07:28:02.007Z</time></trkpt><trkpt lat="37.6906282" lon="15.0691115"><ele>1143.0</ele><time>2026-05-03T07:28:03.004Z</time></trkpt><trkpt lat="37.6905947" lon="15.0690404"><ele>1143.0</ele><time>2026-05-03T07:28:04.005Z</time></trkpt><trkpt lat="37.6905081" lon="15.0689352"><ele>1143.0</ele><time>2026-05-03T07:28:06.006Z</time></trkpt><trkpt lat="37.6904203" lon="15.0688388"><ele>1144.0</ele><time>2026-05-03T07:28:08.005Z</time></trkpt><trkpt lat="37.6903565" lon="15.0687423"><ele>1145.0</ele><time>2026-05-03T07:28:10.005Z</time></trkpt><trkpt lat="37.6903024" lon="15.0686439"><ele>1146.0</ele><time>2026-05-03T07:28:12.005Z</time></trkpt><trkpt lat="37.6902429" lon="15.0685016"><ele>1147.0</ele><time>2026-05-03T07:28:14.005Z</time></trkpt><trkpt lat="37.6901956" lon="15.0684203"><ele>1148.0</ele><time>2026-05-03T07:28:15.005Z</time></trkpt><trkpt lat="37.6901475" lon="15.0683422"><ele>1148.0</ele><time>2026-05-03T07:28:16.006Z</time></trkpt><trkpt lat="37.6901077" lon="15.0682772"><ele>1148.0</ele><time>2026-05-03T07:28:17.005Z</time></trkpt><trkpt lat="37.6900631" lon="15.0682101"><ele>1148.0</ele><time>2026-05-03T07:28:18.007Z</time></trkpt><trkpt lat="37.6900081" lon="15.0681487"><ele>1148.0</ele><time>2026-05-03T07:28:19.006Z</time></trkpt><trkpt lat="37.6899448" lon="15.0680897"><ele>1148.0</ele><time>2026-05-03T07:28:20.005Z</time></trkpt><trkpt lat="37.6898713" lon="15.0680279"><ele>1148.0</ele><time>2026-05-03T07:28:21.005Z</time></trkpt><trkpt lat="37.6897941" lon="15.0679877"><ele>1149.8333333333335</ele><time>2026-05-03T07:28:22.006Z</time></trkpt><trkpt lat="37.6897178" lon="15.0679573"><ele>1151.6666666666667</ele><time>2026-05-03T07:28:23.006Z</time></trkpt><trkpt lat="37.6896059" lon="15.0679338"><ele>1153.5</ele><time>2026-05-03T07:28:25.006Z</time></trkpt><trkpt lat="37.6895469" lon="15.0678825"><ele>1155.3333333333333</ele><time>2026-05-03T07:28:27.007Z</time></trkpt><trkpt lat="37.689498" lon="15.0677988"><ele>1157.1666666666665</ele><time>2026-05-03T07:28:29.007Z</time></trkpt><trkpt lat="37.6894226" lon="15.0677357"><ele>1159.0</ele><time>2026-05-03T07:28:31.006Z</time></trkpt><trkpt lat="37.6893169" lon="15.0676949"><ele>1159.4285714285716</ele><time>2026-05-03T07:28:33.007Z</time></trkpt><trkpt lat="37.6892549" lon="15.0676675"><ele>1159.857142857143</ele><time>2026-05-03T07:28:34.007Z</time></trkpt><trkpt lat="37.6891889" lon="15.067638"><ele>1160.2857142857142</ele><time>2026-05-03T07:28:35.006Z</time></trkpt><trkpt lat="37.6891278" lon="15.0675997"><ele>1160.7142857142858</ele><time>2026-05-03T07:28:36.006Z</time></trkpt><trkpt lat="37.6890637" lon="15.0675556"><ele>1161.142857142857</ele><time>2026-05-03T07:28:37.007Z</time></trkpt><trkpt lat="37.6889953" lon="15.0675209"><ele>1161.5714285714287</ele><time>2026-05-03T07:28:38.006Z</time></trkpt><trkpt lat="37.688925" lon="15.0675114"><ele>1162.0</ele><time>2026-05-03T07:28:39.004Z</time></trkpt><trkpt lat="37.6888483" lon="15.0675006"><ele>1162.0</ele><time>2026-05-03T07:28:41.006Z</time></trkpt><trkpt lat="37.6887859" lon="15.0675267"><ele>1162.0</ele><time>2026-05-03T07:29:14.005Z</time></trkpt><trkpt lat="37.6887238" lon="15.0675446"><ele>1162.0</ele><time>2026-05-03T07:29:17.007Z</time></trkpt><trkpt lat="37.6886709" lon="15.0674694"><ele>1162.0</ele><time>2026-05-03T07:29:20.005Z</time></trkpt><trkpt lat="37.6886375" lon="15.067384"><ele>1162.0</ele><time>2026-05-03T07:29:22.006Z</time></trkpt><trkpt lat="37.6886105" lon="15.0672934"><ele>1162.0</ele><time>2026-05-03T07:29:24.006Z</time></trkpt><trkpt lat="37.688592" lon="15.0672017"><ele>1162.0</ele><time>2026-05-03T07:29:26.006Z</time></trkpt><trkpt lat="37.6885524" lon="15.0671237"><ele>1165.6</ele><time>2026-05-03T07:29:28.006Z</time></trkpt><trkpt lat="37.6884719" lon="15.0670756"><ele>1169.2</ele><time>2026-05-03T07:29:30.006Z</time></trkpt><trkpt lat="37.6883754" lon="15.067028"><ele>1172.8</ele><time>2026-05-03T07:29:32.007Z</time></trkpt><trkpt lat="37.6882735" lon="15.0669567"><ele>1176.4</ele><time>2026-05-03T07:29:34.007Z</time></trkpt><trkpt lat="37.6881626" lon="15.0669177"><ele>1180.0</ele><time>2026-05-03T07:29:36.006Z</time></trkpt><trkpt lat="37.688062" lon="15.0668839"><ele>1180.0</ele><time>2026-05-03T07:29:38.006Z</time></trkpt><trkpt lat="37.6880023" lon="15.0668494"><ele>1180.0</ele><time>2026-05-03T07:29:39.007Z</time></trkpt><trkpt lat="37.6878863" lon="15.0667878"><ele>1180.0</ele><time>2026-05-03T07:29:41.007Z</time></trkpt><trkpt lat="37.6877878" lon="15.0667492"><ele>1180.0</ele><time>2026-05-03T07:29:43.007Z</time></trkpt><trkpt lat="37.6877168" lon="15.0667332"><ele>1180.0</ele><time>2026-05-03T07:29:45.005Z</time></trkpt><trkpt lat="37.6876669" lon="15.0666447"><ele>1182.3333333333333</ele><time>2026-05-03T07:29:48.007Z</time></trkpt><trkpt lat="37.6876567" lon="15.0665272"><ele>1184.6666666666665</ele><time>2026-05-03T07:29:51.006Z</time></trkpt><trkpt lat="37.6876435" lon="15.0664269"><ele>1187.0</ele><time>2026-05-03T07:29:53.005Z</time></trkpt><trkpt lat="37.6876285" lon="15.0663343"><ele>1189.3333333333333</ele><time>2026-05-03T07:30:13.006Z</time></trkpt><trkpt lat="37.6876194" lon="15.0664146"><ele>1191.6666666666667</ele><time>2026-05-03T07:30:38.007Z</time></trkpt><trkpt lat="37.6876354" lon="15.0665065"><ele>1194.0</ele><time>2026-05-03T07:30:41.006Z</time></trkpt><trkpt lat="37.6876629" lon="15.0665792"><ele>1195.0</ele><time>2026-05-03T07:30:45.005Z</time></trkpt><trkpt lat="37.6877329" lon="15.0666123"><ele>1196.0</ele><time>2026-05-03T07:30:53.006Z</time></trkpt><trkpt lat="37.6878081" lon="15.0665942"><ele>1197.0</ele><time>2026-05-03T07:30:55.007Z</time></trkpt><trkpt lat="37.6878849" lon="15.0665673"><ele>1198.0</ele><time>2026-05-03T07:30:57.007Z</time></trkpt><trkpt lat="37.6879792" lon="15.0665344"><ele>1199.0</ele><time>2026-05-03T07:30:59.006Z</time></trkpt><trkpt lat="37.6880793" lon="15.0664968"><ele>1200.0</ele><time>2026-05-03T07:31:01.006Z</time></trkpt><trkpt lat="37.6881913" lon="15.0664459"><ele>1200.0</ele><time>2026-05-03T07:31:03.005Z</time></trkpt><trkpt lat="37.688283" lon="15.0664131"><ele>1200.0</ele><time>2026-05-03T07:31:05.006Z</time></trkpt><trkpt lat="37.6883397" lon="15.0663768"><ele>1200.0</ele><time>2026-05-03T07:31:07.005Z</time></trkpt><trkpt lat="37.6883828" lon="15.0662827"><ele>1200.0</ele><time>2026-05-03T07:31:10.006Z</time></trkpt><trkpt lat="37.6884029" lon="15.0661997"><ele>1200.0</ele><time>2026-05-03T07:31:12.006Z</time></trkpt><trkpt lat="37.6884674" lon="15.066125"><ele>1200.0</ele><time>2026-05-03T07:31:15.006Z</time></trkpt><trkpt lat="37.6885217" lon="15.0660714"><ele>1200.0</ele><time>2026-05-03T07:31:17.007Z</time></trkpt><trkpt lat="37.6885795" lon="15.0660112"><ele>1200.0</ele><time>2026-05-03T07:31:19.007Z</time></trkpt><trkpt lat="37.6886297" lon="15.0659595"><ele>1200.0</ele><time>2026-05-03T07:31:21.88Z</time></trkpt><trkpt lat="37.6885238" lon="15.0658879"><ele>1200.0</ele><time>2026-05-03T07:31:24.006Z</time></trkpt><trkpt lat="37.6884493" lon="15.0657977"><ele>1200.0</ele><time>2026-05-03T07:31:26.007Z</time></trkpt><trkpt lat="37.6884199" lon="15.0657039"><ele>1200.0</ele><time>2026-05-03T07:31:28.006Z</time></trkpt><trkpt lat="37.6883909" lon="15.0656029"><ele>1202.6</ele><time>2026-05-03T07:31:30.006Z</time></trkpt><trkpt lat="37.6884042" lon="15.0654965"><ele>1205.2</ele><time>2026-05-03T07:31:32.006Z</time></trkpt><trkpt lat="37.6884317" lon="15.0653792"><ele>1207.8</ele><time>2026-05-03T07:31:34.007Z</time></trkpt><trkpt lat="37.68844" lon="15.0652742"><ele>1210.4</ele><time>2026-05-03T07:31:36.006Z</time></trkpt><trkpt lat="37.6884486" lon="15.0651454"><ele>1213.0</ele><time>2026-05-03T07:31:38.007Z</time></trkpt><trkpt lat="37.6884459" lon="15.0650224"><ele>1214.0</ele><time>2026-05-03T07:31:40.007Z</time></trkpt><trkpt lat="37.6884541" lon="15.0649169"><ele>1215.0</ele><time>2026-05-03T07:31:42.007Z</time></trkpt><trkpt lat="37.6884899" lon="15.0648085"><ele>1216.0</ele><time>2026-05-03T07:31:44.007Z</time></trkpt><trkpt lat="37.6885041" lon="15.0647299"><ele>1217.0</ele><time>2026-05-03T07:31:45.005Z</time></trkpt><trkpt lat="37.6885064" lon="15.0646462"><ele>1218.0</ele><time>2026-05-03T07:31:46.007Z</time></trkpt><trkpt lat="37.6885116" lon="15.0644952"><ele>1219.0</ele><time>2026-05-03T07:31:48.006Z</time></trkpt><trkpt lat="37.6885336" lon="15.0643628"><ele>1219.0</ele><time>2026-05-03T07:31:50.005Z</time></trkpt><trkpt lat="37.6885363" lon="15.0642189"><ele>1219.0</ele><time>2026-05-03T07:31:52.007Z</time></trkpt><trkpt lat="37.6885463" lon="15.0640823"><ele>1219.0</ele><time>2026-05-03T07:31:54.006Z</time></trkpt><trkpt lat="37.6885562" lon="15.0639239"><ele>1219.0</ele><time>2026-05-03T07:31:56.006Z</time></trkpt><trkpt lat="37.6885444" lon="15.063819"><ele>1219.0</ele><time>2026-05-03T07:31:57.007Z</time></trkpt><trkpt lat="37.6885168" lon="15.0637254"><ele>1220.0</ele><time>2026-05-03T07:31:58.007Z</time></trkpt><trkpt lat="37.6884854" lon="15.0636497"><ele>1221.0</ele><time>2026-05-03T07:31:59.006Z</time></trkpt><trkpt lat="37.6884262" lon="15.0635295"><ele>1222.0</ele><time>2026-05-03T07:32:01.007Z</time></trkpt><trkpt lat="37.6883978" lon="15.0634295"><ele>1223.0</ele><time>2026-05-03T07:32:03.006Z</time></trkpt><trkpt lat="37.6884621" lon="15.0634422"><ele>1224.0</ele><time>2026-05-03T07:32:27.006Z</time></trkpt><trkpt lat="37.6885414" lon="15.0634808"><ele>1225.0</ele><time>2026-05-03T07:32:30.007Z</time></trkpt><trkpt lat="37.6886248" lon="15.0634861"><ele>1225.0</ele><time>2026-05-03T07:32:33.007Z</time></trkpt><trkpt lat="37.6885579" lon="15.0634729"><ele>1225.0</ele><time>2026-05-03T07:33:49.007Z</time></trkpt><trkpt lat="37.6884714" lon="15.0634635"><ele>1225.0</ele><time>2026-05-03T07:33:58.008Z</time></trkpt><trkpt lat="37.6883998" lon="15.0634655"><ele>1225.0</ele><time>2026-05-03T07:34:01.006Z</time></trkpt><trkpt lat="37.6883626" lon="15.0633568"><ele>1225.0</ele><time>2026-05-03T07:34:17.007Z</time></trkpt><trkpt lat="37.688363" lon="15.0632569"><ele>1225.0</ele><time>2026-05-03T07:34:19.007Z</time></trkpt><trkpt lat="37.6883845" lon="15.0631598"><ele>1226.3333333333333</ele><time>2026-05-03T07:34:21.006Z</time></trkpt><trkpt lat="37.6883775" lon="15.0630144"><ele>1227.6666666666665</ele><time>2026-05-03T07:34:23.006Z</time></trkpt><trkpt lat="37.6883565" lon="15.062896"><ele>1229.0</ele><time>2026-05-03T07:34:25.007Z</time></trkpt><trkpt lat="37.6883669" lon="15.0628036"><ele>1230.3333333333333</ele><time>2026-05-03T07:34:47.005Z</time></trkpt><trkpt lat="37.6884075" lon="15.0627229"><ele>1231.6666666666667</ele><time>2026-05-03T07:34:52.007Z</time></trkpt><trkpt lat="37.6884557" lon="15.0626686"><ele>1233.0</ele><time>2026-05-03T07:34:54.007Z</time></trkpt><trkpt lat="37.6885472" lon="15.062616"><ele>1235.8333333333333</ele><time>2026-05-03T07:34:57.006Z</time></trkpt><trkpt lat="37.6886674" lon="15.0625739"><ele>1238.6666666666667</ele><time>2026-05-03T07:34:59.008Z</time></trkpt><trkpt lat="37.6887261" lon="15.0624893"><ele>1241.5</ele><time>2026-05-03T07:35:01.006Z</time></trkpt><trkpt lat="37.6887924" lon="15.062453"><ele>1244.3333333333335</ele><time>2026-05-03T07:35:04.007Z</time></trkpt><trkpt lat="37.6888583" lon="15.0624019"><ele>1247.1666666666667</ele><time>2026-05-03T07:35:07.007Z</time></trkpt><trkpt lat="37.6889389" lon="15.0623847"><ele>1250.0</ele><time>2026-05-03T07:35:10.006Z</time></trkpt><trkpt lat="37.6890136" lon="15.0623617"><ele>1250.0</ele><time>2026-05-03T07:35:13.007Z</time></trkpt><trkpt lat="37.6890812" lon="15.0623329"><ele>1250.0</ele><time>2026-05-03T07:35:15.006Z</time></trkpt><trkpt lat="37.6891696" lon="15.0623025"><ele>1250.0</ele><time>2026-05-03T07:35:17.007Z</time></trkpt><trkpt lat="37.6892546" lon="15.0622436"><ele>1250.0</ele><time>2026-05-03T07:35:19.007Z</time></trkpt><trkpt lat="37.6893373" lon="15.0621935"><ele>1250.0</ele><time>2026-05-03T07:35:21.007Z</time></trkpt><trkpt lat="37.689423" lon="15.0621307"><ele>1251.5</ele><time>2026-05-03T07:35:23.007Z</time></trkpt><trkpt lat="37.6894999" lon="15.062089"><ele>1253.0</ele><time>2026-05-03T07:35:25.007Z</time></trkpt><trkpt lat="37.6895836" lon="15.0620503"><ele>1254.5</ele><time>2026-05-03T07:35:27.007Z</time></trkpt><trkpt lat="37.6896611" lon="15.0620344"><ele>1256.0</ele><time>2026-05-03T07:35:29.007Z</time></trkpt><trkpt lat="37.6897329" lon="15.0620294"><ele>1257.5</ele><time>2026-05-03T07:35:31.007Z</time></trkpt><trkpt lat="37.6898018" lon="15.0620328"><ele>1259.0</ele><time>2026-05-03T07:35:33.008Z</time></trkpt><trkpt lat="37.6898735" lon="15.062031"><ele>1259.0</ele><time>2026-05-03T07:35:35.007Z</time></trkpt><trkpt lat="37.6899451" lon="15.0619781"><ele>1259.0</ele><time>2026-05-03T07:35:37.006Z</time></trkpt><trkpt lat="37.6900166" lon="15.0619624"><ele>1259.0</ele><time>2026-05-03T07:35:39.007Z</time></trkpt><trkpt lat="37.6901069" lon="15.0619453"><ele>1259.0</ele><time>2026-05-03T07:35:41.007Z</time></trkpt><trkpt lat="37.6902174" lon="15.0619095"><ele>1259.0</ele><time>2026-05-03T07:35:43.007Z</time></trkpt><trkpt lat="37.6903165" lon="15.0619012"><ele>1260.0</ele><time>2026-05-03T07:35:45.008Z</time></trkpt><trkpt lat="37.6904359" lon="15.0619527"><ele>1261.0</ele><time>2026-05-03T07:35:47.008Z</time></trkpt><trkpt lat="37.6905066" lon="15.0619894"><ele>1262.0</ele><time>2026-05-03T07:35:48.006Z</time></trkpt><trkpt lat="37.6905781" lon="15.0620132"><ele>1263.0</ele><time>2026-05-03T07:35:49.007Z</time></trkpt><trkpt lat="37.6906542" lon="15.0620378"><ele>1264.0</ele><time>2026-05-03T07:35:50.006Z</time></trkpt><trkpt lat="37.6907313" lon="15.0620721"><ele>1265.0</ele><time>2026-05-03T07:35:51.006Z</time></trkpt><trkpt lat="37.6908" lon="15.0621049"><ele>1265.0</ele><time>2026-05-03T07:35:52.007Z</time></trkpt><trkpt lat="37.6909131" lon="15.0621252"><ele>1265.0</ele><time>2026-05-03T07:35:54.007Z</time></trkpt><trkpt lat="37.6909786" lon="15.0621116"><ele>1265.0</ele><time>2026-05-03T07:35:55.007Z</time></trkpt><trkpt lat="37.6910497" lon="15.0620823"><ele>1265.0</ele><time>2026-05-03T07:35:56.007Z</time></trkpt><trkpt lat="37.6911216" lon="15.0620503"><ele>1265.0</ele><time>2026-05-03T07:35:57.007Z</time></trkpt><trkpt lat="37.6911932" lon="15.0620407"><ele>1265.0</ele><time>2026-05-03T07:35:58.008Z</time></trkpt><trkpt lat="37.6912664" lon="15.0620329"><ele>1265.2</ele><time>2026-05-03T07:35:59.006Z</time></trkpt><trkpt lat="37.6913498" lon="15.0620231"><ele>1265.4</ele><time>2026-05-03T07:36:00.006Z</time></trkpt><trkpt lat="37.6914676" lon="15.0620058"><ele>1265.6</ele><time>2026-05-03T07:36:02.007Z</time></trkpt><trkpt lat="37.69159" lon="15.0620136"><ele>1265.8</ele><time>2026-05-03T07:36:04.007Z</time></trkpt><trkpt lat="37.69169" lon="15.0620416"><ele>1266.0</ele><time>2026-05-03T07:36:06.007Z</time></trkpt><trkpt lat="37.6917695" lon="15.0620881"><ele>1266.0</ele><time>2026-05-03T07:36:08.005Z</time></trkpt><trkpt lat="37.6918467" lon="15.0621593"><ele>1266.0</ele><time>2026-05-03T07:36:10.007Z</time></trkpt><trkpt lat="37.691929" lon="15.0622592"><ele>1266.0</ele><time>2026-05-03T07:36:12.008Z</time></trkpt><trkpt lat="37.6919875" lon="15.0623763"><ele>1266.0</ele><time>2026-05-03T07:36:14.005Z</time></trkpt><trkpt lat="37.6920186" lon="15.0624722"><ele>1266.0</ele><time>2026-05-03T07:36:16.007Z</time></trkpt><trkpt lat="37.6920929" lon="15.0625283"><ele>1265.3333333333333</ele><time>2026-05-03T07:36:20.008Z</time></trkpt><trkpt lat="37.6921573" lon="15.0625108"><ele>1264.6666666666667</ele><time>2026-05-03T07:36:22.006Z</time></trkpt><trkpt lat="37.692255" lon="15.0624722"><ele>1264.0</ele><time>2026-05-03T07:36:24.006Z</time></trkpt><trkpt lat="37.6923189" lon="15.0624619"><ele>1263.3333333333335</ele><time>2026-05-03T07:36:25.007Z</time></trkpt><trkpt lat="37.6923865" lon="15.0624701"><ele>1262.6666666666667</ele><time>2026-05-03T07:36:26.006Z</time></trkpt><trkpt lat="37.692458" lon="15.0624808"><ele>1262.0</ele><time>2026-05-03T07:36:27.005Z</time></trkpt><trkpt lat="37.6925625" lon="15.0625164"><ele>1262.0</ele><time>2026-05-03T07:36:29.008Z</time></trkpt><trkpt lat="37.692659" lon="15.0625773"><ele>1262.0</ele><time>2026-05-03T07:36:31.006Z</time></trkpt><trkpt lat="37.6927075" lon="15.0626372"><ele>1262.0</ele><time>2026-05-03T07:36:32.006Z</time></trkpt><trkpt lat="37.6927862" lon="15.0627209"><ele>1262.0</ele><time>2026-05-03T07:36:34.007Z</time></trkpt><trkpt lat="37.6928685" lon="15.0627089"><ele>1262.0</ele><time>2026-05-03T07:36:37.007Z</time></trkpt><trkpt lat="37.692943" lon="15.0626392"><ele>1262.8333333333335</ele><time>2026-05-03T07:36:39.007Z</time></trkpt><trkpt lat="37.6930158" lon="15.0625264"><ele>1263.6666666666667</ele><time>2026-05-03T07:36:41.007Z</time></trkpt><trkpt lat="37.6931189" lon="15.0624966"><ele>1264.5</ele><time>2026-05-03T07:36:43.007Z</time></trkpt><trkpt lat="37.6931775" lon="15.0625353"><ele>1265.3333333333333</ele><time>2026-05-03T07:36:44.007Z</time></trkpt><trkpt lat="37.6932348" lon="15.0625953"><ele>1266.1666666666665</ele><time>2026-05-03T07:36:45.007Z</time></trkpt><trkpt lat="37.6932828" lon="15.0626539"><ele>1267.0</ele><time>2026-05-03T07:36:46.007Z</time></trkpt><trkpt lat="37.6933179" lon="15.062726"><ele>1267.0</ele><time>2026-05-03T07:36:47.006Z</time></trkpt><trkpt lat="37.6933577" lon="15.0628302"><ele>1267.0</ele><time>2026-05-03T07:36:48.007Z</time></trkpt><trkpt lat="37.6934092" lon="15.0629419"><ele>1267.0</ele><time>2026-05-03T07:36:49.007Z</time></trkpt><trkpt lat="37.6934457" lon="15.063049"><ele>1267.0</ele><time>2026-05-03T07:36:50.006Z</time></trkpt><trkpt lat="37.6934713" lon="15.0631639"><ele>1267.0</ele><time>2026-05-03T07:36:51.007Z</time></trkpt><trkpt lat="37.6934876" lon="15.0632604"><ele>1266.8333333333333</ele><time>2026-05-03T07:36:52.007Z</time></trkpt><trkpt lat="37.6935311" lon="15.0633519"><ele>1266.6666666666665</ele><time>2026-05-03T07:36:54.008Z</time></trkpt><trkpt lat="37.6936301" lon="15.0633771"><ele>1266.5</ele><time>2026-05-03T07:36:56.007Z</time></trkpt><trkpt lat="37.6937338" lon="15.0633987"><ele>1266.3333333333333</ele><time>2026-05-03T07:36:58.007Z</time></trkpt><trkpt lat="37.6937684" lon="15.063473"><ele>1266.1666666666667</ele><time>2026-05-03T07:36:59.006Z</time></trkpt><trkpt lat="37.6938015" lon="15.063558"><ele>1266.0</ele><time>2026-05-03T07:37:00.006Z</time></trkpt><trkpt lat="37.6938252" lon="15.0636644"><ele>1266.0</ele><time>2026-05-03T07:37:01.008Z</time></trkpt><trkpt lat="37.6938392" lon="15.0637901"><ele>1266.0</ele><time>2026-05-03T07:37:02.007Z</time></trkpt><trkpt lat="37.6938485" lon="15.0639086"><ele>1266.0</ele><time>2026-05-03T07:37:03.007Z</time></trkpt><trkpt lat="37.6938598" lon="15.0640158"><ele>1266.0</ele><time>2026-05-03T07:37:04.007Z</time></trkpt><trkpt lat="37.6938709" lon="15.0641148"><ele>1266.0</ele><time>2026-05-03T07:37:05.007Z</time></trkpt><trkpt lat="37.6938888" lon="15.0642035"><ele>1266.0</ele><time>2026-05-03T07:37:06.007Z</time></trkpt><trkpt lat="37.6939148" lon="15.0642832"><ele>1264.8333333333333</ele><time>2026-05-03T07:37:07.006Z</time></trkpt><trkpt lat="37.6939549" lon="15.064359"><ele>1263.6666666666667</ele><time>2026-05-03T07:37:08.007Z</time></trkpt><trkpt lat="37.6940179" lon="15.0644375"><ele>1262.5</ele><time>2026-05-03T07:37:09.006Z</time></trkpt><trkpt lat="37.6940986" lon="15.0645104"><ele>1261.3333333333335</ele><time>2026-05-03T07:37:10.007Z</time></trkpt><trkpt lat="37.6941729" lon="15.0645669"><ele>1260.1666666666667</ele><time>2026-05-03T07:37:11.007Z</time></trkpt><trkpt lat="37.6942427" lon="15.0646133"><ele>1259.0</ele><time>2026-05-03T07:37:12.008Z</time></trkpt><trkpt lat="37.6942988" lon="15.0646644"><ele>1259.0</ele><time>2026-05-03T07:37:13.007Z</time></trkpt><trkpt lat="37.6943506" lon="15.0647099"><ele>1259.0</ele><time>2026-05-03T07:37:14.007Z</time></trkpt><trkpt lat="37.6944302" lon="15.0647349"><ele>1259.0</ele><time>2026-05-03T07:37:16.008Z</time></trkpt><trkpt lat="37.6945104" lon="15.0646634"><ele>1259.0</ele><time>2026-05-03T07:37:18.005Z</time></trkpt><trkpt lat="37.6945489" lon="15.0645655"><ele>1259.0</ele><time>2026-05-03T07:37:20.008Z</time></trkpt><trkpt lat="37.6946289" lon="15.0645497"><ele>1259.0</ele><time>2026-05-03T07:37:22.007Z</time></trkpt><trkpt lat="37.694693" lon="15.0645627"><ele>1259.0</ele><time>2026-05-03T07:37:23.006Z</time></trkpt><trkpt lat="37.6947623" lon="15.0645798"><ele>1259.0</ele><time>2026-05-03T07:37:24.008Z</time></trkpt><trkpt lat="37.6948661" lon="15.0646141"><ele>1259.0</ele><time>2026-05-03T07:37:26.006Z</time></trkpt><trkpt lat="37.6949567" lon="15.0646494"><ele>1259.0</ele><time>2026-05-03T07:37:28.007Z</time></trkpt><trkpt lat="37.6950396" lon="15.0647126"><ele>1259.0</ele><time>2026-05-03T07:37:30.007Z</time></trkpt><trkpt lat="37.6951014" lon="15.0647589"><ele>1259.0</ele><time>2026-05-03T07:37:32.007Z</time></trkpt><trkpt lat="37.6951729" lon="15.0647658"><ele>1259.0</ele><time>2026-05-03T07:37:36.006Z</time></trkpt><trkpt lat="37.6952378" lon="15.0647379"><ele>1259.0</ele><time>2026-05-03T07:39:49.007Z</time></trkpt><trkpt lat="37.69515" lon="15.0647397"><ele>1259.0</ele><time>2026-05-03T07:40:17.007Z</time></trkpt><trkpt lat="37.6950683" lon="15.0647329"><ele>1259.0</ele><time>2026-05-03T07:40:19.008Z</time></trkpt><trkpt lat="37.6949939" lon="15.0646846"><ele>1259.0</ele><time>2026-05-03T07:40:21.006Z</time></trkpt><trkpt lat="37.6948633" lon="15.0646245"><ele>1259.0</ele><time>2026-05-03T07:40:23.007Z</time></trkpt><trkpt lat="37.6947962" lon="15.0646004"><ele>1259.0</ele><time>2026-05-03T07:40:24.007Z</time></trkpt><trkpt lat="37.6946821" lon="15.0645687"><ele>1259.0</ele><time>2026-05-03T07:40:26.006Z</time></trkpt><trkpt lat="37.6945737" lon="15.0645559"><ele>1259.0</ele><time>2026-05-03T07:40:28.008Z</time></trkpt><trkpt lat="37.6944968" lon="15.064647"><ele>1259.0</ele><time>2026-05-03T07:40:30.008Z</time></trkpt><trkpt lat="37.6944217" lon="15.0647294"><ele>1259.0</ele><time>2026-05-03T07:40:32.006Z</time></trkpt><trkpt lat="37.6943386" lon="15.0647053"><ele>1259.0</ele><time>2026-05-03T07:40:34.006Z</time></trkpt><trkpt lat="37.6942886" lon="15.0646473"><ele>1259.0</ele><time>2026-05-03T07:40:35.007Z</time></trkpt><trkpt lat="37.6942239" lon="15.064587"><ele>1259.0</ele><time>2026-05-03T07:40:36.008Z</time></trkpt><trkpt lat="37.6941379" lon="15.0645232"><ele>1259.0</ele><time>2026-05-03T07:40:37.008Z</time></trkpt><trkpt lat="37.6940582" lon="15.0644513"><ele>1259.0</ele><time>2026-05-03T07:40:38.008Z</time></trkpt><trkpt lat="37.6939915" lon="15.0643796"><ele>1259.0</ele><time>2026-05-03T07:40:39.008Z</time></trkpt><trkpt lat="37.6939345" lon="15.064304"><ele>1259.0</ele><time>2026-05-03T07:40:40.006Z</time></trkpt><trkpt lat="37.6938914" lon="15.0642255"><ele>1259.0</ele><time>2026-05-03T07:40:41.008Z</time></trkpt><trkpt lat="37.6938621" lon="15.0641257"><ele>1259.0</ele><time>2026-05-03T07:40:42.007Z</time></trkpt><trkpt lat="37.6938412" lon="15.0640133"><ele>1259.0</ele><time>2026-05-03T07:40:43.007Z</time></trkpt><trkpt lat="37.6938271" lon="15.0638798"><ele>1259.0</ele><time>2026-05-03T07:40:44.007Z</time></trkpt><trkpt lat="37.69381" lon="15.0637269"><ele>1258.6000000000001</ele><time>2026-05-03T07:40:45.007Z</time></trkpt><trkpt lat="37.6937888" lon="15.0636037"><ele>1258.2</ele><time>2026-05-03T07:40:46.006Z</time></trkpt><trkpt lat="37.6937609" lon="15.0635002"><ele>1257.8000000000002</ele><time>2026-05-03T07:40:47.006Z</time></trkpt><trkpt lat="37.6937233" lon="15.0634146"><ele>1257.4</ele><time>2026-05-03T07:40:48.008Z</time></trkpt><trkpt lat="37.6936395" lon="15.0633456"><ele>1257.0</ele><time>2026-05-03T07:40:50.007Z</time></trkpt><trkpt lat="37.6935327" lon="15.0633519"><ele>1257.0</ele><time>2026-05-03T07:40:52.007Z</time></trkpt><trkpt lat="37.6934819" lon="15.0632966"><ele>1257.0</ele><time>2026-05-03T07:40:54.008Z</time></trkpt><trkpt lat="37.6934603" lon="15.0631367"><ele>1257.0</ele><time>2026-05-03T07:40:56.007Z</time></trkpt><trkpt lat="37.6934311" lon="15.0630327"><ele>1257.0</ele><time>2026-05-03T07:40:57.006Z</time></trkpt><trkpt lat="37.6933905" lon="15.062929"><ele>1257.0</ele><time>2026-05-03T07:40:58.006Z</time></trkpt><trkpt lat="37.693348" lon="15.0628224"><ele>1258.6666666666667</ele><time>2026-05-03T07:40:59.008Z</time></trkpt><trkpt lat="37.6933124" lon="15.0627371"><ele>1260.3333333333333</ele><time>2026-05-03T07:41:00.007Z</time></trkpt><trkpt lat="37.6932747" lon="15.062653"><ele>1262.0</ele><time>2026-05-03T07:41:01.008Z</time></trkpt><trkpt lat="37.69323" lon="15.062587"><ele>1263.6666666666665</ele><time>2026-05-03T07:41:02.007Z</time></trkpt><trkpt lat="37.6931373" lon="15.0625075"><ele>1265.3333333333333</ele><time>2026-05-03T07:41:04.007Z</time></trkpt><trkpt lat="37.693036" lon="15.0624934"><ele>1267.0</ele><time>2026-05-03T07:41:06.007Z</time></trkpt><trkpt lat="37.6929552" lon="15.0626071"><ele>1267.0</ele><time>2026-05-03T07:41:08.008Z</time></trkpt><trkpt lat="37.6928992" lon="15.0626552"><ele>1267.0</ele><time>2026-05-03T07:41:09.008Z</time></trkpt><trkpt lat="37.6928397" lon="15.0627031"><ele>1267.0</ele><time>2026-05-03T07:41:10.007Z</time></trkpt><trkpt lat="37.6927648" lon="15.0627102"><ele>1267.0</ele><time>2026-05-03T07:41:12.008Z</time></trkpt><trkpt lat="37.6927062" lon="15.0626733"><ele>1267.0</ele><time>2026-05-03T07:41:14.007Z</time></trkpt><trkpt lat="37.6926333" lon="15.0625745"><ele>1267.0</ele><time>2026-05-03T07:41:16.008Z</time></trkpt><trkpt lat="37.6925052" lon="15.0625151"><ele>1266.2857142857142</ele><time>2026-05-03T07:41:18.007Z</time></trkpt><trkpt lat="37.6924325" lon="15.0624948"><ele>1265.5714285714284</ele><time>2026-05-03T07:41:19.007Z</time></trkpt><trkpt lat="37.6923646" lon="15.0624822"><ele>1264.857142857143</ele><time>2026-05-03T07:41:20.008Z</time></trkpt><trkpt lat="37.6923015" lon="15.062475"><ele>1264.142857142857</ele><time>2026-05-03T07:41:21.007Z</time></trkpt><trkpt lat="37.6922248" lon="15.0624817"><ele>1263.4285714285713</ele><time>2026-05-03T07:41:23.006Z</time></trkpt><trkpt lat="37.692164" lon="15.0625259"><ele>1262.7142857142858</ele><time>2026-05-03T07:41:38.008Z</time></trkpt><trkpt lat="37.6920872" lon="15.0625351"><ele>1262.0</ele><time>2026-05-03T07:41:41.008Z</time></trkpt><trkpt lat="37.6920138" lon="15.0625134"><ele>1262.6666666666667</ele><time>2026-05-03T07:41:50.008Z</time></trkpt><trkpt lat="37.6919972" lon="15.0624172"><ele>1263.3333333333335</ele><time>2026-05-03T07:41:52.006Z</time></trkpt><trkpt lat="37.6919687" lon="15.062325"><ele>1264.0</ele><time>2026-05-03T07:41:54.007Z</time></trkpt><trkpt lat="37.6919125" lon="15.0622453"><ele>1264.6666666666667</ele><time>2026-05-03T07:41:56.008Z</time></trkpt><trkpt lat="37.6918673" lon="15.062185"><ele>1265.3333333333333</ele><time>2026-05-03T07:41:57.008Z</time></trkpt><trkpt lat="37.6917776" lon="15.0620866"><ele>1266.0</ele><time>2026-05-03T07:41:59.007Z</time></trkpt><trkpt lat="37.6916904" lon="15.0620318"><ele>1266.0</ele><time>2026-05-03T07:42:01.008Z</time></trkpt><trkpt lat="37.6916141" lon="15.0620083"><ele>1266.0</ele><time>2026-05-03T07:42:02.007Z</time></trkpt><trkpt lat="37.6915311" lon="15.0619962"><ele>1266.0</ele><time>2026-05-03T07:42:03.008Z</time></trkpt><trkpt lat="37.6914428" lon="15.0620032"><ele>1266.0</ele><time>2026-05-03T07:42:04.007Z</time></trkpt><trkpt lat="37.6913669" lon="15.0620146"><ele>1266.0</ele><time>2026-05-03T07:42:05.008Z</time></trkpt><trkpt lat="37.6912543" lon="15.0620485"><ele>1266.0</ele><time>2026-05-03T07:42:07.008Z</time></trkpt><trkpt lat="37.6911807" lon="15.0620486"><ele>1266.0</ele><time>2026-05-03T07:42:08.008Z</time></trkpt><trkpt lat="37.69111" lon="15.0620588"><ele>1266.0</ele><time>2026-05-03T07:42:09.006Z</time></trkpt><trkpt lat="37.6909972" lon="15.0621062"><ele>1266.0</ele><time>2026-05-03T07:42:11.008Z</time></trkpt><trkpt lat="37.6908879" lon="15.0621279"><ele>1266.0</ele><time>2026-05-03T07:42:13.007Z</time></trkpt><trkpt lat="37.6907776" lon="15.0620998"><ele>1266.0</ele><time>2026-05-03T07:42:15.007Z</time></trkpt><trkpt lat="37.6906847" lon="15.0620403"><ele>1265.8</ele><time>2026-05-03T07:42:17.007Z</time></trkpt><trkpt lat="37.6906237" lon="15.0620075"><ele>1265.6</ele><time>2026-05-03T07:42:18.007Z</time></trkpt><trkpt lat="37.69052" lon="15.0619788"><ele>1265.4</ele><time>2026-05-03T07:42:20.008Z</time></trkpt><trkpt lat="37.690411" lon="15.0619447"><ele>1265.2</ele><time>2026-05-03T07:42:22.007Z</time></trkpt><trkpt lat="37.6903227" lon="15.0619021"><ele>1265.0</ele><time>2026-05-03T07:42:24.008Z</time></trkpt><trkpt lat="37.6902298" lon="15.0619006"><ele>1263.8</ele><time>2026-05-03T07:42:26.008Z</time></trkpt><trkpt lat="37.6901382" lon="15.061913"><ele>1262.6</ele><time>2026-05-03T07:42:28.007Z</time></trkpt><trkpt lat="37.6900291" lon="15.0619439"><ele>1261.4</ele><time>2026-05-03T07:42:30.008Z</time></trkpt><trkpt lat="37.689922" lon="15.0619737"><ele>1260.2</ele><time>2026-05-03T07:42:32.008Z</time></trkpt><trkpt lat="37.6898369" lon="15.0620238"><ele>1259.0</ele><time>2026-05-03T07:42:34.007Z</time></trkpt><trkpt lat="37.6897127" lon="15.0620297"><ele>1259.0</ele><time>2026-05-03T07:42:36.007Z</time></trkpt><trkpt lat="37.6896451" lon="15.0620353"><ele>1259.0</ele><time>2026-05-03T07:42:37.008Z</time></trkpt><trkpt lat="37.6895734" lon="15.0620458"><ele>1259.0</ele><time>2026-05-03T07:42:38.008Z</time></trkpt><trkpt lat="37.6895047" lon="15.0620686"><ele>1259.0</ele><time>2026-05-03T07:42:39.007Z</time></trkpt><trkpt lat="37.6894468" lon="15.0621074"><ele>1259.0</ele><time>2026-05-03T07:42:40.008Z</time></trkpt><trkpt lat="37.6893757" lon="15.0621443"><ele>1259.0</ele><time>2026-05-03T07:42:41.008Z</time></trkpt><trkpt lat="37.689306" lon="15.0621843"><ele>1259.0</ele><time>2026-05-03T07:42:42.008Z</time></trkpt><trkpt lat="37.6892435" lon="15.0622263"><ele>1257.5</ele><time>2026-05-03T07:42:43.007Z</time></trkpt><trkpt lat="37.6891868" lon="15.0622609"><ele>1256.0</ele><time>2026-05-03T07:42:44.007Z</time></trkpt><trkpt lat="37.6891289" lon="15.0622963"><ele>1254.5</ele><time>2026-05-03T07:42:45.007Z</time></trkpt><trkpt lat="37.6890374" lon="15.0623334"><ele>1253.0</ele><time>2026-05-03T07:42:47.008Z</time></trkpt><trkpt lat="37.6889777" lon="15.0623724"><ele>1251.5</ele><time>2026-05-03T07:42:49.009Z</time></trkpt><trkpt lat="37.6888951" lon="15.0624113"><ele>1250.0</ele><time>2026-05-03T07:42:52.006Z</time></trkpt><trkpt lat="37.688805" lon="15.062435"><ele>1250.3333333333335</ele><time>2026-05-03T07:42:55.008Z</time></trkpt><trkpt lat="37.6887427" lon="15.0624825"><ele>1250.6666666666667</ele><time>2026-05-03T07:42:58.007Z</time></trkpt><trkpt lat="37.6886848" lon="15.0625299"><ele>1251.0</ele><time>2026-05-03T07:43:00.008Z</time></trkpt><trkpt lat="37.6886377" lon="15.062592"><ele>1251.3333333333333</ele><time>2026-05-03T07:43:02.008Z</time></trkpt><trkpt lat="37.688557" lon="15.0626367"><ele>1251.6666666666665</ele><time>2026-05-03T07:43:05.007Z</time></trkpt><trkpt lat="37.6884661" lon="15.0626765"><ele>1252.0</ele><time>2026-05-03T07:43:08.008Z</time></trkpt><trkpt lat="37.688402" lon="15.0627574"><ele>1248.8333333333333</ele><time>2026-05-03T07:43:10.007Z</time></trkpt><trkpt lat="37.6883636" lon="15.0628477"><ele>1245.6666666666665</ele><time>2026-05-03T07:43:12.007Z</time></trkpt><trkpt lat="37.6883684" lon="15.0629404"><ele>1242.5</ele><time>2026-05-03T07:43:14.008Z</time></trkpt><trkpt lat="37.6883883" lon="15.0630637"><ele>1239.3333333333333</ele><time>2026-05-03T07:43:16.008Z</time></trkpt><trkpt lat="37.6883775" lon="15.06319"><ele>1236.1666666666667</ele><time>2026-05-03T07:43:18.007Z</time></trkpt><trkpt lat="37.6883719" lon="15.0633055"><ele>1233.0</ele><time>2026-05-03T07:43:20.007Z</time></trkpt><trkpt lat="37.6883998" lon="15.0634428"><ele>1231.6666666666667</ele><time>2026-05-03T07:43:22.007Z</time></trkpt><trkpt lat="37.6884361" lon="15.0635398"><ele>1230.3333333333333</ele><time>2026-05-03T07:43:23.007Z</time></trkpt><trkpt lat="37.688479" lon="15.0636328"><ele>1229.0</ele><time>2026-05-03T07:43:24.007Z</time></trkpt><trkpt lat="37.6885223" lon="15.0637317"><ele>1227.6666666666665</ele><time>2026-05-03T07:43:25.008Z</time></trkpt><trkpt lat="37.6885494" lon="15.0638409"><ele>1226.3333333333333</ele><time>2026-05-03T07:43:26.007Z</time></trkpt><trkpt lat="37.6885624" lon="15.0639397"><ele>1225.0</ele><time>2026-05-03T07:43:27.008Z</time></trkpt><trkpt lat="37.6885638" lon="15.0640285"><ele>1225.0</ele><time>2026-05-03T07:43:28.007Z</time></trkpt><trkpt lat="37.6885537" lon="15.0641117"><ele>1225.0</ele><time>2026-05-03T07:43:29.008Z</time></trkpt><trkpt lat="37.6885439" lon="15.0642008"><ele>1225.0</ele><time>2026-05-03T07:43:30.008Z</time></trkpt><trkpt lat="37.6885392" lon="15.0643442"><ele>1225.0</ele><time>2026-05-03T07:43:32.007Z</time></trkpt><trkpt lat="37.6885235" lon="15.0644901"><ele>1225.0</ele><time>2026-05-03T07:43:34.008Z</time></trkpt><trkpt lat="37.6885103" lon="15.0646336"><ele>1224.0</ele><time>2026-05-03T07:43:36.008Z</time></trkpt><trkpt lat="37.6885094" lon="15.0647538"><ele>1223.0</ele><time>2026-05-03T07:43:38.007Z</time></trkpt><trkpt lat="37.6884905" lon="15.0648591"><ele>1222.0</ele><time>2026-05-03T07:43:40.008Z</time></trkpt><trkpt lat="37.6884643" lon="15.0649586"><ele>1221.0</ele><time>2026-05-03T07:43:42.008Z</time></trkpt><trkpt lat="37.6884579" lon="15.0650474"><ele>1220.0</ele><time>2026-05-03T07:43:44.008Z</time></trkpt><trkpt lat="37.6884582" lon="15.0651446"><ele>1219.0</ele><time>2026-05-03T07:43:46.008Z</time></trkpt><trkpt lat="37.6884498" lon="15.0652591"><ele>1218.0</ele><time>2026-05-03T07:43:48.007Z</time></trkpt><trkpt lat="37.688444" lon="15.0653719"><ele>1217.0</ele><time>2026-05-03T07:43:50.008Z</time></trkpt><trkpt lat="37.6884332" lon="15.0654883"><ele>1216.0</ele><time>2026-05-03T07:43:52.008Z</time></trkpt><trkpt lat="37.6884142" lon="15.0655815"><ele>1215.0</ele><time>2026-05-03T07:43:54.008Z</time></trkpt><trkpt lat="37.6884221" lon="15.0656977"><ele>1214.0</ele><time>2026-05-03T07:43:57.008Z</time></trkpt><trkpt lat="37.6884462" lon="15.0657797"><ele>1213.0</ele><time>2026-05-03T07:43:59.007Z</time></trkpt><trkpt lat="37.6884986" lon="15.065865"><ele>1213.7142857142858</ele><time>2026-05-03T07:44:01.008Z</time></trkpt><trkpt lat="37.6885585" lon="15.0659153"><ele>1214.4285714285713</ele><time>2026-05-03T07:44:03.008Z</time></trkpt><trkpt lat="37.6886091" lon="15.0659646"><ele>1215.142857142857</ele><time>2026-05-03T07:44:05.007Z</time></trkpt><trkpt lat="37.688588" lon="15.0660478"><ele>1215.857142857143</ele><time>2026-05-03T07:44:08.008Z</time></trkpt><trkpt lat="37.6885217" lon="15.0660858"><ele>1216.5714285714284</ele><time>2026-05-03T07:44:10.008Z</time></trkpt><trkpt lat="37.6884592" lon="15.0661376"><ele>1217.2857142857142</ele><time>2026-05-03T07:44:12.008Z</time></trkpt><trkpt lat="37.6883953" lon="15.0662109"><ele>1218.0</ele><time>2026-05-03T07:44:14.008Z</time></trkpt><trkpt lat="37.6883636" lon="15.0662977"><ele>1215.0</ele><time>2026-05-03T07:44:16.008Z</time></trkpt><trkpt lat="37.6883473" lon="15.0663807"><ele>1212.0</ele><time>2026-05-03T07:44:18.008Z</time></trkpt><trkpt lat="37.6882734" lon="15.0664244"><ele>1209.0</ele><time>2026-05-03T07:44:21.007Z</time></trkpt><trkpt lat="37.6881923" lon="15.0664371"><ele>1206.0</ele><time>2026-05-03T07:44:23.008Z</time></trkpt><trkpt lat="37.6881042" lon="15.066485"><ele>1203.0</ele><time>2026-05-03T07:44:25.008Z</time></trkpt><trkpt lat="37.6880426" lon="15.0665069"><ele>1200.0</ele><time>2026-05-03T07:44:26.007Z</time></trkpt><trkpt lat="37.6879684" lon="15.0665279"><ele>1200.0</ele><time>2026-05-03T07:44:27.008Z</time></trkpt><trkpt lat="37.687891" lon="15.0665583"><ele>1200.0</ele><time>2026-05-03T07:44:28.008Z</time></trkpt><trkpt lat="37.6878247" lon="15.0665725"><ele>1200.0</ele><time>2026-05-03T07:44:29.008Z</time></trkpt><trkpt lat="37.6877273" lon="15.0665974"><ele>1200.0</ele><time>2026-05-03T07:44:31.008Z</time></trkpt><trkpt lat="37.6876985" lon="15.0666695"><ele>1200.0</ele><time>2026-05-03T07:44:33.007Z</time></trkpt><trkpt lat="37.6877344" lon="15.0667665"><ele>1200.0</ele><time>2026-05-03T07:44:36.007Z</time></trkpt><trkpt lat="37.6878089" lon="15.0667908"><ele>1196.6666666666667</ele><time>2026-05-03T07:44:38.008Z</time></trkpt><trkpt lat="37.6878853" lon="15.0667937"><ele>1193.3333333333333</ele><time>2026-05-03T07:44:40.008Z</time></trkpt><trkpt lat="37.6879555" lon="15.0668282"><ele>1190.0</ele><time>2026-05-03T07:44:42.009Z</time></trkpt><trkpt lat="37.6880299" lon="15.0668535"><ele>1186.6666666666665</ele><time>2026-05-03T07:44:44.007Z</time></trkpt><trkpt lat="37.6880989" lon="15.066887"><ele>1183.3333333333333</ele><time>2026-05-03T07:44:46.007Z</time></trkpt><trkpt lat="37.6881712" lon="15.0669125"><ele>1180.0</ele><time>2026-05-03T07:44:48.007Z</time></trkpt><trkpt lat="37.6882554" lon="15.0669338"><ele>1180.0</ele><time>2026-05-03T07:44:50.008Z</time></trkpt><trkpt lat="37.6883427" lon="15.0669922"><ele>1180.0</ele><time>2026-05-03T07:44:52.008Z</time></trkpt><trkpt lat="37.6884189" lon="15.0670457"><ele>1180.0</ele><time>2026-05-03T07:44:54.007Z</time></trkpt><trkpt lat="37.6885042" lon="15.0670983"><ele>1180.0</ele><time>2026-05-03T07:44:56.008Z</time></trkpt><trkpt lat="37.6885827" lon="15.0671678"><ele>1180.0</ele><time>2026-05-03T07:44:58.007Z</time></trkpt><trkpt lat="37.6886319" lon="15.0672961"><ele>1181.1666666666665</ele><time>2026-05-03T07:45:00.01Z</time></trkpt><trkpt lat="37.6886711" lon="15.0674196"><ele>1182.3333333333333</ele><time>2026-05-03T07:45:02.008Z</time></trkpt><trkpt lat="37.6887064" lon="15.0675111"><ele>1183.5</ele><time>2026-05-03T07:45:04.007Z</time></trkpt><trkpt lat="37.6887874" lon="15.0675436"><ele>1184.6666666666667</ele><time>2026-05-03T07:45:07.008Z</time></trkpt><trkpt lat="37.6888581" lon="15.067507"><ele>1185.8333333333335</ele><time>2026-05-03T07:45:10.008Z</time></trkpt><trkpt lat="37.6888459" lon="15.0675901"><ele>1187.0</ele><time>2026-05-03T07:45:18.008Z</time></trkpt><trkpt lat="37.6887546" lon="15.0676425"><ele>1183.0</ele><time>2026-05-03T07:45:21.008Z</time></trkpt><trkpt lat="37.6886565" lon="15.0676751"><ele>1179.0</ele><time>2026-05-03T07:45:23.008Z</time></trkpt><trkpt lat="37.688551" lon="15.067716"><ele>1175.0</ele><time>2026-05-03T07:45:25.008Z</time></trkpt><trkpt lat="37.6884582" lon="15.0677664"><ele>1171.0</ele><time>2026-05-03T07:45:27.007Z</time></trkpt><trkpt lat="37.688389" lon="15.0678407"><ele>1167.0</ele><time>2026-05-03T07:45:29.007Z</time></trkpt><trkpt lat="37.6883372" lon="15.0679032"><ele>1167.0</ele><time>2026-05-03T07:45:31.007Z</time></trkpt><trkpt lat="37.6882919" lon="15.0680018"><ele>1167.0</ele><time>2026-05-03T07:45:34.007Z</time></trkpt><trkpt lat="37.6882508" lon="15.068072"><ele>1167.0</ele><time>2026-05-03T07:45:36.008Z</time></trkpt><trkpt lat="37.6882039" lon="15.068144"><ele>1167.0</ele><time>2026-05-03T07:45:38.009Z</time></trkpt><trkpt lat="37.6881614" lon="15.0682123"><ele>1167.0</ele><time>2026-05-03T07:45:40.008Z</time></trkpt><trkpt lat="37.6881347" lon="15.068285"><ele>1167.0</ele><time>2026-05-03T07:45:42.008Z</time></trkpt><trkpt lat="37.6881384" lon="15.0683656"><ele>1167.0</ele><time>2026-05-03T07:45:44.008Z</time></trkpt><trkpt lat="37.6882079" lon="15.0684069"><ele>1167.0</ele><time>2026-05-03T07:45:47.008Z</time></trkpt><trkpt lat="37.6881425" lon="15.0683659"><ele>1167.0</ele><time>2026-05-03T07:46:53.008Z</time></trkpt><trkpt lat="37.688082" lon="15.0683341"><ele>1167.0</ele><time>2026-05-03T07:47:13.007Z</time></trkpt><trkpt lat="37.6880179" lon="15.0683486"><ele>1167.0</ele><time>2026-05-03T07:47:25.007Z</time></trkpt><trkpt lat="37.6880899" lon="15.0683223"><ele>1167.0</ele><time>2026-05-03T07:47:36.009Z</time></trkpt><trkpt lat="37.6881519" lon="15.0682522"><ele>1167.0</ele><time>2026-05-03T07:47:40.009Z</time></trkpt><trkpt lat="37.6881992" lon="15.0681869"><ele>1167.0</ele><time>2026-05-03T07:47:42.009Z</time></trkpt><trkpt lat="37.6882398" lon="15.0681149"><ele>1167.0</ele><time>2026-05-03T07:47:44.007Z</time></trkpt><trkpt lat="37.6882835" lon="15.0680332"><ele>1167.0</ele><time>2026-05-03T07:47:46.008Z</time></trkpt><trkpt lat="37.6883302" lon="15.0679534"><ele>1167.0</ele><time>2026-05-03T07:47:48.008Z</time></trkpt><trkpt lat="37.6883941" lon="15.0678867"><ele>1167.0</ele><time>2026-05-03T07:47:51.007Z</time></trkpt><trkpt lat="37.6884368" lon="15.0678125"><ele>1167.0</ele><time>2026-05-03T07:47:54.008Z</time></trkpt><trkpt lat="37.6885107" lon="15.0677435"><ele>1167.0</ele><time>2026-05-03T07:47:57.008Z</time></trkpt><trkpt lat="37.6885985" lon="15.0677058"><ele>1166.1666666666667</ele><time>2026-05-03T07:48:00.008Z</time></trkpt><trkpt lat="37.6886706" lon="15.0676775"><ele>1165.3333333333333</ele><time>2026-05-03T07:49:40.008Z</time></trkpt><trkpt lat="37.6887262" lon="15.0676387"><ele>1164.5</ele><time>2026-05-03T07:49:42.912Z</time></trkpt><trkpt lat="37.6887958" lon="15.0675753"><ele>1163.6666666666665</ele><time>2026-05-03T07:49:46.033Z</time></trkpt><trkpt lat="37.6888564" lon="15.0675391"><ele>1162.8333333333333</ele><time>2026-05-03T07:49:49.006Z</time></trkpt><trkpt lat="37.6889322" lon="15.0674965"><ele>1162.0</ele><time>2026-05-03T07:49:59.008Z</time></trkpt><trkpt lat="37.6890921" lon="15.0675614"><ele>1162.0</ele><time>2026-05-03T07:50:02.007Z</time></trkpt><trkpt lat="37.6891525" lon="15.067617"><ele>1162.0</ele><time>2026-05-03T07:50:03.008Z</time></trkpt><trkpt lat="37.689243" lon="15.0676892"><ele>1162.0</ele><time>2026-05-03T07:50:05.008Z</time></trkpt><trkpt lat="37.6893278" lon="15.0677182"><ele>1162.0</ele><time>2026-05-03T07:50:07.008Z</time></trkpt><trkpt lat="37.6894133" lon="15.0677472"><ele>1162.0</ele><time>2026-05-03T07:50:09.006Z</time></trkpt><trkpt lat="37.6894911" lon="15.0677818"><ele>1162.0</ele><time>2026-05-03T07:50:11.008Z</time></trkpt><trkpt lat="37.6895636" lon="15.067879"><ele>1161.4</ele><time>2026-05-03T07:50:13.008Z</time></trkpt><trkpt lat="37.6896365" lon="15.0679581"><ele>1160.8000000000002</ele><time>2026-05-03T07:50:15.009Z</time></trkpt><trkpt lat="37.6897605" lon="15.0679987"><ele>1160.2</ele><time>2026-05-03T07:50:17.008Z</time></trkpt><trkpt lat="37.6898721" lon="15.0680583"><ele>1159.6000000000001</ele><time>2026-05-03T07:50:19.009Z</time></trkpt><trkpt lat="37.6899282" lon="15.0680961"><ele>1159.0</ele><time>2026-05-03T07:50:20.009Z</time></trkpt><trkpt lat="37.6900121" lon="15.0681671"><ele>1159.0</ele><time>2026-05-03T07:50:22.009Z</time></trkpt><trkpt lat="37.6900763" lon="15.0682269"><ele>1159.0</ele><time>2026-05-03T07:50:24.009Z</time></trkpt><trkpt lat="37.690126" lon="15.0683086"><ele>1159.0</ele><time>2026-05-03T07:50:26.009Z</time></trkpt><trkpt lat="37.690201" lon="15.0684378"><ele>1159.0</ele><time>2026-05-03T07:50:28.007Z</time></trkpt><trkpt lat="37.6902412" lon="15.0685092"><ele>1159.0</ele><time>2026-05-03T07:50:29.008Z</time></trkpt><trkpt lat="37.69028" lon="15.0685805"><ele>1159.0</ele><time>2026-05-03T07:50:30.008Z</time></trkpt><trkpt lat="37.6903102" lon="15.0686618"><ele>1157.6000000000001</ele><time>2026-05-03T07:50:31.008Z</time></trkpt><trkpt lat="37.6903709" lon="15.0687707"><ele>1156.2</ele><time>2026-05-03T07:50:33.008Z</time></trkpt><trkpt lat="37.6904372" lon="15.0688589"><ele>1154.8000000000002</ele><time>2026-05-03T07:50:35.009Z</time></trkpt><trkpt lat="37.6905078" lon="15.0689444"><ele>1153.4</ele><time>2026-05-03T07:50:37.009Z</time></trkpt><trkpt lat="37.6905831" lon="15.0690267"><ele>1152.0</ele><time>2026-05-03T07:50:39.008Z</time></trkpt><trkpt lat="37.6906387" lon="15.0691312"><ele>1150.2</ele><time>2026-05-03T07:50:41.008Z</time></trkpt><trkpt lat="37.6906804" lon="15.0692488"><ele>1148.4</ele><time>2026-05-03T07:50:43.008Z</time></trkpt><trkpt lat="37.6907173" lon="15.0693858"><ele>1146.6</ele><time>2026-05-03T07:50:45.007Z</time></trkpt><trkpt lat="37.6907456" lon="15.0694767"><ele>1144.8</ele><time>2026-05-03T07:50:46.008Z</time></trkpt><trkpt lat="37.6907836" lon="15.0695751"><ele>1143.0</ele><time>2026-05-03T07:50:47.007Z</time></trkpt><trkpt lat="37.6908206" lon="15.0696938"><ele>1143.0</ele><time>2026-05-03T07:50:48.007Z</time></trkpt><trkpt lat="37.6908587" lon="15.0698161"><ele>1143.0</ele><time>2026-05-03T07:50:49.007Z</time></trkpt><trkpt lat="37.690899" lon="15.0699365"><ele>1143.0</ele><time>2026-05-03T07:50:50.009Z</time></trkpt><trkpt lat="37.6909474" lon="15.0700598"><ele>1143.0</ele><time>2026-05-03T07:50:51.008Z</time></trkpt><trkpt lat="37.6909858" lon="15.0701667"><ele>1143.0</ele><time>2026-05-03T07:50:52.008Z</time></trkpt><trkpt lat="37.6910086" lon="15.0702709"><ele>1143.1666666666667</ele><time>2026-05-03T07:50:53.007Z</time></trkpt><trkpt lat="37.6910258" lon="15.070363"><ele>1143.3333333333333</ele><time>2026-05-03T07:50:54.008Z</time></trkpt><trkpt lat="37.6910641" lon="15.0704985"><ele>1143.5</ele><time>2026-05-03T07:50:56.009Z</time></trkpt><trkpt lat="37.6911053" lon="15.0705685"><ele>1143.6666666666665</ele><time>2026-05-03T07:50:57.007Z</time></trkpt><trkpt lat="37.6911516" lon="15.0706386"><ele>1143.8333333333333</ele><time>2026-05-03T07:50:58.009Z</time></trkpt><trkpt lat="37.6911841" lon="15.0707197"><ele>1144.0</ele><time>2026-05-03T07:50:59.008Z</time></trkpt><trkpt lat="37.6912186" lon="15.0707913"><ele>1143.1666666666665</ele><time>2026-05-03T07:51:00.007Z</time></trkpt><trkpt lat="37.6912677" lon="15.0708582"><ele>1142.3333333333333</ele><time>2026-05-03T07:51:01.009Z</time></trkpt><trkpt lat="37.6913181" lon="15.0709199"><ele>1141.5</ele><time>2026-05-03T07:51:02.009Z</time></trkpt><trkpt lat="37.6913685" lon="15.0709943"><ele>1140.6666666666667</ele><time>2026-05-03T07:51:03.009Z</time></trkpt><trkpt lat="37.6914186" lon="15.0710592"><ele>1139.8333333333335</ele><time>2026-05-03T07:51:04.007Z</time></trkpt><trkpt lat="37.6915148" lon="15.0711212"><ele>1139.0</ele><time>2026-05-03T07:51:06.009Z</time></trkpt><trkpt lat="37.6915709" lon="15.0712226"><ele>1139.0</ele><time>2026-05-03T07:51:08.009Z</time></trkpt><trkpt lat="37.691577" lon="15.071371"><ele>1139.0</ele><time>2026-05-03T07:51:10.009Z</time></trkpt><trkpt lat="37.6916044" lon="15.0715211"><ele>1139.0</ele><time>2026-05-03T07:51:12.007Z</time></trkpt><trkpt lat="37.6916806" lon="15.0716511"><ele>1139.0</ele><time>2026-05-03T07:51:14.009Z</time></trkpt><trkpt lat="37.6917421" lon="15.0717079"><ele>1139.0</ele><time>2026-05-03T07:51:15.008Z</time></trkpt><trkpt lat="37.6918175" lon="15.0717304"><ele>1138.0</ele><time>2026-05-03T07:51:16.009Z</time></trkpt><trkpt lat="37.6918954" lon="15.0717627"><ele>1137.0</ele><time>2026-05-03T07:51:17.008Z</time></trkpt><trkpt lat="37.6919755" lon="15.0717885"><ele>1136.0</ele><time>2026-05-03T07:51:18.009Z</time></trkpt><trkpt lat="37.6920603" lon="15.0718194"><ele>1135.0</ele><time>2026-05-03T07:51:19.009Z</time></trkpt><trkpt lat="37.692162" lon="15.0718344"><ele>1134.0</ele><time>2026-05-03T07:51:20.009Z</time></trkpt><trkpt lat="37.6922406" lon="15.0718516"><ele>1133.0</ele><time>2026-05-03T07:51:21.008Z</time></trkpt><trkpt lat="37.6923191" lon="15.0718613"><ele>1133.0</ele><time>2026-05-03T07:51:22.008Z</time></trkpt><trkpt lat="37.6924018" lon="15.071872"><ele>1133.0</ele><time>2026-05-03T07:51:23.008Z</time></trkpt><trkpt lat="37.692495" lon="15.0718925"><ele>1133.0</ele><time>2026-05-03T07:51:24.008Z</time></trkpt><trkpt lat="37.6925983" lon="15.0719106"><ele>1133.0</ele><time>2026-05-03T07:51:25.009Z</time></trkpt><trkpt lat="37.6926875" lon="15.0719248"><ele>1133.0</ele><time>2026-05-03T07:51:26.009Z</time></trkpt><trkpt lat="37.6927705" lon="15.0719279"><ele>1132.8333333333335</ele><time>2026-05-03T07:51:27.01Z</time></trkpt><trkpt lat="37.6928381" lon="15.071936"><ele>1132.6666666666667</ele><time>2026-05-03T07:51:28.008Z</time></trkpt><trkpt lat="37.6929414" lon="15.0719638"><ele>1132.5</ele><time>2026-05-03T07:51:30.009Z</time></trkpt><trkpt lat="37.6929961" lon="15.0720105"><ele>1132.3333333333333</ele><time>2026-05-03T07:51:31.008Z</time></trkpt><trkpt lat="37.6930577" lon="15.0720641"><ele>1132.1666666666665</ele><time>2026-05-03T07:51:32.009Z</time></trkpt><trkpt lat="37.6931243" lon="15.0721319"><ele>1132.0</ele><time>2026-05-03T07:51:33.008Z</time></trkpt><trkpt lat="37.6931931" lon="15.0722013"><ele>1132.0</ele><time>2026-05-03T07:51:34.009Z</time></trkpt><trkpt lat="37.693261" lon="15.0722571"><ele>1132.0</ele><time>2026-05-03T07:51:35.009Z</time></trkpt><trkpt lat="37.6933141" lon="15.0723178"><ele>1132.0</ele><time>2026-05-03T07:51:36.009Z</time></trkpt><trkpt lat="37.6933589" lon="15.0723798"><ele>1132.0</ele><time>2026-05-03T07:51:37.009Z</time></trkpt><trkpt lat="37.6934222" lon="15.0725108"><ele>1132.0</ele><time>2026-05-03T07:51:39.009Z</time></trkpt><trkpt lat="37.6934558" lon="15.0725785"><ele>1132.0</ele><time>2026-05-03T07:51:40.009Z</time></trkpt><trkpt lat="37.6935274" lon="15.0726904"><ele>1131.0</ele><time>2026-05-03T07:51:42.009Z</time></trkpt><trkpt lat="37.6935798" lon="15.0727778"><ele>1130.0</ele><time>2026-05-03T07:51:44.008Z</time></trkpt><trkpt lat="37.6936352" lon="15.07283"><ele>1129.0</ele><time>2026-05-03T07:51:46.009Z</time></trkpt><trkpt lat="37.6937093" lon="15.0728379"><ele>1128.0</ele><time>2026-05-03T07:54:12.009Z</time></trkpt><trkpt lat="37.6937084" lon="15.0727396"><ele>1127.0</ele><time>2026-05-03T07:54:16.009Z</time></trkpt><trkpt lat="37.693631" lon="15.0727348"><ele>1126.0</ele><time>2026-05-03T07:54:20.009Z</time></trkpt><trkpt lat="37.6935614" lon="15.0727543"><ele>1126.0</ele><time>2026-05-03T07:54:24.009Z</time></trkpt><trkpt lat="37.693513" lon="15.072675"><ele>1126.0</ele><time>2026-05-03T07:54:28.008Z</time></trkpt><trkpt lat="37.6934789" lon="15.0725995"><ele>1126.0</ele><time>2026-05-03T07:54:30.008Z</time></trkpt><trkpt lat="37.6934283" lon="15.0725262"><ele>1126.0</ele><time>2026-05-03T07:54:32.009Z</time></trkpt><trkpt lat="37.6933648" lon="15.072423"><ele>1126.0</ele><time>2026-05-03T07:54:34.009Z</time></trkpt><trkpt lat="37.6933167" lon="15.072322"><ele>1126.0</ele><time>2026-05-03T07:54:36.01Z</time></trkpt><trkpt lat="37.693266" lon="15.0722599"><ele>1126.857142857143</ele><time>2026-05-03T07:54:37.009Z</time></trkpt><trkpt lat="37.6932141" lon="15.0722058"><ele>1127.7142857142858</ele><time>2026-05-03T07:54:38.009Z</time></trkpt><trkpt lat="37.6931544" lon="15.0721602"><ele>1128.5714285714287</ele><time>2026-05-03T07:54:39.009Z</time></trkpt><trkpt lat="37.6930869" lon="15.0721135"><ele>1129.4285714285716</ele><time>2026-05-03T07:54:40.008Z</time></trkpt><trkpt lat="37.6930305" lon="15.0720569"><ele>1130.2857142857144</ele><time>2026-05-03T07:54:41.009Z</time></trkpt><trkpt lat="37.6929733" lon="15.0719906"><ele>1131.142857142857</ele><time>2026-05-03T07:54:42.008Z</time></trkpt><trkpt lat="37.6929129" lon="15.0719508"><ele>1132.0</ele><time>2026-05-03T07:54:43.009Z</time></trkpt><trkpt lat="37.6927766" lon="15.0719327"><ele>1132.1666666666665</ele><time>2026-05-03T07:54:45.01Z</time></trkpt><trkpt lat="37.6927023" lon="15.0719343"><ele>1132.3333333333333</ele><time>2026-05-03T07:54:46.009Z</time></trkpt><trkpt lat="37.6926186" lon="15.0719292"><ele>1132.5</ele><time>2026-05-03T07:54:47.008Z</time></trkpt><trkpt lat="37.6925338" lon="15.0719084"><ele>1132.6666666666667</ele><time>2026-05-03T07:54:48.008Z</time></trkpt><trkpt lat="37.6924593" lon="15.0718906"><ele>1132.8333333333335</ele><time>2026-05-03T07:54:49.01Z</time></trkpt><trkpt lat="37.6923913" lon="15.0718714"><ele>1133.0</ele><time>2026-05-03T07:54:50.009Z</time></trkpt><trkpt lat="37.6923286" lon="15.0718585"><ele>1133.0</ele><time>2026-05-03T07:54:51.01Z</time></trkpt><trkpt lat="37.6922642" lon="15.0718451"><ele>1133.0</ele><time>2026-05-03T07:54:52.009Z</time></trkpt><trkpt lat="37.6921844" lon="15.0718336"><ele>1133.0</ele><time>2026-05-03T07:54:53.01Z</time></trkpt><trkpt lat="37.6920916" lon="15.0718199"><ele>1133.0</ele><time>2026-05-03T07:54:54.009Z</time></trkpt><trkpt lat="37.6919981" lon="15.0717961"><ele>1133.0</ele><time>2026-05-03T07:54:55.009Z</time></trkpt><trkpt lat="37.6919104" lon="15.0717637"><ele>1133.0</ele><time>2026-05-03T07:54:56.008Z</time></trkpt><trkpt lat="37.69183" lon="15.0717261"><ele>1132.8</ele><time>2026-05-03T07:54:57.007Z</time></trkpt><trkpt lat="37.6917591" lon="15.0716879"><ele>1132.6</ele><time>2026-05-03T07:54:58.008Z</time></trkpt><trkpt lat="37.6916951" lon="15.0716481"><ele>1132.4</ele><time>2026-05-03T07:54:59.008Z</time></trkpt><trkpt lat="37.6916122" lon="15.0715435"><ele>1132.2</ele><time>2026-05-03T07:55:01.009Z</time></trkpt><trkpt lat="37.6915709" lon="15.0713822"><ele>1132.0</ele><time>2026-05-03T07:55:03.008Z</time></trkpt><trkpt lat="37.6915642" lon="15.0712941"><ele>1133.4</ele><time>2026-05-03T07:55:04.008Z</time></trkpt><trkpt lat="37.6915558" lon="15.07121"><ele>1134.8000000000002</ele><time>2026-05-03T07:55:05.01Z</time></trkpt><trkpt lat="37.6915055" lon="15.0710931"><ele>1136.2</ele><time>2026-05-03T07:55:07.008Z</time></trkpt><trkpt lat="37.691417" lon="15.0710211"><ele>1137.6000000000001</ele><time>2026-05-03T07:55:09.009Z</time></trkpt><trkpt lat="37.6913249" lon="15.0709414"><ele>1139.0</ele><time>2026-05-03T07:55:11.009Z</time></trkpt><trkpt lat="37.6912742" lon="15.0708817"><ele>1139.0</ele><time>2026-05-03T07:55:12.008Z</time></trkpt><trkpt lat="37.6912229" lon="15.0708273"><ele>1139.0</ele><time>2026-05-03T07:55:13.008Z</time></trkpt><trkpt lat="37.6911569" lon="15.0706982"><ele>1139.0</ele><time>2026-05-03T07:55:15.008Z</time></trkpt><trkpt lat="37.6911085" lon="15.0705832"><ele>1139.0</ele><time>2026-05-03T07:55:17.007Z</time></trkpt><trkpt lat="37.6910476" lon="15.0704826"><ele>1139.0</ele><time>2026-05-03T07:55:19.01Z</time></trkpt><trkpt lat="37.6910073" lon="15.070366"><ele>1138.8333333333335</ele><time>2026-05-03T07:55:21.009Z</time></trkpt><trkpt lat="37.6909931" lon="15.0702788"><ele>1138.6666666666667</ele><time>2026-05-03T07:55:22.009Z</time></trkpt><trkpt lat="37.6909767" lon="15.0701898"><ele>1138.5</ele><time>2026-05-03T07:55:23.009Z</time></trkpt><trkpt lat="37.6909439" lon="15.0700883"><ele>1138.3333333333333</ele><time>2026-05-03T07:55:24.009Z</time></trkpt><trkpt lat="37.6909087" lon="15.0699827"><ele>1138.1666666666665</ele><time>2026-05-03T07:55:25.009Z</time></trkpt><trkpt lat="37.6908771" lon="15.0698753"><ele>1138.0</ele><time>2026-05-03T07:55:26.01Z</time></trkpt><trkpt lat="37.6908407" lon="15.0697645"><ele>1138.8333333333333</ele><time>2026-05-03T07:55:27.009Z</time></trkpt><trkpt lat="37.6907964" lon="15.0696382"><ele>1139.6666666666665</ele><time>2026-05-03T07:55:28.009Z</time></trkpt><trkpt lat="37.6907589" lon="15.0695238"><ele>1140.5</ele><time>2026-05-03T07:55:29.009Z</time></trkpt><trkpt lat="37.6907246" lon="15.0694273"><ele>1141.3333333333333</ele><time>2026-05-03T07:55:30.009Z</time></trkpt><trkpt lat="37.6906972" lon="15.0693389"><ele>1142.1666666666667</ele><time>2026-05-03T07:55:31.009Z</time></trkpt><trkpt lat="37.6906687" lon="15.0692427"><ele>1143.0</ele><time>2026-05-03T07:55:32.01Z</time></trkpt><trkpt lat="37.6906385" lon="15.0691476"><ele>1144.5</ele><time>2026-05-03T07:55:33.009Z</time></trkpt><trkpt lat="37.6905947" lon="15.0690578"><ele>1146.0</ele><time>2026-05-03T07:55:34.009Z</time></trkpt><trkpt lat="37.6905376" lon="15.0689733"><ele>1147.5</ele><time>2026-05-03T07:55:35.009Z</time></trkpt><trkpt lat="37.6904753" lon="15.0688935"><ele>1149.0</ele><time>2026-05-03T07:55:36.009Z</time></trkpt><trkpt lat="37.6904093" lon="15.0688079"><ele>1150.5</ele><time>2026-05-03T07:55:37.01Z</time></trkpt><trkpt lat="37.6903507" lon="15.0687291"><ele>1152.0</ele><time>2026-05-03T07:55:38.008Z</time></trkpt><trkpt lat="37.6903057" lon="15.0686456"><ele>1152.0</ele><time>2026-05-03T07:55:39.009Z</time></trkpt><trkpt lat="37.6902659" lon="15.0685578"><ele>1152.0</ele><time>2026-05-03T07:55:40.009Z</time></trkpt><trkpt lat="37.6902181" lon="15.0684666"><ele>1152.0</ele><time>2026-05-03T07:55:41.009Z</time></trkpt><trkpt lat="37.6901636" lon="15.0683785"><ele>1152.0</ele><time>2026-05-03T07:55:42.009Z</time></trkpt><trkpt lat="37.6901095" lon="15.0682917"><ele>1152.0</ele><time>2026-05-03T07:55:43.008Z</time></trkpt><trkpt lat="37.6900466" lon="15.0682033"><ele>1152.0</ele><time>2026-05-03T07:55:44.009Z</time></trkpt><trkpt lat="37.689964" lon="15.0681264"><ele>1153.4</ele><time>2026-05-03T07:55:45.01Z</time></trkpt><trkpt lat="37.6898931" lon="15.0680571"><ele>1154.8000000000002</ele><time>2026-05-03T07:55:46.008Z</time></trkpt><trkpt lat="37.6898018" lon="15.068015"><ele>1156.2</ele><time>2026-05-03T07:55:47.009Z</time></trkpt><trkpt lat="37.6897169" lon="15.0679898"><ele>1157.6000000000001</ele><time>2026-05-03T07:55:48.009Z</time></trkpt><trkpt lat="37.6896493" lon="15.0679702"><ele>1159.0</ele><time>2026-05-03T07:55:49.009Z</time></trkpt><trkpt lat="37.6895582" lon="15.0678981"><ele>1159.0</ele><time>2026-05-03T07:55:51.008Z</time></trkpt><trkpt lat="37.6894766" lon="15.0677831"><ele>1159.0</ele><time>2026-05-03T07:55:53.009Z</time></trkpt><trkpt lat="37.6893592" lon="15.0677143"><ele>1159.0</ele><time>2026-05-03T07:55:55.009Z</time></trkpt><trkpt lat="37.6892891" lon="15.0676931"><ele>1159.0</ele><time>2026-05-03T07:55:56.009Z</time></trkpt><trkpt lat="37.6892152" lon="15.0676563"><ele>1159.0</ele><time>2026-05-03T07:55:57.009Z</time></trkpt><trkpt lat="37.6891435" lon="15.0676107"><ele>1159.5</ele><time>2026-05-03T07:55:58.009Z</time></trkpt><trkpt lat="37.6890716" lon="15.0675688"><ele>1160.0</ele><time>2026-05-03T07:55:59.009Z</time></trkpt><trkpt lat="37.6890048" lon="15.067535"><ele>1160.5</ele><time>2026-05-03T07:56:00.01Z</time></trkpt><trkpt lat="37.6889394" lon="15.0675214"><ele>1161.0</ele><time>2026-05-03T07:56:01.008Z</time></trkpt><trkpt lat="37.6888753" lon="15.0675218"><ele>1161.5</ele><time>2026-05-03T07:56:02.009Z</time></trkpt><trkpt lat="37.6887761" lon="15.0675502"><ele>1162.0</ele><time>2026-05-03T07:56:04.01Z</time></trkpt><trkpt lat="37.6886958" lon="15.0674944"><ele>1165.6</ele><time>2026-05-03T07:56:07.009Z</time></trkpt><trkpt lat="37.6886534" lon="15.0673926"><ele>1169.2</ele><time>2026-05-03T07:56:09.008Z</time></trkpt><trkpt lat="37.688627" lon="15.0672716"><ele>1172.8</ele><time>2026-05-03T07:56:11.009Z</time></trkpt><trkpt lat="37.6885883" lon="15.0671659"><ele>1176.4</ele><time>2026-05-03T07:56:13.01Z</time></trkpt><trkpt lat="37.6885135" lon="15.0670933"><ele>1180.0</ele><time>2026-05-03T07:56:15.008Z</time></trkpt><trkpt lat="37.6884232" lon="15.0670369"><ele>1180.0</ele><time>2026-05-03T07:56:17.01Z</time></trkpt><trkpt lat="37.6883236" lon="15.0669671"><ele>1180.0</ele><time>2026-05-03T07:56:19.009Z</time></trkpt><trkpt lat="37.6882646" lon="15.0669321"><ele>1180.0</ele><time>2026-05-03T07:56:20.01Z</time></trkpt><trkpt lat="37.6881981" lon="15.0669127"><ele>1180.0</ele><time>2026-05-03T07:56:21.009Z</time></trkpt><trkpt lat="37.6881269" lon="15.0668933"><ele>1180.0</ele><time>2026-05-03T07:56:22.009Z</time></trkpt><trkpt lat="37.6880643" lon="15.0668701"><ele>1180.0</ele><time>2026-05-03T07:56:23.009Z</time></trkpt><trkpt lat="37.6880021" lon="15.0668402"><ele>1180.0</ele><time>2026-05-03T07:56:24.008Z</time></trkpt><trkpt lat="37.6879363" lon="15.0668094"><ele>1180.0</ele><time>2026-05-03T07:56:25.009Z</time></trkpt><trkpt lat="37.6878749" lon="15.0667846"><ele>1180.0</ele><time>2026-05-03T07:56:26.01Z</time></trkpt><trkpt lat="37.6877705" lon="15.0667458"><ele>1180.0</ele><time>2026-05-03T07:56:28.009Z</time></trkpt><trkpt lat="37.6877043" lon="15.0667139"><ele>1180.0</ele><time>2026-05-03T07:56:30.008Z</time></trkpt><trkpt lat="37.6876681" lon="15.0666448"><ele>1180.0</ele><time>2026-05-03T07:56:32.009Z</time></trkpt><trkpt lat="37.6876535" lon="15.0665263"><ele>1182.3333333333333</ele><time>2026-05-03T07:56:35.009Z</time></trkpt><trkpt lat="37.687674" lon="15.0664446"><ele>1184.6666666666665</ele><time>2026-05-03T07:56:40.01Z</time></trkpt><trkpt lat="37.6876514" lon="15.0665213"><ele>1187.0</ele><time>2026-05-03T07:57:02.009Z</time></trkpt><trkpt lat="37.6877103" lon="15.0665615"><ele>1189.3333333333333</ele><time>2026-05-03T07:57:05.009Z</time></trkpt><trkpt lat="37.6877836" lon="15.066597"><ele>1191.6666666666667</ele><time>2026-05-03T07:57:07.009Z</time></trkpt><trkpt lat="37.6878582" lon="15.0665821"><ele>1194.0</ele><time>2026-05-03T07:57:09.01Z</time></trkpt><trkpt lat="37.6879643" lon="15.0665453"><ele>1194.857142857143</ele><time>2026-05-03T07:57:11.009Z</time></trkpt><trkpt lat="37.68803" lon="15.0665239"><ele>1195.7142857142858</ele><time>2026-05-03T07:57:12.008Z</time></trkpt><trkpt lat="37.6880899" lon="15.0664984"><ele>1196.5714285714284</ele><time>2026-05-03T07:57:13.01Z</time></trkpt><trkpt lat="37.6881544" lon="15.0664703"><ele>1197.4285714285716</ele><time>2026-05-03T07:57:14.009Z</time></trkpt><trkpt lat="37.6882196" lon="15.0664439"><ele>1198.2857142857142</ele><time>2026-05-03T07:57:15.009Z</time></trkpt><trkpt lat="37.6882823" lon="15.0664263"><ele>1199.142857142857</ele><time>2026-05-03T07:57:16.01Z</time></trkpt><trkpt lat="37.6883595" lon="15.0663959"><ele>1200.0</ele><time>2026-05-03T07:57:18.008Z</time></trkpt><trkpt lat="37.6883873" lon="15.0662933"><ele>1200.0</ele><time>2026-05-03T07:57:21.009Z</time></trkpt><trkpt lat="37.6884203" lon="15.0662047"><ele>1200.0</ele><time>2026-05-03T07:57:23.009Z</time></trkpt><trkpt lat="37.6884772" lon="15.0661288"><ele>1200.0</ele><time>2026-05-03T07:57:25.01Z</time></trkpt><trkpt lat="37.6885553" lon="15.0660571"><ele>1200.0</ele><time>2026-05-03T07:57:27.009Z</time></trkpt><trkpt lat="37.6885999" lon="15.0659647"><ele>1200.0</ele><time>2026-05-03T07:57:30.008Z</time></trkpt><trkpt lat="37.6885726" lon="15.0658631"><ele>1200.0</ele><time>2026-05-03T07:57:33.008Z</time></trkpt><trkpt lat="37.6884993" lon="15.0658104"><ele>1202.1666666666667</ele><time>2026-05-03T07:57:35.009Z</time></trkpt><trkpt lat="37.6884331" lon="15.0657284"><ele>1204.3333333333333</ele><time>2026-05-03T07:57:37.009Z</time></trkpt><trkpt lat="37.6884042" lon="15.0656251"><ele>1206.5</ele><time>2026-05-03T07:57:39.009Z</time></trkpt><trkpt lat="37.6884033" lon="15.065529"><ele>1208.6666666666665</ele><time>2026-05-03T07:57:41.009Z</time></trkpt><trkpt lat="37.6884352" lon="15.0654079"><ele>1210.8333333333333</ele><time>2026-05-03T07:57:43.008Z</time></trkpt><trkpt lat="37.6884375" lon="15.0653016"><ele>1213.0</ele><time>2026-05-03T07:57:45.009Z</time></trkpt><trkpt lat="37.6884404" lon="15.0652097"><ele>1213.0</ele><time>2026-05-03T07:57:47.01Z</time></trkpt><trkpt lat="37.6884372" lon="15.0651149"><ele>1213.0</ele><time>2026-05-03T07:57:48.008Z</time></trkpt><trkpt lat="37.6884408" lon="15.0649905"><ele>1213.0</ele><time>2026-05-03T07:57:50.009Z</time></trkpt><trkpt lat="37.6884726" lon="15.0648851"><ele>1213.0</ele><time>2026-05-03T07:57:52.009Z</time></trkpt><trkpt lat="37.6885014" lon="15.0647451"><ele>1213.0</ele><time>2026-05-03T07:57:54.008Z</time></trkpt><trkpt lat="37.6885062" lon="15.0645828"><ele>1214.0</ele><time>2026-05-03T07:57:56.01Z</time></trkpt><trkpt lat="37.6885156" lon="15.0644333"><ele>1215.0</ele><time>2026-05-03T07:57:58.008Z</time></trkpt><trkpt lat="37.6885241" lon="15.064354"><ele>1216.0</ele><time>2026-05-03T07:57:59.01Z</time></trkpt><trkpt lat="37.6885311" lon="15.0642673"><ele>1217.0</ele><time>2026-05-03T07:58:00.01Z</time></trkpt><trkpt lat="37.688536" lon="15.0641822"><ele>1218.0</ele><time>2026-05-03T07:58:01.01Z</time></trkpt><trkpt lat="37.6885504" lon="15.0640343"><ele>1219.0</ele><time>2026-05-03T07:58:03.01Z</time></trkpt><trkpt lat="37.688558" lon="15.0639525"><ele>1220.0</ele><time>2026-05-03T07:58:04.007Z</time></trkpt><trkpt lat="37.6885511" lon="15.0638572"><ele>1221.0</ele><time>2026-05-03T07:58:05.009Z</time></trkpt><trkpt lat="37.6885226" lon="15.0637443"><ele>1222.0</ele><time>2026-05-03T07:58:06.01Z</time></trkpt><trkpt lat="37.688473" lon="15.0636246"><ele>1223.0</ele><time>2026-05-03T07:58:07.009Z</time></trkpt><trkpt lat="37.6884289" lon="15.0635308"><ele>1224.0</ele><time>2026-05-03T07:58:08.009Z</time></trkpt><trkpt lat="37.6884008" lon="15.0634569"><ele>1225.0</ele><time>2026-05-03T07:58:09.01Z</time></trkpt><trkpt lat="37.6883715" lon="15.063321"><ele>1226.3333333333333</ele><time>2026-05-03T07:58:11.01Z</time></trkpt><trkpt lat="37.6883613" lon="15.0632189"><ele>1227.6666666666665</ele><time>2026-05-03T07:58:13.01Z</time></trkpt><trkpt lat="37.6883823" lon="15.0630543"><ele>1229.0</ele><time>2026-05-03T07:58:15.009Z</time></trkpt><trkpt lat="37.6883745" lon="15.0629541"><ele>1230.3333333333333</ele><time>2026-05-03T07:58:16.009Z</time></trkpt><trkpt lat="37.6883647" lon="15.0628737"><ele>1231.6666666666667</ele><time>2026-05-03T07:58:17.008Z</time></trkpt><trkpt lat="37.6883849" lon="15.0627843"><ele>1233.0</ele><time>2026-05-03T07:58:19.008Z</time></trkpt><trkpt lat="37.6884315" lon="15.062705"><ele>1233.0</ele><time>2026-05-03T07:58:21.009Z</time></trkpt><trkpt lat="37.6885135" lon="15.0626519"><ele>1233.0</ele><time>2026-05-03T07:58:23.009Z</time></trkpt><trkpt lat="37.6886029" lon="15.0625953"><ele>1233.0</ele><time>2026-05-03T07:58:25.009Z</time></trkpt><trkpt lat="37.6886661" lon="15.0625727"><ele>1233.0</ele><time>2026-05-03T07:58:27.009Z</time></trkpt><trkpt lat="37.6887257" lon="15.0625067"><ele>1233.0</ele><time>2026-05-03T07:58:29.009Z</time></trkpt><trkpt lat="37.6887888" lon="15.0624553"><ele>1233.0</ele><time>2026-05-03T07:58:31.009Z</time></trkpt><trkpt lat="37.6888606" lon="15.0624177"><ele>1236.4</ele><time>2026-05-03T07:58:33.01Z</time></trkpt><trkpt lat="37.6889433" lon="15.0623853"><ele>1239.8</ele><time>2026-05-03T07:58:35.008Z</time></trkpt><trkpt lat="37.6890311" lon="15.0623403"><ele>1243.2</ele><time>2026-05-03T07:58:37.009Z</time></trkpt><trkpt lat="37.68915" lon="15.0622869"><ele>1246.6</ele><time>2026-05-03T07:58:39.01Z</time></trkpt><trkpt lat="37.6892157" lon="15.0622484"><ele>1250.0</ele><time>2026-05-03T07:58:40.008Z</time></trkpt><trkpt lat="37.6892901" lon="15.0621979"><ele>1250.0</ele><time>2026-05-03T07:58:41.009Z</time></trkpt><trkpt lat="37.6893601" lon="15.0621509"><ele>1250.0</ele><time>2026-05-03T07:58:42.009Z</time></trkpt><trkpt lat="37.6894197" lon="15.062112"><ele>1250.0</ele><time>2026-05-03T07:58:43.008Z</time></trkpt><trkpt lat="37.6894856" lon="15.0620773"><ele>1250.0</ele><time>2026-05-03T07:58:44.009Z</time></trkpt><trkpt lat="37.6895463" lon="15.0620466"><ele>1250.0</ele><time>2026-05-03T07:58:45.01Z</time></trkpt><trkpt lat="37.6896579" lon="15.0620131"><ele>1250.0</ele><time>2026-05-03T07:58:47.008Z</time></trkpt><trkpt lat="37.6897767" lon="15.0620228"><ele>1251.5</ele><time>2026-05-03T07:58:49.009Z</time></trkpt><trkpt lat="37.6898726" lon="15.0620184"><ele>1253.0</ele><time>2026-05-03T07:58:51.008Z</time></trkpt><trkpt lat="37.6899884" lon="15.0619628"><ele>1254.5</ele><time>2026-05-03T07:58:53.009Z</time></trkpt><trkpt lat="37.690058" lon="15.061943"><ele>1256.0</ele><time>2026-05-03T07:58:54.01Z</time></trkpt><trkpt lat="37.6901331" lon="15.0619241"><ele>1257.5</ele><time>2026-05-03T07:58:55.01Z</time></trkpt><trkpt lat="37.6902065" lon="15.061901"><ele>1259.0</ele><time>2026-05-03T07:58:56.009Z</time></trkpt><trkpt lat="37.6903096" lon="15.0618948"><ele>1260.0</ele><time>2026-05-03T07:58:58.008Z</time></trkpt><trkpt lat="37.6903738" lon="15.0619225"><ele>1261.0</ele><time>2026-05-03T07:58:59.009Z</time></trkpt><trkpt lat="37.6904525" lon="15.0619556"><ele>1262.0</ele><time>2026-05-03T07:59:00.01Z</time></trkpt><trkpt lat="37.6905362" lon="15.0619896"><ele>1263.0</ele><time>2026-05-03T07:59:01.009Z</time></trkpt><trkpt lat="37.6906242" lon="15.0620214"><ele>1264.0</ele><time>2026-05-03T07:59:02.009Z</time></trkpt><trkpt lat="37.6907036" lon="15.0620487"><ele>1265.0</ele><time>2026-05-03T07:59:03.008Z</time></trkpt><trkpt lat="37.6907685" lon="15.0620781"><ele>1265.0</ele><time>2026-05-03T07:59:04.01Z</time></trkpt><trkpt lat="37.6908904" lon="15.0621051"><ele>1265.0</ele><time>2026-05-03T07:59:06.009Z</time></trkpt><trkpt lat="37.6909634" lon="15.0621002"><ele>1265.0</ele><time>2026-05-03T07:59:07.01Z</time></trkpt><trkpt lat="37.6910448" lon="15.0620888"><ele>1265.0</ele><time>2026-05-03T07:59:08.01Z</time></trkpt><trkpt lat="37.6911179" lon="15.062053"><ele>1265.0</ele><time>2026-05-03T07:59:09.01Z</time></trkpt><trkpt lat="37.6911904" lon="15.0620206"><ele>1265.0</ele><time>2026-05-03T07:59:10.009Z</time></trkpt><trkpt lat="37.6912644" lon="15.0620165"><ele>1265.1666666666667</ele><time>2026-05-03T07:59:11.009Z</time></trkpt><trkpt lat="37.6913524" lon="15.0620142"><ele>1265.3333333333335</ele><time>2026-05-03T07:59:12.009Z</time></trkpt><trkpt lat="37.6914397" lon="15.0619999"><ele>1265.5</ele><time>2026-05-03T07:59:13.009Z</time></trkpt><trkpt lat="37.6915097" lon="15.061994"><ele>1265.6666666666667</ele><time>2026-05-03T07:59:14.009Z</time></trkpt><trkpt lat="37.6915726" lon="15.0620011"><ele>1265.8333333333333</ele><time>2026-05-03T07:59:15.01Z</time></trkpt><trkpt lat="37.6916426" lon="15.0620148"><ele>1266.0</ele><time>2026-05-03T07:59:16.009Z</time></trkpt><trkpt lat="37.6917093" lon="15.0620388"><ele>1266.0</ele><time>2026-05-03T07:59:17.01Z</time></trkpt><trkpt lat="37.6917693" lon="15.0620922"><ele>1266.0</ele><time>2026-05-03T07:59:18.008Z</time></trkpt><trkpt lat="37.6918241" lon="15.0621485"><ele>1266.0</ele><time>2026-05-03T07:59:19.007Z</time></trkpt><trkpt lat="37.6918731" lon="15.0621989"><ele>1266.0</ele><time>2026-05-03T07:59:20.009Z</time></trkpt><trkpt lat="37.6919239" lon="15.0622532"><ele>1266.0</ele><time>2026-05-03T07:59:21.01Z</time></trkpt><trkpt lat="37.6919667" lon="15.0623134"><ele>1266.0</ele><time>2026-05-03T07:59:22.01Z</time></trkpt><trkpt lat="37.6920321" lon="15.0624277"><ele>1266.0</ele><time>2026-05-03T07:59:24.01Z</time></trkpt><trkpt lat="37.6920572" lon="15.06253"><ele>1265.2</ele><time>2026-05-03T07:59:26.009Z</time></trkpt><trkpt lat="37.692161" lon="15.0625103"><ele>1264.3999999999999</ele><time>2026-05-03T07:59:29.01Z</time></trkpt><trkpt lat="37.692295" lon="15.0624734"><ele>1263.6</ele><time>2026-05-03T07:59:31.009Z</time></trkpt><trkpt lat="37.6923824" lon="15.0624783"><ele>1262.8</ele><time>2026-05-03T07:59:32.01Z</time></trkpt><trkpt lat="37.6924691" lon="15.0624898"><ele>1262.0</ele><time>2026-05-03T07:59:33.009Z</time></trkpt><trkpt lat="37.6925536" lon="15.0625135"><ele>1262.0</ele><time>2026-05-03T07:59:34.01Z</time></trkpt><trkpt lat="37.692631" lon="15.0625494"><ele>1262.0</ele><time>2026-05-03T07:59:35.01Z</time></trkpt><trkpt lat="37.6926965" lon="15.062603"><ele>1262.0</ele><time>2026-05-03T07:59:36.01Z</time></trkpt><trkpt lat="37.6927549" lon="15.0626697"><ele>1262.0</ele><time>2026-05-03T07:59:37.009Z</time></trkpt><trkpt lat="37.6928323" lon="15.0627303"><ele>1262.0</ele><time>2026-05-03T07:59:39.01Z</time></trkpt><trkpt lat="37.6929144" lon="15.0626823"><ele>1262.0</ele><time>2026-05-03T07:59:48.01Z</time></trkpt><trkpt lat="37.6930093" lon="15.0625748"><ele>1263.0</ele><time>2026-05-03T07:59:50.01Z</time></trkpt><trkpt lat="37.6930917" lon="15.0624952"><ele>1264.0</ele><time>2026-05-03T07:59:52.009Z</time></trkpt><trkpt lat="37.6931903" lon="15.0625401"><ele>1265.0</ele><time>2026-05-03T07:59:54.01Z</time></trkpt><trkpt lat="37.6932497" lon="15.0626019"><ele>1266.0</ele><time>2026-05-03T07:59:55.009Z</time></trkpt><trkpt lat="37.6933007" lon="15.0626784"><ele>1267.0</ele><time>2026-05-03T07:59:56.01Z</time></trkpt><trkpt lat="37.6933502" lon="15.0627768"><ele>1267.0</ele><time>2026-05-03T07:59:57.01Z</time></trkpt><trkpt lat="37.6933962" lon="15.0628903"><ele>1267.0</ele><time>2026-05-03T07:59:58.009Z</time></trkpt><trkpt lat="37.6934364" lon="15.062999"><ele>1267.0</ele><time>2026-05-03T07:59:59.01Z</time></trkpt><trkpt lat="37.6934704" lon="15.0631042"><ele>1267.0</ele><time>2026-05-03T08:00:00.008Z</time></trkpt><trkpt lat="37.6934891" lon="15.0632031"><ele>1267.0</ele><time>2026-05-03T08:00:01.008Z</time></trkpt><trkpt lat="37.693504" lon="15.0632864"><ele>1267.0</ele><time>2026-05-03T08:00:02.009Z</time></trkpt><trkpt lat="37.6935388" lon="15.063368"><ele>1266.8</ele><time>2026-05-03T08:00:04.01Z</time></trkpt><trkpt lat="37.69361" lon="15.0633835"><ele>1266.6</ele><time>2026-05-03T08:00:06.01Z</time></trkpt><trkpt lat="37.6937111" lon="15.0633932"><ele>1266.3999999999999</ele><time>2026-05-03T08:00:08.009Z</time></trkpt><trkpt lat="37.6937877" lon="15.0635067"><ele>1266.2</ele><time>2026-05-03T08:00:10.01Z</time></trkpt><trkpt lat="37.6938168" lon="15.0636034"><ele>1266.0</ele><time>2026-05-03T08:00:11.009Z</time></trkpt><trkpt lat="37.6938408" lon="15.0637101"><ele>1266.0</ele><time>2026-05-03T08:00:12.007Z</time></trkpt><trkpt lat="37.6938518" lon="15.0638252"><ele>1266.0</ele><time>2026-05-03T08:00:13.01Z</time></trkpt><trkpt lat="37.6938639" lon="15.0639321"><ele>1266.0</ele><time>2026-05-03T08:00:14.008Z</time></trkpt><trkpt lat="37.6938769" lon="15.0640452"><ele>1266.0</ele><time>2026-05-03T08:00:15.01Z</time></trkpt><trkpt lat="37.6938915" lon="15.0641479"><ele>1266.0</ele><time>2026-05-03T08:00:16.009Z</time></trkpt><trkpt lat="37.6939133" lon="15.0642401"><ele>1266.0</ele><time>2026-05-03T08:00:17.01Z</time></trkpt><trkpt lat="37.693954" lon="15.0643204"><ele>1264.8333333333333</ele><time>2026-05-03T08:00:18.009Z</time></trkpt><trkpt lat="37.6940162" lon="15.0643972"><ele>1263.6666666666667</ele><time>2026-05-03T08:00:19.009Z</time></trkpt><trkpt lat="37.694088" lon="15.0644706"><ele>1262.5</ele><time>2026-05-03T08:00:20.009Z</time></trkpt><trkpt lat="37.6941569" lon="15.064537"><ele>1261.3333333333335</ele><time>2026-05-03T08:00:21.009Z</time></trkpt><trkpt lat="37.6942322" lon="15.0645961"><ele>1260.1666666666667</ele><time>2026-05-03T08:00:22.01Z</time></trkpt><trkpt lat="37.6943029" lon="15.0646466"><ele>1259.0</ele><time>2026-05-03T08:00:23.01Z</time></trkpt><trkpt lat="37.6943568" lon="15.0646883"><ele>1259.0</ele><time>2026-05-03T08:00:24.009Z</time></trkpt><trkpt lat="37.6944425" lon="15.0647272"><ele>1259.0</ele><time>2026-05-03T08:00:26.01Z</time></trkpt><trkpt lat="37.6945147" lon="15.064666"><ele>1259.0</ele><time>2026-05-03T08:00:28.009Z</time></trkpt><trkpt lat="37.6945639" lon="15.0645749"><ele>1259.0</ele><time>2026-05-03T08:00:30.01Z</time></trkpt><trkpt lat="37.6946502" lon="15.0645549"><ele>1259.0</ele><time>2026-05-03T08:00:32.01Z</time></trkpt><trkpt lat="37.6947697" lon="15.0645877"><ele>1259.0</ele><time>2026-05-03T08:00:34.009Z</time></trkpt><trkpt lat="37.6948424" lon="15.0646117"><ele>1259.0</ele><time>2026-05-03T08:00:35.01Z</time></trkpt><trkpt lat="37.6949057" lon="15.0646318"><ele>1259.0</ele><time>2026-05-03T08:00:36.009Z</time></trkpt><trkpt lat="37.6950113" lon="15.0646827"><ele>1259.0</ele><time>2026-05-03T08:00:38.009Z</time></trkpt><trkpt lat="37.6950716" lon="15.0647433"><ele>1259.0</ele><time>2026-05-03T08:00:40.01Z</time></trkpt><trkpt lat="37.6949639" lon="15.0646554"><ele>1259.0</ele><time>2026-05-03T08:00:48.01Z</time></trkpt><trkpt lat="37.6948904" lon="15.0646288"><ele>1259.0</ele><time>2026-05-03T08:00:49.008Z</time></trkpt><trkpt lat="37.694811" lon="15.064608"><ele>1259.0</ele><time>2026-05-03T08:00:50.009Z</time></trkpt><trkpt lat="37.6947467" lon="15.0645889"><ele>1259.0</ele><time>2026-05-03T08:00:51.01Z</time></trkpt><trkpt lat="37.6946791" lon="15.0645728"><ele>1259.0</ele><time>2026-05-03T08:00:52.008Z</time></trkpt><trkpt lat="37.6945718" lon="15.0645765"><ele>1259.0</ele><time>2026-05-03T08:00:54.01Z</time></trkpt><trkpt lat="37.6944888" lon="15.0646654"><ele>1259.0</ele><time>2026-05-03T08:00:56.01Z</time></trkpt><trkpt lat="37.6944249" lon="15.0647193"><ele>1259.0</ele><time>2026-05-03T08:00:58.009Z</time></trkpt><trkpt lat="37.6943382" lon="15.0646823"><ele>1259.0</ele><time>2026-05-03T08:01:00.009Z</time></trkpt><trkpt lat="37.6942842" lon="15.0646256"><ele>1259.0</ele><time>2026-05-03T08:01:01.009Z</time></trkpt><trkpt lat="37.6942209" lon="15.0645713"><ele>1259.0</ele><time>2026-05-03T08:01:02.01Z</time></trkpt><trkpt lat="37.6941344" lon="15.0645077"><ele>1259.0</ele><time>2026-05-03T08:01:03.009Z</time></trkpt><trkpt lat="37.6940559" lon="15.0644384"><ele>1259.0</ele><time>2026-05-03T08:01:04.009Z</time></trkpt><trkpt lat="37.693985" lon="15.0643556"><ele>1259.0</ele><time>2026-05-03T08:01:05.009Z</time></trkpt><trkpt lat="37.6939301" lon="15.0642717"><ele>1259.0</ele><time>2026-05-03T08:01:06.01Z</time></trkpt><trkpt lat="37.6938923" lon="15.0641884"><ele>1259.0</ele><time>2026-05-03T08:01:07.009Z</time></trkpt><trkpt lat="37.693871" lon="15.0640928"><ele>1259.0</ele><time>2026-05-03T08:01:08.009Z</time></trkpt><trkpt lat="37.6938514" lon="15.063977"><ele>1259.0</ele><time>2026-05-03T08:01:09.009Z</time></trkpt><trkpt lat="37.6938368" lon="15.0638596"><ele>1258.6666666666667</ele><time>2026-05-03T08:01:10.009Z</time></trkpt><trkpt lat="37.6938232" lon="15.0637363"><ele>1258.3333333333335</ele><time>2026-05-03T08:01:11.009Z</time></trkpt><trkpt lat="37.6938022" lon="15.0636296"><ele>1258.0</ele><time>2026-05-03T08:01:12.01Z</time></trkpt><trkpt lat="37.6937847" lon="15.0635411"><ele>1257.6666666666667</ele><time>2026-05-03T08:01:13.01Z</time></trkpt><trkpt lat="37.6937565" lon="15.0634587"><ele>1257.3333333333333</ele><time>2026-05-03T08:01:14.01Z</time></trkpt><trkpt lat="37.6936714" lon="15.0633675"><ele>1257.0</ele><time>2026-05-03T08:01:16.01Z</time></trkpt><trkpt lat="37.6935612" lon="15.0633646"><ele>1257.0</ele><time>2026-05-03T08:01:18.01Z</time></trkpt><trkpt lat="37.693503" lon="15.0633162"><ele>1257.0</ele><time>2026-05-03T08:01:20.008Z</time></trkpt><trkpt lat="37.6934854" lon="15.0632145"><ele>1257.0</ele><time>2026-05-03T08:01:22.01Z</time></trkpt><trkpt lat="37.6934756" lon="15.0631285"><ele>1257.0</ele><time>2026-05-03T08:01:23.009Z</time></trkpt><trkpt lat="37.6934569" lon="15.0630364"><ele>1257.0</ele><time>2026-05-03T08:01:24.01Z</time></trkpt><trkpt lat="37.6934157" lon="15.0629368"><ele>1257.0</ele><time>2026-05-03T08:01:25.01Z</time></trkpt><trkpt lat="37.6933706" lon="15.0628283"><ele>1258.6666666666667</ele><time>2026-05-03T08:01:26.01Z</time></trkpt><trkpt lat="37.6933287" lon="15.0627216"><ele>1260.3333333333333</ele><time>2026-05-03T08:01:27.01Z</time></trkpt><trkpt lat="37.6932845" lon="15.0626351"><ele>1262.0</ele><time>2026-05-03T08:01:28.01Z</time></trkpt><trkpt lat="37.6932279" lon="15.0625661"><ele>1263.6666666666665</ele><time>2026-05-03T08:01:29.01Z</time></trkpt><trkpt lat="37.6931737" lon="15.0625243"><ele>1265.3333333333333</ele><time>2026-05-03T08:01:30.009Z</time></trkpt><trkpt lat="37.6930737" lon="15.0625037"><ele>1267.0</ele><time>2026-05-03T08:01:32.01Z</time></trkpt><trkpt lat="37.6929729" lon="15.0626021"><ele>1267.0</ele><time>2026-05-03T08:01:34.01Z</time></trkpt><trkpt lat="37.6929175" lon="15.0626531"><ele>1267.0</ele><time>2026-05-03T08:01:35.009Z</time></trkpt><trkpt lat="37.692858" lon="15.0626897"><ele>1267.0</ele><time>2026-05-03T08:01:36.009Z</time></trkpt><trkpt lat="37.6927813" lon="15.0627149"><ele>1267.0</ele><time>2026-05-03T08:01:38.01Z</time></trkpt><trkpt lat="37.6927177" lon="15.0626684"><ele>1267.0</ele><time>2026-05-03T08:01:40.01Z</time></trkpt><trkpt lat="37.6926229" lon="15.0625594"><ele>1267.0</ele><time>2026-05-03T08:01:42.01Z</time></trkpt><trkpt lat="37.6925497" lon="15.0625233"><ele>1266.2857142857142</ele><time>2026-05-03T08:01:43.01Z</time></trkpt><trkpt lat="37.6924708" lon="15.0624989"><ele>1265.5714285714284</ele><time>2026-05-03T08:01:44.01Z</time></trkpt><trkpt lat="37.692404" lon="15.0624781"><ele>1264.857142857143</ele><time>2026-05-03T08:01:45.009Z</time></trkpt><trkpt lat="37.6923413" lon="15.0624622"><ele>1264.142857142857</ele><time>2026-05-03T08:01:46.009Z</time></trkpt><trkpt lat="37.692248" lon="15.0624588"><ele>1263.4285714285713</ele><time>2026-05-03T08:01:48.009Z</time></trkpt><trkpt lat="37.6921832" lon="15.0624647"><ele>1262.7142857142858</ele><time>2026-05-03T08:01:51.009Z</time></trkpt><trkpt lat="37.6921369" lon="15.0625295"><ele>1262.0</ele><time>2026-05-03T08:17:44.013Z</time></trkpt><trkpt lat="37.6920647" lon="15.0625273"><ele>1262.0</ele><time>2026-05-03T08:17:47.011Z</time></trkpt><trkpt lat="37.6920214" lon="15.0624678"><ele>1262.0</ele><time>2026-05-03T08:17:50.013Z</time></trkpt><trkpt lat="37.691993" lon="15.0623485"><ele>1262.0</ele><time>2026-05-03T08:17:53.012Z</time></trkpt><trkpt lat="37.6919419" lon="15.0622553"><ele>1262.0</ele><time>2026-05-03T08:17:55.011Z</time></trkpt><trkpt lat="37.6918746" lon="15.0621701"><ele>1262.0</ele><time>2026-05-03T08:17:57.012Z</time></trkpt><trkpt lat="37.6917938" lon="15.0620925"><ele>1262.0</ele><time>2026-05-03T08:17:59.011Z</time></trkpt><trkpt lat="37.6917203" lon="15.0620425"><ele>1262.8</ele><time>2026-05-03T08:18:01.013Z</time></trkpt><trkpt lat="37.6916078" lon="15.0619968"><ele>1263.6</ele><time>2026-05-03T08:18:03.013Z</time></trkpt><trkpt lat="37.6915286" lon="15.0619909"><ele>1264.3999999999999</ele><time>2026-05-03T08:18:04.011Z</time></trkpt><trkpt lat="37.6914053" lon="15.0619977"><ele>1265.2</ele><time>2026-05-03T08:18:06.01Z</time></trkpt><trkpt lat="37.6913138" lon="15.0620253"><ele>1266.0</ele><time>2026-05-03T08:18:08.013Z</time></trkpt><trkpt lat="37.6912125" lon="15.0620425"><ele>1266.0</ele><time>2026-05-03T08:18:10.012Z</time></trkpt><trkpt lat="37.6910983" lon="15.0620572"><ele>1266.0</ele><time>2026-05-03T08:18:12.013Z</time></trkpt><trkpt lat="37.6910146" lon="15.0621024"><ele>1266.0</ele><time>2026-05-03T08:18:14.01Z</time></trkpt><trkpt lat="37.6909068" lon="15.0621153"><ele>1266.0</ele><time>2026-05-03T08:18:16.012Z</time></trkpt><trkpt lat="37.6908117" lon="15.0621023"><ele>1266.0</ele><time>2026-05-03T08:18:18.012Z</time></trkpt><trkpt lat="37.6907057" lon="15.0620383"><ele>1265.8</ele><time>2026-05-03T08:18:20.013Z</time></trkpt><trkpt lat="37.6906391" lon="15.062018"><ele>1265.6</ele><time>2026-05-03T08:18:21.011Z</time></trkpt><trkpt lat="37.69054" lon="15.0619906"><ele>1265.4</ele><time>2026-05-03T08:18:23.012Z</time></trkpt><trkpt lat="37.6904317" lon="15.0619422"><ele>1265.2</ele><time>2026-05-03T08:18:25.012Z</time></trkpt><trkpt lat="37.6903337" lon="15.0619054"><ele>1265.0</ele><time>2026-05-03T08:18:27.012Z</time></trkpt><trkpt lat="37.6902314" lon="15.0618874"><ele>1263.8</ele><time>2026-05-03T08:18:29.012Z</time></trkpt><trkpt lat="37.6901228" lon="15.0618991"><ele>1262.6</ele><time>2026-05-03T08:18:31.013Z</time></trkpt><trkpt lat="37.6900273" lon="15.0619285"><ele>1261.4</ele><time>2026-05-03T08:18:33.012Z</time></trkpt><trkpt lat="37.6899338" lon="15.0619634"><ele>1260.2</ele><time>2026-05-03T08:18:35.012Z</time></trkpt><trkpt lat="37.6898707" lon="15.0620009"><ele>1259.0</ele><time>2026-05-03T08:18:37.011Z</time></trkpt><trkpt lat="37.6897873" lon="15.0620103"><ele>1259.0</ele><time>2026-05-03T08:18:39.013Z</time></trkpt><trkpt lat="37.6896835" lon="15.0620166"><ele>1259.0</ele><time>2026-05-03T08:18:41.011Z</time></trkpt><trkpt lat="37.6896112" lon="15.0620292"><ele>1259.0</ele><time>2026-05-03T08:18:42.012Z</time></trkpt><trkpt lat="37.6895484" lon="15.0620435"><ele>1259.0</ele><time>2026-05-03T08:18:43.013Z</time></trkpt><trkpt lat="37.6894869" lon="15.062063"><ele>1259.0</ele><time>2026-05-03T08:18:44.011Z</time></trkpt><trkpt lat="37.6894277" lon="15.0620975"><ele>1259.0</ele><time>2026-05-03T08:18:45.011Z</time></trkpt><trkpt lat="37.689366" lon="15.0621384"><ele>1259.0</ele><time>2026-05-03T08:18:46.013Z</time></trkpt><trkpt lat="37.6892649" lon="15.0622063"><ele>1257.5</ele><time>2026-05-03T08:18:48.013Z</time></trkpt><trkpt lat="37.6891675" lon="15.0622691"><ele>1256.0</ele><time>2026-05-03T08:18:50.013Z</time></trkpt><trkpt lat="37.6890754" lon="15.0623084"><ele>1254.5</ele><time>2026-05-03T08:18:52.012Z</time></trkpt><trkpt lat="37.689001" lon="15.0623425"><ele>1253.0</ele><time>2026-05-03T08:18:54.012Z</time></trkpt><trkpt lat="37.6889413" lon="15.0623703"><ele>1251.5</ele><time>2026-05-03T08:18:56.013Z</time></trkpt><trkpt lat="37.6888727" lon="15.0623853"><ele>1250.0</ele><time>2026-05-03T08:18:58.012Z</time></trkpt><trkpt lat="37.6887942" lon="15.0624252"><ele>1250.3333333333335</ele><time>2026-05-03T08:19:01.012Z</time></trkpt><trkpt lat="37.6887139" lon="15.0624944"><ele>1250.6666666666667</ele><time>2026-05-03T08:19:04.013Z</time></trkpt><trkpt lat="37.6886524" lon="15.062562"><ele>1251.0</ele><time>2026-05-03T08:19:06.012Z</time></trkpt><trkpt lat="37.6885822" lon="15.0626118"><ele>1251.3333333333333</ele><time>2026-05-03T08:19:08.012Z</time></trkpt><trkpt lat="37.6885173" lon="15.0626474"><ele>1251.6666666666665</ele><time>2026-05-03T08:19:10.013Z</time></trkpt><trkpt lat="37.6884432" lon="15.06271"><ele>1252.0</ele><time>2026-05-03T08:19:12.012Z</time></trkpt><trkpt lat="37.6883887" lon="15.0627901"><ele>1248.2</ele><time>2026-05-03T08:19:14.012Z</time></trkpt><trkpt lat="37.688361" lon="15.0628737"><ele>1244.4</ele><time>2026-05-03T08:19:16.013Z</time></trkpt><trkpt lat="37.6883709" lon="15.0629742"><ele>1240.6</ele><time>2026-05-03T08:19:18.013Z</time></trkpt><trkpt lat="37.6883879" lon="15.063098"><ele>1236.8</ele><time>2026-05-03T08:19:20.012Z</time></trkpt><trkpt lat="37.6883857" lon="15.0632307"><ele>1233.0</ele><time>2026-05-03T08:19:22.011Z</time></trkpt><trkpt lat="37.688386" lon="15.0633503"><ele>1231.6666666666667</ele><time>2026-05-03T08:19:24.012Z</time></trkpt><trkpt lat="37.6884137" lon="15.0634664"><ele>1230.3333333333333</ele><time>2026-05-03T08:19:26.012Z</time></trkpt><trkpt lat="37.6884635" lon="15.0636113"><ele>1229.0</ele><time>2026-05-03T08:19:28.011Z</time></trkpt><trkpt lat="37.6885011" lon="15.0636967"><ele>1227.6666666666665</ele><time>2026-05-03T08:19:29.012Z</time></trkpt><trkpt lat="37.6885352" lon="15.0637811"><ele>1226.3333333333333</ele><time>2026-05-03T08:19:30.011Z</time></trkpt><trkpt lat="37.6885527" lon="15.0638711"><ele>1225.0</ele><time>2026-05-03T08:19:31.013Z</time></trkpt><trkpt lat="37.6885641" lon="15.0639574"><ele>1225.0</ele><time>2026-05-03T08:19:32.013Z</time></trkpt><trkpt lat="37.6885645" lon="15.0640426"><ele>1225.0</ele><time>2026-05-03T08:19:33.011Z</time></trkpt><trkpt lat="37.6885543" lon="15.0641275"><ele>1225.0</ele><time>2026-05-03T08:19:34.012Z</time></trkpt><trkpt lat="37.6885442" lon="15.0642723"><ele>1225.0</ele><time>2026-05-03T08:19:36.013Z</time></trkpt><trkpt lat="37.6885377" lon="15.0644149"><ele>1225.0</ele><time>2026-05-03T08:19:38.012Z</time></trkpt><trkpt lat="37.6885135" lon="15.0645444"><ele>1223.8</ele><time>2026-05-03T08:19:40.011Z</time></trkpt><trkpt lat="37.6885111" lon="15.0646783"><ele>1222.6</ele><time>2026-05-03T08:19:42.013Z</time></trkpt><trkpt lat="37.6884956" lon="15.0648021"><ele>1221.4</ele><time>2026-05-03T08:19:44.013Z</time></trkpt><trkpt lat="37.6884727" lon="15.0649161"><ele>1220.2</ele><time>2026-05-03T08:19:46.013Z</time></trkpt><trkpt lat="37.6884575" lon="15.0650365"><ele>1219.0</ele><time>2026-05-03T08:19:48.011Z</time></trkpt><trkpt lat="37.6884442" lon="15.0651557"><ele>1218.0</ele><time>2026-05-03T08:19:50.013Z</time></trkpt><trkpt lat="37.6884365" lon="15.0652946"><ele>1217.0</ele><time>2026-05-03T08:19:52.012Z</time></trkpt><trkpt lat="37.6884326" lon="15.0654153"><ele>1216.0</ele><time>2026-05-03T08:19:54.013Z</time></trkpt><trkpt lat="37.6884121" lon="15.065533"><ele>1215.0</ele><time>2026-05-03T08:19:56.013Z</time></trkpt><trkpt lat="37.6884205" lon="15.0656326"><ele>1214.0</ele><time>2026-05-03T08:19:58.012Z</time></trkpt><trkpt lat="37.6884381" lon="15.0657139"><ele>1213.0</ele><time>2026-05-03T08:20:00.012Z</time></trkpt><trkpt lat="37.6884663" lon="15.0658082"><ele>1213.8333333333333</ele><time>2026-05-03T08:20:02.011Z</time></trkpt><trkpt lat="37.6885156" lon="15.0658811"><ele>1214.6666666666665</ele><time>2026-05-03T08:20:04.013Z</time></trkpt><trkpt lat="37.6885844" lon="15.0659281"><ele>1215.5</ele><time>2026-05-03T08:20:06.013Z</time></trkpt><trkpt lat="37.6886208" lon="15.0660028"><ele>1216.3333333333333</ele><time>2026-05-03T08:20:09.012Z</time></trkpt><trkpt lat="37.688538" lon="15.0660799"><ele>1217.1666666666667</ele><time>2026-05-03T08:20:12.012Z</time></trkpt><trkpt lat="37.6884701" lon="15.066139"><ele>1218.0</ele><time>2026-05-03T08:20:14.013Z</time></trkpt><trkpt lat="37.6884082" lon="15.0662047"><ele>1214.4</ele><time>2026-05-03T08:20:16.012Z</time></trkpt><trkpt lat="37.6883794" lon="15.0662853"><ele>1210.8</ele><time>2026-05-03T08:20:18.011Z</time></trkpt><trkpt lat="37.6883658" lon="15.0663655"><ele>1207.2</ele><time>2026-05-03T08:20:20.012Z</time></trkpt><trkpt lat="37.688279" lon="15.0664142"><ele>1203.6</ele><time>2026-05-03T08:20:23.012Z</time></trkpt><trkpt lat="37.6881419" lon="15.066467"><ele>1200.0</ele><time>2026-05-03T08:20:25.012Z</time></trkpt><trkpt lat="37.6880538" lon="15.0664991"><ele>1200.0</ele><time>2026-05-03T08:20:26.012Z</time></trkpt><trkpt lat="37.68797" lon="15.0665232"><ele>1200.0</ele><time>2026-05-03T08:20:27.012Z</time></trkpt><trkpt lat="37.6879006" lon="15.0665515"><ele>1200.0</ele><time>2026-05-03T08:20:28.012Z</time></trkpt><trkpt lat="37.6878357" lon="15.0665621"><ele>1200.0</ele><time>2026-05-03T08:20:29.012Z</time></trkpt><trkpt lat="37.687751" lon="15.0665808"><ele>1200.0</ele><time>2026-05-03T08:20:31.013Z</time></trkpt><trkpt lat="37.687708" lon="15.0666795"><ele>1200.0</ele><time>2026-05-03T08:20:34.013Z</time></trkpt><trkpt lat="37.6877581" lon="15.0667691"><ele>1196.0</ele><time>2026-05-03T08:20:37.012Z</time></trkpt><trkpt lat="37.6878286" lon="15.0667876"><ele>1192.0</ele><time>2026-05-03T08:20:39.012Z</time></trkpt><trkpt lat="37.6879152" lon="15.0668059"><ele>1188.0</ele><time>2026-05-03T08:20:41.013Z</time></trkpt><trkpt lat="37.68802" lon="15.0668356"><ele>1184.0</ele><time>2026-05-03T08:20:43.012Z</time></trkpt><trkpt lat="37.6881345" lon="15.0668883"><ele>1180.0</ele><time>2026-05-03T08:20:45.012Z</time></trkpt><trkpt lat="37.6882366" lon="15.0669325"><ele>1180.0</ele><time>2026-05-03T08:20:47.013Z</time></trkpt><trkpt lat="37.6883055" lon="15.0669626"><ele>1180.0</ele><time>2026-05-03T08:20:48.013Z</time></trkpt><trkpt lat="37.6884101" lon="15.0670235"><ele>1180.0</ele><time>2026-05-03T08:20:50.012Z</time></trkpt><trkpt lat="37.6884991" lon="15.0670871"><ele>1180.0</ele><time>2026-05-03T08:20:52.012Z</time></trkpt><trkpt lat="37.6885772" lon="15.0671681"><ele>1180.0</ele><time>2026-05-03T08:20:54.013Z</time></trkpt><trkpt lat="37.6886353" lon="15.0672865"><ele>1181.4</ele><time>2026-05-03T08:20:56.013Z</time></trkpt><trkpt lat="37.6886915" lon="15.0674309"><ele>1182.8</ele><time>2026-05-03T08:20:58.013Z</time></trkpt><trkpt lat="37.6887407" lon="15.0675121"><ele>1184.2</ele><time>2026-05-03T08:21:00.013Z</time></trkpt><trkpt lat="37.6888111" lon="15.0675333"><ele>1185.6</ele><time>2026-05-03T08:21:02.013Z</time></trkpt><trkpt lat="37.6889123" lon="15.0675318"><ele>1187.0</ele><time>2026-05-03T08:21:04.013Z</time></trkpt><trkpt lat="37.6890186" lon="15.0675194"><ele>1182.8333333333335</ele><time>2026-05-03T08:21:06.012Z</time></trkpt><trkpt lat="37.6891321" lon="15.0675881"><ele>1178.6666666666667</ele><time>2026-05-03T08:21:08.012Z</time></trkpt><trkpt lat="37.6892038" lon="15.0676409"><ele>1174.5</ele><time>2026-05-03T08:21:09.013Z</time></trkpt><trkpt lat="37.6892798" lon="15.067679"><ele>1170.3333333333333</ele><time>2026-05-03T08:21:10.013Z</time></trkpt><trkpt lat="37.689353" lon="15.067704"><ele>1166.1666666666665</ele><time>2026-05-03T08:21:11.013Z</time></trkpt><trkpt lat="37.6894195" lon="15.0677296"><ele>1162.0</ele><time>2026-05-03T08:21:12.013Z</time></trkpt><trkpt lat="37.6894814" lon="15.0677645"><ele>1161.5</ele><time>2026-05-03T08:21:13.014Z</time></trkpt><trkpt lat="37.6895329" lon="15.0678199"><ele>1161.0</ele><time>2026-05-03T08:21:14.013Z</time></trkpt><trkpt lat="37.6895715" lon="15.0678863"><ele>1160.5</ele><time>2026-05-03T08:21:15.012Z</time></trkpt><trkpt lat="37.6896641" lon="15.067971"><ele>1160.0</ele><time>2026-05-03T08:21:17.013Z</time></trkpt><trkpt lat="37.6897267" lon="15.067998"><ele>1159.5</ele><time>2026-05-03T08:21:18.012Z</time></trkpt><trkpt lat="37.6898003" lon="15.0680141"><ele>1159.0</ele><time>2026-05-03T08:21:19.013Z</time></trkpt><trkpt lat="37.689878" lon="15.0680597"><ele>1159.0</ele><time>2026-05-03T08:21:20.012Z</time></trkpt><trkpt lat="37.689967" lon="15.0681171"><ele>1159.0</ele><time>2026-05-03T08:21:21.013Z</time></trkpt><trkpt lat="37.6900419" lon="15.068188"><ele>1159.0</ele><time>2026-05-03T08:21:22.013Z</time></trkpt><trkpt lat="37.6901104" lon="15.0682825"><ele>1159.0</ele><time>2026-05-03T08:21:23.012Z</time></trkpt><trkpt lat="37.6901795" lon="15.0683804"><ele>1159.0</ele><time>2026-05-03T08:21:24.012Z</time></trkpt><trkpt lat="37.6902408" lon="15.0684835"><ele>1157.8333333333333</ele><time>2026-05-03T08:21:25.013Z</time></trkpt><trkpt lat="37.6902942" lon="15.0685794"><ele>1156.6666666666665</ele><time>2026-05-03T08:21:26.013Z</time></trkpt><trkpt lat="37.6903423" lon="15.0686735"><ele>1155.5</ele><time>2026-05-03T08:21:27.012Z</time></trkpt><trkpt lat="37.6903903" lon="15.0687565"><ele>1154.3333333333333</ele><time>2026-05-03T08:21:28.012Z</time></trkpt><trkpt lat="37.6904473" lon="15.0688352"><ele>1153.1666666666667</ele><time>2026-05-03T08:21:29.013Z</time></trkpt><trkpt lat="37.6905094" lon="15.0689205"><ele>1152.0</ele><time>2026-05-03T08:21:30.013Z</time></trkpt><trkpt lat="37.6905669" lon="15.0689934"><ele>1152.0</ele><time>2026-05-03T08:21:31.013Z</time></trkpt><trkpt lat="37.6906175" lon="15.0690728"><ele>1152.0</ele><time>2026-05-03T08:21:32.013Z</time></trkpt><trkpt lat="37.6906571" lon="15.0691561"><ele>1152.0</ele><time>2026-05-03T08:21:33.013Z</time></trkpt><trkpt lat="37.6906839" lon="15.0692446"><ele>1152.0</ele><time>2026-05-03T08:21:34.013Z</time></trkpt><trkpt lat="37.6907124" lon="15.0693519"><ele>1152.0</ele><time>2026-05-03T08:21:35.012Z</time></trkpt><trkpt lat="37.6907525" lon="15.0694778"><ele>1152.0</ele><time>2026-05-03T08:21:36.013Z</time></trkpt><trkpt lat="37.6908034" lon="15.0696277"><ele>1149.75</ele><time>2026-05-03T08:21:37.013Z</time></trkpt><trkpt lat="37.6908553" lon="15.0697739"><ele>1147.5</ele><time>2026-05-03T08:21:38.013Z</time></trkpt><trkpt lat="37.6909039" lon="15.0699124"><ele>1145.25</ele><time>2026-05-03T08:21:39.013Z</time></trkpt><trkpt lat="37.6909485" lon="15.0700356"><ele>1143.0</ele><time>2026-05-03T08:21:40.013Z</time></trkpt><trkpt lat="37.6909842" lon="15.0701537"><ele>1143.1666666666667</ele><time>2026-05-03T08:21:41.013Z</time></trkpt><trkpt lat="37.6910116" lon="15.0702509"><ele>1143.3333333333333</ele><time>2026-05-03T08:21:42.013Z</time></trkpt><trkpt lat="37.6910256" lon="15.0703418"><ele>1143.5</ele><time>2026-05-03T08:21:43.013Z</time></trkpt><trkpt lat="37.6910449" lon="15.0704281"><ele>1143.6666666666665</ele><time>2026-05-03T08:21:44.014Z</time></trkpt><trkpt lat="37.6911035" lon="15.0705562"><ele>1143.8333333333333</ele><time>2026-05-03T08:21:46.013Z</time></trkpt><trkpt lat="37.6911538" lon="15.0706206"><ele>1144.0</ele><time>2026-05-03T08:21:47.012Z</time></trkpt><trkpt lat="37.6912065" lon="15.0707559"><ele>1143.1666666666665</ele><time>2026-05-03T08:21:49.013Z</time></trkpt><trkpt lat="37.6912487" lon="15.0708213"><ele>1142.3333333333333</ele><time>2026-05-03T08:21:50.013Z</time></trkpt><trkpt lat="37.6913049" lon="15.0708952"><ele>1141.5</ele><time>2026-05-03T08:21:51.013Z</time></trkpt><trkpt lat="37.6913646" lon="15.0709657"><ele>1140.6666666666667</ele><time>2026-05-03T08:21:52.013Z</time></trkpt><trkpt lat="37.6914239" lon="15.0710302"><ele>1139.8333333333335</ele><time>2026-05-03T08:21:53.013Z</time></trkpt><trkpt lat="37.6914744" lon="15.0710802"><ele>1139.0</ele><time>2026-05-03T08:21:54.012Z</time></trkpt><trkpt lat="37.6915506" lon="15.0711715"><ele>1139.0</ele><time>2026-05-03T08:21:56.012Z</time></trkpt><trkpt lat="37.6915873" lon="15.0713061"><ele>1139.0</ele><time>2026-05-03T08:21:58.013Z</time></trkpt><trkpt lat="37.6915977" lon="15.0714474"><ele>1139.0</ele><time>2026-05-03T08:22:00.012Z</time></trkpt><trkpt lat="37.6916416" lon="15.0715705"><ele>1139.0</ele><time>2026-05-03T08:22:02.013Z</time></trkpt><trkpt lat="37.6917374" lon="15.0716756"><ele>1138.0</ele><time>2026-05-03T08:22:04.012Z</time></trkpt><trkpt lat="37.6918089" lon="15.0717161"><ele>1137.0</ele><time>2026-05-03T08:22:05.012Z</time></trkpt><trkpt lat="37.6918786" lon="15.0717549"><ele>1136.0</ele><time>2026-05-03T08:22:06.012Z</time></trkpt><trkpt lat="37.6919551" lon="15.0717857"><ele>1135.0</ele><time>2026-05-03T08:22:07.012Z</time></trkpt><trkpt lat="37.6920471" lon="15.0718075"><ele>1134.0</ele><time>2026-05-03T08:22:08.012Z</time></trkpt><trkpt lat="37.6921421" lon="15.0718279"><ele>1133.0</ele><time>2026-05-03T08:22:09.012Z</time></trkpt><trkpt lat="37.6922295" lon="15.071842"><ele>1133.0</ele><time>2026-05-03T08:22:10.012Z</time></trkpt><trkpt lat="37.6923116" lon="15.0718541"><ele>1133.0</ele><time>2026-05-03T08:22:11.013Z</time></trkpt><trkpt lat="37.692394" lon="15.0718684"><ele>1133.0</ele><time>2026-05-03T08:22:12.012Z</time></trkpt><trkpt lat="37.6924841" lon="15.0718913"><ele>1133.0</ele><time>2026-05-03T08:22:13.013Z</time></trkpt><trkpt lat="37.6925796" lon="15.0719054"><ele>1133.0</ele><time>2026-05-03T08:22:14.012Z</time></trkpt><trkpt lat="37.6926656" lon="15.0719172"><ele>1133.0</ele><time>2026-05-03T08:22:15.013Z</time></trkpt><trkpt lat="37.6927567" lon="15.0719199"><ele>1132.8333333333335</ele><time>2026-05-03T08:22:16.012Z</time></trkpt><trkpt lat="37.6928286" lon="15.0719197"><ele>1132.6666666666667</ele><time>2026-05-03T08:22:17.012Z</time></trkpt><trkpt lat="37.6928947" lon="15.071921"><ele>1132.5</ele><time>2026-05-03T08:22:18.013Z</time></trkpt><trkpt lat="37.6929983" lon="15.0720055"><ele>1132.3333333333333</ele><time>2026-05-03T08:22:20.013Z</time></trkpt><trkpt lat="37.6930534" lon="15.0720634"><ele>1132.1666666666665</ele><time>2026-05-03T08:22:21.014Z</time></trkpt><trkpt lat="37.6931135" lon="15.0721158"><ele>1132.0</ele><time>2026-05-03T08:22:22.014Z</time></trkpt><trkpt lat="37.6931785" lon="15.0721714"><ele>1132.0</ele><time>2026-05-03T08:22:23.013Z</time></trkpt><trkpt lat="37.6932447" lon="15.072231"><ele>1132.0</ele><time>2026-05-03T08:22:24.013Z</time></trkpt><trkpt lat="37.6933035" lon="15.0722938"><ele>1132.0</ele><time>2026-05-03T08:22:25.013Z</time></trkpt><trkpt lat="37.6933486" lon="15.0723684"><ele>1132.0</ele><time>2026-05-03T08:22:26.014Z</time></trkpt><trkpt lat="37.6934057" lon="15.0724625"><ele>1132.0</ele><time>2026-05-03T08:22:27.013Z</time></trkpt><trkpt lat="37.6934643" lon="15.0725534"><ele>1132.0</ele><time>2026-05-03T08:22:28.013Z</time></trkpt><trkpt lat="37.693524" lon="15.0726523"><ele>1131.0</ele><time>2026-05-03T08:22:29.012Z</time></trkpt><trkpt lat="37.6935746" lon="15.0727449"><ele>1130.0</ele><time>2026-05-03T08:22:30.012Z</time></trkpt><trkpt lat="37.6936166" lon="15.0728134"><ele>1129.0</ele><time>2026-05-03T08:22:31.013Z</time></trkpt><trkpt lat="37.6936789" lon="15.0729253"><ele>1128.0</ele><time>2026-05-03T08:22:33.012Z</time></trkpt><trkpt lat="37.6937305" lon="15.0730139"><ele>1127.0</ele><time>2026-05-03T08:22:35.013Z</time></trkpt><trkpt lat="37.6937542" lon="15.073114"><ele>1126.0</ele><time>2026-05-03T08:22:37.014Z</time></trkpt><trkpt lat="37.6937203" lon="15.0732227"><ele>1124.0</ele><time>2026-05-03T08:22:39.014Z</time></trkpt><trkpt lat="37.6936892" lon="15.0733596"><ele>1122.0</ele><time>2026-05-03T08:22:41.012Z</time></trkpt><trkpt lat="37.6936991" lon="15.073495"><ele>1120.0</ele><time>2026-05-03T08:22:43.012Z</time></trkpt><trkpt lat="37.6937324" lon="15.0736075"><ele>1118.0</ele><time>2026-05-03T08:22:45.012Z</time></trkpt><trkpt lat="37.6937679" lon="15.073701"><ele>1116.0</ele><time>2026-05-03T08:22:47.013Z</time></trkpt><trkpt lat="37.6938171" lon="15.0737829"><ele>1116.0</ele><time>2026-05-03T08:22:49.013Z</time></trkpt><trkpt lat="37.6938918" lon="15.0738409"><ele>1116.0</ele><time>2026-05-03T08:22:51.012Z</time></trkpt><trkpt lat="37.6939881" lon="15.0738747"><ele>1116.0</ele><time>2026-05-03T08:22:53.014Z</time></trkpt><trkpt lat="37.694088" lon="15.0738879"><ele>1116.0</ele><time>2026-05-03T08:22:55.013Z</time></trkpt><trkpt lat="37.6941934" lon="15.0738593"><ele>1116.0</ele><time>2026-05-03T08:22:57.013Z</time></trkpt><trkpt lat="37.6942987" lon="15.0737824"><ele>1116.0</ele><time>2026-05-03T08:22:59.013Z</time></trkpt><trkpt lat="37.6943535" lon="15.0737349"><ele>1116.0</ele><time>2026-05-03T08:23:00.014Z</time></trkpt><trkpt lat="37.6944072" lon="15.0736814"><ele>1116.0</ele><time>2026-05-03T08:23:01.014Z</time></trkpt><trkpt lat="37.694462" lon="15.0736407"><ele>1116.0</ele><time>2026-05-03T08:23:02.013Z</time></trkpt><trkpt lat="37.6945537" lon="15.0735571"><ele>1116.0</ele><time>2026-05-03T08:23:04.012Z</time></trkpt><trkpt lat="37.6946452" lon="15.0734739"><ele>1116.0</ele><time>2026-05-03T08:23:06.013Z</time></trkpt><trkpt lat="37.6947488" lon="15.0734086"><ele>1115.8</ele><time>2026-05-03T08:23:08.014Z</time></trkpt><trkpt lat="37.694868" lon="15.0733924"><ele>1115.6</ele><time>2026-05-03T08:23:10.013Z</time></trkpt><trkpt lat="37.6949958" lon="15.0734218"><ele>1115.4</ele><time>2026-05-03T08:23:12.013Z</time></trkpt><trkpt lat="37.6950626" lon="15.0734467"><ele>1115.2</ele><time>2026-05-03T08:23:13.014Z</time></trkpt><trkpt lat="37.6951314" lon="15.0734727"><ele>1115.0</ele><time>2026-05-03T08:23:14.014Z</time></trkpt><trkpt lat="37.6951979" lon="15.0734995"><ele>1115.3333333333335</ele><time>2026-05-03T08:23:15.013Z</time></trkpt><trkpt lat="37.6952676" lon="15.0735276"><ele>1115.6666666666667</ele><time>2026-05-03T08:23:16.013Z</time></trkpt><trkpt lat="37.6953418" lon="15.0735551"><ele>1116.0</ele><time>2026-05-03T08:23:17.013Z</time></trkpt><trkpt lat="37.6954154" lon="15.0735846"><ele>1116.3333333333333</ele><time>2026-05-03T08:23:18.011Z</time></trkpt><trkpt lat="37.6954951" lon="15.0736206"><ele>1116.6666666666665</ele><time>2026-05-03T08:23:19.012Z</time></trkpt><trkpt lat="37.6955775" lon="15.0736583"><ele>1117.0</ele><time>2026-05-03T08:23:20.014Z</time></trkpt><trkpt lat="37.6956537" lon="15.0736937"><ele>1117.0</ele><time>2026-05-03T08:23:21.012Z</time></trkpt><trkpt lat="37.6957289" lon="15.0737221"><ele>1117.0</ele><time>2026-05-03T08:23:22.012Z</time></trkpt><trkpt lat="37.6958018" lon="15.0737513"><ele>1117.0</ele><time>2026-05-03T08:23:23.013Z</time></trkpt><trkpt lat="37.6958753" lon="15.0737797"><ele>1117.0</ele><time>2026-05-03T08:23:24.014Z</time></trkpt><trkpt lat="37.695952" lon="15.0738176"><ele>1117.0</ele><time>2026-05-03T08:23:25.013Z</time></trkpt><trkpt lat="37.6960307" lon="15.0738481"><ele>1117.0</ele><time>2026-05-03T08:23:26.014Z</time></trkpt><trkpt lat="37.6961077" lon="15.0738847"><ele>1117.3333333333333</ele><time>2026-05-03T08:23:27.013Z</time></trkpt><trkpt lat="37.6961825" lon="15.0739211"><ele>1117.6666666666665</ele><time>2026-05-03T08:23:28.014Z</time></trkpt><trkpt lat="37.6962548" lon="15.0739686"><ele>1118.0</ele><time>2026-05-03T08:23:29.013Z</time></trkpt><trkpt lat="37.6963166" lon="15.0740201"><ele>1118.3333333333333</ele><time>2026-05-03T08:23:30.013Z</time></trkpt><trkpt lat="37.6963733" lon="15.074089"><ele>1118.6666666666667</ele><time>2026-05-03T08:23:31.013Z</time></trkpt><trkpt lat="37.6964151" lon="15.074172"><ele>1119.0</ele><time>2026-05-03T08:23:32.013Z</time></trkpt><trkpt lat="37.6964303" lon="15.0742615"><ele>1117.7142857142858</ele><time>2026-05-03T08:23:33.013Z</time></trkpt><trkpt lat="37.6964379" lon="15.0743481"><ele>1116.4285714285716</ele><time>2026-05-03T08:23:34.012Z</time></trkpt><trkpt lat="37.6964291" lon="15.0744398"><ele>1115.1428571428573</ele><time>2026-05-03T08:23:35.013Z</time></trkpt><trkpt lat="37.6964085" lon="15.0745278"><ele>1113.857142857143</ele><time>2026-05-03T08:23:36.013Z</time></trkpt><trkpt lat="37.6963736" lon="15.0746009"><ele>1112.5714285714287</ele><time>2026-05-03T08:23:37.013Z</time></trkpt><trkpt lat="37.6963309" lon="15.0746744"><ele>1111.2857142857144</ele><time>2026-05-03T08:23:38.014Z</time></trkpt><trkpt lat="37.6962884" lon="15.0747401"><ele>1110.0</ele><time>2026-05-03T08:23:39.012Z</time></trkpt><trkpt lat="37.696246" lon="15.0748062"><ele>1110.0</ele><time>2026-05-03T08:23:40.014Z</time></trkpt><trkpt lat="37.6962017" lon="15.0748768"><ele>1110.0</ele><time>2026-05-03T08:23:41.012Z</time></trkpt><trkpt lat="37.6961562" lon="15.0749362"><ele>1110.0</ele><time>2026-05-03T08:23:42.013Z</time></trkpt><trkpt lat="37.6961101" lon="15.0749942"><ele>1110.0</ele><time>2026-05-03T08:23:43.012Z</time></trkpt><trkpt lat="37.6960667" lon="15.0750639"><ele>1110.0</ele><time>2026-05-03T08:23:44.012Z</time></trkpt><trkpt lat="37.6959924" lon="15.0751896"><ele>1110.0</ele><time>2026-05-03T08:23:46.014Z</time></trkpt><trkpt lat="37.6959233" lon="15.0753096"><ele>1108.6</ele><time>2026-05-03T08:23:48.014Z</time></trkpt><trkpt lat="37.6958489" lon="15.0754152"><ele>1107.2</ele><time>2026-05-03T08:23:50.013Z</time></trkpt><trkpt lat="37.695764" lon="15.0754809"><ele>1105.8</ele><time>2026-05-03T08:23:52.014Z</time></trkpt><trkpt lat="37.6956492" lon="15.0754804"><ele>1104.4</ele><time>2026-05-03T08:23:54.013Z</time></trkpt><trkpt lat="37.6955716" lon="15.0754662"><ele>1103.0</ele><time>2026-05-03T08:23:55.014Z</time></trkpt><trkpt lat="37.6954999" lon="15.0754451"><ele>1103.0000000000002</ele><time>2026-05-03T08:23:56.014Z</time></trkpt><trkpt lat="37.6954321" lon="15.0754344"><ele>1103.0</ele><time>2026-05-03T08:23:57.013Z</time></trkpt><trkpt lat="37.6953617" lon="15.0754333"><ele>1103.0</ele><time>2026-05-03T08:23:58.013Z</time></trkpt><trkpt lat="37.6952915" lon="15.0754522"><ele>1103.0</ele><time>2026-05-03T08:23:59.013Z</time></trkpt><trkpt lat="37.6952224" lon="15.0754834"><ele>1103.0</ele><time>2026-05-03T08:24:00.012Z</time></trkpt><trkpt lat="37.6951577" lon="15.0755153"><ele>1103.0000000000002</ele><time>2026-05-03T08:24:01.014Z</time></trkpt><trkpt lat="37.6950985" lon="15.075562"><ele>1103.0</ele><time>2026-05-03T08:24:02.012Z</time></trkpt><trkpt lat="37.6950033" lon="15.0756604"><ele>1102.0</ele><time>2026-05-03T08:24:04.013Z</time></trkpt><trkpt lat="37.6948844" lon="15.0757298"><ele>1101.0</ele><time>2026-05-03T08:24:06.013Z</time></trkpt><trkpt lat="37.6947686" lon="15.0757579"><ele>1100.0</ele><time>2026-05-03T08:24:08.013Z</time></trkpt><trkpt lat="37.6947052" lon="15.0757317"><ele>1099.0</ele><time>2026-05-03T08:24:09.013Z</time></trkpt><trkpt lat="37.6946382" lon="15.0757099"><ele>1098.0</ele><time>2026-05-03T08:24:10.013Z</time></trkpt><trkpt lat="37.6945641" lon="15.0756984"><ele>1098.0</ele><time>2026-05-03T08:24:11.013Z</time></trkpt><trkpt lat="37.6944754" lon="15.0757176"><ele>1098.0</ele><time>2026-05-03T08:24:12.013Z</time></trkpt><trkpt lat="37.6943963" lon="15.0757217"><ele>1098.0</ele><time>2026-05-03T08:24:13.014Z</time></trkpt><trkpt lat="37.6943085" lon="15.0757262"><ele>1098.0</ele><time>2026-05-03T08:24:14.014Z</time></trkpt><trkpt lat="37.6942259" lon="15.0757341"><ele>1098.0</ele><time>2026-05-03T08:24:15.014Z</time></trkpt><trkpt lat="37.6941521" lon="15.0757459"><ele>1098.0</ele><time>2026-05-03T08:24:16.012Z</time></trkpt><trkpt lat="37.6940239" lon="15.0757458"><ele>1097.8</ele><time>2026-05-03T08:24:18.013Z</time></trkpt><trkpt lat="37.6939622" lon="15.0757188"><ele>1097.6</ele><time>2026-05-03T08:24:19.012Z</time></trkpt><trkpt lat="37.6938468" lon="15.0757163"><ele>1097.4</ele><time>2026-05-03T08:24:21.013Z</time></trkpt><trkpt lat="37.6937247" lon="15.0757904"><ele>1097.2</ele><time>2026-05-03T08:24:23.014Z</time></trkpt><trkpt lat="37.6936655" lon="15.0758341"><ele>1097.0</ele><time>2026-05-03T08:24:24.013Z</time></trkpt><trkpt lat="37.6935967" lon="15.0758538"><ele>1096.8333333333335</ele><time>2026-05-03T08:24:25.014Z</time></trkpt><trkpt lat="37.6935246" lon="15.0758616"><ele>1096.6666666666667</ele><time>2026-05-03T08:24:26.013Z</time></trkpt><trkpt lat="37.6934368" lon="15.0758463"><ele>1096.5</ele><time>2026-05-03T08:24:27.013Z</time></trkpt><trkpt lat="37.6933579" lon="15.075822"><ele>1096.3333333333333</ele><time>2026-05-03T08:24:28.014Z</time></trkpt><trkpt lat="37.6932927" lon="15.0757915"><ele>1096.1666666666665</ele><time>2026-05-03T08:24:29.012Z</time></trkpt><trkpt lat="37.6931917" lon="15.0757748"><ele>1096.0</ele><time>2026-05-03T08:24:31.014Z</time></trkpt><trkpt lat="37.6931112" lon="15.0758452"><ele>1096.0</ele><time>2026-05-03T08:24:33.014Z</time></trkpt><trkpt lat="37.69301" lon="15.075916"><ele>1096.0</ele><time>2026-05-03T08:24:35.014Z</time></trkpt><trkpt lat="37.6928885" lon="15.0759391"><ele>1096.0</ele><time>2026-05-03T08:24:37.013Z</time></trkpt><trkpt lat="37.6928226" lon="15.0759546"><ele>1096.0</ele><time>2026-05-03T08:24:38.012Z</time></trkpt><trkpt lat="37.6927577" lon="15.075982"><ele>1096.0</ele><time>2026-05-03T08:24:39.014Z</time></trkpt><trkpt lat="37.6927012" lon="15.0760227"><ele>1096.0</ele><time>2026-05-03T08:24:40.014Z</time></trkpt><trkpt lat="37.6925779" lon="15.0760764"><ele>1097.2</ele><time>2026-05-03T08:24:42.014Z</time></trkpt><trkpt lat="37.6924951" lon="15.0760872"><ele>1098.3999999999999</ele><time>2026-05-03T08:24:43.012Z</time></trkpt><trkpt lat="37.6924126" lon="15.0760951"><ele>1099.6</ele><time>2026-05-03T08:24:44.014Z</time></trkpt><trkpt lat="37.692325" lon="15.076125"><ele>1100.8</ele><time>2026-05-03T08:24:45.013Z</time></trkpt><trkpt lat="37.6922299" lon="15.0761796"><ele>1102.0</ele><time>2026-05-03T08:24:46.013Z</time></trkpt><trkpt lat="37.6921303" lon="15.0762218"><ele>1102.0</ele><time>2026-05-03T08:24:47.014Z</time></trkpt><trkpt lat="37.6920218" lon="15.0762629"><ele>1102.0</ele><time>2026-05-03T08:24:48.014Z</time></trkpt><trkpt lat="37.69192" lon="15.0762937"><ele>1102.0</ele><time>2026-05-03T08:24:49.014Z</time></trkpt><trkpt lat="37.6918298" lon="15.0763228"><ele>1102.0</ele><time>2026-05-03T08:24:50.014Z</time></trkpt><trkpt lat="37.6917523" lon="15.0763459"><ele>1102.0</ele><time>2026-05-03T08:24:51.012Z</time></trkpt><trkpt lat="37.6916895" lon="15.0763602"><ele>1102.2</ele><time>2026-05-03T08:24:52.013Z</time></trkpt><trkpt lat="37.6915929" lon="15.076372"><ele>1102.4</ele><time>2026-05-03T08:24:54.014Z</time></trkpt><trkpt lat="37.6914997" lon="15.0763587"><ele>1102.6</ele><time>2026-05-03T08:24:56.014Z</time></trkpt><trkpt lat="37.6914045" lon="15.0763478"><ele>1102.8</ele><time>2026-05-03T08:24:58.013Z</time></trkpt><trkpt lat="37.6913132" lon="15.0763466"><ele>1103.0</ele><time>2026-05-03T08:25:00.014Z</time></trkpt><trkpt lat="37.6912174" lon="15.0763399"><ele>1103.0</ele><time>2026-05-03T08:25:02.013Z</time></trkpt><trkpt lat="37.6911208" lon="15.0763468"><ele>1103.0</ele><time>2026-05-03T08:25:04.012Z</time></trkpt><trkpt lat="37.6910379" lon="15.0763606"><ele>1103.0</ele><time>2026-05-03T08:25:06.014Z</time></trkpt><trkpt lat="37.6909523" lon="15.0763716"><ele>1103.0</ele><time>2026-05-03T08:25:08.013Z</time></trkpt><trkpt lat="37.6908653" lon="15.07638"><ele>1103.0</ele><time>2026-05-03T08:25:10.013Z</time></trkpt><trkpt lat="37.690764" lon="15.076377"><ele>1102.5</ele><time>2026-05-03T08:25:12.014Z</time></trkpt><trkpt lat="37.6906413" lon="15.0763978"><ele>1102.0</ele><time>2026-05-03T08:25:14.012Z</time></trkpt><trkpt lat="37.6905234" lon="15.0764099"><ele>1101.5</ele><time>2026-05-03T08:25:16.015Z</time></trkpt><trkpt lat="37.6904115" lon="15.0763958"><ele>1101.0</ele><time>2026-05-03T08:25:18.014Z</time></trkpt><trkpt lat="37.6903156" lon="15.0763698"><ele>1100.6</ele><time>2026-05-03T08:25:20.014Z</time></trkpt><trkpt lat="37.6902027" lon="15.0763895"><ele>1100.1999999999998</ele><time>2026-05-03T08:25:22.013Z</time></trkpt><trkpt lat="37.6900846" lon="15.0764105"><ele>1099.8000000000002</ele><time>2026-05-03T08:25:24.013Z</time></trkpt><trkpt lat="37.6899717" lon="15.0763707"><ele>1099.4</ele><time>2026-05-03T08:25:26.015Z</time></trkpt><trkpt lat="37.6899148" lon="15.076335"><ele>1099.0</ele><time>2026-05-03T08:25:27.014Z</time></trkpt><trkpt lat="37.6898409" lon="15.0762748"><ele>1099.0</ele><time>2026-05-03T08:25:28.014Z</time></trkpt><trkpt lat="37.6897736" lon="15.0762256"><ele>1099.0</ele><time>2026-05-03T08:25:29.014Z</time></trkpt><trkpt lat="37.6897123" lon="15.0761819"><ele>1099.0</ele><time>2026-05-03T08:25:30.013Z</time></trkpt><trkpt lat="37.6896579" lon="15.0761417"><ele>1099.0</ele><time>2026-05-03T08:25:31.014Z</time></trkpt><trkpt lat="37.6895942" lon="15.0761019"><ele>1099.0</ele><time>2026-05-03T08:25:32.013Z</time></trkpt><trkpt lat="37.689516" lon="15.076048"><ele>1099.0</ele><time>2026-05-03T08:25:33.014Z</time></trkpt><trkpt lat="37.6894483" lon="15.0760046"><ele>1099.0</ele><time>2026-05-03T08:25:34.015Z</time></trkpt><trkpt lat="37.6893677" lon="15.0759569"><ele>1099.2</ele><time>2026-05-03T08:25:35.013Z</time></trkpt><trkpt lat="37.6892903" lon="15.0759333"><ele>1099.4</ele><time>2026-05-03T08:25:36.013Z</time></trkpt><trkpt lat="37.6891813" lon="15.0759453"><ele>1099.6</ele><time>2026-05-03T08:25:37.013Z</time></trkpt><trkpt lat="37.689072" lon="15.0759429"><ele>1099.8</ele><time>2026-05-03T08:25:38.014Z</time></trkpt><trkpt lat="37.6889552" lon="15.0759497"><ele>1100.0</ele><time>2026-05-03T08:25:39.014Z</time></trkpt><trkpt lat="37.688828" lon="15.0759454"><ele>1100.0</ele><time>2026-05-03T08:25:40.014Z</time></trkpt><trkpt lat="37.6887066" lon="15.0759483"><ele>1100.0</ele><time>2026-05-03T08:25:41.014Z</time></trkpt><trkpt lat="37.6886146" lon="15.075955"><ele>1100.0</ele><time>2026-05-03T08:25:42.014Z</time></trkpt><trkpt lat="37.6885291" lon="15.0759563"><ele>1100.0</ele><time>2026-05-03T08:25:43.014Z</time></trkpt><trkpt lat="37.6884463" lon="15.0759476"><ele>1100.0</ele><time>2026-05-03T08:25:44.013Z</time></trkpt><trkpt lat="37.6883604" lon="15.0759332"><ele>1099.1666666666667</ele><time>2026-05-03T08:25:45.013Z</time></trkpt><trkpt lat="37.6882797" lon="15.0759318"><ele>1098.3333333333335</ele><time>2026-05-03T08:25:46.012Z</time></trkpt><trkpt lat="37.6882035" lon="15.0759271"><ele>1097.5</ele><time>2026-05-03T08:25:47.014Z</time></trkpt><trkpt lat="37.6881276" lon="15.0759555"><ele>1096.6666666666667</ele><time>2026-05-03T08:25:48.014Z</time></trkpt><trkpt lat="37.6880551" lon="15.0759907"><ele>1095.8333333333333</ele><time>2026-05-03T08:25:49.014Z</time></trkpt><trkpt lat="37.6879878" lon="15.0760313"><ele>1095.0</ele><time>2026-05-03T08:25:50.014Z</time></trkpt><trkpt lat="37.6879275" lon="15.0760559"><ele>1095.0</ele><time>2026-05-03T08:25:51.012Z</time></trkpt><trkpt lat="37.6878457" lon="15.0760647"><ele>1095.0</ele><time>2026-05-03T08:25:52.014Z</time></trkpt><trkpt lat="37.6877665" lon="15.0760478"><ele>1095.0</ele><time>2026-05-03T08:25:53.014Z</time></trkpt><trkpt lat="37.6876962" lon="15.0760446"><ele>1095.0</ele><time>2026-05-03T08:25:54.014Z</time></trkpt><trkpt lat="37.687591" lon="15.0760266"><ele>1095.0</ele><time>2026-05-03T08:25:56.014Z</time></trkpt><trkpt lat="37.6875002" lon="15.075948"><ele>1095.0</ele><time>2026-05-03T08:25:58.013Z</time></trkpt><trkpt lat="37.6873875" lon="15.0758829"><ele>1095.0</ele><time>2026-05-03T08:26:00.014Z</time></trkpt><trkpt lat="37.6873046" lon="15.0758792"><ele>1095.0</ele><time>2026-05-03T08:26:01.014Z</time></trkpt><trkpt lat="37.6872308" lon="15.0758748"><ele>1095.0</ele><time>2026-05-03T08:26:02.014Z</time></trkpt><trkpt lat="37.6871673" lon="15.0758658"><ele>1095.0</ele><time>2026-05-03T08:26:03.015Z</time></trkpt><trkpt lat="37.6870957" lon="15.0758361"><ele>1095.0</ele><time>2026-05-03T08:26:04.012Z</time></trkpt><trkpt lat="37.6870153" lon="15.0758217"><ele>1095.0</ele><time>2026-05-03T08:26:05.013Z</time></trkpt><trkpt lat="37.6869066" lon="15.0758148"><ele>1095.0</ele><time>2026-05-03T08:26:06.014Z</time></trkpt><trkpt lat="37.6868069" lon="15.0758204"><ele>1095.0</ele><time>2026-05-03T08:26:07.014Z</time></trkpt><trkpt lat="37.6867059" lon="15.0758216"><ele>1095.0</ele><time>2026-05-03T08:26:08.013Z</time></trkpt><trkpt lat="37.6866207" lon="15.0758173"><ele>1095.0</ele><time>2026-05-03T08:26:09.013Z</time></trkpt><trkpt lat="37.6865512" lon="15.0758124"><ele>1095.0</ele><time>2026-05-03T08:26:10.011Z</time></trkpt><trkpt lat="37.6864758" lon="15.075817"><ele>1095.0</ele><time>2026-05-03T08:26:11.013Z</time></trkpt><trkpt lat="37.686382" lon="15.0758149"><ele>1095.0</ele><time>2026-05-03T08:26:12.014Z</time></trkpt><trkpt lat="37.6863025" lon="15.0758164"><ele>1095.0</ele><time>2026-05-03T08:26:13.014Z</time></trkpt><trkpt lat="37.6862365" lon="15.0758383"><ele>1095.0</ele><time>2026-05-03T08:26:14.013Z</time></trkpt><trkpt lat="37.6861731" lon="15.0758606"><ele>1095.0</ele><time>2026-05-03T08:26:15.014Z</time></trkpt><trkpt lat="37.6860855" lon="15.0759629"><ele>1095.0</ele><time>2026-05-03T08:26:17.014Z</time></trkpt><trkpt lat="37.6860376" lon="15.0760627"><ele>1095.0</ele><time>2026-05-03T08:26:19.013Z</time></trkpt><trkpt lat="37.686" lon="15.076136"><ele>1096.6</ele><time>2026-05-03T08:26:21.014Z</time></trkpt><trkpt lat="37.685907" lon="15.0761744"><ele>1098.2</ele><time>2026-05-03T08:26:23.014Z</time></trkpt><trkpt lat="37.6858026" lon="15.0761824"><ele>1099.8</ele><time>2026-05-03T08:26:25.013Z</time></trkpt><trkpt lat="37.6857336" lon="15.0761559"><ele>1101.4</ele><time>2026-05-03T08:26:26.013Z</time></trkpt><trkpt lat="37.6856193" lon="15.0760984"><ele>1103.0</ele><time>2026-05-03T08:26:28.014Z</time></trkpt><trkpt lat="37.6855609" lon="15.0760382"><ele>1103.0</ele><time>2026-05-03T08:26:29.014Z</time></trkpt><trkpt lat="37.6854993" lon="15.0759796"><ele>1103.0</ele><time>2026-05-03T08:26:30.014Z</time></trkpt><trkpt lat="37.6854353" lon="15.0759078"><ele>1103.0</ele><time>2026-05-03T08:26:31.014Z</time></trkpt><trkpt lat="37.6853651" lon="15.0758154"><ele>1103.0</ele><time>2026-05-03T08:26:32.013Z</time></trkpt><trkpt lat="37.6852955" lon="15.0757286"><ele>1103.0</ele><time>2026-05-03T08:26:33.012Z</time></trkpt><trkpt lat="37.6852285" lon="15.0756526"><ele>1104.2</ele><time>2026-05-03T08:26:34.014Z</time></trkpt><trkpt lat="37.6851597" lon="15.0755724"><ele>1105.4</ele><time>2026-05-03T08:26:35.013Z</time></trkpt><trkpt lat="37.6850907" lon="15.0754957"><ele>1106.6000000000001</ele><time>2026-05-03T08:26:36.014Z</time></trkpt><trkpt lat="37.6850131" lon="15.0754316"><ele>1107.8</ele><time>2026-05-03T08:26:37.014Z</time></trkpt><trkpt lat="37.6849295" lon="15.0753683"><ele>1109.0</ele><time>2026-05-03T08:26:38.013Z</time></trkpt><trkpt lat="37.6848393" lon="15.0753067"><ele>1109.0</ele><time>2026-05-03T08:26:39.013Z</time></trkpt><trkpt lat="37.6847507" lon="15.0752571"><ele>1109.0</ele><time>2026-05-03T08:26:40.012Z</time></trkpt><trkpt lat="37.684669" lon="15.075212"><ele>1109.0</ele><time>2026-05-03T08:26:41.013Z</time></trkpt><trkpt lat="37.6845929" lon="15.0751641"><ele>1109.0</ele><time>2026-05-03T08:26:42.014Z</time></trkpt><trkpt lat="37.6845181" lon="15.0751253"><ele>1109.0</ele><time>2026-05-03T08:26:43.014Z</time></trkpt><trkpt lat="37.6844394" lon="15.0750967"><ele>1109.0</ele><time>2026-05-03T08:26:44.013Z</time></trkpt><trkpt lat="37.6843652" lon="15.075077"><ele>1109.5</ele><time>2026-05-03T08:26:45.013Z</time></trkpt><trkpt lat="37.6842472" lon="15.0750548"><ele>1110.0</ele><time>2026-05-03T08:26:47.014Z</time></trkpt><trkpt lat="37.6841804" lon="15.0750245"><ele>1110.5</ele><time>2026-05-03T08:26:48.014Z</time></trkpt><trkpt lat="37.6841059" lon="15.0749756"><ele>1111.0</ele><time>2026-05-03T08:26:49.014Z</time></trkpt><trkpt lat="37.6840334" lon="15.0749126"><ele>1111.5</ele><time>2026-05-03T08:26:50.015Z</time></trkpt><trkpt lat="37.6839664" lon="15.0748422"><ele>1112.0</ele><time>2026-05-03T08:26:51.013Z</time></trkpt><trkpt lat="37.6838925" lon="15.0747761"><ele>1113.6</ele><time>2026-05-03T08:26:52.013Z</time></trkpt><trkpt lat="37.6838128" lon="15.07473"><ele>1115.2</ele><time>2026-05-03T08:26:53.013Z</time></trkpt><trkpt lat="37.6837292" lon="15.0746926"><ele>1116.8</ele><time>2026-05-03T08:26:54.014Z</time></trkpt><trkpt lat="37.6836366" lon="15.0746516"><ele>1118.4</ele><time>2026-05-03T08:26:55.014Z</time></trkpt><trkpt lat="37.6835455" lon="15.0746024"><ele>1120.0</ele><time>2026-05-03T08:26:56.013Z</time></trkpt><trkpt lat="37.6834491" lon="15.0745469"><ele>1120.3333333333333</ele><time>2026-05-03T08:26:57.013Z</time></trkpt><trkpt lat="37.6833534" lon="15.0745027"><ele>1120.6666666666665</ele><time>2026-05-03T08:26:58.014Z</time></trkpt><trkpt lat="37.6832633" lon="15.0744685"><ele>1121.0</ele><time>2026-05-03T08:26:59.013Z</time></trkpt><trkpt lat="37.6831819" lon="15.07444"><ele>1121.3333333333333</ele><time>2026-05-03T08:27:00.014Z</time></trkpt><trkpt lat="37.6831143" lon="15.0744137"><ele>1121.6666666666667</ele><time>2026-05-03T08:27:01.013Z</time></trkpt><trkpt lat="37.6830426" lon="15.0743788"><ele>1122.0</ele><time>2026-05-03T08:27:02.014Z</time></trkpt><trkpt lat="37.6829643" lon="15.0743307"><ele>1122.0</ele><time>2026-05-03T08:27:03.014Z</time></trkpt><trkpt lat="37.6828851" lon="15.0742805"><ele>1122.0</ele><time>2026-05-03T08:27:04.014Z</time></trkpt><trkpt lat="37.6828035" lon="15.0742352"><ele>1122.0</ele><time>2026-05-03T08:27:05.014Z</time></trkpt><trkpt lat="37.6827266" lon="15.0741958"><ele>1122.0</ele><time>2026-05-03T08:27:06.014Z</time></trkpt><trkpt lat="37.6826535" lon="15.0741555"><ele>1122.0</ele><time>2026-05-03T08:27:07.013Z</time></trkpt><trkpt lat="37.6825915" lon="15.0740943"><ele>1122.0</ele><time>2026-05-03T08:27:08.014Z</time></trkpt><trkpt lat="37.6825369" lon="15.0740192"><ele>1122.8333333333333</ele><time>2026-05-03T08:27:09.013Z</time></trkpt><trkpt lat="37.6824867" lon="15.0739476"><ele>1123.6666666666667</ele><time>2026-05-03T08:27:10.014Z</time></trkpt><trkpt lat="37.6824149" lon="15.0738775"><ele>1124.5</ele><time>2026-05-03T08:27:11.014Z</time></trkpt><trkpt lat="37.6823294" lon="15.0738268"><ele>1125.3333333333335</ele><time>2026-05-03T08:27:12.014Z</time></trkpt><trkpt lat="37.6822519" lon="15.0737983"><ele>1126.1666666666667</ele><time>2026-05-03T08:27:13.014Z</time></trkpt><trkpt lat="37.68218" lon="15.073784"><ele>1127.0</ele><time>2026-05-03T08:27:14.014Z</time></trkpt><trkpt lat="37.6821165" lon="15.0737779"><ele>1127.0</ele><time>2026-05-03T08:27:15.013Z</time></trkpt><trkpt lat="37.6820076" lon="15.0737513"><ele>1127.0</ele><time>2026-05-03T08:27:17.014Z</time></trkpt><trkpt lat="37.6819357" lon="15.0736323"><ele>1127.0</ele><time>2026-05-03T08:27:19.014Z</time></trkpt><trkpt lat="37.6819046" lon="15.0735498"><ele>1127.0</ele><time>2026-05-03T08:27:20.014Z</time></trkpt><trkpt lat="37.6818752" lon="15.0734691"><ele>1127.0</ele><time>2026-05-03T08:27:21.015Z</time></trkpt><trkpt lat="37.681847" lon="15.0733243"><ele>1127.8333333333335</ele><time>2026-05-03T08:27:23.015Z</time></trkpt><trkpt lat="37.6818469" lon="15.0732413"><ele>1128.6666666666667</ele><time>2026-05-03T08:27:24.015Z</time></trkpt><trkpt lat="37.6818457" lon="15.0731545"><ele>1129.5</ele><time>2026-05-03T08:27:25.013Z</time></trkpt><trkpt lat="37.6818397" lon="15.0730679"><ele>1130.3333333333333</ele><time>2026-05-03T08:27:26.014Z</time></trkpt><trkpt lat="37.681825" lon="15.0729767"><ele>1131.1666666666665</ele><time>2026-05-03T08:27:27.014Z</time></trkpt><trkpt lat="37.6818092" lon="15.0728907"><ele>1132.0</ele><time>2026-05-03T08:27:28.014Z</time></trkpt><trkpt lat="37.6817969" lon="15.0727534"><ele>1132.0</ele><time>2026-05-03T08:27:30.014Z</time></trkpt><trkpt lat="37.6818561" lon="15.0726925"><ele>1132.0</ele><time>2026-05-03T08:27:32.015Z</time></trkpt><trkpt lat="37.6819653" lon="15.0726597"><ele>1132.0</ele><time>2026-05-03T08:27:34.014Z</time></trkpt><trkpt lat="37.6820846" lon="15.0726221"><ele>1132.0</ele><time>2026-05-03T08:27:36.015Z</time></trkpt><trkpt lat="37.6821435" lon="15.0725828"><ele>1132.0</ele><time>2026-05-03T08:27:37.014Z</time></trkpt><trkpt lat="37.6822023" lon="15.0725516"><ele>1132.0</ele><time>2026-05-03T08:27:38.014Z</time></trkpt><trkpt lat="37.6823207" lon="15.0725488"><ele>1132.4</ele><time>2026-05-03T08:27:40.014Z</time></trkpt><trkpt lat="37.6824315" lon="15.0725222"><ele>1132.8000000000002</ele><time>2026-05-03T08:27:42.014Z</time></trkpt><trkpt lat="37.6825044" lon="15.0723934"><ele>1133.2</ele><time>2026-05-03T08:27:44.014Z</time></trkpt><trkpt lat="37.6825218" lon="15.0722923"><ele>1133.6000000000001</ele><time>2026-05-03T08:27:45.014Z</time></trkpt><trkpt lat="37.6825379" lon="15.0721896"><ele>1134.0</ele><time>2026-05-03T08:27:46.014Z</time></trkpt><trkpt lat="37.6825518" lon="15.0720942"><ele>1135.2</ele><time>2026-05-03T08:27:47.014Z</time></trkpt><trkpt lat="37.6825088" lon="15.0719496"><ele>1136.4</ele><time>2026-05-03T08:27:49.013Z</time></trkpt><trkpt lat="37.6824553" lon="15.0718791"><ele>1137.6</ele><time>2026-05-03T08:27:50.013Z</time></trkpt><trkpt lat="37.6823933" lon="15.071811"><ele>1138.8</ele><time>2026-05-03T08:27:51.014Z</time></trkpt><trkpt lat="37.6823378" lon="15.071755"><ele>1140.0</ele><time>2026-05-03T08:27:52.013Z</time></trkpt><trkpt lat="37.6822677" lon="15.071647"><ele>1140.8</ele><time>2026-05-03T08:27:54.014Z</time></trkpt><trkpt lat="37.6822389" lon="15.0715301"><ele>1141.6</ele><time>2026-05-03T08:27:56.014Z</time></trkpt><trkpt lat="37.6821326" lon="15.0714603"><ele>1142.4</ele><time>2026-05-03T08:27:58.013Z</time></trkpt><trkpt lat="37.6820602" lon="15.0714342"><ele>1143.2</ele><time>2026-05-03T08:27:59.014Z</time></trkpt><trkpt lat="37.6819768" lon="15.0713203"><ele>1144.0</ele><time>2026-05-03T08:28:01.013Z</time></trkpt><trkpt lat="37.6819405" lon="15.0712309"><ele>1143.3333333333333</ele><time>2026-05-03T08:28:02.013Z</time></trkpt><trkpt lat="37.6818997" lon="15.0711452"><ele>1142.6666666666665</ele><time>2026-05-03T08:28:03.013Z</time></trkpt><trkpt lat="37.6818493" lon="15.0710949"><ele>1142.0</ele><time>2026-05-03T08:28:04.013Z</time></trkpt><trkpt lat="37.6817355" lon="15.0710281"><ele>1141.3333333333333</ele><time>2026-05-03T08:28:06.015Z</time></trkpt><trkpt lat="37.681673" lon="15.0710149"><ele>1140.6666666666667</ele><time>2026-05-03T08:28:07.013Z</time></trkpt><trkpt lat="37.6816011" lon="15.071024"><ele>1140.0</ele><time>2026-05-03T08:28:08.014Z</time></trkpt><trkpt lat="37.6815339" lon="15.0710345"><ele>1140.0</ele><time>2026-05-03T08:28:09.013Z</time></trkpt><trkpt lat="37.6814728" lon="15.0710153"><ele>1140.0</ele><time>2026-05-03T08:28:10.014Z</time></trkpt><trkpt lat="37.6814144" lon="15.07098"><ele>1140.0</ele><time>2026-05-03T08:28:11.013Z</time></trkpt><trkpt lat="37.6813492" lon="15.0709315"><ele>1140.0</ele><time>2026-05-03T08:28:12.014Z</time></trkpt><trkpt lat="37.6812827" lon="15.0708835"><ele>1140.0</ele><time>2026-05-03T08:28:13.014Z</time></trkpt><trkpt lat="37.6812069" lon="15.0708211"><ele>1140.0</ele><time>2026-05-03T08:28:14.013Z</time></trkpt><trkpt lat="37.6811242" lon="15.0707614"><ele>1140.6666666666667</ele><time>2026-05-03T08:28:15.014Z</time></trkpt><trkpt lat="37.6810398" lon="15.070686"><ele>1141.3333333333333</ele><time>2026-05-03T08:28:16.014Z</time></trkpt><trkpt lat="37.6809721" lon="15.0706135"><ele>1142.0</ele><time>2026-05-03T08:28:17.014Z</time></trkpt><trkpt lat="37.6808956" lon="15.070537"><ele>1142.6666666666665</ele><time>2026-05-03T08:28:18.014Z</time></trkpt><trkpt lat="37.6808282" lon="15.0704759"><ele>1143.3333333333333</ele><time>2026-05-03T08:28:19.014Z</time></trkpt><trkpt lat="37.6807819" lon="15.0704083"><ele>1144.0</ele><time>2026-05-03T08:28:20.014Z</time></trkpt><trkpt lat="37.6807195" lon="15.0703257"><ele>1144.0</ele><time>2026-05-03T08:28:21.014Z</time></trkpt><trkpt lat="37.680663" lon="15.0702572"><ele>1144.0</ele><time>2026-05-03T08:28:22.013Z</time></trkpt><trkpt lat="37.680621" lon="15.0701814"><ele>1144.0</ele><time>2026-05-03T08:28:23.013Z</time></trkpt><trkpt lat="37.6805876" lon="15.0701031"><ele>1144.0</ele><time>2026-05-03T08:28:24.013Z</time></trkpt><trkpt lat="37.6805033" lon="15.0700124"><ele>1144.0</ele><time>2026-05-03T08:28:26.013Z</time></trkpt><trkpt lat="37.6803876" lon="15.0700127"><ele>1144.0</ele><time>2026-05-03T08:28:28.014Z</time></trkpt><trkpt lat="37.6803161" lon="15.0700134"><ele>1143.4285714285713</ele><time>2026-05-03T08:28:29.014Z</time></trkpt><trkpt lat="37.6802509" lon="15.0699889"><ele>1142.857142857143</ele><time>2026-05-03T08:28:30.013Z</time></trkpt><trkpt lat="37.6801845" lon="15.0699506"><ele>1142.2857142857142</ele><time>2026-05-03T08:28:31.014Z</time></trkpt><trkpt lat="37.6801246" lon="15.0699096"><ele>1141.7142857142858</ele><time>2026-05-03T08:28:32.014Z</time></trkpt><trkpt lat="37.6800684" lon="15.0698681"><ele>1141.142857142857</ele><time>2026-05-03T08:28:33.015Z</time></trkpt><trkpt lat="37.6800222" lon="15.0697976"><ele>1140.5714285714284</ele><time>2026-05-03T08:28:34.015Z</time></trkpt><trkpt lat="37.6799349" lon="15.0697448"><ele>1140.0</ele><time>2026-05-03T08:28:36.014Z</time></trkpt><trkpt lat="37.6798461" lon="15.0697897"><ele>1140.0</ele><time>2026-05-03T08:28:38.014Z</time></trkpt><trkpt lat="37.679745" lon="15.0697398"><ele>1140.0</ele><time>2026-05-03T08:28:40.014Z</time></trkpt><trkpt lat="37.6796939" lon="15.0696777"><ele>1140.0</ele><time>2026-05-03T08:28:41.015Z</time></trkpt><trkpt lat="37.6796615" lon="15.0696086"><ele>1140.0</ele><time>2026-05-03T08:28:42.013Z</time></trkpt><trkpt lat="37.6795623" lon="15.0695384"><ele>1140.0</ele><time>2026-05-03T08:28:44.014Z</time></trkpt><trkpt lat="37.679451" lon="15.0695292"><ele>1139.4</ele><time>2026-05-03T08:28:46.015Z</time></trkpt><trkpt lat="37.6793542" lon="15.0695052"><ele>1138.8</ele><time>2026-05-03T08:28:48.014Z</time></trkpt><trkpt lat="37.6792661" lon="15.0693696"><ele>1138.2</ele><time>2026-05-03T08:28:50.015Z</time></trkpt><trkpt lat="37.6792168" lon="15.0692718"><ele>1137.6</ele><time>2026-05-03T08:28:51.015Z</time></trkpt><trkpt lat="37.6791633" lon="15.0691844"><ele>1137.0</ele><time>2026-05-03T08:28:52.014Z</time></trkpt><trkpt lat="37.6791297" lon="15.0691006"><ele>1137.0</ele><time>2026-05-03T08:28:53.014Z</time></trkpt><trkpt lat="37.6790958" lon="15.0690195"><ele>1137.0</ele><time>2026-05-03T08:28:54.015Z</time></trkpt><trkpt lat="37.6790426" lon="15.0688888"><ele>1137.0</ele><time>2026-05-03T08:28:56.014Z</time></trkpt><trkpt lat="37.6789183" lon="15.0687757"><ele>1137.0</ele><time>2026-05-03T08:28:58.013Z</time></trkpt><trkpt lat="37.6788501" lon="15.0687203"><ele>1137.0</ele><time>2026-05-03T08:28:59.013Z</time></trkpt><trkpt lat="37.6787934" lon="15.0686625"><ele>1137.0</ele><time>2026-05-03T08:29:00.014Z</time></trkpt><trkpt lat="37.6787656" lon="15.0685701"><ele>1137.0</ele><time>2026-05-03T08:29:02.014Z</time></trkpt><trkpt lat="37.678793" lon="15.0684668"><ele>1137.0</ele><time>2026-05-03T08:29:04.014Z</time></trkpt><trkpt lat="37.6788284" lon="15.0683526"><ele>1137.0</ele><time>2026-05-03T08:29:06.014Z</time></trkpt><trkpt lat="37.6788818" lon="15.0682328"><ele>1137.0</ele><time>2026-05-03T08:29:08.014Z</time></trkpt><trkpt lat="37.6789255" lon="15.0681129"><ele>1137.6</ele><time>2026-05-03T08:29:10.014Z</time></trkpt><trkpt lat="37.6789673" lon="15.0679973"><ele>1138.2</ele><time>2026-05-03T08:29:12.014Z</time></trkpt><trkpt lat="37.6790108" lon="15.0678792"><ele>1138.8</ele><time>2026-05-03T08:29:14.013Z</time></trkpt><trkpt lat="37.6790144" lon="15.0677559"><ele>1139.4</ele><time>2026-05-03T08:29:16.015Z</time></trkpt><trkpt lat="37.6790081" lon="15.0676199"><ele>1140.0</ele><time>2026-05-03T08:29:18.015Z</time></trkpt><trkpt lat="37.6789945" lon="15.0674798"><ele>1141.0</ele><time>2026-05-03T08:29:20.015Z</time></trkpt><trkpt lat="37.6790093" lon="15.067338"><ele>1142.0</ele><time>2026-05-03T08:29:22.015Z</time></trkpt><trkpt lat="37.6790073" lon="15.0672536"><ele>1143.0</ele><time>2026-05-03T08:29:23.015Z</time></trkpt><trkpt lat="37.6790011" lon="15.0671628"><ele>1144.0</ele><time>2026-05-03T08:29:24.015Z</time></trkpt><trkpt lat="37.6790022" lon="15.0670052"><ele>1145.0</ele><time>2026-05-03T08:29:26.014Z</time></trkpt><trkpt lat="37.6789443" lon="15.0668966"><ele>1145.0</ele><time>2026-05-03T08:29:28.014Z</time></trkpt><trkpt lat="37.6788372" lon="15.0668602"><ele>1145.0</ele><time>2026-05-03T08:29:30.013Z</time></trkpt><trkpt lat="37.6787629" lon="15.0667981"><ele>1145.0</ele><time>2026-05-03T08:29:32.014Z</time></trkpt><trkpt lat="37.6787353" lon="15.0666632"><ele>1145.0</ele><time>2026-05-03T08:29:34.015Z</time></trkpt><trkpt lat="37.6787515" lon="15.0665132"><ele>1145.0</ele><time>2026-05-03T08:29:36.015Z</time></trkpt><trkpt lat="37.6787379" lon="15.0663721"><ele>1145.5</ele><time>2026-05-03T08:29:38.014Z</time></trkpt><trkpt lat="37.6786919" lon="15.0662607"><ele>1146.0</ele><time>2026-05-03T08:29:40.014Z</time></trkpt><trkpt lat="37.6786264" lon="15.0662098"><ele>1146.5</ele><time>2026-05-03T08:29:42.014Z</time></trkpt><trkpt lat="37.678562" lon="15.0661598"><ele>1147.0</ele><time>2026-05-03T08:29:44.015Z</time></trkpt><trkpt lat="37.6785003" lon="15.0661336"><ele>1147.5</ele><time>2026-05-03T08:29:46.014Z</time></trkpt><trkpt lat="37.678432" lon="15.0661317"><ele>1148.0</ele><time>2026-05-03T08:29:48.014Z</time></trkpt><trkpt lat="37.6783485" lon="15.066135"><ele>1147.0</ele><time>2026-05-03T08:29:50.015Z</time></trkpt><trkpt lat="37.678261" lon="15.0661451"><ele>1146.0</ele><time>2026-05-03T08:29:52.015Z</time></trkpt><trkpt lat="37.6781968" lon="15.0661815"><ele>1145.0</ele><time>2026-05-03T08:29:54.014Z</time></trkpt><trkpt lat="37.6781306" lon="15.0662343"><ele>1144.0</ele><time>2026-05-03T08:29:56.014Z</time></trkpt><trkpt lat="37.6780742" lon="15.0662876"><ele>1143.0</ele><time>2026-05-03T08:29:58.015Z</time></trkpt><trkpt lat="37.6780253" lon="15.0663402"><ele>1142.0</ele><time>2026-05-03T08:30:00.014Z</time></trkpt><trkpt lat="37.6779674" lon="15.0663973"><ele>1141.0</ele><time>2026-05-03T08:30:02.013Z</time></trkpt><trkpt lat="37.6779" lon="15.0664598"><ele>1141.0</ele><time>2026-05-03T08:30:04.013Z</time></trkpt><trkpt lat="37.6778183" lon="15.0664856"><ele>1141.0</ele><time>2026-05-03T08:30:06.014Z</time></trkpt><trkpt lat="37.6777286" lon="15.0665023"><ele>1141.0</ele><time>2026-05-03T08:30:08.014Z</time></trkpt><trkpt lat="37.6776457" lon="15.0665904"><ele>1141.0</ele><time>2026-05-03T08:30:10.013Z</time></trkpt><trkpt lat="37.677568" lon="15.0666402"><ele>1141.0</ele><time>2026-05-03T08:30:12.015Z</time></trkpt><trkpt lat="37.6774826" lon="15.066623"><ele>1140.3333333333333</ele><time>2026-05-03T08:30:14.013Z</time></trkpt><trkpt lat="37.6774058" lon="15.0665901"><ele>1139.6666666666665</ele><time>2026-05-03T08:30:16.014Z</time></trkpt><trkpt lat="37.6773328" lon="15.0666228"><ele>1139.0</ele><time>2026-05-03T08:30:18.014Z</time></trkpt><trkpt lat="37.6772583" lon="15.0666958"><ele>1138.3333333333333</ele><time>2026-05-03T08:30:20.015Z</time></trkpt><trkpt lat="37.6771893" lon="15.0667727"><ele>1137.6666666666667</ele><time>2026-05-03T08:30:22.014Z</time></trkpt><trkpt lat="37.67712" lon="15.0668177"><ele>1137.0</ele><time>2026-05-03T08:30:24.014Z</time></trkpt><trkpt lat="37.6770434" lon="15.0667965"><ele>1135.8333333333333</ele><time>2026-05-03T08:30:26.015Z</time></trkpt><trkpt lat="37.6769761" lon="15.0667334"><ele>1134.6666666666667</ele><time>2026-05-03T08:30:28.014Z</time></trkpt><trkpt lat="37.6769364" lon="15.0666426"><ele>1133.5</ele><time>2026-05-03T08:30:30.014Z</time></trkpt><trkpt lat="37.676905" lon="15.0665582"><ele>1132.3333333333335</ele><time>2026-05-03T08:30:32.014Z</time></trkpt><trkpt lat="37.6768639" lon="15.0664875"><ele>1131.1666666666667</ele><time>2026-05-03T08:30:34.014Z</time></trkpt><trkpt lat="37.6767955" lon="15.0664329"><ele>1130.0</ele><time>2026-05-03T08:30:36.015Z</time></trkpt><trkpt lat="37.6767169" lon="15.066381"><ele>1130.0</ele><time>2026-05-03T08:30:38.014Z</time></trkpt><trkpt lat="37.6766843" lon="15.0662869"><ele>1130.0</ele><time>2026-05-03T08:30:40.014Z</time></trkpt><trkpt lat="37.6765995" lon="15.0662023"><ele>1130.0</ele><time>2026-05-03T08:30:42.014Z</time></trkpt><trkpt lat="37.6765393" lon="15.0661474"><ele>1130.0</ele><time>2026-05-03T08:30:44.014Z</time></trkpt><trkpt lat="37.6765412" lon="15.0660404"><ele>1130.0</ele><time>2026-05-03T08:30:46.013Z</time></trkpt><trkpt lat="37.6764995" lon="15.0659497"><ele>1130.0</ele><time>2026-05-03T08:30:48.014Z</time></trkpt><trkpt lat="37.676442" lon="15.0659078"><ele>1130.0</ele><time>2026-05-03T08:30:50.015Z</time></trkpt><trkpt lat="37.6764082" lon="15.0658136"><ele>1130.0</ele><time>2026-05-03T08:30:52.014Z</time></trkpt><trkpt lat="37.6764089" lon="15.0657145"><ele>1130.0</ele><time>2026-05-03T08:30:53.015Z</time></trkpt><trkpt lat="37.6764018" lon="15.0656303"><ele>1130.0</ele><time>2026-05-03T08:30:54.013Z</time></trkpt><trkpt lat="37.6763922" lon="15.0654853"><ele>1130.0</ele><time>2026-05-03T08:30:56.014Z</time></trkpt><trkpt lat="37.6763997" lon="15.0653586"><ele>1130.0</ele><time>2026-05-03T08:30:58.014Z</time></trkpt><trkpt lat="37.6764105" lon="15.0652528"><ele>1131.2</ele><time>2026-05-03T08:31:00.014Z</time></trkpt><trkpt lat="37.676396" lon="15.0651603"><ele>1132.4</ele><time>2026-05-03T08:31:02.015Z</time></trkpt><trkpt lat="37.676377" lon="15.0650587"><ele>1133.6</ele><time>2026-05-03T08:31:04.015Z</time></trkpt><trkpt lat="37.6763114" lon="15.0649986"><ele>1134.8</ele><time>2026-05-03T08:31:06.015Z</time></trkpt><trkpt lat="37.6762017" lon="15.0649596"><ele>1136.0</ele><time>2026-05-03T08:31:08.014Z</time></trkpt><trkpt lat="37.6760988" lon="15.0649057"><ele>1136.0</ele><time>2026-05-03T08:31:10.014Z</time></trkpt><trkpt lat="37.6760042" lon="15.0648533"><ele>1136.0</ele><time>2026-05-03T08:31:12.014Z</time></trkpt><trkpt lat="37.6759138" lon="15.0647981"><ele>1136.0</ele><time>2026-05-03T08:31:14.014Z</time></trkpt><trkpt lat="37.6758663" lon="15.0647309"><ele>1136.0</ele><time>2026-05-03T08:31:16.014Z</time></trkpt><trkpt lat="37.6758094" lon="15.0646615"><ele>1136.0</ele><time>2026-05-03T08:31:18.015Z</time></trkpt><trkpt lat="37.6757385" lon="15.0646096"><ele>1136.0</ele><time>2026-05-03T08:31:20.014Z</time></trkpt><trkpt lat="37.6756471" lon="15.0645789"><ele>1136.0</ele><time>2026-05-03T08:31:22.015Z</time></trkpt><trkpt lat="37.6755666" lon="15.0645612"><ele>1136.0</ele><time>2026-05-03T08:31:24.014Z</time></trkpt><trkpt lat="37.6754898" lon="15.0645365"><ele>1136.0</ele><time>2026-05-03T08:31:26.014Z</time></trkpt><trkpt lat="37.6753922" lon="15.064513"><ele>1136.0</ele><time>2026-05-03T08:31:28.013Z</time></trkpt><trkpt lat="37.6752788" lon="15.0645027"><ele>1136.0</ele><time>2026-05-03T08:31:30.015Z</time></trkpt><trkpt lat="37.6751852" lon="15.0644765"><ele>1134.1666666666667</ele><time>2026-05-03T08:31:32.014Z</time></trkpt><trkpt lat="37.6751208" lon="15.0644561"><ele>1132.3333333333335</ele><time>2026-05-03T08:31:33.015Z</time></trkpt><trkpt lat="37.6750256" lon="15.0644407"><ele>1130.5</ele><time>2026-05-03T08:31:35.015Z</time></trkpt><trkpt lat="37.6749507" lon="15.0644059"><ele>1128.6666666666667</ele><time>2026-05-03T08:31:37.015Z</time></trkpt><trkpt lat="37.6748808" lon="15.0643667"><ele>1126.8333333333333</ele><time>2026-05-03T08:31:39.014Z</time></trkpt><trkpt lat="37.6747973" lon="15.0643249"><ele>1125.0</ele><time>2026-05-03T08:31:41.014Z</time></trkpt><trkpt lat="37.6747269" lon="15.0642654"><ele>1125.0</ele><time>2026-05-03T08:31:43.014Z</time></trkpt><trkpt lat="37.6746694" lon="15.0642114"><ele>1125.0</ele><time>2026-05-03T08:31:45.015Z</time></trkpt><trkpt lat="37.6745916" lon="15.064203"><ele>1125.0</ele><time>2026-05-03T08:31:48.014Z</time></trkpt><trkpt lat="37.6745198" lon="15.0642535"><ele>1125.0</ele><time>2026-05-03T08:31:51.014Z</time></trkpt><trkpt lat="37.6744381" lon="15.0643175"><ele>1125.0</ele><time>2026-05-03T08:31:53.015Z</time></trkpt><trkpt lat="37.6743654" lon="15.0643795"><ele>1125.0</ele><time>2026-05-03T08:31:55.015Z</time></trkpt><trkpt lat="37.6742895" lon="15.0644192"><ele>1124.0</ele><time>2026-05-03T08:31:57.014Z</time></trkpt><trkpt lat="37.6742238" lon="15.0644626"><ele>1123.0</ele><time>2026-05-03T08:31:59.015Z</time></trkpt><trkpt lat="37.6741767" lon="15.0645189"><ele>1122.0</ele><time>2026-05-03T08:32:01.014Z</time></trkpt><trkpt lat="37.6741013" lon="15.0645969"><ele>1121.0</ele><time>2026-05-03T08:32:04.015Z</time></trkpt><trkpt lat="37.6740376" lon="15.0646247"><ele>1120.0</ele><time>2026-05-03T08:32:06.014Z</time></trkpt><trkpt lat="37.6739711" lon="15.0646405"><ele>1119.0</ele><time>2026-05-03T08:32:08.013Z</time></trkpt><trkpt lat="37.6738875" lon="15.0646684"><ele>1119.0</ele><time>2026-05-03T08:32:11.014Z</time></trkpt><trkpt lat="37.6737953" lon="15.0646712"><ele>1119.0</ele><time>2026-05-03T08:32:14.015Z</time></trkpt><trkpt lat="37.6737278" lon="15.0646517"><ele>1119.0</ele><time>2026-05-03T08:32:16.014Z</time></trkpt><trkpt lat="37.6736658" lon="15.0645687"><ele>1119.0</ele><time>2026-05-03T08:32:19.014Z</time></trkpt><trkpt lat="37.67361" lon="15.064526"><ele>1119.0</ele><time>2026-05-03T08:32:21.015Z</time></trkpt><trkpt lat="37.6735246" lon="15.0644995"><ele>1119.0</ele><time>2026-05-03T08:32:24.014Z</time></trkpt><trkpt lat="37.6734381" lon="15.0644661"><ele>1117.5714285714284</ele><time>2026-05-03T08:32:27.014Z</time></trkpt><trkpt lat="37.6733687" lon="15.0644504"><ele>1116.142857142857</ele><time>2026-05-03T08:32:29.015Z</time></trkpt><trkpt lat="37.6732922" lon="15.064425"><ele>1114.7142857142858</ele><time>2026-05-03T08:32:31.015Z</time></trkpt><trkpt lat="37.6732193" lon="15.0644046"><ele>1113.2857142857142</ele><time>2026-05-03T08:32:33.014Z</time></trkpt><trkpt lat="37.6731544" lon="15.064381"><ele>1111.857142857143</ele><time>2026-05-03T08:32:35.014Z</time></trkpt><trkpt lat="37.6730742" lon="15.0643517"><ele>1110.4285714285713</ele><time>2026-05-03T08:32:38.015Z</time></trkpt><trkpt lat="37.6730274" lon="15.0642937"><ele>1109.0</ele><time>2026-05-03T08:32:41.015Z</time></trkpt><trkpt lat="37.6730588" lon="15.0641809"><ele>1110.0</ele><time>2026-05-03T08:32:43.015Z</time></trkpt><trkpt lat="37.6730968" lon="15.0640573"><ele>1111.0</ele><time>2026-05-03T08:32:45.014Z</time></trkpt><trkpt lat="37.6731323" lon="15.0639407"><ele>1112.0</ele><time>2026-05-03T08:32:47.014Z</time></trkpt><trkpt lat="37.6731671" lon="15.0638161"><ele>1113.0</ele><time>2026-05-03T08:32:49.014Z</time></trkpt><trkpt lat="37.6731832" lon="15.0637386"><ele>1114.0</ele><time>2026-05-03T08:32:50.014Z</time></trkpt><trkpt lat="37.673196" lon="15.0635995"><ele>1114.0</ele><time>2026-05-03T08:32:52.014Z</time></trkpt><trkpt lat="37.6732028" lon="15.0634581"><ele>1114.0</ele><time>2026-05-03T08:32:54.015Z</time></trkpt><trkpt lat="37.673202" lon="15.0633144"><ele>1114.0</ele><time>2026-05-03T08:32:56.015Z</time></trkpt><trkpt lat="37.6731848" lon="15.0631884"><ele>1114.0</ele><time>2026-05-03T08:32:58.013Z</time></trkpt><trkpt lat="37.6731283" lon="15.0630528"><ele>1114.0</ele><time>2026-05-03T08:33:00.015Z</time></trkpt><trkpt lat="37.6730646" lon="15.0629481"><ele>1117.0</ele><time>2026-05-03T08:33:02.015Z</time></trkpt><trkpt lat="37.6729829" lon="15.0628262"><ele>1120.0</ele><time>2026-05-03T08:33:04.014Z</time></trkpt><trkpt lat="37.6729054" lon="15.0626948"><ele>1123.0</ele><time>2026-05-03T08:33:06.014Z</time></trkpt><trkpt lat="37.6728389" lon="15.0625677"><ele>1126.0</ele><time>2026-05-03T08:33:08.015Z</time></trkpt><trkpt lat="37.672776" lon="15.0624722"><ele>1125.1666666666665</ele><time>2026-05-03T08:33:10.015Z</time></trkpt><trkpt lat="37.6727138" lon="15.0623862"><ele>1124.3333333333333</ele><time>2026-05-03T08:33:12.015Z</time></trkpt><trkpt lat="37.6726504" lon="15.0623087"><ele>1123.5</ele><time>2026-05-03T08:33:14.014Z</time></trkpt><trkpt lat="37.6725816" lon="15.0622456"><ele>1122.6666666666667</ele><time>2026-05-03T08:33:16.013Z</time></trkpt><trkpt lat="37.6725122" lon="15.0621841"><ele>1121.8333333333335</ele><time>2026-05-03T08:33:19.015Z</time></trkpt><trkpt lat="37.6724604" lon="15.0621049"><ele>1121.0</ele><time>2026-05-03T08:34:04.014Z</time></trkpt><trkpt lat="37.6724157" lon="15.0620454"><ele>1121.0</ele><time>2026-05-03T08:34:07.014Z</time></trkpt><trkpt lat="37.6723518" lon="15.0620023"><ele>1121.0</ele><time>2026-05-03T08:34:10.015Z</time></trkpt><trkpt lat="37.6722743" lon="15.0619745"><ele>1121.0</ele><time>2026-05-03T08:34:13.015Z</time></trkpt><trkpt lat="37.6722148" lon="15.0619387"><ele>1121.0</ele><time>2026-05-03T08:34:15.015Z</time></trkpt><trkpt lat="37.6721504" lon="15.0618653"><ele>1121.0</ele><time>2026-05-03T08:34:18.013Z</time></trkpt><trkpt lat="37.6720965" lon="15.0618084"><ele>1121.0</ele><time>2026-05-03T08:34:20.015Z</time></trkpt><trkpt lat="37.6720452" lon="15.0617303"><ele>1121.0</ele><time>2026-05-03T08:34:22.014Z</time></trkpt><trkpt lat="37.6719966" lon="15.0616585"><ele>1121.0</ele><time>2026-05-03T08:34:24.015Z</time></trkpt><trkpt lat="37.6719459" lon="15.0615963"><ele>1121.0</ele><time>2026-05-03T08:34:26.015Z</time></trkpt><trkpt lat="37.6718983" lon="15.0614977"><ele>1121.0</ele><time>2026-05-03T08:34:29.015Z</time></trkpt><trkpt lat="37.671861" lon="15.0613942"><ele>1121.0</ele><time>2026-05-03T08:34:32.015Z</time></trkpt><trkpt lat="37.6718355" lon="15.0612967"><ele>1121.0</ele><time>2026-05-03T08:34:34.015Z</time></trkpt><trkpt lat="37.6718094" lon="15.0612086"><ele>1119.5</ele><time>2026-05-03T08:34:36.015Z</time></trkpt><trkpt lat="37.6717801" lon="15.0611063"><ele>1118.0</ele><time>2026-05-03T08:34:39.014Z</time></trkpt><trkpt lat="37.6717424" lon="15.0610278"><ele>1116.5</ele><time>2026-05-03T08:34:41.014Z</time></trkpt><trkpt lat="37.6717081" lon="15.0609434"><ele>1115.0</ele><time>2026-05-03T08:34:43.015Z</time></trkpt><trkpt lat="37.6716789" lon="15.0608557"><ele>1113.5</ele><time>2026-05-03T08:34:45.014Z</time></trkpt><trkpt lat="37.6716558" lon="15.0607643"><ele>1112.0</ele><time>2026-05-03T08:34:47.014Z</time></trkpt><trkpt lat="37.6716183" lon="15.0606698"><ele>1112.0</ele><time>2026-05-03T08:34:49.015Z</time></trkpt><trkpt lat="37.6715637" lon="15.0605573"><ele>1112.0</ele><time>2026-05-03T08:34:51.014Z</time></trkpt><trkpt lat="37.6715134" lon="15.0604652"><ele>1112.0</ele><time>2026-05-03T08:34:53.015Z</time></trkpt><trkpt lat="37.6714545" lon="15.0603811"><ele>1112.0</ele><time>2026-05-03T08:34:55.015Z</time></trkpt><trkpt lat="37.6713859" lon="15.0603208"><ele>1112.0</ele><time>2026-05-03T08:34:57.014Z</time></trkpt><trkpt lat="37.6713213" lon="15.0602722"><ele>1112.0</ele><time>2026-05-03T08:34:59.015Z</time></trkpt><trkpt lat="37.6712838" lon="15.0602019"><ele>1112.0</ele><time>2026-05-03T08:36:52.015Z</time></trkpt><trkpt lat="37.6712753" lon="15.0600787"><ele>1112.0</ele><time>2026-05-03T08:36:55.015Z</time></trkpt><trkpt lat="37.671274" lon="15.0599923"><ele>1112.0</ele><time>2026-05-03T08:36:57.016Z</time></trkpt><trkpt lat="37.6712795" lon="15.0598941"><ele>1112.0</ele><time>2026-05-03T08:36:59.016Z</time></trkpt><trkpt lat="37.6712845" lon="15.0598037"><ele>1112.0</ele><time>2026-05-03T08:37:01.015Z</time></trkpt><trkpt lat="37.6713095" lon="15.059693"><ele>1112.0</ele><time>2026-05-03T08:37:03.015Z</time></trkpt><trkpt lat="37.6713482" lon="15.059596"><ele>1112.5</ele><time>2026-05-03T08:37:05.014Z</time></trkpt><trkpt lat="37.6713924" lon="15.0595113"><ele>1113.0</ele><time>2026-05-03T08:37:07.015Z</time></trkpt><trkpt lat="37.6714624" lon="15.0594566"><ele>1113.5</ele><time>2026-05-03T08:37:09.015Z</time></trkpt><trkpt lat="37.6715174" lon="15.0593835"><ele>1114.0</ele><time>2026-05-03T08:37:11.016Z</time></trkpt><trkpt lat="37.6714878" lon="15.0592802"><ele>1114.5</ele><time>2026-05-03T08:37:13.015Z</time></trkpt><trkpt lat="37.6714301" lon="15.0591955"><ele>1115.0</ele><time>2026-05-03T08:37:15.014Z</time></trkpt><trkpt lat="37.6714525" lon="15.0590999"><ele>1115.0</ele><time>2026-05-03T08:37:17.014Z</time></trkpt><trkpt lat="37.6714929" lon="15.059016"><ele>1115.0</ele><time>2026-05-03T08:37:19.016Z</time></trkpt><trkpt lat="37.6715215" lon="15.058941"><ele>1115.0</ele><time>2026-05-03T08:37:21.014Z</time></trkpt><trkpt lat="37.6715548" lon="15.0588342"><ele>1115.0</ele><time>2026-05-03T08:37:24.015Z</time></trkpt><trkpt lat="37.6715596" lon="15.0587268"><ele>1115.0</ele><time>2026-05-03T08:37:26.015Z</time></trkpt><trkpt lat="37.6715498" lon="15.0586121"><ele>1115.0</ele><time>2026-05-03T08:37:29.016Z</time></trkpt><trkpt lat="37.6715492" lon="15.0585278"><ele>1115.0</ele><time>2026-05-03T08:37:32.015Z</time></trkpt><trkpt lat="37.6715531" lon="15.0584473"><ele>1115.0</ele><time>2026-05-03T08:37:48.015Z</time></trkpt><trkpt lat="37.6715784" lon="15.058373"><ele>1115.0</ele><time>2026-05-03T08:37:50.016Z</time></trkpt><trkpt lat="37.6715787" lon="15.0582908"><ele>1115.0</ele><time>2026-05-03T08:37:52.014Z</time></trkpt><trkpt lat="37.6715571" lon="15.0581853"><ele>1115.0</ele><time>2026-05-03T08:37:54.015Z</time></trkpt><trkpt lat="37.6715242" lon="15.058092"><ele>1115.0</ele><time>2026-05-03T08:37:56.015Z</time></trkpt><trkpt lat="37.6715073" lon="15.0580054"><ele>1115.0</ele><time>2026-05-03T08:37:58.015Z</time></trkpt><trkpt lat="37.6714433" lon="15.0579466"><ele>1115.0</ele><time>2026-05-03T08:38:01.016Z</time></trkpt><trkpt lat="37.6713831" lon="15.057917"><ele>1115.0</ele><time>2026-05-03T08:38:03.016Z</time></trkpt><trkpt lat="37.6713294" lon="15.0578594"><ele>1115.0</ele><time>2026-05-03T08:38:05.014Z</time></trkpt><trkpt lat="37.6713362" lon="15.0577643"><ele>1115.0</ele><time>2026-05-03T08:38:07.014Z</time></trkpt><trkpt lat="37.6713714" lon="15.0576756"><ele>1115.0</ele><time>2026-05-03T08:38:09.016Z</time></trkpt><trkpt lat="37.671377" lon="15.0575933"><ele>1115.0</ele><time>2026-05-03T08:38:11.015Z</time></trkpt><trkpt lat="37.6713426" lon="15.0574828"><ele>1115.0</ele><time>2026-05-03T08:38:13.015Z</time></trkpt><trkpt lat="37.6713494" lon="15.0573731"><ele>1115.0</ele><time>2026-05-03T08:38:15.014Z</time></trkpt><trkpt lat="37.6713624" lon="15.0572667"><ele>1115.0</ele><time>2026-05-03T08:38:17.015Z</time></trkpt><trkpt lat="37.6713368" lon="15.057158"><ele>1115.0</ele><time>2026-05-03T08:38:19.015Z</time></trkpt><trkpt lat="37.6713163" lon="15.0570532"><ele>1115.0</ele><time>2026-05-03T08:38:21.014Z</time></trkpt><trkpt lat="37.671348" lon="15.0569464"><ele>1115.0</ele><time>2026-05-03T08:38:23.016Z</time></trkpt><trkpt lat="37.671399" lon="15.0568627"><ele>1115.0</ele><time>2026-05-03T08:38:25.015Z</time></trkpt><trkpt lat="37.6714686" lon="15.0567709"><ele>1115.0</ele><time>2026-05-03T08:38:27.015Z</time></trkpt><trkpt lat="37.6715236" lon="15.0566364"><ele>1115.0</ele><time>2026-05-03T08:38:29.016Z</time></trkpt><trkpt lat="37.6715303" lon="15.0565019"><ele>1115.0</ele><time>2026-05-03T08:38:31.015Z</time></trkpt><trkpt lat="37.6715233" lon="15.0563856"><ele>1115.0</ele><time>2026-05-03T08:38:33.016Z</time></trkpt><trkpt lat="37.6714979" lon="15.0562543"><ele>1115.0</ele><time>2026-05-03T08:38:35.016Z</time></trkpt><trkpt lat="37.6714982" lon="15.0561157"><ele>1114.2</ele><time>2026-05-03T08:38:37.016Z</time></trkpt><trkpt lat="37.671518" lon="15.0559838"><ele>1113.4</ele><time>2026-05-03T08:38:39.016Z</time></trkpt><trkpt lat="37.6715135" lon="15.0558745"><ele>1112.6</ele><time>2026-05-03T08:38:41.016Z</time></trkpt><trkpt lat="37.6714837" lon="15.0557375"><ele>1111.8</ele><time>2026-05-03T08:38:43.014Z</time></trkpt><trkpt lat="37.6714459" lon="15.0555994"><ele>1111.0</ele><time>2026-05-03T08:38:45.015Z</time></trkpt><trkpt lat="37.6714378" lon="15.0555101"><ele>1111.0</ele><time>2026-05-03T08:38:47.016Z</time></trkpt><trkpt lat="37.6714391" lon="15.0555937"><ele>1111.0</ele><time>2026-05-03T08:43:48.015Z</time></trkpt><trkpt lat="37.6714653" lon="15.0556955"><ele>1111.0</ele><time>2026-05-03T08:43:50.016Z</time></trkpt><trkpt lat="37.6715006" lon="15.0557951"><ele>1111.0</ele><time>2026-05-03T08:43:52.016Z</time></trkpt><trkpt lat="37.6715296" lon="15.0559183"><ele>1111.0</ele><time>2026-05-03T08:43:54.016Z</time></trkpt><trkpt lat="37.671513" lon="15.0560329"><ele>1111.0</ele><time>2026-05-03T08:43:56.016Z</time></trkpt><trkpt lat="37.671495" lon="15.0561467"><ele>1111.0</ele><time>2026-05-03T08:43:58.016Z</time></trkpt><trkpt lat="37.671502" lon="15.056255"><ele>1111.0</ele><time>2026-05-03T08:44:00.016Z</time></trkpt><trkpt lat="37.6715161" lon="15.056342"><ele>1111.0</ele><time>2026-05-03T08:44:02.016Z</time></trkpt><trkpt lat="37.6715354" lon="15.056452"><ele>1111.0</ele><time>2026-05-03T08:44:05.017Z</time></trkpt><trkpt lat="37.6715432" lon="15.0565425"><ele>1111.0</ele><time>2026-05-03T08:44:07.016Z</time></trkpt><trkpt lat="37.6715327" lon="15.0566514"><ele>1111.0</ele><time>2026-05-03T08:44:09.016Z</time></trkpt><trkpt lat="37.6714929" lon="15.0567271"><ele>1111.6666666666665</ele><time>2026-05-03T08:44:10.016Z</time></trkpt><trkpt lat="37.6714357" lon="15.0568212"><ele>1112.3333333333333</ele><time>2026-05-03T08:44:12.016Z</time></trkpt><trkpt lat="37.6713745" lon="15.0569005"><ele>1113.0</ele><time>2026-05-03T08:44:14.016Z</time></trkpt><trkpt lat="37.6713365" lon="15.0569798"><ele>1113.6666666666667</ele><time>2026-05-03T08:44:16.016Z</time></trkpt><trkpt lat="37.6713329" lon="15.057094"><ele>1114.3333333333335</ele><time>2026-05-03T08:44:18.016Z</time></trkpt><trkpt lat="37.6713639" lon="15.0571929"><ele>1115.0</ele><time>2026-05-03T08:44:20.017Z</time></trkpt><trkpt lat="37.6713782" lon="15.0572917"><ele>1115.0</ele><time>2026-05-03T08:44:22.016Z</time></trkpt><trkpt lat="37.6713582" lon="15.0573979"><ele>1115.0</ele><time>2026-05-03T08:44:24.014Z</time></trkpt><trkpt lat="37.671363" lon="15.0575325"><ele>1115.0</ele><time>2026-05-03T08:44:26.017Z</time></trkpt><trkpt lat="37.6713976" lon="15.0576327"><ele>1115.0</ele><time>2026-05-03T08:44:28.017Z</time></trkpt><trkpt lat="37.6713954" lon="15.057745"><ele>1115.0</ele><time>2026-05-03T08:44:30.017Z</time></trkpt><trkpt lat="37.6713572" lon="15.0578395"><ele>1115.0</ele><time>2026-05-03T08:44:32.017Z</time></trkpt><trkpt lat="37.6713844" lon="15.0579281"><ele>1115.0</ele><time>2026-05-03T08:44:34.016Z</time></trkpt><trkpt lat="37.6714532" lon="15.0579589"><ele>1115.0</ele><time>2026-05-03T08:44:36.017Z</time></trkpt><trkpt lat="37.6715155" lon="15.0579888"><ele>1115.0</ele><time>2026-05-03T08:44:38.016Z</time></trkpt><trkpt lat="37.6715485" lon="15.0580695"><ele>1115.0</ele><time>2026-05-03T08:44:40.016Z</time></trkpt><trkpt lat="37.6715697" lon="15.05815"><ele>1115.0</ele><time>2026-05-03T08:44:42.016Z</time></trkpt><trkpt lat="37.6715805" lon="15.0582345"><ele>1115.0</ele><time>2026-05-03T08:44:43.015Z</time></trkpt><trkpt lat="37.6716016" lon="15.0583641"><ele>1115.0</ele><time>2026-05-03T08:44:45.015Z</time></trkpt><trkpt lat="37.6715609" lon="15.0584713"><ele>1115.0</ele><time>2026-05-03T08:44:47.015Z</time></trkpt><trkpt lat="37.6715482" lon="15.0585693"><ele>1115.0</ele><time>2026-05-03T08:44:49.015Z</time></trkpt><trkpt lat="37.6715582" lon="15.058716"><ele>1115.0</ele><time>2026-05-03T08:44:51.017Z</time></trkpt><trkpt lat="37.671557" lon="15.0587985"><ele>1115.0</ele><time>2026-05-03T08:44:52.015Z</time></trkpt><trkpt lat="37.6715283" lon="15.0589225"><ele>1115.0</ele><time>2026-05-03T08:44:54.016Z</time></trkpt><trkpt lat="37.67149" lon="15.0590475"><ele>1115.0</ele><time>2026-05-03T08:44:56.015Z</time></trkpt><trkpt lat="37.6714535" lon="15.0591368"><ele>1115.0</ele><time>2026-05-03T08:44:58.016Z</time></trkpt><trkpt lat="37.6714423" lon="15.0592251"><ele>1115.0</ele><time>2026-05-03T08:45:00.016Z</time></trkpt><trkpt lat="37.6714722" lon="15.0592956"><ele>1115.0</ele><time>2026-05-03T08:45:02.015Z</time></trkpt><trkpt lat="37.6714895" lon="15.0593985"><ele>1115.0</ele><time>2026-05-03T08:45:05.015Z</time></trkpt><trkpt lat="37.6714291" lon="15.0594705"><ele>1115.2</ele><time>2026-05-03T08:45:16.017Z</time></trkpt><trkpt lat="37.6713589" lon="15.0595222"><ele>1115.4</ele><time>2026-05-03T08:45:20.015Z</time></trkpt><trkpt lat="37.6713247" lon="15.0596153"><ele>1115.6</ele><time>2026-05-03T08:45:22.016Z</time></trkpt><trkpt lat="37.6713032" lon="15.0597763"><ele>1115.8</ele><time>2026-05-03T08:45:24.016Z</time></trkpt><trkpt lat="37.6713072" lon="15.0599185"><ele>1116.0</ele><time>2026-05-03T08:45:26.016Z</time></trkpt><trkpt lat="37.6712992" lon="15.0600122"><ele>1115.2</ele><time>2026-05-03T08:45:27.017Z</time></trkpt><trkpt lat="37.6712913" lon="15.0600935"><ele>1114.3999999999999</ele><time>2026-05-03T08:45:28.016Z</time></trkpt><trkpt lat="37.6713092" lon="15.0602259"><ele>1113.6</ele><time>2026-05-03T08:45:30.017Z</time></trkpt><trkpt lat="37.6713685" lon="15.0603272"><ele>1112.8</ele><time>2026-05-03T08:45:32.017Z</time></trkpt><trkpt lat="37.6714797" lon="15.0604236"><ele>1112.0</ele><time>2026-05-03T08:45:34.017Z</time></trkpt><trkpt lat="37.6715277" lon="15.0604755"><ele>1112.0</ele><time>2026-05-03T08:45:35.016Z</time></trkpt><trkpt lat="37.671566" lon="15.0605487"><ele>1112.0</ele><time>2026-05-03T08:45:36.016Z</time></trkpt><trkpt lat="37.6716009" lon="15.0606262"><ele>1112.0</ele><time>2026-05-03T08:45:37.015Z</time></trkpt><trkpt lat="37.6716333" lon="15.0607055"><ele>1112.0</ele><time>2026-05-03T08:45:38.015Z</time></trkpt><trkpt lat="37.6716656" lon="15.060783"><ele>1112.0</ele><time>2026-05-03T08:45:39.016Z</time></trkpt><trkpt lat="37.6716867" lon="15.0608588"><ele>1112.0</ele><time>2026-05-03T08:45:40.016Z</time></trkpt><trkpt lat="37.6717138" lon="15.060935"><ele>1112.0</ele><time>2026-05-03T08:45:41.016Z</time></trkpt><trkpt lat="37.6717452" lon="15.0610245"><ele>1111.5</ele><time>2026-05-03T08:45:42.016Z</time></trkpt><trkpt lat="37.6717798" lon="15.0611264"><ele>1111.0</ele><time>2026-05-03T08:45:43.015Z</time></trkpt><trkpt lat="37.671816" lon="15.0612311"><ele>1110.5</ele><time>2026-05-03T08:45:44.017Z</time></trkpt><trkpt lat="37.6718575" lon="15.0613328"><ele>1110.0</ele><time>2026-05-03T08:45:45.016Z</time></trkpt><trkpt lat="37.6718826" lon="15.0614289"><ele>1109.5</ele><time>2026-05-03T08:45:46.017Z</time></trkpt><trkpt lat="37.6719111" lon="15.0615089"><ele>1109.0</ele><time>2026-05-03T08:45:47.015Z</time></trkpt><trkpt lat="37.6719865" lon="15.0616392"><ele>1111.0</ele><time>2026-05-03T08:45:49.017Z</time></trkpt><trkpt lat="37.6720546" lon="15.0617302"><ele>1113.0</ele><time>2026-05-03T08:45:50.017Z</time></trkpt><trkpt lat="37.6721062" lon="15.0618068"><ele>1115.0</ele><time>2026-05-03T08:45:51.015Z</time></trkpt><trkpt lat="37.672156" lon="15.0618659"><ele>1117.0</ele><time>2026-05-03T08:45:52.016Z</time></trkpt><trkpt lat="37.6722126" lon="15.0619307"><ele>1119.0</ele><time>2026-05-03T08:45:53.015Z</time></trkpt><trkpt lat="37.6723107" lon="15.0619944"><ele>1121.0</ele><time>2026-05-03T08:45:55.015Z</time></trkpt><trkpt lat="37.672415" lon="15.0620473"><ele>1121.0</ele><time>2026-05-03T08:45:57.016Z</time></trkpt><trkpt lat="37.6724912" lon="15.0621081"><ele>1121.0</ele><time>2026-05-03T08:45:59.017Z</time></trkpt><trkpt lat="37.6725654" lon="15.0622186"><ele>1121.0</ele><time>2026-05-03T08:46:01.015Z</time></trkpt><trkpt lat="37.6726573" lon="15.0623034"><ele>1121.0</ele><time>2026-05-03T08:46:03.016Z</time></trkpt><trkpt lat="37.6727067" lon="15.0623596"><ele>1121.0</ele><time>2026-05-03T08:46:04.017Z</time></trkpt><trkpt lat="37.672759" lon="15.0624204"><ele>1121.8333333333335</ele><time>2026-05-03T08:46:05.017Z</time></trkpt><trkpt lat="37.6728052" lon="15.0624906"><ele>1122.6666666666667</ele><time>2026-05-03T08:46:06.015Z</time></trkpt><trkpt lat="37.6728778" lon="15.0626205"><ele>1123.5</ele><time>2026-05-03T08:46:08.016Z</time></trkpt><trkpt lat="37.6729115" lon="15.0626933"><ele>1124.3333333333333</ele><time>2026-05-03T08:46:09.017Z</time></trkpt><trkpt lat="37.6729529" lon="15.0627579"><ele>1125.1666666666665</ele><time>2026-05-03T08:46:10.016Z</time></trkpt><trkpt lat="37.6729972" lon="15.0628245"><ele>1126.0</ele><time>2026-05-03T08:46:11.016Z</time></trkpt><trkpt lat="37.673037" lon="15.0628935"><ele>1126.0</ele><time>2026-05-03T08:46:12.016Z</time></trkpt><trkpt lat="37.6731041" lon="15.0630198"><ele>1126.0</ele><time>2026-05-03T08:46:14.017Z</time></trkpt><trkpt lat="37.6731401" lon="15.0630965"><ele>1126.0</ele><time>2026-05-03T08:46:15.016Z</time></trkpt><trkpt lat="37.6731719" lon="15.0631682"><ele>1126.0</ele><time>2026-05-03T08:46:16.016Z</time></trkpt><trkpt lat="37.6732051" lon="15.0632972"><ele>1126.0</ele><time>2026-05-03T08:46:18.016Z</time></trkpt><trkpt lat="37.6732141" lon="15.0634443"><ele>1124.0</ele><time>2026-05-03T08:46:20.017Z</time></trkpt><trkpt lat="37.673204" lon="15.0635567"><ele>1122.0</ele><time>2026-05-03T08:46:21.016Z</time></trkpt><trkpt lat="37.6731961" lon="15.0636515"><ele>1120.0</ele><time>2026-05-03T08:46:22.017Z</time></trkpt><trkpt lat="37.6731846" lon="15.0637505"><ele>1118.0</ele><time>2026-05-03T08:46:23.016Z</time></trkpt><trkpt lat="37.6731654" lon="15.0638466"><ele>1116.0</ele><time>2026-05-03T08:46:24.016Z</time></trkpt><trkpt lat="37.6731462" lon="15.0639357"><ele>1114.0</ele><time>2026-05-03T08:46:25.017Z</time></trkpt><trkpt lat="37.6731259" lon="15.0640183"><ele>1114.0</ele><time>2026-05-03T08:46:26.016Z</time></trkpt><trkpt lat="37.6731006" lon="15.0640939"><ele>1114.0</ele><time>2026-05-03T08:46:27.016Z</time></trkpt><trkpt lat="37.6730556" lon="15.0642276"><ele>1114.0</ele><time>2026-05-03T08:46:29.016Z</time></trkpt><trkpt lat="37.673024" lon="15.0643128"><ele>1114.0</ele><time>2026-05-03T08:46:31.017Z</time></trkpt><trkpt lat="37.6730785" lon="15.0643553"><ele>1114.0</ele><time>2026-05-03T08:58:12.018Z</time></trkpt><trkpt lat="37.673153" lon="15.0643757"><ele>1114.0</ele><time>2026-05-03T08:58:14.018Z</time></trkpt><trkpt lat="37.6732236" lon="15.0643958"><ele>1113.1666666666665</ele><time>2026-05-03T08:58:16.018Z</time></trkpt><trkpt lat="37.6732978" lon="15.0644269"><ele>1112.3333333333333</ele><time>2026-05-03T08:58:18.018Z</time></trkpt><trkpt lat="37.6733738" lon="15.0644563"><ele>1111.5</ele><time>2026-05-03T08:58:20.018Z</time></trkpt><trkpt lat="37.6734555" lon="15.064482"><ele>1110.6666666666667</ele><time>2026-05-03T08:58:22.018Z</time></trkpt><trkpt lat="37.6735369" lon="15.0645129"><ele>1109.8333333333335</ele><time>2026-05-03T08:58:24.019Z</time></trkpt><trkpt lat="37.6736051" lon="15.0645281"><ele>1109.0</ele><time>2026-05-03T08:58:26.019Z</time></trkpt><trkpt lat="37.6736852" lon="15.0645618"><ele>1108.5</ele><time>2026-05-03T08:58:29.017Z</time></trkpt><trkpt lat="37.6737502" lon="15.0646228"><ele>1108.0</ele><time>2026-05-03T08:58:32.018Z</time></trkpt><trkpt lat="37.6738065" lon="15.0646833"><ele>1107.5</ele><time>2026-05-03T08:58:35.018Z</time></trkpt><trkpt lat="37.6738232" lon="15.0647734"><ele>1107.0</ele><time>2026-05-03T08:58:38.018Z</time></trkpt><trkpt lat="37.673816" lon="15.0648669"><ele>1106.5</ele><time>2026-05-03T08:58:41.019Z</time></trkpt><trkpt lat="37.6738088" lon="15.064973"><ele>1106.0</ele><time>2026-05-03T08:58:44.016Z</time></trkpt><trkpt lat="37.6737956" lon="15.0650912"><ele>1106.0</ele><time>2026-05-03T08:58:47.017Z</time></trkpt><trkpt lat="37.6737983" lon="15.0651759"><ele>1106.0</ele><time>2026-05-03T08:58:49.019Z</time></trkpt><trkpt lat="37.6738186" lon="15.065253"><ele>1106.0</ele><time>2026-05-03T08:58:51.018Z</time></trkpt><trkpt lat="37.6738546" lon="15.0653491"><ele>1106.0</ele><time>2026-05-03T08:58:54.016Z</time></trkpt><trkpt lat="37.6738661" lon="15.0654416"><ele>1106.0</ele><time>2026-05-03T08:58:57.018Z</time></trkpt><trkpt lat="37.6738413" lon="15.0655212"><ele>1106.0</ele><time>2026-05-03T08:58:59.019Z</time></trkpt><trkpt lat="37.6737954" lon="15.0655891"><ele>1106.0</ele><time>2026-05-03T08:59:01.019Z</time></trkpt><trkpt lat="37.6737795" lon="15.0657225"><ele>1104.5</ele><time>2026-05-03T08:59:03.017Z</time></trkpt><trkpt lat="37.6737881" lon="15.0658168"><ele>1103.0</ele><time>2026-05-03T08:59:05.019Z</time></trkpt><trkpt lat="37.6738058" lon="15.0659288"><ele>1101.5</ele><time>2026-05-03T08:59:08.017Z</time></trkpt><trkpt lat="37.673777" lon="15.0660014"><ele>1100.0</ele><time>2026-05-03T08:59:11.018Z</time></trkpt><trkpt lat="37.6736881" lon="15.0660049"><ele>1098.5</ele><time>2026-05-03T08:59:14.019Z</time></trkpt><trkpt lat="37.6736242" lon="15.0659852"><ele>1097.0</ele><time>2026-05-03T08:59:16.018Z</time></trkpt><trkpt lat="37.6735585" lon="15.0659648"><ele>1095.6666666666667</ele><time>2026-05-03T08:59:18.019Z</time></trkpt><trkpt lat="37.6734851" lon="15.0659618"><ele>1094.3333333333335</ele><time>2026-05-03T08:59:20.018Z</time></trkpt><trkpt lat="37.6733982" lon="15.0659764"><ele>1093.0</ele><time>2026-05-03T08:59:22.019Z</time></trkpt><trkpt lat="37.6733006" lon="15.0659942"><ele>1091.6666666666667</ele><time>2026-05-03T08:59:24.016Z</time></trkpt><trkpt lat="37.6732113" lon="15.0660157"><ele>1090.3333333333333</ele><time>2026-05-03T08:59:26.018Z</time></trkpt><trkpt lat="37.6731133" lon="15.0660283"><ele>1089.0</ele><time>2026-05-03T08:59:28.019Z</time></trkpt><trkpt lat="37.6730185" lon="15.0660488"><ele>1089.0</ele><time>2026-05-03T08:59:30.018Z</time></trkpt><trkpt lat="37.6729181" lon="15.0660581"><ele>1089.0</ele><time>2026-05-03T08:59:32.019Z</time></trkpt><trkpt lat="37.6728352" lon="15.0660689"><ele>1089.0</ele><time>2026-05-03T08:59:34.018Z</time></trkpt><trkpt lat="37.6727613" lon="15.066075"><ele>1089.0</ele><time>2026-05-03T08:59:36.018Z</time></trkpt><trkpt lat="37.672678" lon="15.0660808"><ele>1089.0</ele><time>2026-05-03T08:59:38.019Z</time></trkpt><trkpt lat="37.6725844" lon="15.0660947"><ele>1089.0</ele><time>2026-05-03T08:59:40.016Z</time></trkpt><trkpt lat="37.6724916" lon="15.0661159"><ele>1086.8</ele><time>2026-05-03T08:59:42.018Z</time></trkpt><trkpt lat="37.6724018" lon="15.0661432"><ele>1084.6000000000001</ele><time>2026-05-03T08:59:44.017Z</time></trkpt><trkpt lat="37.6723187" lon="15.066175"><ele>1082.4</ele><time>2026-05-03T08:59:46.018Z</time></trkpt><trkpt lat="37.6722333" lon="15.0662214"><ele>1080.2</ele><time>2026-05-03T08:59:48.019Z</time></trkpt><trkpt lat="37.6721511" lon="15.0662892"><ele>1078.0</ele><time>2026-05-03T08:59:50.019Z</time></trkpt><trkpt lat="37.6720791" lon="15.066355"><ele>1078.0</ele><time>2026-05-03T08:59:52.018Z</time></trkpt><trkpt lat="37.6720088" lon="15.0664088"><ele>1078.0</ele><time>2026-05-03T08:59:54.017Z</time></trkpt><trkpt lat="37.6719476" lon="15.066483"><ele>1078.0</ele><time>2026-05-03T08:59:56.018Z</time></trkpt><trkpt lat="37.6718801" lon="15.066535"><ele>1078.0</ele><time>2026-05-03T08:59:58.019Z</time></trkpt><trkpt lat="37.6718061" lon="15.0665835"><ele>1078.0</ele><time>2026-05-03T09:00:00.018Z</time></trkpt><trkpt lat="37.6717162" lon="15.0666588"><ele>1078.0</ele><time>2026-05-03T09:00:02.018Z</time></trkpt><trkpt lat="37.6716247" lon="15.0667354"><ele>1075.0</ele><time>2026-05-03T09:00:04.017Z</time></trkpt><trkpt lat="37.671554" lon="15.0668414"><ele>1072.0</ele><time>2026-05-03T09:00:06.017Z</time></trkpt><trkpt lat="37.6714854" lon="15.0669479"><ele>1069.0</ele><time>2026-05-03T09:00:08.018Z</time></trkpt><trkpt lat="37.6714022" lon="15.067061"><ele>1066.0</ele><time>2026-05-03T09:00:10.018Z</time></trkpt><trkpt lat="37.6713227" lon="15.0671691"><ele>1066.0</ele><time>2026-05-03T09:00:12.018Z</time></trkpt><trkpt lat="37.6712516" lon="15.0672489"><ele>1066.0</ele><time>2026-05-03T09:00:14.017Z</time></trkpt><trkpt lat="37.6711856" lon="15.0673455"><ele>1066.0</ele><time>2026-05-03T09:00:16.018Z</time></trkpt><trkpt lat="37.6711133" lon="15.0674333"><ele>1066.0</ele><time>2026-05-03T09:00:18.019Z</time></trkpt><trkpt lat="37.6710649" lon="15.0675293"><ele>1066.0</ele><time>2026-05-03T09:00:20.019Z</time></trkpt><trkpt lat="37.6710125" lon="15.0676174"><ele>1063.6666666666665</ele><time>2026-05-03T09:00:22.019Z</time></trkpt><trkpt lat="37.6709509" lon="15.067665"><ele>1061.3333333333333</ele><time>2026-05-03T09:00:24.019Z</time></trkpt><trkpt lat="37.6708953" lon="15.0677312"><ele>1059.0</ele><time>2026-05-03T09:00:26.018Z</time></trkpt><trkpt lat="37.670834" lon="15.0678121"><ele>1056.6666666666667</ele><time>2026-05-03T09:00:28.018Z</time></trkpt><trkpt lat="37.670775" lon="15.0678895"><ele>1054.3333333333335</ele><time>2026-05-03T09:00:30.017Z</time></trkpt><trkpt lat="37.6707032" lon="15.06796"><ele>1052.0</ele><time>2026-05-03T09:00:32.018Z</time></trkpt><trkpt lat="37.6706322" lon="15.0680277"><ele>1052.0</ele><time>2026-05-03T09:00:34.017Z</time></trkpt><trkpt lat="37.6705533" lon="15.068083"><ele>1052.0</ele><time>2026-05-03T09:00:36.019Z</time></trkpt><trkpt lat="37.6704844" lon="15.0681333"><ele>1052.0</ele><time>2026-05-03T09:00:38.019Z</time></trkpt><trkpt lat="37.6704345" lon="15.0681876"><ele>1052.0</ele><time>2026-05-03T09:00:40.018Z</time></trkpt><trkpt lat="37.6703793" lon="15.0682515"><ele>1052.0</ele><time>2026-05-03T09:00:43.019Z</time></trkpt><trkpt lat="37.6703473" lon="15.0683289"><ele>1052.0</ele><time>2026-05-03T09:00:46.017Z</time></trkpt><trkpt lat="37.6703992" lon="15.0682589"><ele>1052.0</ele><time>2026-05-03T09:01:04.018Z</time></trkpt><trkpt lat="37.6704762" lon="15.0682173"><ele>1052.0</ele><time>2026-05-03T09:01:07.018Z</time></trkpt><trkpt lat="37.6705574" lon="15.0682421"><ele>1052.0</ele><time>2026-05-03T09:01:10.018Z</time></trkpt><trkpt lat="37.6706224" lon="15.068241"><ele>1052.0</ele><time>2026-05-03T09:01:13.019Z</time></trkpt><trkpt lat="37.670665" lon="15.0683039"><ele>1052.0</ele><time>2026-05-03T09:01:37.019Z</time></trkpt><trkpt lat="37.6707329" lon="15.0683611"><ele>1052.0</ele><time>2026-05-03T09:01:41.018Z</time></trkpt><trkpt lat="37.6708204" lon="15.0684106"><ele>1051.8333333333335</ele><time>2026-05-03T09:01:44.018Z</time></trkpt><trkpt lat="37.670899" lon="15.0684555"><ele>1051.6666666666667</ele><time>2026-05-03T09:01:47.019Z</time></trkpt><trkpt lat="37.6709625" lon="15.0684979"><ele>1051.5</ele><time>2026-05-03T09:01:50.019Z</time></trkpt><trkpt lat="37.6710336" lon="15.0685322"><ele>1051.3333333333333</ele><time>2026-05-03T09:01:53.018Z</time></trkpt><trkpt lat="37.6710925" lon="15.0685029"><ele>1051.1666666666665</ele><time>2026-05-03T09:01:56.019Z</time></trkpt><trkpt lat="37.6711687" lon="15.0684551"><ele>1051.0</ele><time>2026-05-03T09:02:11.018Z</time></trkpt><trkpt lat="37.6712262" lon="15.0684117"><ele>1051.0</ele><time>2026-05-03T09:02:16.019Z</time></trkpt><trkpt lat="37.6711335" lon="15.0684637"><ele>1051.0</ele><time>2026-05-03T09:02:24.019Z</time></trkpt><trkpt lat="37.671055" lon="15.0685113"><ele>1051.0</ele><time>2026-05-03T09:02:26.018Z</time></trkpt><trkpt lat="37.670971" lon="15.0685136"><ele>1051.0</ele><time>2026-05-03T09:02:29.019Z</time></trkpt><trkpt lat="37.670908" lon="15.0684885"><ele>1051.0</ele><time>2026-05-03T09:02:32.019Z</time></trkpt><trkpt lat="37.6708139" lon="15.068417"><ele>1051.0</ele><time>2026-05-03T09:02:35.019Z</time></trkpt><trkpt lat="37.6707522" lon="15.0683795"><ele>1051.1666666666665</ele><time>2026-05-03T09:02:37.019Z</time></trkpt><trkpt lat="37.670684" lon="15.0683273"><ele>1051.3333333333333</ele><time>2026-05-03T09:02:39.018Z</time></trkpt><trkpt lat="37.6706199" lon="15.068263"><ele>1051.5</ele><time>2026-05-03T09:02:41.019Z</time></trkpt><trkpt lat="37.6705387" lon="15.0682268"><ele>1051.6666666666667</ele><time>2026-05-03T09:02:44.019Z</time></trkpt><trkpt lat="37.6704643" lon="15.0682184"><ele>1051.8333333333335</ele><time>2026-05-03T09:02:47.019Z</time></trkpt><trkpt lat="37.6703907" lon="15.0682497"><ele>1052.0</ele><time>2026-05-03T09:02:50.019Z</time></trkpt><trkpt lat="37.6703477" lon="15.0683098"><ele>1050.5714285714284</ele><time>2026-05-03T09:02:52.019Z</time></trkpt><trkpt lat="37.6703063" lon="15.0683842"><ele>1049.142857142857</ele><time>2026-05-03T09:02:54.019Z</time></trkpt><trkpt lat="37.6702672" lon="15.06845"><ele>1047.7142857142858</ele><time>2026-05-03T09:02:56.018Z</time></trkpt><trkpt lat="37.6701877" lon="15.0685023"><ele>1046.2857142857142</ele><time>2026-05-03T09:02:59.018Z</time></trkpt><trkpt lat="37.6701225" lon="15.0685515"><ele>1044.857142857143</ele><time>2026-05-03T09:03:02.019Z</time></trkpt><trkpt lat="37.6700984" lon="15.0686353"><ele>1043.4285714285713</ele><time>2026-05-03T09:03:04.018Z</time></trkpt><trkpt lat="37.6700866" lon="15.0687244"><ele>1042.0</ele><time>2026-05-03T09:03:06.018Z</time></trkpt><trkpt lat="37.6700678" lon="15.0688019"><ele>1041.1666666666665</ele><time>2026-05-03T09:03:08.018Z</time></trkpt><trkpt lat="37.6700392" lon="15.0688774"><ele>1040.3333333333333</ele><time>2026-05-03T09:03:10.019Z</time></trkpt><trkpt lat="37.6700017" lon="15.0689512"><ele>1039.5</ele><time>2026-05-03T09:03:12.019Z</time></trkpt><trkpt lat="37.6699409" lon="15.0690245"><ele>1038.6666666666667</ele><time>2026-05-03T09:03:15.019Z</time></trkpt><trkpt lat="37.6698554" lon="15.069073"><ele>1037.8333333333335</ele><time>2026-05-03T09:03:18.019Z</time></trkpt><trkpt lat="37.669781" lon="15.0691045"><ele>1037.0</ele><time>2026-05-03T09:03:20.018Z</time></trkpt><trkpt lat="37.6696995" lon="15.0691547"><ele>1034.4</ele><time>2026-05-03T09:03:22.019Z</time></trkpt><trkpt lat="37.6696104" lon="15.0692213"><ele>1031.8000000000002</ele><time>2026-05-03T09:03:24.018Z</time></trkpt><trkpt lat="37.6695395" lon="15.0692869"><ele>1029.2</ele><time>2026-05-03T09:03:26.018Z</time></trkpt><trkpt lat="37.6694685" lon="15.0693707"><ele>1026.6000000000001</ele><time>2026-05-03T09:03:28.018Z</time></trkpt><trkpt lat="37.6694102" lon="15.0694737"><ele>1024.0</ele><time>2026-05-03T09:03:30.02Z</time></trkpt><trkpt lat="37.6693655" lon="15.0695898"><ele>1022.1666666666666</ele><time>2026-05-03T09:03:32.019Z</time></trkpt><trkpt lat="37.669341" lon="15.0696946"><ele>1020.3333333333333</ele><time>2026-05-03T09:03:34.019Z</time></trkpt><trkpt lat="37.6693105" lon="15.0697975"><ele>1018.5</ele><time>2026-05-03T09:03:36.019Z</time></trkpt><trkpt lat="37.6693003" lon="15.0699009"><ele>1016.6666666666667</ele><time>2026-05-03T09:03:38.02Z</time></trkpt><trkpt lat="37.6693393" lon="15.0700076"><ele>1014.8333333333334</ele><time>2026-05-03T09:03:40.018Z</time></trkpt><trkpt lat="37.6693919" lon="15.0701126"><ele>1013.0</ele><time>2026-05-03T09:03:42.019Z</time></trkpt><trkpt lat="37.6694447" lon="15.0701769"><ele>1013.0000000000001</ele><time>2026-05-03T09:03:44.018Z</time></trkpt><trkpt lat="37.6694885" lon="15.070263"><ele>1013.0</ele><time>2026-05-03T09:03:46.019Z</time></trkpt><trkpt lat="37.6695226" lon="15.0703599"><ele>1013.0</ele><time>2026-05-03T09:03:49.02Z</time></trkpt><trkpt lat="37.6695685" lon="15.0704374"><ele>1013.0</ele><time>2026-05-03T09:03:52.019Z</time></trkpt><trkpt lat="37.669604" lon="15.0705203"><ele>1013.0000000000001</ele><time>2026-05-03T09:03:54.018Z</time></trkpt><trkpt lat="37.6696374" lon="15.0705937"><ele>1013.0</ele><time>2026-05-03T09:03:56.018Z</time></trkpt><trkpt lat="37.6696461" lon="15.0706771"><ele>1013.0000000000001</ele><time>2026-05-03T09:03:58.018Z</time></trkpt><trkpt lat="37.6696293" lon="15.0707645"><ele>1013.0</ele><time>2026-05-03T09:04:00.019Z</time></trkpt><trkpt lat="37.6696062" lon="15.0708467"><ele>1013.0</ele><time>2026-05-03T09:04:08.019Z</time></trkpt><trkpt lat="37.6695783" lon="15.0709355"><ele>1013.0</ele><time>2026-05-03T09:04:11.017Z</time></trkpt><trkpt lat="37.6695471" lon="15.0710262"><ele>1013.0000000000001</ele><time>2026-05-03T09:04:13.019Z</time></trkpt><trkpt lat="37.6694848" lon="15.0711038"><ele>1013.0</ele><time>2026-05-03T09:04:16.019Z</time></trkpt><trkpt lat="37.66943" lon="15.0711555"><ele>1010.1666666666667</ele><time>2026-05-03T09:04:19.019Z</time></trkpt><trkpt lat="37.6694765" lon="15.0712302"><ele>1007.3333333333334</ele><time>2026-05-03T09:04:23.019Z</time></trkpt><trkpt lat="37.6695441" lon="15.0712692"><ele>1004.5</ele><time>2026-05-03T09:04:25.019Z</time></trkpt><trkpt lat="37.6696108" lon="15.0712987"><ele>1001.6666666666667</ele><time>2026-05-03T09:04:27.018Z</time></trkpt><trkpt lat="37.6697048" lon="15.071288"><ele>998.8333333333334</ele><time>2026-05-03T09:04:29.018Z</time></trkpt><trkpt lat="37.6697857" lon="15.0712218"><ele>996.0</ele><time>2026-05-03T09:04:31.019Z</time></trkpt><trkpt lat="37.6698599" lon="15.0711858"><ele>996.0</ele><time>2026-05-03T09:04:33.02Z</time></trkpt><trkpt lat="37.6699461" lon="15.0711698"><ele>995.9999999999999</ele><time>2026-05-03T09:04:35.018Z</time></trkpt><trkpt lat="37.670036" lon="15.0711458"><ele>995.9999999999999</ele><time>2026-05-03T09:04:37.019Z</time></trkpt><trkpt lat="37.6701461" lon="15.0711096"><ele>996.0</ele><time>2026-05-03T09:04:39.018Z</time></trkpt><trkpt lat="37.6702363" lon="15.0710797"><ele>996.0</ele><time>2026-05-03T09:04:41.02Z</time></trkpt><trkpt lat="37.6703262" lon="15.0710505"><ele>997.0</ele><time>2026-05-03T09:04:43.019Z</time></trkpt><trkpt lat="37.6704127" lon="15.071035"><ele>997.9999999999999</ele><time>2026-05-03T09:04:45.018Z</time></trkpt><trkpt lat="37.6705049" lon="15.0710467"><ele>998.9999999999999</ele><time>2026-05-03T09:04:47.018Z</time></trkpt><trkpt lat="37.6705935" lon="15.0710991"><ele>1000.0</ele><time>2026-05-03T09:04:49.017Z</time></trkpt><trkpt lat="37.6706865" lon="15.0711278"><ele>1001.0</ele><time>2026-05-03T09:04:51.019Z</time></trkpt><trkpt lat="37.6707914" lon="15.0711071"><ele>1001.0</ele><time>2026-05-03T09:04:53.018Z</time></trkpt><trkpt lat="37.6709006" lon="15.0711136"><ele>1000.9999999999999</ele><time>2026-05-03T09:04:55.018Z</time></trkpt><trkpt lat="37.6709841" lon="15.0711761"><ele>1000.9999999999999</ele><time>2026-05-03T09:04:57.019Z</time></trkpt><trkpt lat="37.6710312" lon="15.0712642"><ele>1001.0</ele><time>2026-05-03T09:04:59.018Z</time></trkpt><trkpt lat="37.6711192" lon="15.0713019"><ele>1001.0</ele><time>2026-05-03T09:05:01.019Z</time></trkpt><trkpt lat="37.6712149" lon="15.071322"><ele>1005.0</ele><time>2026-05-03T09:05:03.02Z</time></trkpt><trkpt lat="37.6713135" lon="15.0713756"><ele>1008.9999999999999</ele><time>2026-05-03T09:05:05.019Z</time></trkpt><trkpt lat="37.6714114" lon="15.0714315"><ele>1012.9999999999999</ele><time>2026-05-03T09:05:07.019Z</time></trkpt><trkpt lat="37.6714946" lon="15.0714834"><ele>1017.0</ele><time>2026-05-03T09:05:09.019Z</time></trkpt><trkpt lat="37.6715825" lon="15.0715499"><ele>1021.0</ele><time>2026-05-03T09:05:11.019Z</time></trkpt><trkpt lat="37.6717067" lon="15.0715726"><ele>1021.4</ele><time>2026-05-03T09:05:13.019Z</time></trkpt><trkpt lat="37.6718196" lon="15.0716137"><ele>1021.8</ele><time>2026-05-03T09:05:15.019Z</time></trkpt><trkpt lat="37.6719229" lon="15.0716665"><ele>1022.1999999999999</ele><time>2026-05-03T09:05:17.018Z</time></trkpt><trkpt lat="37.6720175" lon="15.0717073"><ele>1022.5999999999999</ele><time>2026-05-03T09:05:19.02Z</time></trkpt><trkpt lat="37.6720935" lon="15.0717873"><ele>1023.0</ele><time>2026-05-03T09:05:21.018Z</time></trkpt><trkpt lat="37.6721695" lon="15.0718787"><ele>1023.0</ele><time>2026-05-03T09:05:23.018Z</time></trkpt><trkpt lat="37.6722328" lon="15.0719492"><ele>1023.0</ele><time>2026-05-03T09:05:25.019Z</time></trkpt><trkpt lat="37.6722906" lon="15.0719964"><ele>1023.0</ele><time>2026-05-03T09:05:27.018Z</time></trkpt><trkpt lat="37.6723576" lon="15.0719825"><ele>1023.0</ele><time>2026-05-03T09:05:29.019Z</time></trkpt><trkpt lat="37.6724257" lon="15.0719573"><ele>1023.0</ele><time>2026-05-03T09:05:31.019Z</time></trkpt><trkpt lat="37.6725215" lon="15.0719696"><ele>1023.0</ele><time>2026-05-03T09:05:33.018Z</time></trkpt><trkpt lat="37.6724269" lon="15.0719714"><ele>1023.0</ele><time>2026-05-03T09:05:42.02Z</time></trkpt><trkpt lat="37.6723486" lon="15.0719849"><ele>1023.0</ele><time>2026-05-03T09:05:44.019Z</time></trkpt><trkpt lat="37.6722613" lon="15.0720031"><ele>1023.0</ele><time>2026-05-03T09:05:47.02Z</time></trkpt><trkpt lat="37.6722077" lon="15.0719586"><ele>1023.0</ele><time>2026-05-03T09:05:49.018Z</time></trkpt><trkpt lat="37.6721477" lon="15.0718592"><ele>1023.0</ele><time>2026-05-03T09:05:51.018Z</time></trkpt><trkpt lat="37.6720894" lon="15.0717789"><ele>1023.0</ele><time>2026-05-03T09:05:53.019Z</time></trkpt><trkpt lat="37.6720149" lon="15.0717194"><ele>1022.6666666666666</ele><time>2026-05-03T09:05:55.019Z</time></trkpt><trkpt lat="37.6719371" lon="15.071676"><ele>1022.3333333333333</ele><time>2026-05-03T09:05:57.017Z</time></trkpt><trkpt lat="37.6718538" lon="15.0716493"><ele>1022.0</ele><time>2026-05-03T09:05:59.02Z</time></trkpt><trkpt lat="37.6717679" lon="15.0716101"><ele>1021.6666666666666</ele><time>2026-05-03T09:06:01.02Z</time></trkpt><trkpt lat="37.6716902" lon="15.0715955"><ele>1021.3333333333333</ele><time>2026-05-03T09:06:03.018Z</time></trkpt><trkpt lat="37.6716034" lon="15.0715754"><ele>1021.0</ele><time>2026-05-03T09:06:05.018Z</time></trkpt><trkpt lat="37.6715083" lon="15.0715137"><ele>1021.0</ele><time>2026-05-03T09:06:07.019Z</time></trkpt><trkpt lat="37.6714014" lon="15.071444"><ele>1020.9999999999999</ele><time>2026-05-03T09:06:09.019Z</time></trkpt><trkpt lat="37.6713015" lon="15.0713848"><ele>1020.9999999999999</ele><time>2026-05-03T09:06:11.019Z</time></trkpt><trkpt lat="37.6712106" lon="15.0713301"><ele>1021.0</ele><time>2026-05-03T09:06:13.019Z</time></trkpt><trkpt lat="37.6711251" lon="15.0713112"><ele>1021.0</ele><time>2026-05-03T09:06:15.019Z</time></trkpt><trkpt lat="37.6710473" lon="15.0712941"><ele>1017.6666666666666</ele><time>2026-05-03T09:06:17.019Z</time></trkpt><trkpt lat="37.6709949" lon="15.0712356"><ele>1014.3333333333333</ele><time>2026-05-03T09:06:19.02Z</time></trkpt><trkpt lat="37.6709547" lon="15.0711518"><ele>1011.0</ele><time>2026-05-03T09:06:21.018Z</time></trkpt><trkpt lat="37.6708827" lon="15.0711041"><ele>1007.6666666666667</ele><time>2026-05-03T09:06:23.02Z</time></trkpt><trkpt lat="37.6708003" lon="15.0710998"><ele>1004.3333333333334</ele><time>2026-05-03T09:06:25.018Z</time></trkpt><trkpt lat="37.6707232" lon="15.0711142"><ele>1001.0</ele><time>2026-05-03T09:06:27.02Z</time></trkpt><trkpt lat="37.6706349" lon="15.071112"><ele>1001.0000000000001</ele><time>2026-05-03T09:06:29.019Z</time></trkpt><trkpt lat="37.6705369" lon="15.0710778"><ele>1001.0</ele><time>2026-05-03T09:06:31.018Z</time></trkpt><trkpt lat="37.6704555" lon="15.071063"><ele>1001.0</ele><time>2026-05-03T09:06:33.019Z</time></trkpt><trkpt lat="37.6703924" lon="15.0710365"><ele>1001.0</ele><time>2026-05-03T09:06:37.018Z</time></trkpt><trkpt lat="37.6703084" lon="15.0710284"><ele>1001.0000000000001</ele><time>2026-05-03T09:06:58.02Z</time></trkpt><trkpt lat="37.6702366" lon="15.0710516"><ele>1001.0</ele><time>2026-05-03T09:07:00.019Z</time></trkpt><trkpt lat="37.6701448" lon="15.0710953"><ele>1000.1666666666667</ele><time>2026-05-03T09:07:02.02Z</time></trkpt><trkpt lat="37.6700818" lon="15.071119"><ele>999.3333333333334</ele><time>2026-05-03T09:07:04.018Z</time></trkpt><trkpt lat="37.6700063" lon="15.0711366"><ele>998.5</ele><time>2026-05-03T09:07:07.019Z</time></trkpt><trkpt lat="37.6699101" lon="15.0711428"><ele>997.6666666666667</ele><time>2026-05-03T09:07:10.019Z</time></trkpt><trkpt lat="37.6698275" lon="15.071171"><ele>996.8333333333334</ele><time>2026-05-03T09:07:12.019Z</time></trkpt><trkpt lat="37.6697488" lon="15.0712125"><ele>996.0</ele><time>2026-05-03T09:07:14.02Z</time></trkpt><trkpt lat="37.6696868" lon="15.0712675"><ele>996.0</ele><time>2026-05-03T09:07:16.02Z</time></trkpt><trkpt lat="37.6696087" lon="15.071278"><ele>996.0</ele><time>2026-05-03T09:07:18.019Z</time></trkpt><trkpt lat="37.6695143" lon="15.0712348"><ele>996.0</ele><time>2026-05-03T09:07:20.02Z</time></trkpt><trkpt lat="37.6694246" lon="15.0711834"><ele>996.0</ele><time>2026-05-03T09:07:22.019Z</time></trkpt><trkpt lat="37.6693585" lon="15.0711615"><ele>996.0</ele><time>2026-05-03T09:07:24.018Z</time></trkpt><trkpt lat="37.6692816" lon="15.0711667"><ele>996.0</ele><time>2026-05-03T09:07:26.018Z</time></trkpt><trkpt lat="37.6692085" lon="15.0711509"><ele>994.1666666666666</ele><time>2026-05-03T09:07:28.019Z</time></trkpt><trkpt lat="37.6691437" lon="15.0711563"><ele>992.3333333333333</ele><time>2026-05-03T09:07:30.02Z</time></trkpt><trkpt lat="37.669078" lon="15.071143"><ele>990.5</ele><time>2026-05-03T09:07:32.019Z</time></trkpt><trkpt lat="37.66901" lon="15.0711225"><ele>988.6666666666666</ele><time>2026-05-03T09:07:34.019Z</time></trkpt><trkpt lat="37.6689209" lon="15.0711082"><ele>986.8333333333333</ele><time>2026-05-03T09:07:36.02Z</time></trkpt><trkpt lat="37.6688027" lon="15.0710766"><ele>985.0</ele><time>2026-05-03T09:07:38.019Z</time></trkpt><trkpt lat="37.6687068" lon="15.0710886"><ele>985.0</ele><time>2026-05-03T09:07:40.019Z</time></trkpt><trkpt lat="37.6686407" lon="15.0710769"><ele>985.0</ele><time>2026-05-03T09:07:41.019Z</time></trkpt><trkpt lat="37.6685156" lon="15.0710843"><ele>985.0</ele><time>2026-05-03T09:07:43.02Z</time></trkpt><trkpt lat="37.6683962" lon="15.0711046"><ele>985.0</ele><time>2026-05-03T09:07:45.019Z</time></trkpt><trkpt lat="37.6683122" lon="15.0711491"><ele>985.0</ele><time>2026-05-03T09:07:47.018Z</time></trkpt><trkpt lat="37.6682545" lon="15.0712113"><ele>982.4999999999999</ele><time>2026-05-03T09:07:49.02Z</time></trkpt><trkpt lat="37.6682333" lon="15.0713068"><ele>980.0</ele><time>2026-05-03T09:07:51.019Z</time></trkpt><trkpt lat="37.6682227" lon="15.0714303"><ele>977.5</ele><time>2026-05-03T09:07:53.019Z</time></trkpt><trkpt lat="37.6682297" lon="15.0715368"><ele>975.0</ele><time>2026-05-03T09:07:55.02Z</time></trkpt><trkpt lat="37.668227" lon="15.0716515"><ele>972.4999999999999</ele><time>2026-05-03T09:07:57.019Z</time></trkpt><trkpt lat="37.6681758" lon="15.0717469"><ele>970.0</ele><time>2026-05-03T09:07:59.019Z</time></trkpt><trkpt lat="37.6680886" lon="15.0718068"><ele>969.4</ele><time>2026-05-03T09:08:01.02Z</time></trkpt><trkpt lat="37.6679917" lon="15.0718118"><ele>968.8</ele><time>2026-05-03T09:08:03.018Z</time></trkpt><trkpt lat="37.6678874" lon="15.0717891"><ele>968.2</ele><time>2026-05-03T09:08:05.02Z</time></trkpt><trkpt lat="37.6677814" lon="15.0717741"><ele>967.6</ele><time>2026-05-03T09:08:07.019Z</time></trkpt><trkpt lat="37.6676981" lon="15.0717703"><ele>967.0</ele><time>2026-05-03T09:08:09.02Z</time></trkpt><trkpt lat="37.6675973" lon="15.0717699"><ele>964.6</ele><time>2026-05-03T09:08:11.019Z</time></trkpt><trkpt lat="37.6675089" lon="15.0717802"><ele>962.2</ele><time>2026-05-03T09:08:13.02Z</time></trkpt><trkpt lat="37.6674108" lon="15.071804"><ele>959.8</ele><time>2026-05-03T09:08:15.02Z</time></trkpt><trkpt lat="37.6672928" lon="15.0718221"><ele>957.4</ele><time>2026-05-03T09:08:17.019Z</time></trkpt><trkpt lat="37.6671937" lon="15.0717978"><ele>955.0</ele><time>2026-05-03T09:08:19.02Z</time></trkpt><trkpt lat="37.6670957" lon="15.0718158"><ele>955.0</ele><time>2026-05-03T09:08:21.019Z</time></trkpt><trkpt lat="37.6670159" lon="15.0718642"><ele>955.0</ele><time>2026-05-03T09:08:23.02Z</time></trkpt><trkpt lat="37.666973" lon="15.0719247"><ele>955.0</ele><time>2026-05-03T09:08:24.019Z</time></trkpt><trkpt lat="37.6668795" lon="15.0720161"><ele>955.0</ele><time>2026-05-03T09:08:26.02Z</time></trkpt><trkpt lat="37.6667887" lon="15.0721018"><ele>955.0</ele><time>2026-05-03T09:08:28.02Z</time></trkpt><trkpt lat="37.6667157" lon="15.0721653"><ele>955.1666666666666</ele><time>2026-05-03T09:08:30.019Z</time></trkpt><trkpt lat="37.6666575" lon="15.0722243"><ele>955.3333333333333</ele><time>2026-05-03T09:08:32.019Z</time></trkpt><trkpt lat="37.6666064" lon="15.0722795"><ele>955.5</ele><time>2026-05-03T09:08:34.02Z</time></trkpt><trkpt lat="37.6665527" lon="15.07235"><ele>955.6666666666667</ele><time>2026-05-03T09:08:36.019Z</time></trkpt><trkpt lat="37.6665055" lon="15.0724573"><ele>955.8333333333334</ele><time>2026-05-03T09:08:38.019Z</time></trkpt><trkpt lat="37.6664484" lon="15.0725557"><ele>956.0</ele><time>2026-05-03T09:08:40.019Z</time></trkpt><trkpt lat="37.666395" lon="15.0726472"><ele>955.5999999999999</ele><time>2026-05-03T09:08:42.018Z</time></trkpt><trkpt lat="37.6663231" lon="15.0727084"><ele>955.1999999999999</ele><time>2026-05-03T09:08:44.019Z</time></trkpt><trkpt lat="37.6662486" lon="15.0727774"><ele>954.8000000000001</ele><time>2026-05-03T09:08:46.02Z</time></trkpt><trkpt lat="37.6661802" lon="15.0728496"><ele>954.4000000000001</ele><time>2026-05-03T09:08:48.019Z</time></trkpt><trkpt lat="37.6660958" lon="15.0729373"><ele>954.0</ele><time>2026-05-03T09:08:50.019Z</time></trkpt><trkpt lat="37.6660218" lon="15.0730378"><ele>954.0</ele><time>2026-05-03T09:08:52.019Z</time></trkpt><trkpt lat="37.6659773" lon="15.0730947"><ele>954.0000000000001</ele><time>2026-05-03T09:08:53.02Z</time></trkpt><trkpt lat="37.6659089" lon="15.0732006"><ele>954.0000000000001</ele><time>2026-05-03T09:08:55.02Z</time></trkpt><trkpt lat="37.6658296" lon="15.0733081"><ele>954.0</ele><time>2026-05-03T09:08:57.02Z</time></trkpt><trkpt lat="37.6657822" lon="15.073373"><ele>954.0</ele><time>2026-05-03T09:08:58.018Z</time></trkpt><trkpt lat="37.6657193" lon="15.0735175"><ele>949.0</ele><time>2026-05-03T09:09:00.019Z</time></trkpt><trkpt lat="37.6656615" lon="15.073653"><ele>944.0</ele><time>2026-05-03T09:09:02.02Z</time></trkpt><trkpt lat="37.6656055" lon="15.0737865"><ele>939.0</ele><time>2026-05-03T09:09:04.02Z</time></trkpt><trkpt lat="37.6655324" lon="15.0739068"><ele>934.0</ele><time>2026-05-03T09:09:06.019Z</time></trkpt><trkpt lat="37.6654683" lon="15.0740365"><ele>930.8000000000001</ele><time>2026-05-03T09:09:08.02Z</time></trkpt><trkpt lat="37.6653985" lon="15.0741605"><ele>927.6000000000001</ele><time>2026-05-03T09:09:10.019Z</time></trkpt><trkpt lat="37.6653277" lon="15.0742591"><ele>924.4</ele><time>2026-05-03T09:09:12.02Z</time></trkpt><trkpt lat="37.6652558" lon="15.0743439"><ele>921.2</ele><time>2026-05-03T09:09:14.019Z</time></trkpt><trkpt lat="37.6651763" lon="15.0744303"><ele>918.0</ele><time>2026-05-03T09:09:16.02Z</time></trkpt><trkpt lat="37.6651136" lon="15.0745185"><ele>917.6666666666666</ele><time>2026-05-03T09:09:18.019Z</time></trkpt><trkpt lat="37.6650539" lon="15.0746208"><ele>917.3333333333333</ele><time>2026-05-03T09:09:20.02Z</time></trkpt><trkpt lat="37.6649995" lon="15.0746984"><ele>917.0</ele><time>2026-05-03T09:09:22.02Z</time></trkpt><trkpt lat="37.664924" lon="15.0747148"><ele>916.6666666666666</ele><time>2026-05-03T09:09:24.02Z</time></trkpt><trkpt lat="37.66487" lon="15.0746678"><ele>916.3333333333333</ele><time>2026-05-03T09:09:26.02Z</time></trkpt><trkpt lat="37.6648437" lon="15.0745783"><ele>916.0</ele><time>2026-05-03T09:09:28.02Z</time></trkpt><trkpt lat="37.6647821" lon="15.0744456"><ele>916.0</ele><time>2026-05-03T09:09:30.019Z</time></trkpt><trkpt lat="37.6647265" lon="15.0743465"><ele>915.9999999999999</ele><time>2026-05-03T09:09:32.02Z</time></trkpt><trkpt lat="37.664671" lon="15.0742481"><ele>915.9999999999999</ele><time>2026-05-03T09:09:34.019Z</time></trkpt><trkpt lat="37.6645971" lon="15.0741628"><ele>916.0</ele><time>2026-05-03T09:09:36.02Z</time></trkpt><trkpt lat="37.6645357" lon="15.07404"><ele>916.0</ele><time>2026-05-03T09:09:38.02Z</time></trkpt><trkpt lat="37.6644674" lon="15.0739197"><ele>915.0</ele><time>2026-05-03T09:09:40.019Z</time></trkpt><trkpt lat="37.6643934" lon="15.0737991"><ele>913.9999999999999</ele><time>2026-05-03T09:09:42.02Z</time></trkpt><trkpt lat="37.6643271" lon="15.0737"><ele>912.9999999999999</ele><time>2026-05-03T09:09:44.02Z</time></trkpt><trkpt lat="37.6642387" lon="15.0736292"><ele>912.0</ele><time>2026-05-03T09:09:46.02Z</time></trkpt><trkpt lat="37.6641491" lon="15.0735639"><ele>911.0</ele><time>2026-05-03T09:09:48.02Z</time></trkpt><trkpt lat="37.6640531" lon="15.0734823"><ele>911.0</ele><time>2026-05-03T09:09:50.02Z</time></trkpt><trkpt lat="37.6639879" lon="15.0734273"><ele>910.9999999999999</ele><time>2026-05-03T09:09:52.019Z</time></trkpt><trkpt lat="37.6639154" lon="15.0733771"><ele>910.9999999999999</ele><time>2026-05-03T09:09:54.019Z</time></trkpt><trkpt lat="37.6638351" lon="15.0732925"><ele>911.0</ele><time>2026-05-03T09:09:56.019Z</time></trkpt><trkpt lat="37.6637497" lon="15.0731921"><ele>911.0</ele><time>2026-05-03T09:09:58.018Z</time></trkpt><trkpt lat="37.6636918" lon="15.073135"><ele>910.8333333333334</ele><time>2026-05-03T09:09:59.02Z</time></trkpt><trkpt lat="37.6636119" lon="15.0730004"><ele>910.6666666666667</ele><time>2026-05-03T09:10:01.019Z</time></trkpt><trkpt lat="37.6635719" lon="15.0729282"><ele>910.5</ele><time>2026-05-03T09:10:02.02Z</time></trkpt><trkpt lat="37.6635248" lon="15.0728622"><ele>910.3333333333333</ele><time>2026-05-03T09:10:03.018Z</time></trkpt><trkpt lat="37.6634787" lon="15.0727938"><ele>910.1666666666666</ele><time>2026-05-03T09:10:04.019Z</time></trkpt><trkpt lat="37.6634382" lon="15.0727262"><ele>910.0</ele><time>2026-05-03T09:10:05.02Z</time></trkpt><trkpt lat="37.6633932" lon="15.072658"><ele>909.9999999999999</ele><time>2026-05-03T09:10:06.02Z</time></trkpt><trkpt lat="37.6633468" lon="15.0725883"><ele>910.0</ele><time>2026-05-03T09:10:07.02Z</time></trkpt><trkpt lat="37.6633132" lon="15.0725069"><ele>910.0</ele><time>2026-05-03T09:10:08.02Z</time></trkpt><trkpt lat="37.6632677" lon="15.0724303"><ele>910.0</ele><time>2026-05-03T09:10:09.02Z</time></trkpt><trkpt lat="37.6632068" lon="15.0723409"><ele>909.9999999999999</ele><time>2026-05-03T09:10:10.019Z</time></trkpt><trkpt lat="37.6631564" lon="15.0722683"><ele>910.0</ele><time>2026-05-03T09:10:11.02Z</time></trkpt><trkpt lat="37.6631054" lon="15.0721981"><ele>910.6666666666666</ele><time>2026-05-03T09:10:12.019Z</time></trkpt><trkpt lat="37.6630578" lon="15.0721439"><ele>911.3333333333333</ele><time>2026-05-03T09:10:13.019Z</time></trkpt><trkpt lat="37.6630085" lon="15.0720856"><ele>912.0</ele><time>2026-05-03T09:10:14.018Z</time></trkpt><trkpt lat="37.6629144" lon="15.07195"><ele>912.6666666666667</ele><time>2026-05-03T09:10:16.019Z</time></trkpt><trkpt lat="37.6628644" lon="15.071885"><ele>913.3333333333334</ele><time>2026-05-03T09:10:17.019Z</time></trkpt><trkpt lat="37.6628233" lon="15.0718154"><ele>914.0</ele><time>2026-05-03T09:10:18.02Z</time></trkpt><trkpt lat="37.6627702" lon="15.07174"><ele>911.4285714285716</ele><time>2026-05-03T09:10:19.019Z</time></trkpt><trkpt lat="37.6627286" lon="15.0716723"><ele>908.8571428571429</ele><time>2026-05-03T09:10:20.02Z</time></trkpt><trkpt lat="37.6626867" lon="15.0715987"><ele>906.2857142857143</ele><time>2026-05-03T09:10:21.02Z</time></trkpt><trkpt lat="37.6626431" lon="15.0715148"><ele>903.7142857142858</ele><time>2026-05-03T09:10:22.02Z</time></trkpt><trkpt lat="37.6626021" lon="15.0714447"><ele>901.1428571428571</ele><time>2026-05-03T09:10:23.019Z</time></trkpt><trkpt lat="37.662562" lon="15.071376"><ele>898.5714285714286</ele><time>2026-05-03T09:10:24.019Z</time></trkpt><trkpt lat="37.66253" lon="15.0712991"><ele>896.0</ele><time>2026-05-03T09:10:25.019Z</time></trkpt><trkpt lat="37.6625042" lon="15.0712173"><ele>895.6666666666667</ele><time>2026-05-03T09:10:26.018Z</time></trkpt><trkpt lat="37.6624854" lon="15.0711358"><ele>895.3333333333334</ele><time>2026-05-03T09:10:27.02Z</time></trkpt><trkpt lat="37.6624979" lon="15.0709822"><ele>895.0</ele><time>2026-05-03T09:10:29.018Z</time></trkpt><trkpt lat="37.6625202" lon="15.0708996"><ele>894.6666666666667</ele><time>2026-05-03T09:10:30.019Z</time></trkpt><trkpt lat="37.6625686" lon="15.0708408"><ele>894.3333333333334</ele><time>2026-05-03T09:10:31.019Z</time></trkpt><trkpt lat="37.6626257" lon="15.0707951"><ele>894.0</ele><time>2026-05-03T09:10:32.019Z</time></trkpt><trkpt lat="37.6626906" lon="15.0707563"><ele>895.0</ele><time>2026-05-03T09:10:33.02Z</time></trkpt><trkpt lat="37.662759" lon="15.0707167"><ele>896.0</ele><time>2026-05-03T09:10:34.02Z</time></trkpt><trkpt lat="37.6628275" lon="15.0706751"><ele>897.0</ele><time>2026-05-03T09:10:35.02Z</time></trkpt><trkpt lat="37.6628917" lon="15.0706513"><ele>898.0</ele><time>2026-05-03T09:10:36.02Z</time></trkpt><trkpt lat="37.6629714" lon="15.0706252"><ele>899.0</ele><time>2026-05-03T09:10:37.02Z</time></trkpt><trkpt lat="37.6630514" lon="15.070587"><ele>900.0</ele><time>2026-05-03T09:10:38.02Z</time></trkpt><trkpt lat="37.6631247" lon="15.0705529"><ele>900.0</ele><time>2026-05-03T09:10:39.02Z</time></trkpt><trkpt lat="37.6631987" lon="15.0705228"><ele>900.0</ele><time>2026-05-03T09:10:40.019Z</time></trkpt><trkpt lat="37.6632746" lon="15.0704978"><ele>900.0</ele><time>2026-05-03T09:10:41.02Z</time></trkpt><trkpt lat="37.6633466" lon="15.070475"><ele>900.0</ele><time>2026-05-03T09:10:42.02Z</time></trkpt><trkpt lat="37.6634176" lon="15.0704475"><ele>900.0</ele><time>2026-05-03T09:10:43.02Z</time></trkpt><trkpt lat="37.663518" lon="15.0703564"><ele>900.0</ele><time>2026-05-03T09:10:45.02Z</time></trkpt><trkpt lat="37.6635584" lon="15.0702128"><ele>900.0</ele><time>2026-05-03T09:10:47.02Z</time></trkpt><trkpt lat="37.6635273" lon="15.0701201"><ele>900.0</ele><time>2026-05-03T09:10:48.02Z</time></trkpt><trkpt lat="37.6634974" lon="15.0700374"><ele>900.0</ele><time>2026-05-03T09:10:49.02Z</time></trkpt><trkpt lat="37.6634703" lon="15.0699568"><ele>900.0</ele><time>2026-05-03T09:10:50.02Z</time></trkpt><trkpt lat="37.6634393" lon="15.0698682"><ele>900.0</ele><time>2026-05-03T09:10:51.019Z</time></trkpt><trkpt lat="37.6633986" lon="15.069731"><ele>900.0</ele><time>2026-05-03T09:10:53.019Z</time></trkpt><trkpt lat="37.6633586" lon="15.0695939"><ele>901.4</ele><time>2026-05-03T09:10:55.02Z</time></trkpt><trkpt lat="37.6633123" lon="15.0694746"><ele>902.8</ele><time>2026-05-03T09:10:57.019Z</time></trkpt><trkpt lat="37.6632436" lon="15.069379"><ele>904.2</ele><time>2026-05-03T09:10:59.019Z</time></trkpt><trkpt lat="37.6631964" lon="15.0693071"><ele>905.6</ele><time>2026-05-03T09:11:01.018Z</time></trkpt><trkpt lat="37.6631161" lon="15.0692381"><ele>907.0</ele><time>2026-05-03T09:11:03.018Z</time></trkpt><trkpt lat="37.6630257" lon="15.0691676"><ele>906.6</ele><time>2026-05-03T09:11:05.019Z</time></trkpt><trkpt lat="37.6629274" lon="15.0690773"><ele>906.2</ele><time>2026-05-03T09:11:07.019Z</time></trkpt><trkpt lat="37.6628355" lon="15.0689905"><ele>905.8</ele><time>2026-05-03T09:11:09.019Z</time></trkpt><trkpt lat="37.6627423" lon="15.068915"><ele>905.4</ele><time>2026-05-03T09:11:11.019Z</time></trkpt><trkpt lat="37.662677" lon="15.0688569"><ele>905.0</ele><time>2026-05-03T09:11:13.02Z</time></trkpt><trkpt lat="37.6626122" lon="15.068805"><ele>905.0000000000001</ele><time>2026-05-03T09:11:15.02Z</time></trkpt><trkpt lat="37.6625453" lon="15.0687529"><ele>905.0</ele><time>2026-05-03T09:11:17.02Z</time></trkpt><trkpt lat="37.6624832" lon="15.0687033"><ele>905.0</ele><time>2026-05-03T09:11:19.018Z</time></trkpt><trkpt lat="37.6624212" lon="15.0686573"><ele>905.0</ele><time>2026-05-03T09:11:21.02Z</time></trkpt><trkpt lat="37.6623465" lon="15.0686026"><ele>905.0000000000001</ele><time>2026-05-03T09:11:23.019Z</time></trkpt><trkpt lat="37.6622495" lon="15.0685184"><ele>905.0</ele><time>2026-05-03T09:11:25.019Z</time></trkpt><trkpt lat="37.6621708" lon="15.0684243"><ele>905.0</ele><time>2026-05-03T09:11:27.019Z</time></trkpt><trkpt lat="37.6620931" lon="15.0683324"><ele>905.0</ele><time>2026-05-03T09:11:29.02Z</time></trkpt><trkpt lat="37.6620306" lon="15.0682128"><ele>905.0</ele><time>2026-05-03T09:11:31.02Z</time></trkpt><trkpt lat="37.66198" lon="15.0681158"><ele>905.0</ele><time>2026-05-03T09:11:33.02Z</time></trkpt><trkpt lat="37.661931" lon="15.0680239"><ele>905.0</ele><time>2026-05-03T09:11:35.02Z</time></trkpt><trkpt lat="37.6618699" lon="15.0679248"><ele>902.6</ele><time>2026-05-03T09:11:37.019Z</time></trkpt><trkpt lat="37.6617914" lon="15.0678219"><ele>900.2</ele><time>2026-05-03T09:11:39.02Z</time></trkpt><trkpt lat="37.6617177" lon="15.0677144"><ele>897.8</ele><time>2026-05-03T09:11:41.02Z</time></trkpt><trkpt lat="37.6616691" lon="15.0676187"><ele>895.4</ele><time>2026-05-03T09:11:43.02Z</time></trkpt><trkpt lat="37.661612" lon="15.0675209"><ele>893.0</ele><time>2026-05-03T09:11:45.02Z</time></trkpt><trkpt lat="37.6615389" lon="15.0674121"><ele>893.0</ele><time>2026-05-03T09:11:47.02Z</time></trkpt><trkpt lat="37.6614584" lon="15.0673368"><ele>893.0</ele><time>2026-05-03T09:11:49.019Z</time></trkpt><trkpt lat="37.6613818" lon="15.0672674"><ele>893.0</ele><time>2026-05-03T09:11:51.019Z</time></trkpt><trkpt lat="37.6613053" lon="15.0671988"><ele>893.0</ele><time>2026-05-03T09:11:53.019Z</time></trkpt><trkpt lat="37.6612235" lon="15.0671371"><ele>893.0</ele><time>2026-05-03T09:11:55.02Z</time></trkpt><trkpt lat="37.6611292" lon="15.0671015"><ele>889.75</ele><time>2026-05-03T09:11:57.019Z</time></trkpt><trkpt lat="37.6610166" lon="15.0670494"><ele>886.5</ele><time>2026-05-03T09:11:59.02Z</time></trkpt><trkpt lat="37.6609115" lon="15.0670149"><ele>883.25</ele><time>2026-05-03T09:12:01.02Z</time></trkpt><trkpt lat="37.6608088" lon="15.0669782"><ele>880.0</ele><time>2026-05-03T09:12:03.019Z</time></trkpt><trkpt lat="37.6607013" lon="15.0669203"><ele>880.0</ele><time>2026-05-03T09:12:05.018Z</time></trkpt><trkpt lat="37.6605883" lon="15.0668739"><ele>880.0</ele><time>2026-05-03T09:12:07.018Z</time></trkpt><trkpt lat="37.660477" lon="15.0668362"><ele>880.0</ele><time>2026-05-03T09:12:09.02Z</time></trkpt><trkpt lat="37.6604104" lon="15.0668016"><ele>880.0</ele><time>2026-05-03T09:12:10.02Z</time></trkpt><trkpt lat="37.6602958" lon="15.0667452"><ele>880.0</ele><time>2026-05-03T09:12:12.02Z</time></trkpt><trkpt lat="37.6601878" lon="15.066703"><ele>878.0</ele><time>2026-05-03T09:12:14.02Z</time></trkpt><trkpt lat="37.660098" lon="15.0666535"><ele>876.0</ele><time>2026-05-03T09:12:16.02Z</time></trkpt><trkpt lat="37.6599874" lon="15.0666092"><ele>874.0</ele><time>2026-05-03T09:12:18.019Z</time></trkpt><trkpt lat="37.6598789" lon="15.0665711"><ele>872.0</ele><time>2026-05-03T09:12:20.02Z</time></trkpt><trkpt lat="37.6597778" lon="15.0665329"><ele>870.0</ele><time>2026-05-03T09:12:22.019Z</time></trkpt><trkpt lat="37.6596789" lon="15.0664932"><ele>870.0</ele><time>2026-05-03T09:12:24.02Z</time></trkpt><trkpt lat="37.6595984" lon="15.0664563"><ele>870.0</ele><time>2026-05-03T09:12:26.02Z</time></trkpt><trkpt lat="37.6595085" lon="15.0664298"><ele>870.0</ele><time>2026-05-03T09:12:28.019Z</time></trkpt><trkpt lat="37.6593995" lon="15.0664067"><ele>870.0</ele><time>2026-05-03T09:12:30.02Z</time></trkpt><trkpt lat="37.6593367" lon="15.0663746"><ele>870.0</ele><time>2026-05-03T09:12:31.019Z</time></trkpt><trkpt lat="37.6592144" lon="15.0663536"><ele>867.8</ele><time>2026-05-03T09:12:33.019Z</time></trkpt><trkpt lat="37.6591226" lon="15.0663318"><ele>865.6</ele><time>2026-05-03T09:12:35.02Z</time></trkpt><trkpt lat="37.6590356" lon="15.0662881"><ele>863.4000000000001</ele><time>2026-05-03T09:12:49.019Z</time></trkpt><trkpt lat="37.658952" lon="15.0662762"><ele>861.2</ele><time>2026-05-03T09:12:51.019Z</time></trkpt><trkpt lat="37.6588653" lon="15.0662523"><ele>859.0</ele><time>2026-05-03T09:12:53.02Z</time></trkpt><trkpt lat="37.6587701" lon="15.0662077"><ele>859.0</ele><time>2026-05-03T09:12:55.021Z</time></trkpt><trkpt lat="37.6586806" lon="15.0661386"><ele>859.0000000000001</ele><time>2026-05-03T09:12:57.02Z</time></trkpt><trkpt lat="37.6586191" lon="15.0660409"><ele>859.0000000000001</ele><time>2026-05-03T09:12:59.019Z</time></trkpt><trkpt lat="37.6585403" lon="15.06593"><ele>859.0</ele><time>2026-05-03T09:13:01.02Z</time></trkpt><trkpt lat="37.6585164" lon="15.0658481"><ele>859.0</ele><time>2026-05-03T09:13:02.019Z</time></trkpt><trkpt lat="37.6584947" lon="15.0657624"><ele>856.8571428571428</ele><time>2026-05-03T09:13:03.019Z</time></trkpt><trkpt lat="37.6584682" lon="15.0656825"><ele>854.7142857142857</ele><time>2026-05-03T09:13:04.019Z</time></trkpt><trkpt lat="37.6584451" lon="15.0655846"><ele>852.5714285714286</ele><time>2026-05-03T09:13:05.019Z</time></trkpt><trkpt lat="37.6584303" lon="15.0654949"><ele>850.4285714285713</ele><time>2026-05-03T09:13:06.02Z</time></trkpt><trkpt lat="37.6583984" lon="15.065412"><ele>848.2857142857143</ele><time>2026-05-03T09:13:07.02Z</time></trkpt><trkpt lat="37.6583638" lon="15.0653338"><ele>846.1428571428571</ele><time>2026-05-03T09:13:08.02Z</time></trkpt><trkpt lat="37.6583404" lon="15.065244"><ele>844.0</ele><time>2026-05-03T09:13:09.02Z</time></trkpt><trkpt lat="37.6583194" lon="15.0651668"><ele>843.9999999999999</ele><time>2026-05-03T09:13:10.019Z</time></trkpt><trkpt lat="37.6582613" lon="15.0650797"><ele>844.0</ele><time>2026-05-03T09:13:12.019Z</time></trkpt><trkpt lat="37.6581853" lon="15.0650242"><ele>844.0</ele><time>2026-05-03T09:13:14.021Z</time></trkpt><trkpt lat="37.6580654" lon="15.0650383"><ele>844.0</ele><time>2026-05-03T09:13:16.02Z</time></trkpt><trkpt lat="37.6579963" lon="15.0650653"><ele>843.9999999999999</ele><time>2026-05-03T09:13:17.019Z</time></trkpt><trkpt lat="37.6579286" lon="15.0650895"><ele>844.0</ele><time>2026-05-03T09:13:18.02Z</time></trkpt><trkpt lat="37.6578683" lon="15.0651148"><ele>842.2</ele><time>2026-05-03T09:13:19.02Z</time></trkpt><trkpt lat="37.6577475" lon="15.0651412"><ele>840.4000000000001</ele><time>2026-05-03T09:13:21.02Z</time></trkpt><trkpt lat="37.6576824" lon="15.0651423"><ele>838.6</ele><time>2026-05-03T09:13:22.02Z</time></trkpt><trkpt lat="37.6575578" lon="15.0651379"><ele>836.8</ele><time>2026-05-03T09:13:24.019Z</time></trkpt><trkpt lat="37.6574457" lon="15.0651223"><ele>835.0</ele><time>2026-05-03T09:13:26.021Z</time></trkpt><trkpt lat="37.6573327" lon="15.0651185"><ele>835.0</ele><time>2026-05-03T09:13:28.018Z</time></trkpt><trkpt lat="37.6572251" lon="15.0651115"><ele>835.0</ele><time>2026-05-03T09:13:30.02Z</time></trkpt><trkpt lat="37.6571301" lon="15.0651071"><ele>835.0</ele><time>2026-05-03T09:13:32.02Z</time></trkpt><trkpt lat="37.6570412" lon="15.0651133"><ele>835.0</ele><time>2026-05-03T09:13:34.02Z</time></trkpt><trkpt lat="37.6569464" lon="15.0651137"><ele>835.0</ele><time>2026-05-03T09:13:36.02Z</time></trkpt><trkpt lat="37.6568556" lon="15.0651431"><ele>833.5</ele><time>2026-05-03T09:13:38.019Z</time></trkpt><trkpt lat="37.656763" lon="15.0652159"><ele>832.0</ele><time>2026-05-03T09:13:40.019Z</time></trkpt><trkpt lat="37.6566588" lon="15.0652946"><ele>830.5</ele><time>2026-05-03T09:13:42.019Z</time></trkpt><trkpt lat="37.6565621" lon="15.0653728"><ele>829.0</ele><time>2026-05-03T09:13:44.019Z</time></trkpt><trkpt lat="37.6564643" lon="15.0654206"><ele>828.9999999999999</ele><time>2026-05-03T09:13:46.02Z</time></trkpt><trkpt lat="37.6563503" lon="15.0654768"><ele>829.0</ele><time>2026-05-03T09:13:48.019Z</time></trkpt><trkpt lat="37.6562872" lon="15.0654975"><ele>829.0</ele><time>2026-05-03T09:13:49.02Z</time></trkpt><trkpt lat="37.6562168" lon="15.0655282"><ele>829.0</ele><time>2026-05-03T09:13:50.02Z</time></trkpt><trkpt lat="37.6561471" lon="15.0655359"><ele>828.9999999999999</ele><time>2026-05-03T09:13:51.021Z</time></trkpt><trkpt lat="37.6560673" lon="15.0655463"><ele>829.0</ele><time>2026-05-03T09:13:52.019Z</time></trkpt><trkpt lat="37.6559941" lon="15.0655545"><ele>829.6666666666666</ele><time>2026-05-03T09:13:53.02Z</time></trkpt><trkpt lat="37.6559225" lon="15.0655906"><ele>830.3333333333333</ele><time>2026-05-03T09:13:54.02Z</time></trkpt><trkpt lat="37.6558094" lon="15.0656308"><ele>831.0</ele><time>2026-05-03T09:13:56.021Z</time></trkpt><trkpt lat="37.6557488" lon="15.0656598"><ele>831.6666666666667</ele><time>2026-05-03T09:13:57.02Z</time></trkpt><trkpt lat="37.6556414" lon="15.0657079"><ele>832.3333333333334</ele><time>2026-05-03T09:13:59.02Z</time></trkpt><trkpt lat="37.6555761" lon="15.0657325"><ele>833.0</ele><time>2026-05-03T09:14:00.021Z</time></trkpt><trkpt lat="37.65551" lon="15.0657611"><ele>831.6666666666667</ele><time>2026-05-03T09:14:01.019Z</time></trkpt><trkpt lat="37.6554447" lon="15.0657821"><ele>830.3333333333334</ele><time>2026-05-03T09:14:02.02Z</time></trkpt><trkpt lat="37.6553827" lon="15.0657993"><ele>829.0</ele><time>2026-05-03T09:14:03.02Z</time></trkpt><trkpt lat="37.655262" lon="15.0658537"><ele>827.6666666666667</ele><time>2026-05-03T09:14:05.021Z</time></trkpt><trkpt lat="37.6551917" lon="15.0658752"><ele>826.3333333333334</ele><time>2026-05-03T09:14:06.019Z</time></trkpt><trkpt lat="37.6551241" lon="15.0659003"><ele>825.0</ele><time>2026-05-03T09:14:07.02Z</time></trkpt><trkpt lat="37.6549993" lon="15.0659396"><ele>823.8</ele><time>2026-05-03T09:14:09.019Z</time></trkpt><trkpt lat="37.6549367" lon="15.0659783"><ele>822.6</ele><time>2026-05-03T09:14:11.02Z</time></trkpt><trkpt lat="37.654863" lon="15.066031"><ele>821.4000000000001</ele><time>2026-05-03T09:14:13.02Z</time></trkpt><trkpt lat="37.6547814" lon="15.0660953"><ele>820.2</ele><time>2026-05-03T09:14:15.019Z</time></trkpt><trkpt lat="37.6546957" lon="15.0661803"><ele>819.0</ele><time>2026-05-03T09:14:17.021Z</time></trkpt><trkpt lat="37.6546134" lon="15.0662447"><ele>819.0</ele><time>2026-05-03T09:14:19.019Z</time></trkpt><trkpt lat="37.6545417" lon="15.0663054"><ele>819.0</ele><time>2026-05-03T09:14:21.02Z</time></trkpt><trkpt lat="37.6544573" lon="15.0663798"><ele>819.0</ele><time>2026-05-03T09:14:23.02Z</time></trkpt><trkpt lat="37.6543826" lon="15.0664381"><ele>819.0</ele><time>2026-05-03T09:14:25.019Z</time></trkpt><trkpt lat="37.6543126" lon="15.0664987"><ele>819.0</ele><time>2026-05-03T09:14:27.019Z</time></trkpt><trkpt lat="37.654243" lon="15.0665545"><ele>819.0</ele><time>2026-05-03T09:14:29.021Z</time></trkpt><trkpt lat="37.6541665" lon="15.0666134"><ele>816.8000000000001</ele><time>2026-05-03T09:14:31.02Z</time></trkpt><trkpt lat="37.6540887" lon="15.0666696"><ele>814.6</ele><time>2026-05-03T09:14:33.021Z</time></trkpt><trkpt lat="37.6539825" lon="15.0667186"><ele>812.4</ele><time>2026-05-03T09:14:35.02Z</time></trkpt><trkpt lat="37.6538679" lon="15.0667723"><ele>810.2</ele><time>2026-05-03T09:14:37.02Z</time></trkpt><trkpt lat="37.6537545" lon="15.066832"><ele>808.0</ele><time>2026-05-03T09:14:39.02Z</time></trkpt><trkpt lat="37.6536468" lon="15.0669121"><ele>807.5714285714286</ele><time>2026-05-03T09:14:41.02Z</time></trkpt><trkpt lat="37.6535911" lon="15.0669513"><ele>807.1428571428571</ele><time>2026-05-03T09:14:42.02Z</time></trkpt><trkpt lat="37.6535337" lon="15.0669941"><ele>806.7142857142858</ele><time>2026-05-03T09:14:43.02Z</time></trkpt><trkpt lat="37.6534735" lon="15.0670215"><ele>806.2857142857142</ele><time>2026-05-03T09:14:44.021Z</time></trkpt><trkpt lat="37.6534156" lon="15.06707"><ele>805.8571428571429</ele><time>2026-05-03T09:14:45.02Z</time></trkpt><trkpt lat="37.6533586" lon="15.0671138"><ele>805.4285714285714</ele><time>2026-05-03T09:14:46.019Z</time></trkpt><trkpt lat="37.6532994" lon="15.0671515"><ele>805.0</ele><time>2026-05-03T09:14:47.021Z</time></trkpt><trkpt lat="37.6532386" lon="15.0671939"><ele>804.9999999999999</ele><time>2026-05-03T09:14:48.021Z</time></trkpt><trkpt lat="37.6531767" lon="15.0672438"><ele>805.0</ele><time>2026-05-03T09:14:49.02Z</time></trkpt><trkpt lat="37.6531199" lon="15.0672796"><ele>805.0</ele><time>2026-05-03T09:14:50.02Z</time></trkpt><trkpt lat="37.6530503" lon="15.0673133"><ele>805.0</ele><time>2026-05-03T09:14:51.02Z</time></trkpt><trkpt lat="37.6529818" lon="15.0673319"><ele>804.9999999999999</ele><time>2026-05-03T09:14:52.018Z</time></trkpt><trkpt lat="37.6528643" lon="15.0673302"><ele>805.0</ele><time>2026-05-03T09:14:54.02Z</time></trkpt><trkpt lat="37.6528001" lon="15.0673323"><ele>804.3333333333333</ele><time>2026-05-03T09:14:55.02Z</time></trkpt><trkpt lat="37.6527315" lon="15.0673344"><ele>803.6666666666666</ele><time>2026-05-03T09:14:56.02Z</time></trkpt><trkpt lat="37.652662" lon="15.0673345"><ele>803.0</ele><time>2026-05-03T09:14:57.021Z</time></trkpt><trkpt lat="37.6525957" lon="15.0673314"><ele>802.3333333333333</ele><time>2026-05-03T09:14:58.02Z</time></trkpt><trkpt lat="37.6525312" lon="15.0673329"><ele>801.6666666666666</ele><time>2026-05-03T09:14:59.021Z</time></trkpt><trkpt lat="37.6524083" lon="15.0673697"><ele>801.0</ele><time>2026-05-03T09:15:01.02Z</time></trkpt><trkpt lat="37.6523413" lon="15.0674101"><ele>800.0</ele><time>2026-05-03T09:15:02.02Z</time></trkpt><trkpt lat="37.6522837" lon="15.06746"><ele>799.0</ele><time>2026-05-03T09:15:03.02Z</time></trkpt><trkpt lat="37.6522292" lon="15.0675057"><ele>798.0</ele><time>2026-05-03T09:15:04.02Z</time></trkpt><trkpt lat="37.6521769" lon="15.067551"><ele>797.0</ele><time>2026-05-03T09:15:05.019Z</time></trkpt><trkpt lat="37.6520765" lon="15.0676345"><ele>796.0</ele><time>2026-05-03T09:15:07.02Z</time></trkpt><trkpt lat="37.6520166" lon="15.0676617"><ele>795.0</ele><time>2026-05-03T09:15:08.019Z</time></trkpt><trkpt lat="37.6519553" lon="15.0676882"><ele>794.0</ele><time>2026-05-03T09:15:09.02Z</time></trkpt><trkpt lat="37.6518395" lon="15.0677479"><ele>794.0000000000001</ele><time>2026-05-03T09:15:11.02Z</time></trkpt><trkpt lat="37.6517775" lon="15.0677771"><ele>794.0</ele><time>2026-05-03T09:15:12.019Z</time></trkpt><trkpt lat="37.6517147" lon="15.0678142"><ele>794.0</ele><time>2026-05-03T09:15:13.02Z</time></trkpt><trkpt lat="37.6516021" lon="15.0678878"><ele>794.0</ele><time>2026-05-03T09:15:15.02Z</time></trkpt><trkpt lat="37.6515433" lon="15.0679387"><ele>794.0000000000001</ele><time>2026-05-03T09:15:16.019Z</time></trkpt><trkpt lat="37.6514921" lon="15.0679912"><ele>794.0</ele><time>2026-05-03T09:15:17.021Z</time></trkpt><trkpt lat="37.6514409" lon="15.0680409"><ele>794.0000000000001</ele><time>2026-05-03T09:15:18.019Z</time></trkpt><trkpt lat="37.6513841" lon="15.0680876"><ele>794.0</ele><time>2026-05-03T09:15:19.019Z</time></trkpt><trkpt lat="37.6513328" lon="15.0681339"><ele>794.0</ele><time>2026-05-03T09:15:20.019Z</time></trkpt><trkpt lat="37.6512815" lon="15.0681853"><ele>794.0</ele><time>2026-05-03T09:15:21.021Z</time></trkpt><trkpt lat="37.6512296" lon="15.0682354"><ele>794.0000000000001</ele><time>2026-05-03T09:15:22.019Z</time></trkpt><trkpt lat="37.6511595" lon="15.068266"><ele>794.0</ele><time>2026-05-03T09:15:23.021Z</time></trkpt><trkpt lat="37.6510391" lon="15.0683166"><ele>793.0</ele><time>2026-05-03T09:15:25.02Z</time></trkpt><trkpt lat="37.6509253" lon="15.0683603"><ele>792.0</ele><time>2026-05-03T09:15:27.021Z</time></trkpt><trkpt lat="37.6508253" lon="15.0684244"><ele>791.0</ele><time>2026-05-03T09:15:29.02Z</time></trkpt><trkpt lat="37.6508024" lon="15.0685404"><ele>790.0</ele><time>2026-05-03T09:15:31.019Z</time></trkpt><trkpt lat="37.6508387" lon="15.0686513"><ele>789.0</ele><time>2026-05-03T09:15:33.021Z</time></trkpt><trkpt lat="37.6509003" lon="15.0687467"><ele>789.0</ele><time>2026-05-03T09:15:35.02Z</time></trkpt><trkpt lat="37.6509678" lon="15.0688438"><ele>789.0</ele><time>2026-05-03T09:15:37.02Z</time></trkpt><trkpt lat="37.6510373" lon="15.0689202"><ele>789.0</ele><time>2026-05-03T09:15:39.021Z</time></trkpt><trkpt lat="37.6510881" lon="15.0689971"><ele>789.0</ele><time>2026-05-03T09:15:41.021Z</time></trkpt><trkpt lat="37.6511481" lon="15.0690784"><ele>789.0</ele><time>2026-05-03T09:15:43.019Z</time></trkpt><trkpt lat="37.6512183" lon="15.0691636"><ele>787.2</ele><time>2026-05-03T09:15:45.02Z</time></trkpt><trkpt lat="37.6513016" lon="15.0692553"><ele>785.4000000000001</ele><time>2026-05-03T09:15:47.021Z</time></trkpt><trkpt lat="37.6513695" lon="15.069342"><ele>783.6</ele><time>2026-05-03T09:15:49.02Z</time></trkpt><trkpt lat="37.6514337" lon="15.0694122"><ele>781.8</ele><time>2026-05-03T09:15:51.019Z</time></trkpt><trkpt lat="37.6514852" lon="15.0694774"><ele>780.0</ele><time>2026-05-03T09:15:53.02Z</time></trkpt><trkpt lat="37.651567" lon="15.0695296"><ele>780.0</ele><time>2026-05-03T09:15:55.02Z</time></trkpt><trkpt lat="37.6516395" lon="15.0695864"><ele>780.0</ele><time>2026-05-03T09:15:57.018Z</time></trkpt><trkpt lat="37.6517218" lon="15.0696208"><ele>780.0</ele><time>2026-05-03T09:15:59.02Z</time></trkpt><trkpt lat="37.6518044" lon="15.0696659"><ele>780.0</ele><time>2026-05-03T09:16:01.02Z</time></trkpt><trkpt lat="37.6518915" lon="15.0697141"><ele>780.0</ele><time>2026-05-03T09:16:03.02Z</time></trkpt><trkpt lat="37.651971" lon="15.0697841"><ele>779.8</ele><time>2026-05-03T09:16:05.021Z</time></trkpt><trkpt lat="37.6520249" lon="15.0698781"><ele>779.6</ele><time>2026-05-03T09:16:07.02Z</time></trkpt><trkpt lat="37.6520362" lon="15.0699901"><ele>779.4000000000001</ele><time>2026-05-03T09:16:09.02Z</time></trkpt><trkpt lat="37.6520381" lon="15.0701084"><ele>779.2</ele><time>2026-05-03T09:16:11.021Z</time></trkpt><trkpt lat="37.6520444" lon="15.0702428"><ele>779.0</ele><time>2026-05-03T09:16:13.021Z</time></trkpt><trkpt lat="37.6520214" lon="15.0703712"><ele>777.75</ele><time>2026-05-03T09:16:15.02Z</time></trkpt><trkpt lat="37.6520015" lon="15.0705118"><ele>776.5</ele><time>2026-05-03T09:16:17.021Z</time></trkpt><trkpt lat="37.6519861" lon="15.0706706"><ele>775.25</ele><time>2026-05-03T09:16:19.019Z</time></trkpt><trkpt lat="37.6519791" lon="15.0708169"><ele>774.0</ele><time>2026-05-03T09:16:21.02Z</time></trkpt><trkpt lat="37.6520182" lon="15.0709556"><ele>773.6</ele><time>2026-05-03T09:16:23.02Z</time></trkpt><trkpt lat="37.6520454" lon="15.0710944"><ele>773.2</ele><time>2026-05-03T09:16:25.02Z</time></trkpt><trkpt lat="37.6520762" lon="15.0712429"><ele>772.8000000000001</ele><time>2026-05-03T09:16:27.021Z</time></trkpt><trkpt lat="37.6520935" lon="15.0713308"><ele>772.4000000000001</ele><time>2026-05-03T09:16:28.02Z</time></trkpt><trkpt lat="37.6521192" lon="15.0714237"><ele>772.0</ele><time>2026-05-03T09:16:29.021Z</time></trkpt><trkpt lat="37.652156" lon="15.0715696"><ele>771.6666666666666</ele><time>2026-05-03T09:16:31.02Z</time></trkpt><trkpt lat="37.6521659" lon="15.0716518"><ele>771.3333333333333</ele><time>2026-05-03T09:16:32.021Z</time></trkpt><trkpt lat="37.6521689" lon="15.0717383"><ele>771.0</ele><time>2026-05-03T09:16:33.019Z</time></trkpt><trkpt lat="37.652142" lon="15.0718913"><ele>770.6666666666667</ele><time>2026-05-03T09:16:35.019Z</time></trkpt><trkpt lat="37.652111" lon="15.0719783"><ele>770.3333333333334</ele><time>2026-05-03T09:16:36.02Z</time></trkpt><trkpt lat="37.6520863" lon="15.0720593"><ele>770.0</ele><time>2026-05-03T09:16:37.021Z</time></trkpt><trkpt lat="37.6520649" lon="15.0721354"><ele>770.0</ele><time>2026-05-03T09:16:38.019Z</time></trkpt><trkpt lat="37.6520249" lon="15.0722213"><ele>770.0</ele><time>2026-05-03T09:16:39.021Z</time></trkpt><trkpt lat="37.6519874" lon="15.072296"><ele>770.0</ele><time>2026-05-03T09:16:40.019Z</time></trkpt><trkpt lat="37.6519414" lon="15.0723593"><ele>770.0</ele><time>2026-05-03T09:16:41.021Z</time></trkpt><trkpt lat="37.6518676" lon="15.0724956"><ele>770.0</ele><time>2026-05-03T09:16:43.02Z</time></trkpt><trkpt lat="37.6518033" lon="15.0726391"><ele>769.4</ele><time>2026-05-03T09:16:45.02Z</time></trkpt><trkpt lat="37.651725" lon="15.0727731"><ele>768.8</ele><time>2026-05-03T09:16:47.02Z</time></trkpt><trkpt lat="37.6516905" lon="15.0728458"><ele>768.2</ele><time>2026-05-03T09:16:48.02Z</time></trkpt><trkpt lat="37.6516209" lon="15.0729701"><ele>767.6</ele><time>2026-05-03T09:16:50.019Z</time></trkpt><trkpt lat="37.651602" lon="15.0730528"><ele>767.0</ele><time>2026-05-03T09:16:51.02Z</time></trkpt><trkpt lat="37.6515834" lon="15.0731375"><ele>767.0</ele><time>2026-05-03T09:16:52.021Z</time></trkpt><trkpt lat="37.6515722" lon="15.0732311"><ele>767.0</ele><time>2026-05-03T09:16:53.021Z</time></trkpt><trkpt lat="37.6515676" lon="15.0733167"><ele>767.0</ele><time>2026-05-03T09:16:54.02Z</time></trkpt><trkpt lat="37.6515679" lon="15.0733998"><ele>767.0</ele><time>2026-05-03T09:16:55.02Z</time></trkpt><trkpt lat="37.6515741" lon="15.0734817"><ele>767.0</ele><time>2026-05-03T09:16:56.02Z</time></trkpt><trkpt lat="37.651586" lon="15.0735762"><ele>767.0</ele><time>2026-05-03T09:16:57.021Z</time></trkpt><trkpt lat="37.6516136" lon="15.0736723"><ele>767.0</ele><time>2026-05-03T09:16:58.02Z</time></trkpt><trkpt lat="37.6516509" lon="15.0737509"><ele>766.1666666666666</ele><time>2026-05-03T09:16:59.018Z</time></trkpt><trkpt lat="37.6516836" lon="15.0738412"><ele>765.3333333333333</ele><time>2026-05-03T09:17:00.019Z</time></trkpt><trkpt lat="37.6517208" lon="15.0739221"><ele>764.5</ele><time>2026-05-03T09:17:01.021Z</time></trkpt><trkpt lat="37.6517548" lon="15.0740145"><ele>763.6666666666666</ele><time>2026-05-03T09:17:02.021Z</time></trkpt><trkpt lat="37.6517888" lon="15.074098"><ele>762.8333333333334</ele><time>2026-05-03T09:17:03.02Z</time></trkpt><trkpt lat="37.6518197" lon="15.0741846"><ele>762.0</ele><time>2026-05-03T09:17:04.019Z</time></trkpt><trkpt lat="37.6518589" lon="15.0742721"><ele>761.6666666666666</ele><time>2026-05-03T09:17:05.021Z</time></trkpt><trkpt lat="37.6518908" lon="15.0743704"><ele>761.3333333333334</ele><time>2026-05-03T09:17:06.021Z</time></trkpt><trkpt lat="37.6519281" lon="15.0744684"><ele>761.0</ele><time>2026-05-03T09:17:07.019Z</time></trkpt><trkpt lat="37.6519602" lon="15.0745632"><ele>760.6666666666667</ele><time>2026-05-03T09:17:08.02Z</time></trkpt><trkpt lat="37.6519963" lon="15.0746628"><ele>760.3333333333334</ele><time>2026-05-03T09:17:09.02Z</time></trkpt><trkpt lat="37.6520326" lon="15.0747487"><ele>760.0</ele><time>2026-05-03T09:17:10.02Z</time></trkpt><trkpt lat="37.6520669" lon="15.0748384"><ele>760.0</ele><time>2026-05-03T09:17:11.019Z</time></trkpt><trkpt lat="37.6521016" lon="15.0749235"><ele>760.0</ele><time>2026-05-03T09:17:12.02Z</time></trkpt><trkpt lat="37.6521354" lon="15.0750049"><ele>760.0</ele><time>2026-05-03T09:17:13.021Z</time></trkpt><trkpt lat="37.6521842" lon="15.0751453"><ele>760.0</ele><time>2026-05-03T09:17:15.019Z</time></trkpt><trkpt lat="37.6522191" lon="15.0752196"><ele>760.0</ele><time>2026-05-03T09:17:16.021Z</time></trkpt><trkpt lat="37.6522574" lon="15.0752851"><ele>760.0</ele><time>2026-05-03T09:17:17.02Z</time></trkpt><trkpt lat="37.6523173" lon="15.0753537"><ele>759.1428571428571</ele><time>2026-05-03T09:17:18.02Z</time></trkpt><trkpt lat="37.6523765" lon="15.0754207"><ele>758.2857142857143</ele><time>2026-05-03T09:17:19.02Z</time></trkpt><trkpt lat="37.652442" lon="15.0754767"><ele>757.4285714285713</ele><time>2026-05-03T09:17:20.02Z</time></trkpt><trkpt lat="37.6525084" lon="15.0755314"><ele>756.5714285714286</ele><time>2026-05-03T09:17:21.019Z</time></trkpt><trkpt lat="37.6525714" lon="15.0755816"><ele>755.7142857142857</ele><time>2026-05-03T09:17:22.021Z</time></trkpt><trkpt lat="37.6526288" lon="15.0756216"><ele>754.8571428571428</ele><time>2026-05-03T09:17:23.019Z</time></trkpt><trkpt lat="37.6526926" lon="15.0756542"><ele>754.0</ele><time>2026-05-03T09:17:24.018Z</time></trkpt><trkpt lat="37.6527554" lon="15.0756776"><ele>753.5714285714286</ele><time>2026-05-03T09:17:25.021Z</time></trkpt><trkpt lat="37.652819" lon="15.075688"><ele>753.1428571428571</ele><time>2026-05-03T09:17:26.02Z</time></trkpt><trkpt lat="37.6528831" lon="15.0757018"><ele>752.7142857142858</ele><time>2026-05-03T09:17:27.02Z</time></trkpt><trkpt lat="37.6529529" lon="15.0757163"><ele>752.2857142857142</ele><time>2026-05-03T09:17:28.021Z</time></trkpt><trkpt lat="37.653026" lon="15.0757271"><ele>751.8571428571429</ele><time>2026-05-03T09:17:29.02Z</time></trkpt><trkpt lat="37.6531073" lon="15.0757275"><ele>751.4285714285714</ele><time>2026-05-03T09:17:30.021Z</time></trkpt><trkpt lat="37.6532005" lon="15.0757153"><ele>751.0</ele><time>2026-05-03T09:17:31.02Z</time></trkpt><trkpt lat="37.6533043" lon="15.0756924"><ele>751.0</ele><time>2026-05-03T09:17:32.021Z</time></trkpt><trkpt lat="37.6534043" lon="15.0756639"><ele>751.0</ele><time>2026-05-03T09:17:33.02Z</time></trkpt><trkpt lat="37.6535045" lon="15.0756301"><ele>751.0</ele><time>2026-05-03T09:17:34.021Z</time></trkpt><trkpt lat="37.6535962" lon="15.075605"><ele>751.0</ele><time>2026-05-03T09:17:35.021Z</time></trkpt><trkpt lat="37.6536831" lon="15.0755838"><ele>751.0</ele><time>2026-05-03T09:17:36.019Z</time></trkpt><trkpt lat="37.6537502" lon="15.0755663"><ele>749.8571428571429</ele><time>2026-05-03T09:17:37.02Z</time></trkpt><trkpt lat="37.6538168" lon="15.0755473"><ele>748.7142857142858</ele><time>2026-05-03T09:17:38.021Z</time></trkpt><trkpt lat="37.6538836" lon="15.0755278"><ele>747.5714285714287</ele><time>2026-05-03T09:17:39.021Z</time></trkpt><trkpt lat="37.6539493" lon="15.0755072"><ele>746.4285714285714</ele><time>2026-05-03T09:17:40.021Z</time></trkpt><trkpt lat="37.6540231" lon="15.0754868"><ele>745.2857142857142</ele><time>2026-05-03T09:17:41.021Z</time></trkpt><trkpt lat="37.6540974" lon="15.0754788"><ele>744.1428571428572</ele><time>2026-05-03T09:17:42.021Z</time></trkpt><trkpt lat="37.6541734" lon="15.0754673"><ele>743.0</ele><time>2026-05-03T09:17:43.02Z</time></trkpt><trkpt lat="37.6542408" lon="15.0754558"><ele>743.0</ele><time>2026-05-03T09:17:44.021Z</time></trkpt><trkpt lat="37.6543059" lon="15.0754442"><ele>743.0</ele><time>2026-05-03T09:17:45.021Z</time></trkpt><trkpt lat="37.6544288" lon="15.0754187"><ele>743.0</ele><time>2026-05-03T09:17:47.019Z</time></trkpt><trkpt lat="37.654492" lon="15.075405"><ele>743.0</ele><time>2026-05-03T09:17:48.02Z</time></trkpt><trkpt lat="37.6546111" lon="15.0753731"><ele>743.0</ele><time>2026-05-03T09:17:50.02Z</time></trkpt><trkpt lat="37.6546738" lon="15.0753546"><ele>743.0</ele><time>2026-05-03T09:17:51.021Z</time></trkpt><trkpt lat="37.6547359" lon="15.075333"><ele>743.0</ele><time>2026-05-03T09:17:52.02Z</time></trkpt><trkpt lat="37.6548018" lon="15.0753147"><ele>743.0</ele><time>2026-05-03T09:17:53.02Z</time></trkpt><trkpt lat="37.6548674" lon="15.0752916"><ele>743.0</ele><time>2026-05-03T09:17:54.021Z</time></trkpt><trkpt lat="37.6549357" lon="15.075262"><ele>743.0</ele><time>2026-05-03T09:17:55.021Z</time></trkpt><trkpt lat="37.6550034" lon="15.0752339"><ele>743.0</ele><time>2026-05-03T09:17:56.021Z</time></trkpt><trkpt lat="37.6550668" lon="15.0751975"><ele>743.0</ele><time>2026-05-03T09:17:57.02Z</time></trkpt><trkpt lat="37.6551342" lon="15.0751656"><ele>743.0</ele><time>2026-05-03T09:17:58.02Z</time></trkpt><trkpt lat="37.655202" lon="15.0751269"><ele>743.0</ele><time>2026-05-03T09:17:59.021Z</time></trkpt><trkpt lat="37.6552676" lon="15.0750847"><ele>743.0</ele><time>2026-05-03T09:18:00.019Z</time></trkpt><trkpt lat="37.6553325" lon="15.075052"><ele>743.0</ele><time>2026-05-03T09:18:01.02Z</time></trkpt><trkpt lat="37.6554016" lon="15.075019"><ele>743.0</ele><time>2026-05-03T09:18:02.019Z</time></trkpt><trkpt lat="37.6554661" lon="15.0749879"><ele>743.0</ele><time>2026-05-03T09:18:03.02Z</time></trkpt><trkpt lat="37.6555324" lon="15.0749524"><ele>743.0</ele><time>2026-05-03T09:18:04.02Z</time></trkpt><trkpt lat="37.6555938" lon="15.0749146"><ele>743.0</ele><time>2026-05-03T09:18:05.02Z</time></trkpt><trkpt lat="37.6556568" lon="15.0748743"><ele>742.7142857142858</ele><time>2026-05-03T09:18:06.019Z</time></trkpt><trkpt lat="37.6557193" lon="15.0748405"><ele>742.4285714285713</ele><time>2026-05-03T09:18:07.02Z</time></trkpt><trkpt lat="37.6557828" lon="15.074808"><ele>742.1428571428571</ele><time>2026-05-03T09:18:08.02Z</time></trkpt><trkpt lat="37.6558476" lon="15.0747758"><ele>741.8571428571429</ele><time>2026-05-03T09:18:09.02Z</time></trkpt><trkpt lat="37.655911" lon="15.0747416"><ele>741.5714285714287</ele><time>2026-05-03T09:18:10.02Z</time></trkpt><trkpt lat="37.6559738" lon="15.0747125"><ele>741.2857142857142</ele><time>2026-05-03T09:18:11.019Z</time></trkpt><trkpt lat="37.6560417" lon="15.0746998"><ele>741.0</ele><time>2026-05-03T09:18:12.021Z</time></trkpt><trkpt lat="37.6561136" lon="15.0746875"><ele>740.2857142857142</ele><time>2026-05-03T09:18:13.021Z</time></trkpt><trkpt lat="37.6561842" lon="15.0746871"><ele>739.5714285714287</ele><time>2026-05-03T09:18:14.021Z</time></trkpt><trkpt lat="37.6562572" lon="15.0746894"><ele>738.8571428571429</ele><time>2026-05-03T09:18:15.021Z</time></trkpt><trkpt lat="37.656333" lon="15.0746929"><ele>738.1428571428571</ele><time>2026-05-03T09:18:16.019Z</time></trkpt><trkpt lat="37.6564057" lon="15.0746973"><ele>737.4285714285713</ele><time>2026-05-03T09:18:17.02Z</time></trkpt><trkpt lat="37.6564779" lon="15.0747093"><ele>736.7142857142858</ele><time>2026-05-03T09:18:18.02Z</time></trkpt><trkpt lat="37.656549" lon="15.0747312"><ele>736.0</ele><time>2026-05-03T09:18:19.02Z</time></trkpt><trkpt lat="37.6566132" lon="15.0747556"><ele>736.0</ele><time>2026-05-03T09:18:20.021Z</time></trkpt><trkpt lat="37.6567249" lon="15.0748022"><ele>736.0</ele><time>2026-05-03T09:18:22.019Z</time></trkpt><trkpt lat="37.6568274" lon="15.0748749"><ele>736.0</ele><time>2026-05-03T09:18:24.021Z</time></trkpt><trkpt lat="37.6568793" lon="15.0750084"><ele>736.0</ele><time>2026-05-03T09:18:26.021Z</time></trkpt><trkpt lat="37.6568935" lon="15.0750878"><ele>736.0</ele><time>2026-05-03T09:18:27.02Z</time></trkpt><trkpt lat="37.656905" lon="15.075173"><ele>735.5714285714286</ele><time>2026-05-03T09:18:28.02Z</time></trkpt><trkpt lat="37.6569195" lon="15.0752517"><ele>735.1428571428571</ele><time>2026-05-03T09:18:29.02Z</time></trkpt><trkpt lat="37.6569285" lon="15.0753362"><ele>734.7142857142857</ele><time>2026-05-03T09:18:30.02Z</time></trkpt><trkpt lat="37.6569462" lon="15.0754207"><ele>734.2857142857142</ele><time>2026-05-03T09:18:31.021Z</time></trkpt><trkpt lat="37.6569533" lon="15.0755198"><ele>733.8571428571429</ele><time>2026-05-03T09:18:32.02Z</time></trkpt><trkpt lat="37.6569612" lon="15.0756129"><ele>733.4285714285713</ele><time>2026-05-03T09:18:33.019Z</time></trkpt><trkpt lat="37.6569719" lon="15.0756962"><ele>733.0</ele><time>2026-05-03T09:18:34.02Z</time></trkpt><trkpt lat="37.6569905" lon="15.0757742"><ele>733.0</ele><time>2026-05-03T09:18:35.021Z</time></trkpt><trkpt lat="37.6570257" lon="15.0759151"><ele>733.0</ele><time>2026-05-03T09:18:37.021Z</time></trkpt><trkpt lat="37.6570763" lon="15.0760472"><ele>733.0</ele><time>2026-05-03T09:18:39.02Z</time></trkpt><trkpt lat="37.6571566" lon="15.0761658"><ele>733.0</ele><time>2026-05-03T09:18:41.018Z</time></trkpt><trkpt lat="37.6572031" lon="15.076222"><ele>733.0</ele><time>2026-05-03T09:18:42.021Z</time></trkpt><trkpt lat="37.6572513" lon="15.0762809"><ele>732.9999999999999</ele><time>2026-05-03T09:18:43.02Z</time></trkpt><trkpt lat="37.6573068" lon="15.0763351"><ele>733.0</ele><time>2026-05-03T09:18:44.021Z</time></trkpt><trkpt lat="37.6573671" lon="15.0763817"><ele>733.0</ele><time>2026-05-03T09:18:45.021Z</time></trkpt><trkpt lat="37.6574276" lon="15.0764238"><ele>733.0</ele><time>2026-05-03T09:18:46.021Z</time></trkpt><trkpt lat="37.6574929" lon="15.0764628"><ele>733.0</ele><time>2026-05-03T09:18:47.021Z</time></trkpt><trkpt lat="37.657557" lon="15.0765001"><ele>732.9999999999999</ele><time>2026-05-03T09:18:48.021Z</time></trkpt><trkpt lat="37.6576167" lon="15.0765454"><ele>733.0</ele><time>2026-05-03T09:18:49.019Z</time></trkpt><trkpt lat="37.6576784" lon="15.0765917"><ele>732.6666666666667</ele><time>2026-05-03T09:18:50.02Z</time></trkpt><trkpt lat="37.657742" lon="15.0766433"><ele>732.3333333333334</ele><time>2026-05-03T09:18:51.02Z</time></trkpt><trkpt lat="37.6577944" lon="15.0766943"><ele>732.0</ele><time>2026-05-03T09:18:52.02Z</time></trkpt><trkpt lat="37.6578421" lon="15.0767466"><ele>731.6666666666666</ele><time>2026-05-03T09:18:53.021Z</time></trkpt><trkpt lat="37.6578925" lon="15.0767943"><ele>731.3333333333333</ele><time>2026-05-03T09:18:54.021Z</time></trkpt><trkpt lat="37.6579378" lon="15.0768516"><ele>731.0</ele><time>2026-05-03T09:18:55.02Z</time></trkpt><trkpt lat="37.6580082" lon="15.0769798"><ele>731.0</ele><time>2026-05-03T09:18:57.021Z</time></trkpt><trkpt lat="37.6580761" lon="15.0771063"><ele>731.0</ele><time>2026-05-03T09:18:59.021Z</time></trkpt><trkpt lat="37.6581294" lon="15.0772484"><ele>731.0</ele><time>2026-05-03T09:19:01.02Z</time></trkpt><trkpt lat="37.658153" lon="15.0774052"><ele>731.0</ele><time>2026-05-03T09:19:03.02Z</time></trkpt><trkpt lat="37.6581602" lon="15.0774928"><ele>731.0</ele><time>2026-05-03T09:19:04.021Z</time></trkpt><trkpt lat="37.6581627" lon="15.0775749"><ele>730.2857142857142</ele><time>2026-05-03T09:19:05.02Z</time></trkpt><trkpt lat="37.6581636" lon="15.0776621"><ele>729.5714285714286</ele><time>2026-05-03T09:19:06.02Z</time></trkpt><trkpt lat="37.6581671" lon="15.077749"><ele>728.8571428571429</ele><time>2026-05-03T09:19:07.02Z</time></trkpt><trkpt lat="37.658175" lon="15.0778414"><ele>728.1428571428571</ele><time>2026-05-03T09:19:08.021Z</time></trkpt><trkpt lat="37.658185" lon="15.077931"><ele>727.4285714285714</ele><time>2026-05-03T09:19:09.02Z</time></trkpt><trkpt lat="37.6581902" lon="15.0780123"><ele>726.7142857142857</ele><time>2026-05-03T09:19:10.021Z</time></trkpt><trkpt lat="37.6581924" lon="15.0780997"><ele>726.0</ele><time>2026-05-03T09:19:11.021Z</time></trkpt><trkpt lat="37.6581929" lon="15.0781883"><ele>725.0</ele><time>2026-05-03T09:19:12.021Z</time></trkpt><trkpt lat="37.658196" lon="15.0782698"><ele>724.0</ele><time>2026-05-03T09:19:13.021Z</time></trkpt><trkpt lat="37.6582078" lon="15.0784274"><ele>723.0</ele><time>2026-05-03T09:19:15.02Z</time></trkpt><trkpt lat="37.6582001" lon="15.0785832"><ele>722.0</ele><time>2026-05-03T09:19:17.021Z</time></trkpt><trkpt lat="37.6581795" lon="15.078667"><ele>721.0</ele><time>2026-05-03T09:19:18.019Z</time></trkpt><trkpt lat="37.6581539" lon="15.078749"><ele>721.0</ele><time>2026-05-03T09:19:19.02Z</time></trkpt><trkpt lat="37.6581164" lon="15.0788169"><ele>721.0</ele><time>2026-05-03T09:19:20.022Z</time></trkpt><trkpt lat="37.6580358" lon="15.0789437"><ele>721.0</ele><time>2026-05-03T09:19:22.021Z</time></trkpt><trkpt lat="37.6579923" lon="15.0790043"><ele>721.0</ele><time>2026-05-03T09:19:23.021Z</time></trkpt><trkpt lat="37.6579083" lon="15.0791276"><ele>721.0</ele><time>2026-05-03T09:19:25.02Z</time></trkpt><trkpt lat="37.6578157" lon="15.0792349"><ele>719.5714285714286</ele><time>2026-05-03T09:19:27.02Z</time></trkpt><trkpt lat="37.6577651" lon="15.0792939"><ele>718.1428571428571</ele><time>2026-05-03T09:19:28.019Z</time></trkpt><trkpt lat="37.6577161" lon="15.0793597"><ele>716.7142857142858</ele><time>2026-05-03T09:19:29.021Z</time></trkpt><trkpt lat="37.6576709" lon="15.079416"><ele>715.2857142857142</ele><time>2026-05-03T09:19:30.021Z</time></trkpt><trkpt lat="37.6576279" lon="15.0794851"><ele>713.8571428571429</ele><time>2026-05-03T09:19:31.02Z</time></trkpt><trkpt lat="37.657584" lon="15.0795517"><ele>712.4285714285714</ele><time>2026-05-03T09:19:32.02Z</time></trkpt><trkpt lat="37.6575458" lon="15.0796221"><ele>711.0</ele><time>2026-05-03T09:19:33.021Z</time></trkpt><trkpt lat="37.6575094" lon="15.0796879"><ele>711.0</ele><time>2026-05-03T09:19:34.021Z</time></trkpt><trkpt lat="37.6574721" lon="15.0797611"><ele>711.0</ele><time>2026-05-03T09:19:35.021Z</time></trkpt><trkpt lat="37.6574431" lon="15.0798331"><ele>711.0</ele><time>2026-05-03T09:19:36.02Z</time></trkpt><trkpt lat="37.657393" lon="15.0799847"><ele>711.0</ele><time>2026-05-03T09:19:38.021Z</time></trkpt><trkpt lat="37.6573722" lon="15.0800679"><ele>711.0</ele><time>2026-05-03T09:19:39.021Z</time></trkpt><trkpt lat="37.6573495" lon="15.0801479"><ele>711.0</ele><time>2026-05-03T09:19:40.021Z</time></trkpt><trkpt lat="37.6573288" lon="15.0802295"><ele>710.1999999999999</ele><time>2026-05-03T09:19:41.021Z</time></trkpt><trkpt lat="37.6572878" lon="15.0803777"><ele>709.4</ele><time>2026-05-03T09:19:43.02Z</time></trkpt><trkpt lat="37.6572677" lon="15.0804562"><ele>708.6</ele><time>2026-05-03T09:19:44.02Z</time></trkpt><trkpt lat="37.6572228" lon="15.0805984"><ele>707.8</ele><time>2026-05-03T09:19:46.019Z</time></trkpt><trkpt lat="37.6571332" lon="15.0807214"><ele>707.0</ele><time>2026-05-03T09:19:48.021Z</time></trkpt><trkpt lat="37.657086" lon="15.0807861"><ele>706.8333333333333</ele><time>2026-05-03T09:19:49.021Z</time></trkpt><trkpt lat="37.6570311" lon="15.0808463"><ele>706.6666666666666</ele><time>2026-05-03T09:19:50.02Z</time></trkpt><trkpt lat="37.6569793" lon="15.0809053"><ele>706.5</ele><time>2026-05-03T09:19:51.02Z</time></trkpt><trkpt lat="37.6569313" lon="15.0809638"><ele>706.3333333333334</ele><time>2026-05-03T09:19:52.02Z</time></trkpt><trkpt lat="37.6568429" lon="15.0810579"><ele>706.1666666666667</ele><time>2026-05-03T09:19:54.021Z</time></trkpt><trkpt lat="37.6567483" lon="15.0811542"><ele>706.0</ele><time>2026-05-03T09:19:56.02Z</time></trkpt><trkpt lat="37.6566692" lon="15.0812563"><ele>704.0</ele><time>2026-05-03T09:19:58.021Z</time></trkpt><trkpt lat="37.6566086" lon="15.0813943"><ele>702.0</ele><time>2026-05-03T09:20:00.021Z</time></trkpt><trkpt lat="37.656605" lon="15.0815501"><ele>700.0</ele><time>2026-05-03T09:20:02.02Z</time></trkpt><trkpt lat="37.6566226" lon="15.0816374"><ele>698.0</ele><time>2026-05-03T09:20:03.021Z</time></trkpt><trkpt lat="37.6566536" lon="15.0817149"><ele>696.0</ele><time>2026-05-03T09:20:04.02Z</time></trkpt><trkpt lat="37.6566888" lon="15.0817966"><ele>695.5999999999999</ele><time>2026-05-03T09:20:05.021Z</time></trkpt><trkpt lat="37.6567241" lon="15.0818772"><ele>695.2</ele><time>2026-05-03T09:20:06.021Z</time></trkpt><trkpt lat="37.6567615" lon="15.0819497"><ele>694.8</ele><time>2026-05-03T09:20:07.02Z</time></trkpt><trkpt lat="37.6568278" lon="15.0820765"><ele>694.4000000000001</ele><time>2026-05-03T09:20:09.021Z</time></trkpt><trkpt lat="37.6568733" lon="15.0822216"><ele>694.0</ele><time>2026-05-03T09:20:11.02Z</time></trkpt><trkpt lat="37.6568936" lon="15.0823011"><ele>694.0</ele><time>2026-05-03T09:20:12.02Z</time></trkpt><trkpt lat="37.6569066" lon="15.0823829"><ele>694.0</ele><time>2026-05-03T09:20:13.021Z</time></trkpt><trkpt lat="37.6569135" lon="15.0824636"><ele>694.0</ele><time>2026-05-03T09:20:14.021Z</time></trkpt><trkpt lat="37.6569063" lon="15.0825469"><ele>694.0</ele><time>2026-05-03T09:20:15.02Z</time></trkpt><trkpt lat="37.6568899" lon="15.0826297"><ele>694.0</ele><time>2026-05-03T09:20:16.021Z</time></trkpt><trkpt lat="37.6568672" lon="15.0827053"><ele>694.0</ele><time>2026-05-03T09:20:17.019Z</time></trkpt><trkpt lat="37.6568023" lon="15.0828336"><ele>694.0</ele><time>2026-05-03T09:20:19.019Z</time></trkpt><trkpt lat="37.6567364" lon="15.0829549"><ele>693.4000000000001</ele><time>2026-05-03T09:20:21.021Z</time></trkpt><trkpt lat="37.6566631" lon="15.0830613"><ele>692.8</ele><time>2026-05-03T09:20:23.02Z</time></trkpt><trkpt lat="37.6565873" lon="15.0832011"><ele>692.2</ele><time>2026-05-03T09:20:25.02Z</time></trkpt><trkpt lat="37.6565593" lon="15.0832905"><ele>691.5999999999999</ele><time>2026-05-03T09:20:26.02Z</time></trkpt><trkpt lat="37.656537" lon="15.0833777"><ele>691.0</ele><time>2026-05-03T09:20:27.02Z</time></trkpt><trkpt lat="37.6565212" lon="15.083469"><ele>690.1428571428571</ele><time>2026-05-03T09:20:28.021Z</time></trkpt><trkpt lat="37.6565109" lon="15.0835549"><ele>689.2857142857142</ele><time>2026-05-03T09:20:29.021Z</time></trkpt><trkpt lat="37.6565019" lon="15.083638"><ele>688.4285714285713</ele><time>2026-05-03T09:20:30.02Z</time></trkpt><trkpt lat="37.6564978" lon="15.08372"><ele>687.5714285714286</ele><time>2026-05-03T09:20:31.021Z</time></trkpt><trkpt lat="37.6564971" lon="15.0838059"><ele>686.7142857142858</ele><time>2026-05-03T09:20:32.019Z</time></trkpt><trkpt lat="37.6564968" lon="15.0838894"><ele>685.8571428571428</ele><time>2026-05-03T09:20:33.021Z</time></trkpt><trkpt lat="37.6564836" lon="15.0840171"><ele>685.0</ele><time>2026-05-03T09:20:35.019Z</time></trkpt><trkpt lat="37.6564989" lon="15.0840955"><ele>684.5714285714286</ele><time>2026-05-03T09:20:37.02Z</time></trkpt><trkpt lat="37.6565667" lon="15.0841581"><ele>684.1428571428572</ele><time>2026-05-03T09:20:39.021Z</time></trkpt><trkpt lat="37.6566383" lon="15.0841683"><ele>683.7142857142858</ele><time>2026-05-03T09:20:40.02Z</time></trkpt><trkpt lat="37.6567113" lon="15.0841785"><ele>683.2857142857142</ele><time>2026-05-03T09:20:41.021Z</time></trkpt><trkpt lat="37.6567798" lon="15.0841906"><ele>682.8571428571429</ele><time>2026-05-03T09:20:42.021Z</time></trkpt><trkpt lat="37.6568544" lon="15.0842032"><ele>682.4285714285714</ele><time>2026-05-03T09:20:43.021Z</time></trkpt><trkpt lat="37.6569266" lon="15.0842043"><ele>682.0</ele><time>2026-05-03T09:20:44.021Z</time></trkpt><trkpt lat="37.6569956" lon="15.084211"><ele>682.0</ele><time>2026-05-03T09:20:45.02Z</time></trkpt><trkpt lat="37.6570629" lon="15.0842198"><ele>682.0</ele><time>2026-05-03T09:20:46.021Z</time></trkpt><trkpt lat="37.6571294" lon="15.0842338"><ele>682.0</ele><time>2026-05-03T09:20:47.022Z</time></trkpt><trkpt lat="37.6571977" lon="15.0842471"><ele>682.0</ele><time>2026-05-03T09:20:48.02Z</time></trkpt><trkpt lat="37.6573108" lon="15.0842865"><ele>682.0</ele><time>2026-05-03T09:20:50.021Z</time></trkpt><trkpt lat="37.6573636" lon="15.084388"><ele>682.0</ele><time>2026-05-03T09:20:52.021Z</time></trkpt><trkpt lat="37.6573769" lon="15.0844736"><ele>682.0</ele><time>2026-05-03T09:20:53.021Z</time></trkpt><trkpt lat="37.6573703" lon="15.0845655"><ele>682.0</ele><time>2026-05-03T09:20:54.02Z</time></trkpt><trkpt lat="37.6573626" lon="15.0846505"><ele>682.0</ele><time>2026-05-03T09:20:55.021Z</time></trkpt><trkpt lat="37.6573498" lon="15.0847451"><ele>682.0</ele><time>2026-05-03T09:20:56.02Z</time></trkpt><trkpt lat="37.6573397" lon="15.0848409"><ele>682.0</ele><time>2026-05-03T09:20:57.02Z</time></trkpt><trkpt lat="37.6573298" lon="15.084948"><ele>682.0</ele><time>2026-05-03T09:20:58.02Z</time></trkpt><trkpt lat="37.6573156" lon="15.0850509"><ele>682.0</ele><time>2026-05-03T09:20:59.021Z</time></trkpt><trkpt lat="37.6572947" lon="15.085155"><ele>682.0</ele><time>2026-05-03T09:21:00.02Z</time></trkpt><trkpt lat="37.6572778" lon="15.0852555"><ele>682.0</ele><time>2026-05-03T09:21:01.021Z</time></trkpt><trkpt lat="37.6572539" lon="15.0853443"><ele>682.0</ele><time>2026-05-03T09:21:02.02Z</time></trkpt><trkpt lat="37.6572384" lon="15.0854534"><ele>682.0</ele><time>2026-05-03T09:21:03.02Z</time></trkpt><trkpt lat="37.6572208" lon="15.0855561"><ele>682.0</ele><time>2026-05-03T09:21:04.021Z</time></trkpt><trkpt lat="37.6571988" lon="15.08566"><ele>682.0</ele><time>2026-05-03T09:21:05.021Z</time></trkpt><trkpt lat="37.6571789" lon="15.0857598"><ele>682.0</ele><time>2026-05-03T09:21:06.02Z</time></trkpt><trkpt lat="37.6571652" lon="15.0858534"><ele>682.0</ele><time>2026-05-03T09:21:07.021Z</time></trkpt><trkpt lat="37.6571535" lon="15.0859517"><ele>682.0</ele><time>2026-05-03T09:21:08.02Z</time></trkpt><trkpt lat="37.6571489" lon="15.0860515"><ele>682.0</ele><time>2026-05-03T09:21:09.021Z</time></trkpt><trkpt lat="37.6571474" lon="15.0861537"><ele>682.0</ele><time>2026-05-03T09:21:10.02Z</time></trkpt><trkpt lat="37.6571579" lon="15.0862609"><ele>680.8333333333334</ele><time>2026-05-03T09:21:11.02Z</time></trkpt><trkpt lat="37.6571718" lon="15.0863641"><ele>679.6666666666667</ele><time>2026-05-03T09:21:12.02Z</time></trkpt><trkpt lat="37.6571908" lon="15.0864695"><ele>678.5</ele><time>2026-05-03T09:21:13.021Z</time></trkpt><trkpt lat="37.6572119" lon="15.0865782"><ele>677.3333333333334</ele><time>2026-05-03T09:21:14.02Z</time></trkpt><trkpt lat="37.6572339" lon="15.0866888"><ele>676.1666666666666</ele><time>2026-05-03T09:21:15.02Z</time></trkpt><trkpt lat="37.6572636" lon="15.0867971"><ele>675.0</ele><time>2026-05-03T09:21:16.02Z</time></trkpt><trkpt lat="37.6572976" lon="15.0869104"><ele>672.4</ele><time>2026-05-03T09:21:17.021Z</time></trkpt><trkpt lat="37.6573307" lon="15.08703"><ele>669.8</ele><time>2026-05-03T09:21:18.021Z</time></trkpt><trkpt lat="37.6573676" lon="15.0871533"><ele>667.2</ele><time>2026-05-03T09:21:19.02Z</time></trkpt><trkpt lat="37.6574076" lon="15.0872752"><ele>664.6</ele><time>2026-05-03T09:21:20.021Z</time></trkpt><trkpt lat="37.6574506" lon="15.0873929"><ele>662.0</ele><time>2026-05-03T09:21:21.02Z</time></trkpt><trkpt lat="37.6574922" lon="15.0875129"><ele>659.4000000000001</ele><time>2026-05-03T09:21:22.02Z</time></trkpt><trkpt lat="37.6575325" lon="15.0876246"><ele>656.8000000000001</ele><time>2026-05-03T09:21:23.021Z</time></trkpt><trkpt lat="37.6575756" lon="15.0877326"><ele>654.2</ele><time>2026-05-03T09:21:24.021Z</time></trkpt><trkpt lat="37.6576097" lon="15.0878411"><ele>651.6</ele><time>2026-05-03T09:21:25.021Z</time></trkpt><trkpt lat="37.6576444" lon="15.0879559"><ele>649.0</ele><time>2026-05-03T09:21:26.02Z</time></trkpt><trkpt lat="37.6576839" lon="15.0880762"><ele>649.0</ele><time>2026-05-03T09:21:27.019Z</time></trkpt><trkpt lat="37.6576894" lon="15.0881857"><ele>649.0</ele><time>2026-05-03T09:21:28.021Z</time></trkpt><trkpt lat="37.6577063" lon="15.088315"><ele>649.0</ele><time>2026-05-03T09:21:29.021Z</time></trkpt><trkpt lat="37.6577184" lon="15.0884469"><ele>649.0</ele><time>2026-05-03T09:21:30.02Z</time></trkpt><trkpt lat="37.6577273" lon="15.088583"><ele>649.0</ele><time>2026-05-03T09:21:31.021Z</time></trkpt><trkpt lat="37.6577332" lon="15.0887201"><ele>646.2</ele><time>2026-05-03T09:21:32.02Z</time></trkpt><trkpt lat="37.6577344" lon="15.0888608"><ele>643.4000000000001</ele><time>2026-05-03T09:21:33.019Z</time></trkpt><trkpt lat="37.6577188" lon="15.0890088"><ele>640.6</ele><time>2026-05-03T09:21:34.02Z</time></trkpt><trkpt lat="37.657694" lon="15.0891371"><ele>637.8</ele><time>2026-05-03T09:21:35.021Z</time></trkpt><trkpt lat="37.6576573" lon="15.0892626"><ele>635.0</ele><time>2026-05-03T09:21:36.021Z</time></trkpt><trkpt lat="37.6576231" lon="15.0893854"><ele>633.6</ele><time>2026-05-03T09:21:37.022Z</time></trkpt><trkpt lat="37.657582" lon="15.0895152"><ele>632.2</ele><time>2026-05-03T09:21:38.021Z</time></trkpt><trkpt lat="37.6575412" lon="15.0896327"><ele>630.8</ele><time>2026-05-03T09:21:39.021Z</time></trkpt><trkpt lat="37.6575172" lon="15.0897413"><ele>629.4</ele><time>2026-05-03T09:21:40.022Z</time></trkpt><trkpt lat="37.6574891" lon="15.0898374"><ele>628.0</ele><time>2026-05-03T09:21:41.02Z</time></trkpt><trkpt lat="37.6574423" lon="15.089963"><ele>626.8333333333334</ele><time>2026-05-03T09:21:43.021Z</time></trkpt><trkpt lat="37.6573178" lon="15.0900084"><ele>625.6666666666667</ele><time>2026-05-03T09:21:45.021Z</time></trkpt><trkpt lat="37.6572489" lon="15.0900254"><ele>624.5</ele><time>2026-05-03T09:21:46.021Z</time></trkpt><trkpt lat="37.6571862" lon="15.0900628"><ele>623.3333333333334</ele><time>2026-05-03T09:21:47.02Z</time></trkpt><trkpt lat="37.6571448" lon="15.0901387"><ele>622.1666666666666</ele><time>2026-05-03T09:21:48.021Z</time></trkpt><trkpt lat="37.6571169" lon="15.0902483"><ele>621.0</ele><time>2026-05-03T09:21:49.02Z</time></trkpt><trkpt lat="37.6570923" lon="15.0903636"><ele>621.0</ele><time>2026-05-03T09:21:50.021Z</time></trkpt><trkpt lat="37.6570435" lon="15.0904711"><ele>621.0</ele><time>2026-05-03T09:21:51.021Z</time></trkpt><trkpt lat="37.657005" lon="15.0905745"><ele>621.0</ele><time>2026-05-03T09:21:52.02Z</time></trkpt><trkpt lat="37.6569741" lon="15.0906806"><ele>621.0</ele><time>2026-05-03T09:21:53.021Z</time></trkpt><trkpt lat="37.6569372" lon="15.0907797"><ele>621.0</ele><time>2026-05-03T09:21:54.021Z</time></trkpt><trkpt lat="37.6568964" lon="15.0908616"><ele>621.0</ele><time>2026-05-03T09:21:55.022Z</time></trkpt><trkpt lat="37.6568409" lon="15.0909206"><ele>618.3333333333334</ele><time>2026-05-03T09:21:56.02Z</time></trkpt><trkpt lat="37.6567803" lon="15.0909833"><ele>615.6666666666666</ele><time>2026-05-03T09:21:57.021Z</time></trkpt><trkpt lat="37.6567171" lon="15.0910414"><ele>613.0</ele><time>2026-05-03T09:21:58.02Z</time></trkpt><trkpt lat="37.6566492" lon="15.0910941"><ele>610.3333333333333</ele><time>2026-05-03T09:21:59.02Z</time></trkpt><trkpt lat="37.6565796" lon="15.0911273"><ele>607.6666666666666</ele><time>2026-05-03T09:22:00.02Z</time></trkpt><trkpt lat="37.6565087" lon="15.0911465"><ele>605.0</ele><time>2026-05-03T09:22:01.021Z</time></trkpt><trkpt lat="37.6564345" lon="15.0911555"><ele>605.0</ele><time>2026-05-03T09:22:02.02Z</time></trkpt><trkpt lat="37.6563661" lon="15.0911563"><ele>605.0</ele><time>2026-05-03T09:22:03.02Z</time></trkpt><trkpt lat="37.6562959" lon="15.0911509"><ele>605.0</ele><time>2026-05-03T09:22:04.021Z</time></trkpt><trkpt lat="37.6562246" lon="15.0911414"><ele>605.0</ele><time>2026-05-03T09:22:05.021Z</time></trkpt><trkpt lat="37.6561556" lon="15.0911208"><ele>605.0</ele><time>2026-05-03T09:22:06.02Z</time></trkpt><trkpt lat="37.656094" lon="15.0910853"><ele>605.0</ele><time>2026-05-03T09:22:07.021Z</time></trkpt><trkpt lat="37.6560345" lon="15.0910481"><ele>605.0</ele><time>2026-05-03T09:22:08.02Z</time></trkpt><trkpt lat="37.655932" lon="15.0909865"><ele>603.8</ele><time>2026-05-03T09:22:10.02Z</time></trkpt><trkpt lat="37.6558435" lon="15.0909277"><ele>602.6</ele><time>2026-05-03T09:22:12.02Z</time></trkpt><trkpt lat="37.6557642" lon="15.0908638"><ele>601.4</ele><time>2026-05-03T09:22:14.02Z</time></trkpt><trkpt lat="37.6556847" lon="15.0908215"><ele>600.2</ele><time>2026-05-03T09:22:16.019Z</time></trkpt><trkpt lat="37.6555972" lon="15.0908404"><ele>599.0</ele><time>2026-05-03T09:22:18.021Z</time></trkpt><trkpt lat="37.6555243" lon="15.0909048"><ele>599.0</ele><time>2026-05-03T09:22:20.021Z</time></trkpt><trkpt lat="37.6554553" lon="15.0909832"><ele>599.0</ele><time>2026-05-03T09:22:22.02Z</time></trkpt><trkpt lat="37.6553834" lon="15.091056"><ele>599.0</ele><time>2026-05-03T09:22:24.02Z</time></trkpt><trkpt lat="37.6553186" lon="15.0911214"><ele>599.0</ele><time>2026-05-03T09:22:26.021Z</time></trkpt><trkpt lat="37.6552216" lon="15.0911795"><ele>599.0</ele><time>2026-05-03T09:22:28.021Z</time></trkpt><trkpt lat="37.6551202" lon="15.091238"><ele>597.8</ele><time>2026-05-03T09:22:30.021Z</time></trkpt><trkpt lat="37.6550322" lon="15.0912933"><ele>596.5999999999999</ele><time>2026-05-03T09:22:32.021Z</time></trkpt><trkpt lat="37.6549455" lon="15.091347"><ele>595.4</ele><time>2026-05-03T09:22:34.021Z</time></trkpt><trkpt lat="37.6548558" lon="15.091384"><ele>594.1999999999999</ele><time>2026-05-03T09:22:36.021Z</time></trkpt><trkpt lat="37.6547732" lon="15.0914098"><ele>593.0</ele><time>2026-05-03T09:22:38.02Z</time></trkpt><trkpt lat="37.6546859" lon="15.0914316"><ele>593.0</ele><time>2026-05-03T09:22:40.021Z</time></trkpt><trkpt lat="37.6546019" lon="15.0914547"><ele>593.0</ele><time>2026-05-03T09:22:42.021Z</time></trkpt><trkpt lat="37.6545382" lon="15.091483"><ele>593.0</ele><time>2026-05-03T09:22:44.019Z</time></trkpt><trkpt lat="37.6544657" lon="15.0915449"><ele>593.0</ele><time>2026-05-03T09:22:46.021Z</time></trkpt><trkpt lat="37.6543863" lon="15.0915916"><ele>593.0</ele><time>2026-05-03T09:22:48.02Z</time></trkpt><trkpt lat="37.6543065" lon="15.0916279"><ele>593.0</ele><time>2026-05-03T09:22:50.021Z</time></trkpt><trkpt lat="37.6542596" lon="15.0916929"><ele>591.6666666666666</ele><time>2026-05-03T09:22:52.021Z</time></trkpt><trkpt lat="37.6542108" lon="15.0917594"><ele>590.3333333333333</ele><time>2026-05-03T09:22:54.02Z</time></trkpt><trkpt lat="37.6541652" lon="15.091843"><ele>589.0</ele><time>2026-05-03T09:22:56.02Z</time></trkpt><trkpt lat="37.654116" lon="15.0919177"><ele>587.6666666666666</ele><time>2026-05-03T09:22:58.021Z</time></trkpt><trkpt lat="37.6540598" lon="15.0919906"><ele>586.3333333333334</ele><time>2026-05-03T09:23:00.021Z</time></trkpt><trkpt lat="37.654004" lon="15.0920614"><ele>585.0</ele><time>2026-05-03T09:23:02.02Z</time></trkpt><trkpt lat="37.6539413" lon="15.0921214"><ele>585.0</ele><time>2026-05-03T09:23:04.021Z</time></trkpt><trkpt lat="37.6538791" lon="15.0921956"><ele>585.0</ele><time>2026-05-03T09:23:06.021Z</time></trkpt><trkpt lat="37.6538025" lon="15.0922738"><ele>585.0</ele><time>2026-05-03T09:23:08.02Z</time></trkpt><trkpt lat="37.6537317" lon="15.0923567"><ele>585.0</ele><time>2026-05-03T09:23:10.022Z</time></trkpt><trkpt lat="37.653671" lon="15.0924312"><ele>585.0</ele><time>2026-05-03T09:23:12.021Z</time></trkpt><trkpt lat="37.6536075" lon="15.0924933"><ele>585.0</ele><time>2026-05-03T09:23:14.021Z</time></trkpt><trkpt lat="37.653537" lon="15.0925626"><ele>583.6666666666666</ele><time>2026-05-03T09:23:16.022Z</time></trkpt><trkpt lat="37.6534724" lon="15.0926201"><ele>582.3333333333334</ele><time>2026-05-03T09:23:18.021Z</time></trkpt><trkpt lat="37.6534085" lon="15.0926844"><ele>581.0</ele><time>2026-05-03T09:23:20.021Z</time></trkpt><trkpt lat="37.6533364" lon="15.0927513"><ele>579.6666666666667</ele><time>2026-05-03T09:23:22.021Z</time></trkpt><trkpt lat="37.6532609" lon="15.0928044"><ele>578.3333333333334</ele><time>2026-05-03T09:23:24.02Z</time></trkpt><trkpt lat="37.6531919" lon="15.0928535"><ele>577.0</ele><time>2026-05-03T09:23:26.021Z</time></trkpt><trkpt lat="37.6531173" lon="15.0928937"><ele>577.0</ele><time>2026-05-03T09:23:28.02Z</time></trkpt><trkpt lat="37.653043" lon="15.0929249"><ele>577.0</ele><time>2026-05-03T09:23:30.021Z</time></trkpt><trkpt lat="37.6529617" lon="15.0929499"><ele>577.0</ele><time>2026-05-03T09:23:32.02Z</time></trkpt><trkpt lat="37.6528809" lon="15.0929781"><ele>577.0</ele><time>2026-05-03T09:23:34.022Z</time></trkpt><trkpt lat="37.6527986" lon="15.0930082"><ele>577.0</ele><time>2026-05-03T09:23:36.02Z</time></trkpt><trkpt lat="37.6527196" lon="15.0930427"><ele>577.0</ele><time>2026-05-03T09:23:38.021Z</time></trkpt><trkpt lat="37.652637" lon="15.0930681"><ele>575.3333333333334</ele><time>2026-05-03T09:23:40.021Z</time></trkpt><trkpt lat="37.652559" lon="15.0931001"><ele>573.6666666666667</ele><time>2026-05-03T09:23:42.02Z</time></trkpt><trkpt lat="37.6524872" lon="15.0931391"><ele>572.0</ele><time>2026-05-03T09:23:44.02Z</time></trkpt><trkpt lat="37.652417" lon="15.0931832"><ele>570.3333333333334</ele><time>2026-05-03T09:23:46.021Z</time></trkpt><trkpt lat="37.6523483" lon="15.093192"><ele>568.6666666666666</ele><time>2026-05-03T09:23:48.021Z</time></trkpt><trkpt lat="37.6522753" lon="15.0931594"><ele>567.0</ele><time>2026-05-03T09:23:50.021Z</time></trkpt><trkpt lat="37.6522267" lon="15.0930892"><ele>567.0</ele><time>2026-05-03T09:23:52.021Z</time></trkpt><trkpt lat="37.652183" lon="15.0929965"><ele>567.0</ele><time>2026-05-03T09:23:55.021Z</time></trkpt><trkpt lat="37.6520957" lon="15.0930035"><ele>567.0</ele><time>2026-05-03T09:23:58.021Z</time></trkpt><trkpt lat="37.652049" lon="15.093087"><ele>567.0</ele><time>2026-05-03T09:24:00.021Z</time></trkpt><trkpt lat="37.6519906" lon="15.0931514"><ele>567.0</ele><time>2026-05-03T09:24:02.02Z</time></trkpt><trkpt lat="37.651913" lon="15.0931999"><ele>567.0</ele><time>2026-05-03T09:24:04.021Z</time></trkpt><trkpt lat="37.6518305" lon="15.0932394"><ele>565.3333333333334</ele><time>2026-05-03T09:24:06.021Z</time></trkpt><trkpt lat="37.6517423" lon="15.0932425"><ele>563.6666666666666</ele><time>2026-05-03T09:24:08.021Z</time></trkpt><trkpt lat="37.6516622" lon="15.0932395"><ele>562.0</ele><time>2026-05-03T09:24:10.02Z</time></trkpt><trkpt lat="37.6515818" lon="15.0932241"><ele>560.3333333333333</ele><time>2026-05-03T09:24:12.021Z</time></trkpt><trkpt lat="37.6515081" lon="15.0931957"><ele>558.6666666666666</ele><time>2026-05-03T09:24:14.021Z</time></trkpt><trkpt lat="37.6514372" lon="15.0931525"><ele>557.0</ele><time>2026-05-03T09:24:16.022Z</time></trkpt><trkpt lat="37.6513631" lon="15.0931114"><ele>557.0</ele><time>2026-05-03T09:24:18.021Z</time></trkpt><trkpt lat="37.651279" lon="15.0930765"><ele>557.0</ele><time>2026-05-03T09:24:20.02Z</time></trkpt><trkpt lat="37.6511945" lon="15.0930498"><ele>557.0</ele><time>2026-05-03T09:24:22.022Z</time></trkpt><trkpt lat="37.6511172" lon="15.0930221"><ele>557.0</ele><time>2026-05-03T09:24:24.021Z</time></trkpt><trkpt lat="37.6510342" lon="15.0929813"><ele>557.0</ele><time>2026-05-03T09:24:26.021Z</time></trkpt><trkpt lat="37.6509754" lon="15.0929518"><ele>557.0</ele><time>2026-05-03T09:24:27.02Z</time></trkpt><trkpt lat="37.6509127" lon="15.0929225"><ele>556.2</ele><time>2026-05-03T09:24:28.02Z</time></trkpt><trkpt lat="37.6508047" lon="15.0928757"><ele>555.4000000000001</ele><time>2026-05-03T09:24:30.021Z</time></trkpt><trkpt lat="37.6507065" lon="15.0928324"><ele>554.5999999999999</ele><time>2026-05-03T09:24:32.022Z</time></trkpt><trkpt lat="37.6506145" lon="15.092797"><ele>553.8</ele><time>2026-05-03T09:24:34.02Z</time></trkpt><trkpt lat="37.6505236" lon="15.0927629"><ele>553.0</ele><time>2026-05-03T09:24:36.022Z</time></trkpt><trkpt lat="37.6504344" lon="15.0927256"><ele>553.0</ele><time>2026-05-03T09:24:38.021Z</time></trkpt><trkpt lat="37.6503449" lon="15.0926928"><ele>553.0</ele><time>2026-05-03T09:24:40.02Z</time></trkpt><trkpt lat="37.6502494" lon="15.092665"><ele>553.0</ele><time>2026-05-03T09:24:42.021Z</time></trkpt><trkpt lat="37.6501578" lon="15.0926553"><ele>553.0</ele><time>2026-05-03T09:24:44.021Z</time></trkpt><trkpt lat="37.65007" lon="15.0926609"><ele>553.0</ele><time>2026-05-03T09:24:46.02Z</time></trkpt><trkpt lat="37.6499705" lon="15.09266"><ele>551.8</ele><time>2026-05-03T09:24:48.021Z</time></trkpt><trkpt lat="37.6498607" lon="15.0926431"><ele>550.5999999999999</ele><time>2026-05-03T09:24:50.021Z</time></trkpt><trkpt lat="37.6497518" lon="15.0925964"><ele>549.4000000000001</ele><time>2026-05-03T09:24:52.021Z</time></trkpt><trkpt lat="37.6496916" lon="15.0925695"><ele>548.2</ele><time>2026-05-03T09:24:53.022Z</time></trkpt><trkpt lat="37.6495615" lon="15.0925127"><ele>547.0</ele><time>2026-05-03T09:24:55.022Z</time></trkpt><trkpt lat="37.6494874" lon="15.092489"><ele>546.3333333333334</ele><time>2026-05-03T09:24:56.021Z</time></trkpt><trkpt lat="37.6494182" lon="15.0924754"><ele>545.6666666666667</ele><time>2026-05-03T09:24:57.02Z</time></trkpt><trkpt lat="37.6493579" lon="15.0924499"><ele>545.0</ele><time>2026-05-03T09:24:58.021Z</time></trkpt><trkpt lat="37.6492567" lon="15.0924117"><ele>544.3333333333334</ele><time>2026-05-03T09:25:00.022Z</time></trkpt><trkpt lat="37.6491614" lon="15.0923989"><ele>543.6666666666666</ele><time>2026-05-03T09:25:02.021Z</time></trkpt><trkpt lat="37.649069" lon="15.0923772"><ele>543.0</ele><time>2026-05-03T09:25:04.021Z</time></trkpt><trkpt lat="37.6489809" lon="15.0923632"><ele>543.0</ele><time>2026-05-03T09:25:06.021Z</time></trkpt><trkpt lat="37.6489135" lon="15.0923882"><ele>543.0</ele><time>2026-05-03T09:25:08.022Z</time></trkpt><trkpt lat="37.6488973" lon="15.0924771"><ele>543.0</ele><time>2026-05-03T09:25:10.021Z</time></trkpt><trkpt lat="37.6489114" lon="15.0926188"><ele>543.0</ele><time>2026-05-03T09:25:12.021Z</time></trkpt><trkpt lat="37.6489155" lon="15.0927145"><ele>543.0</ele><time>2026-05-03T09:25:14.02Z</time></trkpt><trkpt lat="37.6488452" lon="15.0927562"><ele>543.0</ele><time>2026-05-03T09:25:17.021Z</time></trkpt><trkpt lat="37.6487302" lon="15.0927234"><ele>543.0</ele><time>2026-05-03T09:25:19.021Z</time></trkpt><trkpt lat="37.6486584" lon="15.0927166"><ele>543.0</ele><time>2026-05-03T09:25:20.021Z</time></trkpt><trkpt lat="37.6485886" lon="15.0927044"><ele>543.0</ele><time>2026-05-03T09:25:21.022Z</time></trkpt><trkpt lat="37.6485245" lon="15.0927019"><ele>543.0</ele><time>2026-05-03T09:25:22.021Z</time></trkpt><trkpt lat="37.6484035" lon="15.0926867"><ele>543.0</ele><time>2026-05-03T09:25:24.02Z</time></trkpt><trkpt lat="37.6483374" lon="15.0926703"><ele>543.0</ele><time>2026-05-03T09:25:25.021Z</time></trkpt><trkpt lat="37.6482591" lon="15.0926664"><ele>541.6666666666666</ele><time>2026-05-03T09:25:26.021Z</time></trkpt><trkpt lat="37.6481826" lon="15.0926633"><ele>540.3333333333334</ele><time>2026-05-03T09:25:27.02Z</time></trkpt><trkpt lat="37.6480972" lon="15.0926616"><ele>539.0</ele><time>2026-05-03T09:25:28.02Z</time></trkpt><trkpt lat="37.6480088" lon="15.0926616"><ele>537.6666666666667</ele><time>2026-05-03T09:25:29.022Z</time></trkpt><trkpt lat="37.647931" lon="15.0926582"><ele>536.3333333333334</ele><time>2026-05-03T09:25:30.022Z</time></trkpt><trkpt lat="37.6478595" lon="15.0926466"><ele>535.0</ele><time>2026-05-03T09:25:31.022Z</time></trkpt><trkpt lat="37.6477307" lon="15.0926373"><ele>534.3333333333334</ele><time>2026-05-03T09:25:33.021Z</time></trkpt><trkpt lat="37.647665" lon="15.0926273"><ele>533.6666666666667</ele><time>2026-05-03T09:25:34.021Z</time></trkpt><trkpt lat="37.6476019" lon="15.0926089"><ele>533.0</ele><time>2026-05-03T09:25:35.022Z</time></trkpt><trkpt lat="37.6474999" lon="15.0925926"><ele>532.3333333333334</ele><time>2026-05-03T09:25:37.021Z</time></trkpt><trkpt lat="37.6474078" lon="15.0925853"><ele>531.6666666666666</ele><time>2026-05-03T09:25:39.021Z</time></trkpt><trkpt lat="37.6472901" lon="15.0925686"><ele>531.0</ele><time>2026-05-03T09:25:41.022Z</time></trkpt><trkpt lat="37.6472163" lon="15.0925614"><ele>531.0</ele><time>2026-05-03T09:25:42.02Z</time></trkpt><trkpt lat="37.6471435" lon="15.0925506"><ele>531.0</ele><time>2026-05-03T09:25:43.021Z</time></trkpt><trkpt lat="37.6470689" lon="15.0925331"><ele>531.0</ele><time>2026-05-03T09:25:44.022Z</time></trkpt><trkpt lat="37.6469935" lon="15.092532"><ele>531.0</ele><time>2026-05-03T09:25:45.02Z</time></trkpt><trkpt lat="37.6469186" lon="15.0925239"><ele>531.0</ele><time>2026-05-03T09:25:46.022Z</time></trkpt><trkpt lat="37.6468483" lon="15.0925108"><ele>531.0</ele><time>2026-05-03T09:25:47.021Z</time></trkpt><trkpt lat="37.6467839" lon="15.0925053"><ele>531.0</ele><time>2026-05-03T09:25:48.02Z</time></trkpt><trkpt lat="37.6467116" lon="15.0924952"><ele>530.3333333333334</ele><time>2026-05-03T09:25:49.02Z</time></trkpt><trkpt lat="37.6466379" lon="15.0924868"><ele>529.6666666666666</ele><time>2026-05-03T09:25:50.021Z</time></trkpt><trkpt lat="37.6465738" lon="15.0924767"><ele>529.0</ele><time>2026-05-03T09:25:51.021Z</time></trkpt><trkpt lat="37.6465047" lon="15.0924659"><ele>528.3333333333333</ele><time>2026-05-03T09:25:52.02Z</time></trkpt><trkpt lat="37.6463847" lon="15.0924423"><ele>527.6666666666666</ele><time>2026-05-03T09:25:54.021Z</time></trkpt><trkpt lat="37.6462698" lon="15.0924525"><ele>527.0</ele><time>2026-05-03T09:25:56.021Z</time></trkpt><trkpt lat="37.6462165" lon="15.0925498"><ele>527.0</ele><time>2026-05-03T09:25:58.02Z</time></trkpt><trkpt lat="37.6462408" lon="15.0927087"><ele>527.0</ele><time>2026-05-03T09:26:00.021Z</time></trkpt><trkpt lat="37.6462544" lon="15.0928031"><ele>527.0</ele><time>2026-05-03T09:26:01.02Z</time></trkpt><trkpt lat="37.6462693" lon="15.0929037"><ele>527.0</ele><time>2026-05-03T09:26:02.021Z</time></trkpt><trkpt lat="37.6462888" lon="15.0930011"><ele>527.0</ele><time>2026-05-03T09:26:03.02Z</time></trkpt><trkpt lat="37.6463068" lon="15.0931043"><ele>527.0</ele><time>2026-05-03T09:26:04.021Z</time></trkpt><trkpt lat="37.6463192" lon="15.0932097"><ele>527.4285714285714</ele><time>2026-05-03T09:26:05.022Z</time></trkpt><trkpt lat="37.6463297" lon="15.0933118"><ele>527.8571428571429</ele><time>2026-05-03T09:26:06.022Z</time></trkpt><trkpt lat="37.6463391" lon="15.093407"><ele>528.2857142857142</ele><time>2026-05-03T09:26:07.021Z</time></trkpt><trkpt lat="37.6463524" lon="15.0935012"><ele>528.7142857142858</ele><time>2026-05-03T09:26:08.02Z</time></trkpt><trkpt lat="37.6463626" lon="15.0935896"><ele>529.1428571428571</ele><time>2026-05-03T09:26:09.021Z</time></trkpt><trkpt lat="37.6463741" lon="15.0936771"><ele>529.5714285714286</ele><time>2026-05-03T09:26:10.022Z</time></trkpt><trkpt lat="37.6463843" lon="15.0937693"><ele>530.0</ele><time>2026-05-03T09:26:11.021Z</time></trkpt><trkpt lat="37.6463967" lon="15.0938535"><ele>530.0</ele><time>2026-05-03T09:26:12.021Z</time></trkpt><trkpt lat="37.646407" lon="15.093946"><ele>530.0</ele><time>2026-05-03T09:26:13.02Z</time></trkpt><trkpt lat="37.6464116" lon="15.0940419"><ele>530.0</ele><time>2026-05-03T09:26:14.021Z</time></trkpt><trkpt lat="37.6464166" lon="15.0941326"><ele>530.0</ele><time>2026-05-03T09:26:15.02Z</time></trkpt><trkpt lat="37.6464172" lon="15.0942261"><ele>530.0</ele><time>2026-05-03T09:26:16.02Z</time></trkpt><trkpt lat="37.6464233" lon="15.0943221"><ele>530.0</ele><time>2026-05-03T09:26:17.021Z</time></trkpt><trkpt lat="37.6464337" lon="15.0944203"><ele>531.0</ele><time>2026-05-03T09:26:18.02Z</time></trkpt><trkpt lat="37.646437" lon="15.0945202"><ele>532.0</ele><time>2026-05-03T09:26:19.022Z</time></trkpt><trkpt lat="37.646442" lon="15.0946185"><ele>533.0</ele><time>2026-05-03T09:26:20.022Z</time></trkpt><trkpt lat="37.6464434" lon="15.0947264"><ele>534.0</ele><time>2026-05-03T09:26:21.022Z</time></trkpt><trkpt lat="37.6464329" lon="15.094843"><ele>535.0</ele><time>2026-05-03T09:26:22.021Z</time></trkpt><trkpt lat="37.6464175" lon="15.0949429"><ele>536.0</ele><time>2026-05-03T09:26:23.022Z</time></trkpt><trkpt lat="37.6463942" lon="15.0950384"><ele>536.0</ele><time>2026-05-03T09:26:24.02Z</time></trkpt><trkpt lat="37.646374" lon="15.0951355"><ele>536.0</ele><time>2026-05-03T09:26:25.021Z</time></trkpt><trkpt lat="37.6463512" lon="15.0952191"><ele>536.0</ele><time>2026-05-03T09:26:26.021Z</time></trkpt><trkpt lat="37.6463136" lon="15.0953693"><ele>536.0</ele><time>2026-05-03T09:26:28.021Z</time></trkpt><trkpt lat="37.646285" lon="15.0955095"><ele>536.0</ele><time>2026-05-03T09:26:30.021Z</time></trkpt><trkpt lat="37.6462499" lon="15.0956373"><ele>535.2</ele><time>2026-05-03T09:26:32.021Z</time></trkpt><trkpt lat="37.6462135" lon="15.0957573"><ele>534.4000000000001</ele><time>2026-05-03T09:26:34.021Z</time></trkpt><trkpt lat="37.6461756" lon="15.0958752"><ele>533.6</ele><time>2026-05-03T09:26:36.021Z</time></trkpt><trkpt lat="37.6461419" lon="15.0959965"><ele>532.8000000000001</ele><time>2026-05-03T09:26:38.021Z</time></trkpt><trkpt lat="37.6461032" lon="15.0961181"><ele>532.0</ele><time>2026-05-03T09:26:40.021Z</time></trkpt><trkpt lat="37.6460667" lon="15.0962353"><ele>531.2</ele><time>2026-05-03T09:26:42.022Z</time></trkpt><trkpt lat="37.6460258" lon="15.0963594"><ele>530.4000000000001</ele><time>2026-05-03T09:26:44.021Z</time></trkpt><trkpt lat="37.6459855" lon="15.0965142"><ele>529.5999999999999</ele><time>2026-05-03T09:26:46.021Z</time></trkpt><trkpt lat="37.6459558" lon="15.096607"><ele>528.8</ele><time>2026-05-03T09:26:47.021Z</time></trkpt><trkpt lat="37.6459195" lon="15.0967458"><ele>528.0</ele><time>2026-05-03T09:26:49.02Z</time></trkpt><trkpt lat="37.6458606" lon="15.0968486"><ele>528.0</ele><time>2026-05-03T09:26:51.022Z</time></trkpt><trkpt lat="37.6457765" lon="15.0968841"><ele>528.0</ele><time>2026-05-03T09:26:53.02Z</time></trkpt><trkpt lat="37.6456967" lon="15.0968278"><ele>528.0</ele><time>2026-05-03T09:26:55.02Z</time></trkpt><trkpt lat="37.645648" lon="15.0967705"><ele>528.0</ele><time>2026-05-03T09:26:56.02Z</time></trkpt><trkpt lat="37.645602" lon="15.0967109"><ele>528.0</ele><time>2026-05-03T09:26:57.021Z</time></trkpt><trkpt lat="37.6455585" lon="15.0966436"><ele>528.0</ele><time>2026-05-03T09:26:58.022Z</time></trkpt><trkpt lat="37.6455112" lon="15.0965742"><ele>528.0</ele><time>2026-05-03T09:26:59.022Z</time></trkpt><trkpt lat="37.6454612" lon="15.0965008"><ele>528.0</ele><time>2026-05-03T09:27:00.023Z</time></trkpt><trkpt lat="37.6454059" lon="15.0964246"><ele>528.0</ele><time>2026-05-03T09:27:01.021Z</time></trkpt><trkpt lat="37.6453517" lon="15.0963479"><ele>528.0</ele><time>2026-05-03T09:27:02.02Z</time></trkpt><trkpt lat="37.6452849" lon="15.0962632"><ele>528.0</ele><time>2026-05-03T09:27:03.021Z</time></trkpt><trkpt lat="37.6452171" lon="15.0961713"><ele>528.0</ele><time>2026-05-03T09:27:04.022Z</time></trkpt><trkpt lat="37.6451576" lon="15.0960747"><ele>526.6</ele><time>2026-05-03T09:27:05.02Z</time></trkpt><trkpt lat="37.6450852" lon="15.0960012"><ele>525.1999999999999</ele><time>2026-05-03T09:27:06.021Z</time></trkpt><trkpt lat="37.644999" lon="15.0959362"><ele>523.8</ele><time>2026-05-03T09:27:07.021Z</time></trkpt><trkpt lat="37.6449111" lon="15.095899"><ele>522.4</ele><time>2026-05-03T09:27:08.022Z</time></trkpt><trkpt lat="37.64482" lon="15.0958789"><ele>521.0</ele><time>2026-05-03T09:27:09.02Z</time></trkpt><trkpt lat="37.6447311" lon="15.0958602"><ele>521.0</ele><time>2026-05-03T09:27:10.021Z</time></trkpt><trkpt lat="37.6446462" lon="15.0958502"><ele>521.0</ele><time>2026-05-03T09:27:11.021Z</time></trkpt><trkpt lat="37.6445614" lon="15.0958396"><ele>521.0</ele><time>2026-05-03T09:27:12.021Z</time></trkpt><trkpt lat="37.6444752" lon="15.0958219"><ele>521.0</ele><time>2026-05-03T09:27:13.022Z</time></trkpt><trkpt lat="37.6443938" lon="15.0958127"><ele>521.0</ele><time>2026-05-03T09:27:14.02Z</time></trkpt><trkpt lat="37.6443208" lon="15.0958072"><ele>521.0</ele><time>2026-05-03T09:27:15.021Z</time></trkpt><trkpt lat="37.644242" lon="15.0958027"><ele>519.5</ele><time>2026-05-03T09:27:16.023Z</time></trkpt><trkpt lat="37.6441622" lon="15.0958008"><ele>518.0</ele><time>2026-05-03T09:27:17.022Z</time></trkpt><trkpt lat="37.6440847" lon="15.0957972"><ele>516.5</ele><time>2026-05-03T09:27:18.022Z</time></trkpt><trkpt lat="37.6439996" lon="15.0957868"><ele>515.0</ele><time>2026-05-03T09:27:19.021Z</time></trkpt><trkpt lat="37.643915" lon="15.0957737"><ele>513.5</ele><time>2026-05-03T09:27:20.021Z</time></trkpt><trkpt lat="37.6438318" lon="15.095774"><ele>512.0</ele><time>2026-05-03T09:27:21.02Z</time></trkpt><trkpt lat="37.6437444" lon="15.0957669"><ele>511.99999999999994</ele><time>2026-05-03T09:27:22.022Z</time></trkpt><trkpt lat="37.6436578" lon="15.0957555"><ele>512.0</ele><time>2026-05-03T09:27:23.02Z</time></trkpt><trkpt lat="37.6435755" lon="15.0957482"><ele>512.0</ele><time>2026-05-03T09:27:24.02Z</time></trkpt><trkpt lat="37.6434915" lon="15.0957468"><ele>512.0</ele><time>2026-05-03T09:27:25.019Z</time></trkpt><trkpt lat="37.6434094" lon="15.0957365"><ele>511.99999999999994</ele><time>2026-05-03T09:27:26.022Z</time></trkpt><trkpt lat="37.643325" lon="15.0957242"><ele>512.0</ele><time>2026-05-03T09:27:27.02Z</time></trkpt><trkpt lat="37.6432463" lon="15.095716"><ele>511.99999999999994</ele><time>2026-05-03T09:27:28.021Z</time></trkpt><trkpt lat="37.6431684" lon="15.095703"><ele>512.0</ele><time>2026-05-03T09:27:29.021Z</time></trkpt><trkpt lat="37.6430952" lon="15.0956829"><ele>512.0</ele><time>2026-05-03T09:27:30.021Z</time></trkpt><trkpt lat="37.6430324" lon="15.0956651"><ele>512.0</ele><time>2026-05-03T09:27:31.021Z</time></trkpt><trkpt lat="37.6429267" lon="15.0956392"><ele>511.99999999999994</ele><time>2026-05-03T09:27:33.021Z</time></trkpt><trkpt lat="37.6428493" lon="15.0956429"><ele>512.0</ele><time>2026-05-03T09:27:35.021Z</time></trkpt><trkpt lat="37.6427694" lon="15.0956593"><ele>510.6</ele><time>2026-05-03T09:27:39.021Z</time></trkpt><trkpt lat="37.6427109" lon="15.0957295"><ele>509.20000000000005</ele><time>2026-05-03T09:27:41.021Z</time></trkpt><trkpt lat="37.6426521" lon="15.0958305"><ele>507.8</ele><time>2026-05-03T09:27:43.022Z</time></trkpt><trkpt lat="37.6425798" lon="15.0959593"><ele>506.4</ele><time>2026-05-03T09:27:45.021Z</time></trkpt><trkpt lat="37.6425451" lon="15.0960351"><ele>505.0</ele><time>2026-05-03T09:27:46.021Z</time></trkpt><trkpt lat="37.6425008" lon="15.0961158"><ele>504.33333333333337</ele><time>2026-05-03T09:27:47.021Z</time></trkpt><trkpt lat="37.6424568" lon="15.0961941"><ele>503.6666666666667</ele><time>2026-05-03T09:27:48.021Z</time></trkpt><trkpt lat="37.642412" lon="15.0962764"><ele>503.0</ele><time>2026-05-03T09:27:49.021Z</time></trkpt><trkpt lat="37.6423633" lon="15.0963668"><ele>502.33333333333337</ele><time>2026-05-03T09:27:50.021Z</time></trkpt><trkpt lat="37.6423199" lon="15.0964647"><ele>501.6666666666667</ele><time>2026-05-03T09:27:51.021Z</time></trkpt><trkpt lat="37.6422742" lon="15.0965497"><ele>501.0</ele><time>2026-05-03T09:27:52.021Z</time></trkpt><trkpt lat="37.6422276" lon="15.0966328"><ele>500.8333333333333</ele><time>2026-05-03T09:27:53.021Z</time></trkpt><trkpt lat="37.6421764" lon="15.0967341"><ele>500.66666666666663</ele><time>2026-05-03T09:27:54.021Z</time></trkpt><trkpt lat="37.6421227" lon="15.0968297"><ele>500.5</ele><time>2026-05-03T09:27:55.021Z</time></trkpt><trkpt lat="37.6420687" lon="15.0969115"><ele>500.3333333333333</ele><time>2026-05-03T09:27:56.021Z</time></trkpt><trkpt lat="37.6420176" lon="15.0969942"><ele>500.16666666666663</ele><time>2026-05-03T09:27:57.022Z</time></trkpt><trkpt lat="37.6419723" lon="15.0970873"><ele>500.0</ele><time>2026-05-03T09:27:58.021Z</time></trkpt><trkpt lat="37.6419302" lon="15.0971787"><ele>499.49999999999994</ele><time>2026-05-03T09:27:59.021Z</time></trkpt><trkpt lat="37.6418836" lon="15.0972693"><ele>499.0</ele><time>2026-05-03T09:28:00.02Z</time></trkpt><trkpt lat="37.6418347" lon="15.0973424"><ele>498.5</ele><time>2026-05-03T09:28:01.022Z</time></trkpt><trkpt lat="37.6417905" lon="15.0974248"><ele>498.0</ele><time>2026-05-03T09:28:02.022Z</time></trkpt><trkpt lat="37.6417532" lon="15.0974997"><ele>497.49999999999994</ele><time>2026-05-03T09:28:03.02Z</time></trkpt><trkpt lat="37.6417098" lon="15.0975782"><ele>497.0</ele><time>2026-05-03T09:28:04.021Z</time></trkpt><trkpt lat="37.6416662" lon="15.0976576"><ele>496.66666666666663</ele><time>2026-05-03T09:28:05.021Z</time></trkpt><trkpt lat="37.6416258" lon="15.0977441"><ele>496.3333333333333</ele><time>2026-05-03T09:28:06.021Z</time></trkpt><trkpt lat="37.6415857" lon="15.0978375"><ele>496.0</ele><time>2026-05-03T09:28:07.021Z</time></trkpt><trkpt lat="37.641544" lon="15.0979263"><ele>495.66666666666663</ele><time>2026-05-03T09:28:08.022Z</time></trkpt><trkpt lat="37.6414913" lon="15.0980075"><ele>495.3333333333333</ele><time>2026-05-03T09:28:09.02Z</time></trkpt><trkpt lat="37.6414378" lon="15.0980877"><ele>495.0</ele><time>2026-05-03T09:28:10.02Z</time></trkpt><trkpt lat="37.6413928" lon="15.0981677"><ele>494.3333333333333</ele><time>2026-05-03T09:28:11.02Z</time></trkpt><trkpt lat="37.6413459" lon="15.0982563"><ele>493.66666666666663</ele><time>2026-05-03T09:28:12.021Z</time></trkpt><trkpt lat="37.6413048" lon="15.0983462"><ele>493.0</ele><time>2026-05-03T09:28:13.021Z</time></trkpt><trkpt lat="37.6412645" lon="15.0984377"><ele>492.3333333333333</ele><time>2026-05-03T09:28:14.022Z</time></trkpt><trkpt lat="37.6412234" lon="15.0985239"><ele>491.66666666666663</ele><time>2026-05-03T09:28:15.021Z</time></trkpt><trkpt lat="37.6411802" lon="15.0986116"><ele>491.0</ele><time>2026-05-03T09:28:16.021Z</time></trkpt><trkpt lat="37.6411504" lon="15.098715"><ele>490.99999999999994</ele><time>2026-05-03T09:28:17.021Z</time></trkpt><trkpt lat="37.6411382" lon="15.0988185"><ele>491.0</ele><time>2026-05-03T09:28:18.02Z</time></trkpt><trkpt lat="37.6411432" lon="15.0989293"><ele>491.0</ele><time>2026-05-03T09:28:19.02Z</time></trkpt><trkpt lat="37.6411637" lon="15.0990402"><ele>491.0</ele><time>2026-05-03T09:28:20.021Z</time></trkpt><trkpt lat="37.641194" lon="15.0991471"><ele>490.99999999999994</ele><time>2026-05-03T09:28:21.02Z</time></trkpt><trkpt lat="37.6412342" lon="15.0992448"><ele>491.0</ele><time>2026-05-03T09:28:22.022Z</time></trkpt><trkpt lat="37.6412711" lon="15.09934"><ele>490.16666666666663</ele><time>2026-05-03T09:28:23.022Z</time></trkpt><trkpt lat="37.6413134" lon="15.099435"><ele>489.3333333333333</ele><time>2026-05-03T09:28:24.021Z</time></trkpt><trkpt lat="37.6413552" lon="15.0995226"><ele>488.5</ele><time>2026-05-03T09:28:25.022Z</time></trkpt><trkpt lat="37.641397" lon="15.0996095"><ele>487.66666666666663</ele><time>2026-05-03T09:28:26.021Z</time></trkpt><trkpt lat="37.641438" lon="15.0996956"><ele>486.8333333333333</ele><time>2026-05-03T09:28:27.02Z</time></trkpt><trkpt lat="37.6414742" lon="15.0997828"><ele>486.0</ele><time>2026-05-03T09:28:28.021Z</time></trkpt><trkpt lat="37.6414937" lon="15.0998724"><ele>485.3333333333333</ele><time>2026-05-03T09:28:29.021Z</time></trkpt><trkpt lat="37.6414963" lon="15.0999622"><ele>484.66666666666663</ele><time>2026-05-03T09:28:30.022Z</time></trkpt><trkpt lat="37.641473" lon="15.1000455"><ele>484.0</ele><time>2026-05-03T09:28:31.022Z</time></trkpt><trkpt lat="37.6414352" lon="15.1001149"><ele>483.3333333333333</ele><time>2026-05-03T09:28:32.022Z</time></trkpt><trkpt lat="37.6413756" lon="15.1001752"><ele>482.66666666666663</ele><time>2026-05-03T09:28:33.022Z</time></trkpt><trkpt lat="37.6413058" lon="15.1002455"><ele>482.0</ele><time>2026-05-03T09:28:34.021Z</time></trkpt><trkpt lat="37.6412281" lon="15.1003063"><ele>481.99999999999994</ele><time>2026-05-03T09:28:35.021Z</time></trkpt><trkpt lat="37.6411516" lon="15.1003501"><ele>482.0</ele><time>2026-05-03T09:28:36.021Z</time></trkpt><trkpt lat="37.6410626" lon="15.1003838"><ele>482.0</ele><time>2026-05-03T09:28:37.021Z</time></trkpt><trkpt lat="37.6409764" lon="15.1004218"><ele>482.0</ele><time>2026-05-03T09:28:38.021Z</time></trkpt><trkpt lat="37.6408923" lon="15.1004588"><ele>481.99999999999994</ele><time>2026-05-03T09:28:39.022Z</time></trkpt><trkpt lat="37.6408078" lon="15.1004898"><ele>482.0</ele><time>2026-05-03T09:28:40.021Z</time></trkpt><trkpt lat="37.6407251" lon="15.1005115"><ele>481.16666666666663</ele><time>2026-05-03T09:28:41.022Z</time></trkpt><trkpt lat="37.6406419" lon="15.1005423"><ele>480.3333333333333</ele><time>2026-05-03T09:28:42.021Z</time></trkpt><trkpt lat="37.6405679" lon="15.1005763"><ele>479.5</ele><time>2026-05-03T09:28:43.022Z</time></trkpt><trkpt lat="37.6404862" lon="15.1006054"><ele>478.66666666666663</ele><time>2026-05-03T09:28:44.022Z</time></trkpt><trkpt lat="37.6404088" lon="15.1006316"><ele>477.8333333333333</ele><time>2026-05-03T09:28:45.021Z</time></trkpt><trkpt lat="37.640321" lon="15.1006609"><ele>477.0</ele><time>2026-05-03T09:28:46.021Z</time></trkpt><trkpt lat="37.6402404" lon="15.1006868"><ele>475.5</ele><time>2026-05-03T09:28:47.021Z</time></trkpt><trkpt lat="37.6401642" lon="15.1007102"><ele>474.0</ele><time>2026-05-03T09:28:48.02Z</time></trkpt><trkpt lat="37.6400931" lon="15.1007319"><ele>472.5</ele><time>2026-05-03T09:28:49.021Z</time></trkpt><trkpt lat="37.6400193" lon="15.1007505"><ele>471.0</ele><time>2026-05-03T09:28:50.021Z</time></trkpt><trkpt lat="37.6399398" lon="15.1007867"><ele>469.5</ele><time>2026-05-03T09:28:51.02Z</time></trkpt><trkpt lat="37.6398506" lon="15.1008241"><ele>468.0</ele><time>2026-05-03T09:28:52.02Z</time></trkpt><trkpt lat="37.6397554" lon="15.1008665"><ele>467.4</ele><time>2026-05-03T09:28:53.021Z</time></trkpt><trkpt lat="37.639654" lon="15.1009076"><ele>466.79999999999995</ele><time>2026-05-03T09:28:54.021Z</time></trkpt><trkpt lat="37.6395585" lon="15.1009517"><ele>466.2</ele><time>2026-05-03T09:28:55.022Z</time></trkpt><trkpt lat="37.6394705" lon="15.1009988"><ele>465.6</ele><time>2026-05-03T09:28:56.022Z</time></trkpt><trkpt lat="37.639385" lon="15.1010483"><ele>465.0</ele><time>2026-05-03T09:28:57.02Z</time></trkpt><trkpt lat="37.6393066" lon="15.1010919"><ele>463.6666666666667</ele><time>2026-05-03T09:28:58.022Z</time></trkpt><trkpt lat="37.6392274" lon="15.1011248"><ele>462.33333333333337</ele><time>2026-05-03T09:28:59.022Z</time></trkpt><trkpt lat="37.6391462" lon="15.1011725"><ele>461.0</ele><time>2026-05-03T09:29:00.021Z</time></trkpt><trkpt lat="37.6390704" lon="15.1012201"><ele>459.6666666666667</ele><time>2026-05-03T09:29:01.022Z</time></trkpt><trkpt lat="37.6389935" lon="15.1012732"><ele>458.33333333333337</ele><time>2026-05-03T09:29:02.021Z</time></trkpt><trkpt lat="37.6389159" lon="15.101325"><ele>457.0</ele><time>2026-05-03T09:29:03.021Z</time></trkpt><trkpt lat="37.6388432" lon="15.1013831"><ele>457.00000000000006</ele><time>2026-05-03T09:29:04.021Z</time></trkpt><trkpt lat="37.6387712" lon="15.1014376"><ele>457.0</ele><time>2026-05-03T09:29:05.021Z</time></trkpt><trkpt lat="37.6386951" lon="15.1014805"><ele>457.0</ele><time>2026-05-03T09:29:06.02Z</time></trkpt><trkpt lat="37.638627" lon="15.1015212"><ele>457.0</ele><time>2026-05-03T09:29:07.021Z</time></trkpt><trkpt lat="37.6385503" lon="15.1015409"><ele>457.00000000000006</ele><time>2026-05-03T09:29:08.021Z</time></trkpt><trkpt lat="37.6384675" lon="15.1015383"><ele>457.0</ele><time>2026-05-03T09:29:09.021Z</time></trkpt><trkpt lat="37.6383845" lon="15.1015293"><ele>456.33333333333337</ele><time>2026-05-03T09:29:10.021Z</time></trkpt><trkpt lat="37.6383083" lon="15.101514"><ele>455.6666666666667</ele><time>2026-05-03T09:29:11.022Z</time></trkpt><trkpt lat="37.6382328" lon="15.1014888"><ele>455.0</ele><time>2026-05-03T09:29:12.021Z</time></trkpt><trkpt lat="37.638166" lon="15.1014516"><ele>454.33333333333337</ele><time>2026-05-03T09:29:13.021Z</time></trkpt><trkpt lat="37.6381005" lon="15.1014205"><ele>453.6666666666667</ele><time>2026-05-03T09:29:14.019Z</time></trkpt><trkpt lat="37.6379841" lon="15.1013847"><ele>453.0</ele><time>2026-05-03T09:29:16.021Z</time></trkpt><trkpt lat="37.6378896" lon="15.101479"><ele>453.0</ele><time>2026-05-03T09:29:18.021Z</time></trkpt><trkpt lat="37.6378494" lon="15.1015481"><ele>453.0</ele><time>2026-05-03T09:29:19.022Z</time></trkpt><trkpt lat="37.6377983" lon="15.1016444"><ele>453.0</ele><time>2026-05-03T09:29:20.021Z</time></trkpt><trkpt lat="37.637751" lon="15.1017256"><ele>453.0</ele><time>2026-05-03T09:29:21.022Z</time></trkpt><trkpt lat="37.6377087" lon="15.1018083"><ele>453.0</ele><time>2026-05-03T09:29:22.022Z</time></trkpt><trkpt lat="37.6376605" lon="15.1018819"><ele>453.0</ele><time>2026-05-03T09:29:23.022Z</time></trkpt><trkpt lat="37.6376101" lon="15.1019542"><ele>452.3333333333333</ele><time>2026-05-03T09:29:24.02Z</time></trkpt><trkpt lat="37.6375552" lon="15.1020152"><ele>451.66666666666663</ele><time>2026-05-03T09:29:25.022Z</time></trkpt><trkpt lat="37.6374894" lon="15.1020698"><ele>451.0</ele><time>2026-05-03T09:29:26.022Z</time></trkpt><trkpt lat="37.6374215" lon="15.1021122"><ele>450.3333333333333</ele><time>2026-05-03T09:29:27.021Z</time></trkpt><trkpt lat="37.637346" lon="15.1021701"><ele>449.66666666666663</ele><time>2026-05-03T09:29:28.021Z</time></trkpt><trkpt lat="37.6372662" lon="15.1022186"><ele>449.0</ele><time>2026-05-03T09:29:29.021Z</time></trkpt><trkpt lat="37.6371872" lon="15.1022681"><ele>448.99999999999994</ele><time>2026-05-03T09:29:30.021Z</time></trkpt><trkpt lat="37.6371114" lon="15.1023249"><ele>449.0</ele><time>2026-05-03T09:29:31.022Z</time></trkpt><trkpt lat="37.637041" lon="15.1023825"><ele>449.0</ele><time>2026-05-03T09:29:32.02Z</time></trkpt><trkpt lat="37.6369684" lon="15.1024313"><ele>449.0</ele><time>2026-05-03T09:29:33.021Z</time></trkpt><trkpt lat="37.636897" lon="15.1024918"><ele>448.99999999999994</ele><time>2026-05-03T09:29:34.021Z</time></trkpt><trkpt lat="37.6368214" lon="15.1025462"><ele>449.0</ele><time>2026-05-03T09:29:35.022Z</time></trkpt><trkpt lat="37.6367488" lon="15.1025963"><ele>447.66666666666663</ele><time>2026-05-03T09:29:36.021Z</time></trkpt><trkpt lat="37.6366795" lon="15.1026484"><ele>446.3333333333333</ele><time>2026-05-03T09:29:37.022Z</time></trkpt><trkpt lat="37.6366111" lon="15.1027089"><ele>445.0</ele><time>2026-05-03T09:29:38.021Z</time></trkpt><trkpt lat="37.6365476" lon="15.1027647"><ele>443.66666666666663</ele><time>2026-05-03T09:29:39.022Z</time></trkpt><trkpt lat="37.6364818" lon="15.102826"><ele>442.3333333333333</ele><time>2026-05-03T09:29:40.02Z</time></trkpt><trkpt lat="37.6364219" lon="15.1028812"><ele>441.0</ele><time>2026-05-03T09:29:41.022Z</time></trkpt><trkpt lat="37.6363599" lon="15.1029371"><ele>441.0</ele><time>2026-05-03T09:29:42.022Z</time></trkpt><trkpt lat="37.6363006" lon="15.1029998"><ele>441.0</ele><time>2026-05-03T09:29:43.02Z</time></trkpt><trkpt lat="37.636243" lon="15.1030589"><ele>441.0</ele><time>2026-05-03T09:29:44.022Z</time></trkpt><trkpt lat="37.6361823" lon="15.1031171"><ele>441.0</ele><time>2026-05-03T09:29:45.021Z</time></trkpt><trkpt lat="37.6361234" lon="15.1031747"><ele>441.0</ele><time>2026-05-03T09:29:46.02Z</time></trkpt><trkpt lat="37.6360678" lon="15.1032266"><ele>441.0</ele><time>2026-05-03T09:29:47.021Z</time></trkpt><trkpt lat="37.6360083" lon="15.1032914"><ele>440.0</ele><time>2026-05-03T09:29:48.021Z</time></trkpt><trkpt lat="37.6359421" lon="15.1033346"><ele>439.0</ele><time>2026-05-03T09:29:49.022Z</time></trkpt><trkpt lat="37.6358748" lon="15.1033866"><ele>438.0</ele><time>2026-05-03T09:29:50.021Z</time></trkpt><trkpt lat="37.6358081" lon="15.1034315"><ele>437.0</ele><time>2026-05-03T09:29:51.021Z</time></trkpt><trkpt lat="37.6357386" lon="15.1034713"><ele>436.0</ele><time>2026-05-03T09:29:52.021Z</time></trkpt><trkpt lat="37.6356685" lon="15.1035033"><ele>435.0</ele><time>2026-05-03T09:29:53.021Z</time></trkpt><trkpt lat="37.6356067" lon="15.1035255"><ele>434.0</ele><time>2026-05-03T09:29:54.022Z</time></trkpt><trkpt lat="37.6355343" lon="15.1035168"><ele>433.99999999999994</ele><time>2026-05-03T09:29:55.022Z</time></trkpt><trkpt lat="37.6354596" lon="15.1035033"><ele>434.0</ele><time>2026-05-03T09:29:56.021Z</time></trkpt><trkpt lat="37.6353857" lon="15.1034943"><ele>434.0</ele><time>2026-05-03T09:29:57.022Z</time></trkpt><trkpt lat="37.6353072" lon="15.1035023"><ele>434.0</ele><time>2026-05-03T09:29:58.021Z</time></trkpt><trkpt lat="37.6352297" lon="15.1035415"><ele>433.99999999999994</ele><time>2026-05-03T09:29:59.022Z</time></trkpt><trkpt lat="37.6351555" lon="15.103595"><ele>434.0</ele><time>2026-05-03T09:30:00.02Z</time></trkpt><trkpt lat="37.6350811" lon="15.1036668"><ele>433.16666666666663</ele><time>2026-05-03T09:30:01.022Z</time></trkpt><trkpt lat="37.6350161" lon="15.1037411"><ele>432.3333333333333</ele><time>2026-05-03T09:30:02.022Z</time></trkpt><trkpt lat="37.6349512" lon="15.1038034"><ele>431.5</ele><time>2026-05-03T09:30:03.022Z</time></trkpt><trkpt lat="37.6348874" lon="15.1038773"><ele>430.66666666666663</ele><time>2026-05-03T09:30:04.022Z</time></trkpt><trkpt lat="37.6348344" lon="15.1039477"><ele>429.8333333333333</ele><time>2026-05-03T09:30:05.022Z</time></trkpt><trkpt lat="37.634781" lon="15.104011"><ele>429.0</ele><time>2026-05-03T09:30:06.02Z</time></trkpt><trkpt lat="37.6347252" lon="15.1040848"><ele>428.2857142857143</ele><time>2026-05-03T09:30:07.022Z</time></trkpt><trkpt lat="37.6346711" lon="15.1041334"><ele>427.57142857142856</ele><time>2026-05-03T09:30:08.021Z</time></trkpt><trkpt lat="37.6346174" lon="15.1042022"><ele>426.8571428571429</ele><time>2026-05-03T09:30:09.02Z</time></trkpt><trkpt lat="37.6345695" lon="15.1042758"><ele>426.1428571428571</ele><time>2026-05-03T09:30:10.022Z</time></trkpt><trkpt lat="37.6345143" lon="15.1043476"><ele>425.4285714285714</ele><time>2026-05-03T09:30:11.021Z</time></trkpt><trkpt lat="37.6344558" lon="15.1044123"><ele>424.7142857142857</ele><time>2026-05-03T09:30:12.021Z</time></trkpt><trkpt lat="37.6344086" lon="15.1044764"><ele>424.0</ele><time>2026-05-03T09:30:13.021Z</time></trkpt><trkpt lat="37.6343566" lon="15.1045379"><ele>421.6</ele><time>2026-05-03T09:30:14.021Z</time></trkpt><trkpt lat="37.6342571" lon="15.1046534"><ele>419.2</ele><time>2026-05-03T09:30:16.022Z</time></trkpt><trkpt lat="37.6342023" lon="15.1047104"><ele>416.8</ele><time>2026-05-03T09:30:17.021Z</time></trkpt><trkpt lat="37.6340964" lon="15.104803"><ele>414.40000000000003</ele><time>2026-05-03T09:30:19.021Z</time></trkpt><trkpt lat="37.6340417" lon="15.1048607"><ele>412.0</ele><time>2026-05-03T09:30:20.02Z</time></trkpt><trkpt lat="37.6339886" lon="15.1049042"><ele>411.4285714285714</ele><time>2026-05-03T09:30:21.02Z</time></trkpt><trkpt lat="37.6339283" lon="15.1049549"><ele>410.85714285714283</ele><time>2026-05-03T09:30:22.021Z</time></trkpt><trkpt lat="37.6338687" lon="15.1049945"><ele>410.2857142857143</ele><time>2026-05-03T09:30:23.022Z</time></trkpt><trkpt lat="37.633814" lon="15.1050382"><ele>409.71428571428567</ele><time>2026-05-03T09:30:24.022Z</time></trkpt><trkpt lat="37.6337555" lon="15.1050855"><ele>409.14285714285717</ele><time>2026-05-03T09:30:25.021Z</time></trkpt><trkpt lat="37.6336972" lon="15.1051303"><ele>408.57142857142856</ele><time>2026-05-03T09:30:26.022Z</time></trkpt><trkpt lat="37.6336403" lon="15.1051753"><ele>408.0</ele><time>2026-05-03T09:30:27.022Z</time></trkpt><trkpt lat="37.6335841" lon="15.1052155"><ele>406.79999999999995</ele><time>2026-05-03T09:30:28.021Z</time></trkpt><trkpt lat="37.6334722" lon="15.1052755"><ele>405.6</ele><time>2026-05-03T09:30:30.022Z</time></trkpt><trkpt lat="37.6333495" lon="15.1052951"><ele>404.4</ele><time>2026-05-03T09:30:32.021Z</time></trkpt><trkpt lat="37.6332823" lon="15.1052961"><ele>403.20000000000005</ele><time>2026-05-03T09:30:33.022Z</time></trkpt><trkpt lat="37.6331477" lon="15.1052819"><ele>402.0</ele><time>2026-05-03T09:30:35.022Z</time></trkpt><trkpt lat="37.633079" lon="15.1052779"><ele>402.0</ele><time>2026-05-03T09:30:36.021Z</time></trkpt><trkpt lat="37.6330022" lon="15.1052759"><ele>402.0</ele><time>2026-05-03T09:30:37.021Z</time></trkpt><trkpt lat="37.632925" lon="15.1052752"><ele>402.0</ele><time>2026-05-03T09:30:38.022Z</time></trkpt><trkpt lat="37.6328579" lon="15.1052901"><ele>402.0</ele><time>2026-05-03T09:30:39.022Z</time></trkpt><trkpt lat="37.6327807" lon="15.1052992"><ele>402.0</ele><time>2026-05-03T09:30:40.022Z</time></trkpt><trkpt lat="37.6326998" lon="15.1053139"><ele>402.0</ele><time>2026-05-03T09:30:41.022Z</time></trkpt><trkpt lat="37.6326236" lon="15.1053249"><ele>401.1428571428571</ele><time>2026-05-03T09:30:42.02Z</time></trkpt><trkpt lat="37.6325528" lon="15.1053486"><ele>400.28571428571433</ele><time>2026-05-03T09:30:43.022Z</time></trkpt><trkpt lat="37.6324875" lon="15.1053841"><ele>399.42857142857144</ele><time>2026-05-03T09:30:44.021Z</time></trkpt><trkpt lat="37.6324224" lon="15.1054169"><ele>398.57142857142856</ele><time>2026-05-03T09:30:45.022Z</time></trkpt><trkpt lat="37.63236" lon="15.1054439"><ele>397.71428571428567</ele><time>2026-05-03T09:30:46.021Z</time></trkpt><trkpt lat="37.6323027" lon="15.1054773"><ele>396.8571428571429</ele><time>2026-05-03T09:30:47.022Z</time></trkpt><trkpt lat="37.6322335" lon="15.1055161"><ele>396.0</ele><time>2026-05-03T09:30:48.021Z</time></trkpt><trkpt lat="37.6321706" lon="15.105559"><ele>396.0</ele><time>2026-05-03T09:30:49.021Z</time></trkpt><trkpt lat="37.6321088" lon="15.105592"><ele>396.0</ele><time>2026-05-03T09:30:50.022Z</time></trkpt><trkpt lat="37.6320515" lon="15.1056343"><ele>396.0</ele><time>2026-05-03T09:30:51.021Z</time></trkpt><trkpt lat="37.6319884" lon="15.1056758"><ele>396.0</ele><time>2026-05-03T09:30:52.021Z</time></trkpt><trkpt lat="37.6319296" lon="15.1057179"><ele>396.0</ele><time>2026-05-03T09:30:53.021Z</time></trkpt><trkpt lat="37.6318675" lon="15.1057609"><ele>396.0</ele><time>2026-05-03T09:30:54.02Z</time></trkpt><trkpt lat="37.6318099" lon="15.1057947"><ele>396.0</ele><time>2026-05-03T09:30:55.021Z</time></trkpt><trkpt lat="37.6317549" lon="15.1058408"><ele>394.8</ele><time>2026-05-03T09:30:56.021Z</time></trkpt><trkpt lat="37.6316459" lon="15.105915"><ele>393.6</ele><time>2026-05-03T09:30:58.022Z</time></trkpt><trkpt lat="37.6315909" lon="15.1059591"><ele>392.4</ele><time>2026-05-03T09:30:59.021Z</time></trkpt><trkpt lat="37.6314916" lon="15.1060326"><ele>391.2</ele><time>2026-05-03T09:31:01.022Z</time></trkpt><trkpt lat="37.6313977" lon="15.1061201"><ele>390.0</ele><time>2026-05-03T09:31:03.022Z</time></trkpt><trkpt lat="37.6313049" lon="15.1061424"><ele>390.0</ele><time>2026-05-03T09:31:05.022Z</time></trkpt><trkpt lat="37.6312423" lon="15.1060683"><ele>390.0</ele><time>2026-05-03T09:31:07.021Z</time></trkpt><trkpt lat="37.6312081" lon="15.1059594"><ele>390.0</ele><time>2026-05-03T09:31:09.02Z</time></trkpt><trkpt lat="37.6311655" lon="15.1058583"><ele>390.0</ele><time>2026-05-03T09:31:11.02Z</time></trkpt><trkpt lat="37.6311386" lon="15.1057542"><ele>390.0</ele><time>2026-05-03T09:31:13.02Z</time></trkpt><trkpt lat="37.6311524" lon="15.1056392"><ele>390.0</ele><time>2026-05-03T09:31:15.022Z</time></trkpt><trkpt lat="37.6311872" lon="15.1055313"><ele>391.0</ele><time>2026-05-03T09:31:17.022Z</time></trkpt><trkpt lat="37.6312344" lon="15.1054237"><ele>392.0</ele><time>2026-05-03T09:31:19.022Z</time></trkpt><trkpt lat="37.6312729" lon="15.1053017"><ele>393.0</ele><time>2026-05-03T09:31:21.021Z</time></trkpt><trkpt lat="37.6313316" lon="15.1051691"><ele>394.0</ele><time>2026-05-03T09:31:23.022Z</time></trkpt><trkpt lat="37.6313871" lon="15.1050541"><ele>395.0</ele><time>2026-05-03T09:31:25.022Z</time></trkpt><trkpt lat="37.6314419" lon="15.1049504"><ele>395.49999999999994</ele><time>2026-05-03T09:31:27.022Z</time></trkpt><trkpt lat="37.6314812" lon="15.1048612"><ele>396.0</ele><time>2026-05-03T09:31:29.022Z</time></trkpt><trkpt lat="37.6314867" lon="15.1047733"><ele>396.5</ele><time>2026-05-03T09:32:05.021Z</time></trkpt><trkpt lat="37.6315026" lon="15.1046846"><ele>397.0</ele><time>2026-05-03T09:32:09.022Z</time></trkpt><trkpt lat="37.6315335" lon="15.1045875"><ele>397.49999999999994</ele><time>2026-05-03T09:32:11.022Z</time></trkpt><trkpt lat="37.6315467" lon="15.1044736"><ele>398.0</ele><time>2026-05-03T09:32:13.022Z</time></trkpt><trkpt lat="37.6315617" lon="15.1043612"><ele>398.0</ele><time>2026-05-03T09:32:15.021Z</time></trkpt><trkpt lat="37.631572" lon="15.1042431"><ele>398.0</ele><time>2026-05-03T09:32:17.021Z</time></trkpt><trkpt lat="37.6315979" lon="15.1041163"><ele>398.0</ele><time>2026-05-03T09:32:19.022Z</time></trkpt><trkpt lat="37.6316067" lon="15.1039753"><ele>398.0</ele><time>2026-05-03T09:32:21.021Z</time></trkpt><trkpt lat="37.6316224" lon="15.103834"><ele>398.0</ele><time>2026-05-03T09:32:23.022Z</time></trkpt><trkpt lat="37.6316252" lon="15.1036906"><ele>399.3333333333333</ele><time>2026-05-03T09:32:25.022Z</time></trkpt><trkpt lat="37.6316334" lon="15.1035556"><ele>400.66666666666663</ele><time>2026-05-03T09:32:27.021Z</time></trkpt><trkpt lat="37.6316351" lon="15.1034053"><ele>402.0</ele><time>2026-05-03T09:32:29.021Z</time></trkpt><trkpt lat="37.6316349" lon="15.1033198"><ele>403.33333333333337</ele><time>2026-05-03T09:32:30.021Z</time></trkpt><trkpt lat="37.6316453" lon="15.1032237"><ele>404.6666666666667</ele><time>2026-05-03T09:32:31.021Z</time></trkpt><trkpt lat="37.6316495" lon="15.1031387"><ele>406.0</ele><time>2026-05-03T09:32:32.022Z</time></trkpt><trkpt lat="37.6316576" lon="15.1030583"><ele>413.0</ele><time>2026-05-03T09:32:33.02Z</time></trkpt><trkpt lat="37.6316633" lon="15.1029265"><ele>413.0</ele><time>2026-05-03T09:32:35.02Z</time></trkpt><trkpt lat="37.6316426" lon="15.1028494"><ele>413.0</ele><time>2026-05-03T09:32:37.022Z</time></trkpt><trkpt lat="37.6316156" lon="15.1027736"><ele>413.0</ele><time>2026-05-03T09:33:16.022Z</time></trkpt></trkseg></trk></gpx>